<?xml version="1.0" encoding="UTF-8" standalone="no" ?>
<gpx xmlns="http://www.topografix.com/GPX/1/1" xmlns:xsi="http://www.w3.org/2001/XMLSchema-instance" xsi:schemaLocation="http://www.topografix.com/GPX/1/1 http://www.topografix.com/GPX/1/1/gpx.xsd" version="1.1" creator="VisuGPX - https://www.visugpx.com">
  <metadata>
    <name>Trans'Yvelines 2016. Jour 1 : Verneuil sur Seine / Septeuil</name>
    <desc><![CDATA[Départ de la base de loisir de Verneuil sur Seine. de beaux chemin malgré quelques passages délicats à cause des inondations et pas mal de cailloux !
]]></desc>
  </metadata>
  <trk>
    <name><![CDATA[Trans'Yveline Verneuil=> Septeuil]]></name>
    <trkseg>
      <trkpt lat="48.99836" lon="1.95824">
        <ele>24.651</ele>
        <time>2016-06-10T07:53:33Z</time>
      </trkpt>
      <trkpt lat="48.99838" lon="1.95825">
        <ele>24.1703</ele>
        <time>2016-06-10T07:53:36Z</time>
      </trkpt>
      <trkpt lat="48.99845" lon="1.95836">
        <ele>24.1703</ele>
        <time>2016-06-10T07:53:43Z</time>
      </trkpt>
      <trkpt lat="48.99854" lon="1.95843">
        <ele>23.6896</ele>
        <time>2016-06-10T07:53:50Z</time>
      </trkpt>
      <trkpt lat="48.99859" lon="1.95843">
        <ele>24.651</ele>
        <time>2016-06-10T07:53:54Z</time>
      </trkpt>
      <trkpt lat="48.99862" lon="1.95848">
        <ele>24.651</ele>
        <time>2016-06-10T07:53:58Z</time>
      </trkpt>
      <trkpt lat="48.99866" lon="1.95869">
        <ele>24.651</ele>
        <time>2016-06-10T07:54:08Z</time>
      </trkpt>
      <trkpt lat="48.99871" lon="1.95884">
        <ele>23.6896</ele>
        <time>2016-06-10T07:54:16Z</time>
      </trkpt>
      <trkpt lat="48.99882" lon="1.95897">
        <ele>24.1703</ele>
        <time>2016-06-10T07:54:26Z</time>
      </trkpt>
      <trkpt lat="48.99891" lon="1.95907">
        <ele>23.6896</ele>
        <time>2016-06-10T07:54:34Z</time>
      </trkpt>
      <trkpt lat="48.99898" lon="1.95916">
        <ele>24.1703</ele>
        <time>2016-06-10T07:54:41Z</time>
      </trkpt>
      <trkpt lat="48.99906" lon="1.95927">
        <ele>22.7283</ele>
        <time>2016-06-10T07:54:50Z</time>
      </trkpt>
      <trkpt lat="48.99909" lon="1.95938">
        <ele>20.325</ele>
        <time>2016-06-10T07:54:56Z</time>
      </trkpt>
      <trkpt lat="48.99911" lon="1.95955">
        <ele>21.2864</ele>
        <time>2016-06-10T07:55:05Z</time>
      </trkpt>
      <trkpt lat="48.99911" lon="1.95957">
        <ele>21.2864</ele>
        <time>2016-06-10T07:55:06Z</time>
      </trkpt>
      <trkpt lat="48.99915" lon="1.95969">
        <ele>22.2476</ele>
        <time>2016-06-10T07:55:12Z</time>
      </trkpt>
      <trkpt lat="48.99916" lon="1.95979">
        <ele>22.7283</ele>
        <time>2016-06-10T07:55:16Z</time>
      </trkpt>
      <trkpt lat="48.99916" lon="1.95983">
        <ele>23.209</ele>
        <time>2016-06-10T07:55:18Z</time>
      </trkpt>
      <trkpt lat="48.99917" lon="1.95988">
        <ele>24.1703</ele>
        <time>2016-06-10T07:55:20Z</time>
      </trkpt>
      <trkpt lat="48.99919" lon="1.95998">
        <ele>26.5736</ele>
        <time>2016-06-10T07:55:26Z</time>
      </trkpt>
      <trkpt lat="48.9992" lon="1.96">
        <ele>26.5736</ele>
        <time>2016-06-10T07:55:27Z</time>
      </trkpt>
      <trkpt lat="48.99926" lon="1.96011">
        <ele>28.0155</ele>
        <time>2016-06-10T07:55:34Z</time>
      </trkpt>
      <trkpt lat="48.99932" lon="1.96017">
        <ele>28.4962</ele>
        <time>2016-06-10T07:55:39Z</time>
      </trkpt>
      <trkpt lat="48.99935" lon="1.96023">
        <ele>26.5736</ele>
        <time>2016-06-10T07:55:44Z</time>
      </trkpt>
      <trkpt lat="48.99941" lon="1.96033">
        <ele>24.651</ele>
        <time>2016-06-10T07:55:51Z</time>
      </trkpt>
      <trkpt lat="48.99942" lon="1.96035">
        <ele>24.1703</ele>
        <time>2016-06-10T07:55:52Z</time>
      </trkpt>
      <trkpt lat="48.99951" lon="1.96048">
        <ele>23.6896</ele>
        <time>2016-06-10T07:56:00Z</time>
      </trkpt>
      <trkpt lat="48.99958" lon="1.96059">
        <ele>24.651</ele>
        <time>2016-06-10T07:56:06Z</time>
      </trkpt>
      <trkpt lat="48.99963" lon="1.96069">
        <ele>25.6123</ele>
        <time>2016-06-10T07:56:12Z</time>
      </trkpt>
      <trkpt lat="48.99969" lon="1.96078">
        <ele>25.6123</ele>
        <time>2016-06-10T07:56:18Z</time>
      </trkpt>
      <trkpt lat="48.99973" lon="1.96084">
        <ele>26.0929</ele>
        <time>2016-06-10T07:56:24Z</time>
      </trkpt>
      <trkpt lat="48.99977" lon="1.96093">
        <ele>25.6123</ele>
        <time>2016-06-10T07:56:32Z</time>
      </trkpt>
      <trkpt lat="48.99984" lon="1.96105">
        <ele>25.1317</ele>
        <time>2016-06-10T07:56:40Z</time>
      </trkpt>
      <trkpt lat="48.99991" lon="1.96115">
        <ele>26.0929</ele>
        <time>2016-06-10T07:56:46Z</time>
      </trkpt>
      <trkpt lat="48.99996" lon="1.96126">
        <ele>26.0929</ele>
        <time>2016-06-10T07:56:53Z</time>
      </trkpt>
      <trkpt lat="49.00002" lon="1.96137">
        <ele>23.209</ele>
        <time>2016-06-10T07:57:01Z</time>
      </trkpt>
      <trkpt lat="49.00006" lon="1.96142">
        <ele>21.767</ele>
        <time>2016-06-10T07:57:06Z</time>
      </trkpt>
      <trkpt lat="49.00012" lon="1.96146">
        <ele>20.8057</ele>
        <time>2016-06-10T07:57:11Z</time>
      </trkpt>
      <trkpt lat="49.00013" lon="1.96148">
        <ele>20.8057</ele>
        <time>2016-06-10T07:57:13Z</time>
      </trkpt>
      <trkpt lat="49.0002" lon="1.96154">
        <ele>21.2864</ele>
        <time>2016-06-10T07:57:19Z</time>
      </trkpt>
      <trkpt lat="49.00024" lon="1.96157">
        <ele>20.325</ele>
        <time>2016-06-10T07:57:22Z</time>
      </trkpt>
      <trkpt lat="49.00032" lon="1.96168">
        <ele>19.8444</ele>
        <time>2016-06-10T07:57:29Z</time>
      </trkpt>
      <trkpt lat="49.00039" lon="1.96177">
        <ele>20.8057</ele>
        <time>2016-06-10T07:57:36Z</time>
      </trkpt>
      <trkpt lat="49.00047" lon="1.96187">
        <ele>22.2476</ele>
        <time>2016-06-10T07:57:43Z</time>
      </trkpt>
      <trkpt lat="49.00056" lon="1.962">
        <ele>20.8057</ele>
        <time>2016-06-10T07:57:53Z</time>
      </trkpt>
      <trkpt lat="49.00066" lon="1.96214">
        <ele>20.325</ele>
        <time>2016-06-10T07:58:04Z</time>
      </trkpt>
      <trkpt lat="49.00073" lon="1.96223">
        <ele>21.767</ele>
        <time>2016-06-10T07:58:12Z</time>
      </trkpt>
      <trkpt lat="49.00082" lon="1.96225">
        <ele>22.7283</ele>
        <time>2016-06-10T07:58:20Z</time>
      </trkpt>
      <trkpt lat="49.00082" lon="1.96223">
        <ele>23.6896</ele>
        <time>2016-06-10T07:58:25Z</time>
      </trkpt>
      <trkpt lat="49.00075" lon="1.96227">
        <ele>22.2476</ele>
        <time>2016-06-10T07:58:34Z</time>
      </trkpt>
      <trkpt lat="49.00069" lon="1.96224">
        <ele>23.6896</ele>
        <time>2016-06-10T07:58:39Z</time>
      </trkpt>
      <trkpt lat="49.00059" lon="1.96227">
        <ele>24.651</ele>
        <time>2016-06-10T07:58:47Z</time>
      </trkpt>
      <trkpt lat="49.00055" lon="1.96228">
        <ele>24.651</ele>
        <time>2016-06-10T07:58:50Z</time>
      </trkpt>
      <trkpt lat="49.00051" lon="1.96236">
        <ele>25.1317</ele>
        <time>2016-06-10T07:58:56Z</time>
      </trkpt>
      <trkpt lat="49.00055" lon="1.96249">
        <ele>24.651</ele>
        <time>2016-06-10T07:59:03Z</time>
      </trkpt>
      <trkpt lat="49.00058" lon="1.96261">
        <ele>25.1317</ele>
        <time>2016-06-10T07:59:09Z</time>
      </trkpt>
      <trkpt lat="49.00062" lon="1.96271">
        <ele>25.6123</ele>
        <time>2016-06-10T07:59:14Z</time>
      </trkpt>
      <trkpt lat="49.00065" lon="1.96281">
        <ele>25.6123</ele>
        <time>2016-06-10T07:59:19Z</time>
      </trkpt>
      <trkpt lat="49.00066" lon="1.96295">
        <ele>26.0929</ele>
        <time>2016-06-10T07:59:26Z</time>
      </trkpt>
      <trkpt lat="49.00066" lon="1.96307">
        <ele>25.6123</ele>
        <time>2016-06-10T07:59:32Z</time>
      </trkpt>
      <trkpt lat="49.00065" lon="1.96311">
        <ele>26.0929</ele>
        <time>2016-06-10T07:59:34Z</time>
      </trkpt>
      <trkpt lat="49.00066" lon="1.96324">
        <ele>27.0543</ele>
        <time>2016-06-10T07:59:40Z</time>
      </trkpt>
      <trkpt lat="49.00064" lon="1.96334">
        <ele>28.0155</ele>
        <time>2016-06-10T07:59:45Z</time>
      </trkpt>
      <trkpt lat="49.0006" lon="1.96347">
        <ele>29.4575</ele>
        <time>2016-06-10T07:59:52Z</time>
      </trkpt>
      <trkpt lat="49.00058" lon="1.96351">
        <ele>29.4575</ele>
        <time>2016-06-10T07:59:55Z</time>
      </trkpt>
      <trkpt lat="49.00058" lon="1.96355">
        <ele>29.9381</ele>
        <time>2016-06-10T07:59:58Z</time>
      </trkpt>
      <trkpt lat="49.00061" lon="1.96363">
        <ele>30.4188</ele>
        <time>2016-06-10T08:00:04Z</time>
      </trkpt>
      <trkpt lat="49.00062" lon="1.96366">
        <ele>30.4188</ele>
        <time>2016-06-10T08:00:06Z</time>
      </trkpt>
      <trkpt lat="49.00062" lon="1.9637">
        <ele>29.4575</ele>
        <time>2016-06-10T08:00:12Z</time>
      </trkpt>
      <trkpt lat="49.00058" lon="1.96376">
        <ele>27.5349</ele>
        <time>2016-06-10T08:00:17Z</time>
      </trkpt>
      <trkpt lat="49.00052" lon="1.96389">
        <ele>24.1703</ele>
        <time>2016-06-10T08:00:24Z</time>
      </trkpt>
      <trkpt lat="49.00051" lon="1.964">
        <ele>24.1703</ele>
        <time>2016-06-10T08:00:29Z</time>
      </trkpt>
      <trkpt lat="49.00045" lon="1.96412">
        <ele>23.209</ele>
        <time>2016-06-10T08:00:37Z</time>
      </trkpt>
      <trkpt lat="49.0004" lon="1.96426">
        <ele>24.651</ele>
        <time>2016-06-10T08:00:44Z</time>
      </trkpt>
      <trkpt lat="49.00038" lon="1.96428">
        <ele>24.1703</ele>
        <time>2016-06-10T08:00:46Z</time>
      </trkpt>
      <trkpt lat="49.00035" lon="1.96438">
        <ele>24.651</ele>
        <time>2016-06-10T08:00:51Z</time>
      </trkpt>
      <trkpt lat="49.00029" lon="1.9645">
        <ele>25.6123</ele>
        <time>2016-06-10T08:00:57Z</time>
      </trkpt>
      <trkpt lat="49.00026" lon="1.96463">
        <ele>25.6123</ele>
        <time>2016-06-10T08:01:03Z</time>
      </trkpt>
      <trkpt lat="49.00021" lon="1.96475">
        <ele>26.5736</ele>
        <time>2016-06-10T08:01:09Z</time>
      </trkpt>
      <trkpt lat="49.00014" lon="1.96489">
        <ele>25.1317</ele>
        <time>2016-06-10T08:01:17Z</time>
      </trkpt>
      <trkpt lat="49.00008" lon="1.96501">
        <ele>24.651</ele>
        <time>2016-06-10T08:01:24Z</time>
      </trkpt>
      <trkpt lat="49.00001" lon="1.96519">
        <ele>25.6123</ele>
        <time>2016-06-10T08:01:33Z</time>
      </trkpt>
      <trkpt lat="48.99996" lon="1.96529">
        <ele>26.0929</ele>
        <time>2016-06-10T08:01:39Z</time>
      </trkpt>
      <trkpt lat="48.9999" lon="1.96539">
        <ele>25.6123</ele>
        <time>2016-06-10T08:01:45Z</time>
      </trkpt>
      <trkpt lat="48.99984" lon="1.96554">
        <ele>27.5349</ele>
        <time>2016-06-10T08:01:53Z</time>
      </trkpt>
      <trkpt lat="48.99977" lon="1.96566">
        <ele>28.0155</ele>
        <time>2016-06-10T08:02:00Z</time>
      </trkpt>
      <trkpt lat="48.9997" lon="1.96578">
        <ele>29.4575</ele>
        <time>2016-06-10T08:02:07Z</time>
      </trkpt>
      <trkpt lat="48.99966" lon="1.96586">
        <ele>28.4962</ele>
        <time>2016-06-10T08:02:12Z</time>
      </trkpt>
      <trkpt lat="48.99964" lon="1.96589">
        <ele>28.4962</ele>
        <time>2016-06-10T08:02:14Z</time>
      </trkpt>
      <trkpt lat="48.99961" lon="1.96591">
        <ele>27.5349</ele>
        <time>2016-06-10T08:02:16Z</time>
      </trkpt>
      <trkpt lat="48.99959" lon="1.96599">
        <ele>26.5736</ele>
        <time>2016-06-10T08:02:20Z</time>
      </trkpt>
      <trkpt lat="48.99955" lon="1.96609">
        <ele>26.5736</ele>
        <time>2016-06-10T08:02:26Z</time>
      </trkpt>
      <trkpt lat="48.99951" lon="1.9662">
        <ele>24.651</ele>
        <time>2016-06-10T08:02:32Z</time>
      </trkpt>
      <trkpt lat="48.99946" lon="1.96631">
        <ele>25.6123</ele>
        <time>2016-06-10T08:02:38Z</time>
      </trkpt>
      <trkpt lat="48.99943" lon="1.96637">
        <ele>24.651</ele>
        <time>2016-06-10T08:02:41Z</time>
      </trkpt>
      <trkpt lat="48.9994" lon="1.96644">
        <ele>24.651</ele>
        <time>2016-06-10T08:02:45Z</time>
      </trkpt>
      <trkpt lat="48.99933" lon="1.96656">
        <ele>26.0929</ele>
        <time>2016-06-10T08:02:52Z</time>
      </trkpt>
      <trkpt lat="48.99927" lon="1.96665">
        <ele>25.6123</ele>
        <time>2016-06-10T08:02:58Z</time>
      </trkpt>
      <trkpt lat="48.99922" lon="1.96672">
        <ele>23.209</ele>
        <time>2016-06-10T08:03:03Z</time>
      </trkpt>
      <trkpt lat="48.99914" lon="1.96686">
        <ele>20.8057</ele>
        <time>2016-06-10T08:03:11Z</time>
      </trkpt>
      <trkpt lat="48.99913" lon="1.96692">
        <ele>19.3638</ele>
        <time>2016-06-10T08:03:15Z</time>
      </trkpt>
      <trkpt lat="48.99908" lon="1.96704">
        <ele>19.3638</ele>
        <time>2016-06-10T08:03:21Z</time>
      </trkpt>
      <trkpt lat="48.99905" lon="1.96713">
        <ele>19.8444</ele>
        <time>2016-06-10T08:03:26Z</time>
      </trkpt>
      <trkpt lat="48.99905" lon="1.96717">
        <ele>20.325</ele>
        <time>2016-06-10T08:03:28Z</time>
      </trkpt>
      <trkpt lat="48.99899" lon="1.96728">
        <ele>20.8057</ele>
        <time>2016-06-10T08:03:34Z</time>
      </trkpt>
      <trkpt lat="48.99895" lon="1.9674">
        <ele>21.767</ele>
        <time>2016-06-10T08:03:37Z</time>
      </trkpt>
      <trkpt lat="48.99889" lon="1.96753">
        <ele>22.2476</ele>
        <time>2016-06-10T08:03:44Z</time>
      </trkpt>
      <trkpt lat="48.99882" lon="1.9676">
        <ele>20.325</ele>
        <time>2016-06-10T08:03:50Z</time>
      </trkpt>
      <trkpt lat="48.99876" lon="1.96768">
        <ele>19.8444</ele>
        <time>2016-06-10T08:03:55Z</time>
      </trkpt>
      <trkpt lat="48.9987" lon="1.96776">
        <ele>21.767</ele>
        <time>2016-06-10T08:04:01Z</time>
      </trkpt>
      <trkpt lat="48.99862" lon="1.96787">
        <ele>23.209</ele>
        <time>2016-06-10T08:04:09Z</time>
      </trkpt>
      <trkpt lat="48.99854" lon="1.968">
        <ele>25.1317</ele>
        <time>2016-06-10T08:04:17Z</time>
      </trkpt>
      <trkpt lat="48.99848" lon="1.96811">
        <ele>24.1703</ele>
        <time>2016-06-10T08:04:24Z</time>
      </trkpt>
      <trkpt lat="48.99842" lon="1.96825">
        <ele>25.1317</ele>
        <time>2016-06-10T08:04:32Z</time>
      </trkpt>
      <trkpt lat="48.9984" lon="1.96828">
        <ele>25.6123</ele>
        <time>2016-06-10T08:04:34Z</time>
      </trkpt>
      <trkpt lat="48.99834" lon="1.9684">
        <ele>24.651</ele>
        <time>2016-06-10T08:04:40Z</time>
      </trkpt>
      <trkpt lat="48.9983" lon="1.96842">
        <ele>24.651</ele>
        <time>2016-06-10T08:04:42Z</time>
      </trkpt>
      <trkpt lat="48.9983" lon="1.96842">
        <ele>24.651</ele>
        <time>2016-06-10T08:04:42Z</time>
      </trkpt>
      <trkpt lat="48.99825" lon="1.96847">
        <ele>24.651</ele>
        <time>2016-06-10T08:04:46Z</time>
      </trkpt>
      <trkpt lat="48.99821" lon="1.96856">
        <ele>24.1703</ele>
        <time>2016-06-10T08:04:52Z</time>
      </trkpt>
      <trkpt lat="48.99821" lon="1.96858">
        <ele>23.6896</ele>
        <time>2016-06-10T08:04:53Z</time>
      </trkpt>
      <trkpt lat="48.99819" lon="1.9686">
        <ele>23.209</ele>
        <time>2016-06-10T08:04:55Z</time>
      </trkpt>
      <trkpt lat="48.99814" lon="1.9687">
        <ele>20.8057</ele>
        <time>2016-06-10T08:05:01Z</time>
      </trkpt>
      <trkpt lat="48.99808" lon="1.96882">
        <ele>18.4023</ele>
        <time>2016-06-10T08:05:08Z</time>
      </trkpt>
      <trkpt lat="48.99802" lon="1.96897">
        <ele>23.6896</ele>
        <time>2016-06-10T08:05:15Z</time>
      </trkpt>
      <trkpt lat="48.99797" lon="1.96907">
        <ele>22.7283</ele>
        <time>2016-06-10T08:05:22Z</time>
      </trkpt>
      <trkpt lat="48.99795" lon="1.96908">
        <ele>22.7283</ele>
        <time>2016-06-10T08:05:23Z</time>
      </trkpt>
      <trkpt lat="48.99789" lon="1.96917">
        <ele>22.7283</ele>
        <time>2016-06-10T08:05:29Z</time>
      </trkpt>
      <trkpt lat="48.99789" lon="1.96919">
        <ele>22.7283</ele>
        <time>2016-06-10T08:05:30Z</time>
      </trkpt>
      <trkpt lat="48.99786" lon="1.96922">
        <ele>23.209</ele>
        <time>2016-06-10T08:05:35Z</time>
      </trkpt>
      <trkpt lat="48.99785" lon="1.96924">
        <ele>22.2476</ele>
        <time>2016-06-10T08:05:37Z</time>
      </trkpt>
      <trkpt lat="48.99783" lon="1.96935">
        <ele>20.325</ele>
        <time>2016-06-10T08:05:43Z</time>
      </trkpt>
      <trkpt lat="48.9978" lon="1.96946">
        <ele>18.8831</ele>
        <time>2016-06-10T08:05:50Z</time>
      </trkpt>
      <trkpt lat="48.99774" lon="1.96958">
        <ele>17.9218</ele>
        <time>2016-06-10T08:05:57Z</time>
      </trkpt>
      <trkpt lat="48.99767" lon="1.96969">
        <ele>18.4023</ele>
        <time>2016-06-10T08:06:03Z</time>
      </trkpt>
      <trkpt lat="48.99766" lon="1.96971">
        <ele>18.8831</ele>
        <time>2016-06-10T08:06:04Z</time>
      </trkpt>
      <trkpt lat="48.99761" lon="1.96978">
        <ele>19.8444</ele>
        <time>2016-06-10T08:06:08Z</time>
      </trkpt>
      <trkpt lat="48.99757" lon="1.96983">
        <ele>21.767</ele>
        <time>2016-06-10T08:06:12Z</time>
      </trkpt>
      <trkpt lat="48.99751" lon="1.9699">
        <ele>21.767</ele>
        <time>2016-06-10T08:06:18Z</time>
      </trkpt>
      <trkpt lat="48.99749" lon="1.96991">
        <ele>22.7283</ele>
        <time>2016-06-10T08:06:20Z</time>
      </trkpt>
      <trkpt lat="48.99742" lon="1.97002">
        <ele>20.8057</ele>
        <time>2016-06-10T08:06:28Z</time>
      </trkpt>
      <trkpt lat="48.99738" lon="1.97012">
        <ele>23.209</ele>
        <time>2016-06-10T08:06:34Z</time>
      </trkpt>
      <trkpt lat="48.99737" lon="1.97013">
        <ele>23.209</ele>
        <time>2016-06-10T08:06:35Z</time>
      </trkpt>
      <trkpt lat="48.99733" lon="1.97022">
        <ele>24.1703</ele>
        <time>2016-06-10T08:06:40Z</time>
      </trkpt>
      <trkpt lat="48.99726" lon="1.97029">
        <ele>25.1317</ele>
        <time>2016-06-10T08:06:47Z</time>
      </trkpt>
      <trkpt lat="48.9972" lon="1.97039">
        <ele>25.6123</ele>
        <time>2016-06-10T08:06:54Z</time>
      </trkpt>
      <trkpt lat="48.99714" lon="1.97052">
        <ele>26.0929</ele>
        <time>2016-06-10T08:07:03Z</time>
      </trkpt>
      <trkpt lat="48.99708" lon="1.97062">
        <ele>25.1317</ele>
        <time>2016-06-10T08:07:10Z</time>
      </trkpt>
      <trkpt lat="48.997" lon="1.97074">
        <ele>23.209</ele>
        <time>2016-06-10T08:07:18Z</time>
      </trkpt>
      <trkpt lat="48.99693" lon="1.97079">
        <ele>21.767</ele>
        <time>2016-06-10T08:07:23Z</time>
      </trkpt>
      <trkpt lat="48.99689" lon="1.97087">
        <ele>20.8057</ele>
        <time>2016-06-10T08:07:28Z</time>
      </trkpt>
      <trkpt lat="48.99679" lon="1.97104">
        <ele>21.767</ele>
        <time>2016-06-10T08:07:38Z</time>
      </trkpt>
      <trkpt lat="48.99678" lon="1.97105">
        <ele>21.767</ele>
        <time>2016-06-10T08:07:39Z</time>
      </trkpt>
      <trkpt lat="48.99676" lon="1.97118">
        <ele>22.7283</ele>
        <time>2016-06-10T08:07:45Z</time>
      </trkpt>
      <trkpt lat="48.99672" lon="1.97125">
        <ele>23.6896</ele>
        <time>2016-06-10T08:07:50Z</time>
      </trkpt>
      <trkpt lat="48.99667" lon="1.97142">
        <ele>23.209</ele>
        <time>2016-06-10T08:08:00Z</time>
      </trkpt>
      <trkpt lat="48.99661" lon="1.97152">
        <ele>21.767</ele>
        <time>2016-06-10T08:08:07Z</time>
      </trkpt>
      <trkpt lat="48.99657" lon="1.97159">
        <ele>18.4023</ele>
        <time>2016-06-10T08:08:12Z</time>
      </trkpt>
      <trkpt lat="48.99652" lon="1.97167">
        <ele>17.4412</ele>
        <time>2016-06-10T08:08:18Z</time>
      </trkpt>
      <trkpt lat="48.99647" lon="1.97179">
        <ele>18.4023</ele>
        <time>2016-06-10T08:08:25Z</time>
      </trkpt>
      <trkpt lat="48.99641" lon="1.97191">
        <ele>18.8831</ele>
        <time>2016-06-10T08:08:32Z</time>
      </trkpt>
      <trkpt lat="48.99636" lon="1.97202">
        <ele>19.8444</ele>
        <time>2016-06-10T08:08:39Z</time>
      </trkpt>
      <trkpt lat="48.99635" lon="1.97205">
        <ele>21.767</ele>
        <time>2016-06-10T08:08:44Z</time>
      </trkpt>
      <trkpt lat="48.99634" lon="1.97208">
        <ele>22.2476</ele>
        <time>2016-06-10T08:08:55Z</time>
      </trkpt>
      <trkpt lat="48.99635" lon="1.97208">
        <ele>24.651</ele>
        <time>2016-06-10T08:09:04Z</time>
      </trkpt>
      <trkpt lat="48.99634" lon="1.9721">
        <ele>24.1703</ele>
        <time>2016-06-10T08:09:08Z</time>
      </trkpt>
      <trkpt lat="48.99632" lon="1.97221">
        <ele>23.6896</ele>
        <time>2016-06-10T08:09:14Z</time>
      </trkpt>
      <trkpt lat="48.99626" lon="1.97237">
        <ele>23.6896</ele>
        <time>2016-06-10T08:09:24Z</time>
      </trkpt>
      <trkpt lat="48.99619" lon="1.97247">
        <ele>23.209</ele>
        <time>2016-06-10T08:09:31Z</time>
      </trkpt>
      <trkpt lat="48.99612" lon="1.97255">
        <ele>23.209</ele>
        <time>2016-06-10T08:09:37Z</time>
      </trkpt>
      <trkpt lat="48.99606" lon="1.97262">
        <ele>21.767</ele>
        <time>2016-06-10T08:09:43Z</time>
      </trkpt>
      <trkpt lat="48.99599" lon="1.97275">
        <ele>20.325</ele>
        <time>2016-06-10T08:09:51Z</time>
      </trkpt>
      <trkpt lat="48.99591" lon="1.97286">
        <ele>21.767</ele>
        <time>2016-06-10T08:10:00Z</time>
      </trkpt>
      <trkpt lat="48.9959" lon="1.97287">
        <ele>22.7283</ele>
        <time>2016-06-10T08:10:01Z</time>
      </trkpt>
      <trkpt lat="48.99586" lon="1.97294">
        <ele>22.7283</ele>
        <time>2016-06-10T08:10:05Z</time>
      </trkpt>
      <trkpt lat="48.99576" lon="1.97309">
        <ele>23.209</ele>
        <time>2016-06-10T08:10:15Z</time>
      </trkpt>
      <trkpt lat="48.99569" lon="1.97317">
        <ele>22.7283</ele>
        <time>2016-06-10T08:10:21Z</time>
      </trkpt>
      <trkpt lat="48.99567" lon="1.97322">
        <ele>21.767</ele>
        <time>2016-06-10T08:10:24Z</time>
      </trkpt>
      <trkpt lat="48.99562" lon="1.97331">
        <ele>20.8057</ele>
        <time>2016-06-10T08:10:31Z</time>
      </trkpt>
      <trkpt lat="48.99554" lon="1.97342">
        <ele>21.2864</ele>
        <time>2016-06-10T08:10:40Z</time>
      </trkpt>
      <trkpt lat="48.99548" lon="1.97353">
        <ele>19.8444</ele>
        <time>2016-06-10T08:10:48Z</time>
      </trkpt>
      <trkpt lat="48.99541" lon="1.97366">
        <ele>19.8444</ele>
        <time>2016-06-10T08:10:56Z</time>
      </trkpt>
      <trkpt lat="48.99537" lon="1.9738">
        <ele>20.8057</ele>
        <time>2016-06-10T08:11:03Z</time>
      </trkpt>
      <trkpt lat="48.99531" lon="1.97391">
        <ele>24.1703</ele>
        <time>2016-06-10T08:11:10Z</time>
      </trkpt>
      <trkpt lat="48.99523" lon="1.97399">
        <ele>25.6123</ele>
        <time>2016-06-10T08:11:17Z</time>
      </trkpt>
      <trkpt lat="48.99521" lon="1.97405">
        <ele>27.0543</ele>
        <time>2016-06-10T08:11:20Z</time>
      </trkpt>
      <trkpt lat="48.99514" lon="1.97419">
        <ele>25.1317</ele>
        <time>2016-06-10T08:11:28Z</time>
      </trkpt>
      <trkpt lat="48.99513" lon="1.97421">
        <ele>25.6123</ele>
        <time>2016-06-10T08:11:29Z</time>
      </trkpt>
      <trkpt lat="48.99504" lon="1.97432">
        <ele>20.8057</ele>
        <time>2016-06-10T08:11:38Z</time>
      </trkpt>
      <trkpt lat="48.995" lon="1.9744">
        <ele>17.9218</ele>
        <time>2016-06-10T08:11:43Z</time>
      </trkpt>
      <trkpt lat="48.99493" lon="1.97453">
        <ele>18.8831</ele>
        <time>2016-06-10T08:11:50Z</time>
      </trkpt>
      <trkpt lat="48.99492" lon="1.97459">
        <ele>20.325</ele>
        <time>2016-06-10T08:11:52Z</time>
      </trkpt>
      <trkpt lat="48.99489" lon="1.97472">
        <ele>19.8444</ele>
        <time>2016-06-10T08:11:58Z</time>
      </trkpt>
      <trkpt lat="48.99483" lon="1.97485">
        <ele>20.325</ele>
        <time>2016-06-10T08:12:05Z</time>
      </trkpt>
      <trkpt lat="48.99478" lon="1.97499">
        <ele>20.325</ele>
        <time>2016-06-10T08:12:12Z</time>
      </trkpt>
      <trkpt lat="48.99475" lon="1.97512">
        <ele>21.767</ele>
        <time>2016-06-10T08:12:19Z</time>
      </trkpt>
      <trkpt lat="48.99468" lon="1.97525">
        <ele>20.8057</ele>
        <time>2016-06-10T08:12:26Z</time>
      </trkpt>
      <trkpt lat="48.99467" lon="1.97531">
        <ele>20.8057</ele>
        <time>2016-06-10T08:12:29Z</time>
      </trkpt>
      <trkpt lat="48.99459" lon="1.97549">
        <ele>19.3638</ele>
        <time>2016-06-10T08:12:39Z</time>
      </trkpt>
      <trkpt lat="48.99452" lon="1.97559">
        <ele>21.2864</ele>
        <time>2016-06-10T08:12:46Z</time>
      </trkpt>
      <trkpt lat="48.99444" lon="1.97572">
        <ele>20.325</ele>
        <time>2016-06-10T08:12:54Z</time>
      </trkpt>
      <trkpt lat="48.99437" lon="1.97584">
        <ele>18.8831</ele>
        <time>2016-06-10T08:13:01Z</time>
      </trkpt>
      <trkpt lat="48.99436" lon="1.97586">
        <ele>18.8831</ele>
        <time>2016-06-10T08:13:02Z</time>
      </trkpt>
      <trkpt lat="48.99434" lon="1.97593">
        <ele>18.4023</ele>
        <time>2016-06-10T08:13:06Z</time>
      </trkpt>
      <trkpt lat="48.99427" lon="1.976">
        <ele>17.4412</ele>
        <time>2016-06-10T08:13:12Z</time>
      </trkpt>
      <trkpt lat="48.99421" lon="1.97611">
        <ele>19.8444</ele>
        <time>2016-06-10T08:13:19Z</time>
      </trkpt>
      <trkpt lat="48.99418" lon="1.97623">
        <ele>22.2476</ele>
        <time>2016-06-10T08:13:24Z</time>
      </trkpt>
      <trkpt lat="48.99416" lon="1.97627">
        <ele>21.767</ele>
        <time>2016-06-10T08:13:26Z</time>
      </trkpt>
      <trkpt lat="48.99411" lon="1.97632">
        <ele>22.2476</ele>
        <time>2016-06-10T08:13:30Z</time>
      </trkpt>
      <trkpt lat="48.9941" lon="1.97643">
        <ele>19.8444</ele>
        <time>2016-06-10T08:13:37Z</time>
      </trkpt>
      <trkpt lat="48.99409" lon="1.97646">
        <ele>19.8444</ele>
        <time>2016-06-10T08:13:42Z</time>
      </trkpt>
      <trkpt lat="48.99406" lon="1.97652">
        <ele>18.8831</ele>
        <time>2016-06-10T08:13:48Z</time>
      </trkpt>
      <trkpt lat="48.99402" lon="1.97651">
        <ele>18.4023</ele>
        <time>2016-06-10T08:13:55Z</time>
      </trkpt>
      <trkpt lat="48.99399" lon="1.97646">
        <ele>21.767</ele>
        <time>2016-06-10T08:14:01Z</time>
      </trkpt>
      <trkpt lat="48.99393" lon="1.97639">
        <ele>22.7283</ele>
        <time>2016-06-10T08:14:08Z</time>
      </trkpt>
      <trkpt lat="48.99385" lon="1.97631">
        <ele>20.8057</ele>
        <time>2016-06-10T08:14:16Z</time>
      </trkpt>
      <trkpt lat="48.99384" lon="1.97628">
        <ele>19.8444</ele>
        <time>2016-06-10T08:14:20Z</time>
      </trkpt>
      <trkpt lat="48.99377" lon="1.97621">
        <ele>21.767</ele>
        <time>2016-06-10T08:14:27Z</time>
      </trkpt>
      <trkpt lat="48.99374" lon="1.97618">
        <ele>22.7283</ele>
        <time>2016-06-10T08:14:29Z</time>
      </trkpt>
      <trkpt lat="48.99372" lon="1.9761">
        <ele>23.209</ele>
        <time>2016-06-10T08:14:34Z</time>
      </trkpt>
      <trkpt lat="48.99372" lon="1.97608">
        <ele>22.7283</ele>
        <time>2016-06-10T08:14:35Z</time>
      </trkpt>
      <trkpt lat="48.99365" lon="1.976">
        <ele>24.1703</ele>
        <time>2016-06-10T08:14:40Z</time>
      </trkpt>
      <trkpt lat="48.99357" lon="1.97589">
        <ele>25.1317</ele>
        <time>2016-06-10T08:14:47Z</time>
      </trkpt>
      <trkpt lat="48.99349" lon="1.97575">
        <ele>24.651</ele>
        <time>2016-06-10T08:14:55Z</time>
      </trkpt>
      <trkpt lat="48.99343" lon="1.97565">
        <ele>26.5736</ele>
        <time>2016-06-10T08:15:02Z</time>
      </trkpt>
      <trkpt lat="48.99335" lon="1.97554">
        <ele>22.7283</ele>
        <time>2016-06-10T08:15:09Z</time>
      </trkpt>
      <trkpt lat="48.99329" lon="1.97545">
        <ele>22.7283</ele>
        <time>2016-06-10T08:15:15Z</time>
      </trkpt>
      <trkpt lat="48.99321" lon="1.97538">
        <ele>22.7283</ele>
        <time>2016-06-10T08:15:20Z</time>
      </trkpt>
      <trkpt lat="48.99314" lon="1.97527">
        <ele>21.767</ele>
        <time>2016-06-10T08:15:26Z</time>
      </trkpt>
      <trkpt lat="48.99308" lon="1.97519">
        <ele>21.767</ele>
        <time>2016-06-10T08:15:33Z</time>
      </trkpt>
      <trkpt lat="48.99302" lon="1.97512">
        <ele>23.209</ele>
        <time>2016-06-10T08:15:39Z</time>
      </trkpt>
      <trkpt lat="48.99295" lon="1.97502">
        <ele>25.6123</ele>
        <time>2016-06-10T08:15:46Z</time>
      </trkpt>
      <trkpt lat="48.99291" lon="1.97493">
        <ele>27.5349</ele>
        <time>2016-06-10T08:15:52Z</time>
      </trkpt>
      <trkpt lat="48.99283" lon="1.97483">
        <ele>31.8607</ele>
        <time>2016-06-10T08:16:01Z</time>
      </trkpt>
      <trkpt lat="48.9928" lon="1.9748">
        <ele>33.3029</ele>
        <time>2016-06-10T08:16:05Z</time>
      </trkpt>
      <trkpt lat="48.99276" lon="1.97473">
        <ele>31.3801</ele>
        <time>2016-06-10T08:16:11Z</time>
      </trkpt>
      <trkpt lat="48.99274" lon="1.97463">
        <ele>29.4575</ele>
        <time>2016-06-10T08:16:16Z</time>
      </trkpt>
      <trkpt lat="48.99271" lon="1.97455">
        <ele>26.0929</ele>
        <time>2016-06-10T08:16:21Z</time>
      </trkpt>
      <trkpt lat="48.99271" lon="1.97454">
        <ele>25.1317</ele>
        <time>2016-06-10T08:16:22Z</time>
      </trkpt>
      <trkpt lat="48.99268" lon="1.97445">
        <ele>23.209</ele>
        <time>2016-06-10T08:16:28Z</time>
      </trkpt>
      <trkpt lat="48.99262" lon="1.97437">
        <ele>26.0929</ele>
        <time>2016-06-10T08:16:34Z</time>
      </trkpt>
      <trkpt lat="48.99262" lon="1.97437">
        <ele>26.0929</ele>
        <time>2016-06-10T08:16:34Z</time>
      </trkpt>
      <trkpt lat="48.99257" lon="1.97432">
        <ele>28.4962</ele>
        <time>2016-06-10T08:16:38Z</time>
      </trkpt>
      <trkpt lat="48.99253" lon="1.97425">
        <ele>28.9769</ele>
        <time>2016-06-10T08:16:42Z</time>
      </trkpt>
      <trkpt lat="48.99249" lon="1.9742">
        <ele>29.9381</ele>
        <time>2016-06-10T08:16:46Z</time>
      </trkpt>
      <trkpt lat="48.99244" lon="1.97411">
        <ele>30.4188</ele>
        <time>2016-06-10T08:16:52Z</time>
      </trkpt>
      <trkpt lat="48.99243" lon="1.97409">
        <ele>29.9381</ele>
        <time>2016-06-10T08:16:53Z</time>
      </trkpt>
      <trkpt lat="48.99234" lon="1.97394">
        <ele>28.4962</ele>
        <time>2016-06-10T08:17:03Z</time>
      </trkpt>
      <trkpt lat="48.99228" lon="1.97383">
        <ele>27.5349</ele>
        <time>2016-06-10T08:17:11Z</time>
      </trkpt>
      <trkpt lat="48.99227" lon="1.97381">
        <ele>28.0155</ele>
        <time>2016-06-10T08:17:12Z</time>
      </trkpt>
      <trkpt lat="48.99219" lon="1.97373">
        <ele>28.0155</ele>
        <time>2016-06-10T08:17:20Z</time>
      </trkpt>
      <trkpt lat="48.9921" lon="1.97362">
        <ele>27.5349</ele>
        <time>2016-06-10T08:17:29Z</time>
      </trkpt>
      <trkpt lat="48.99202" lon="1.97353">
        <ele>27.5349</ele>
        <time>2016-06-10T08:17:36Z</time>
      </trkpt>
      <trkpt lat="48.99195" lon="1.97341">
        <ele>27.5349</ele>
        <time>2016-06-10T08:17:44Z</time>
      </trkpt>
      <trkpt lat="48.9919" lon="1.9733">
        <ele>28.0155</ele>
        <time>2016-06-10T08:17:51Z</time>
      </trkpt>
      <trkpt lat="48.99182" lon="1.97319">
        <ele>28.0155</ele>
        <time>2016-06-10T08:17:58Z</time>
      </trkpt>
      <trkpt lat="48.99175" lon="1.9731">
        <ele>28.0155</ele>
        <time>2016-06-10T08:18:05Z</time>
      </trkpt>
      <trkpt lat="48.99174" lon="1.97309">
        <ele>28.4962</ele>
        <time>2016-06-10T08:18:06Z</time>
      </trkpt>
      <trkpt lat="48.99168" lon="1.973">
        <ele>29.4575</ele>
        <time>2016-06-10T08:18:12Z</time>
      </trkpt>
      <trkpt lat="48.99166" lon="1.97298">
        <ele>29.4575</ele>
        <time>2016-06-10T08:18:14Z</time>
      </trkpt>
      <trkpt lat="48.99157" lon="1.97287">
        <ele>28.9769</ele>
        <time>2016-06-10T08:18:21Z</time>
      </trkpt>
      <trkpt lat="48.9915" lon="1.9728">
        <ele>28.4962</ele>
        <time>2016-06-10T08:18:27Z</time>
      </trkpt>
      <trkpt lat="48.99145" lon="1.97272">
        <ele>28.9769</ele>
        <time>2016-06-10T08:18:32Z</time>
      </trkpt>
      <trkpt lat="48.99139" lon="1.97261">
        <ele>30.4188</ele>
        <time>2016-06-10T08:18:38Z</time>
      </trkpt>
      <trkpt lat="48.99134" lon="1.97251">
        <ele>30.8995</ele>
        <time>2016-06-10T08:18:44Z</time>
      </trkpt>
      <trkpt lat="48.99129" lon="1.97247">
        <ele>30.8995</ele>
        <time>2016-06-10T08:18:49Z</time>
      </trkpt>
      <trkpt lat="48.99121" lon="1.97237">
        <ele>30.4188</ele>
        <time>2016-06-10T08:18:56Z</time>
      </trkpt>
      <trkpt lat="48.99115" lon="1.97228">
        <ele>29.4575</ele>
        <time>2016-06-10T08:19:02Z</time>
      </trkpt>
      <trkpt lat="48.9911" lon="1.9722">
        <ele>29.4575</ele>
        <time>2016-06-10T08:19:08Z</time>
      </trkpt>
      <trkpt lat="48.99102" lon="1.97211">
        <ele>29.4575</ele>
        <time>2016-06-10T08:19:15Z</time>
      </trkpt>
      <trkpt lat="48.99096" lon="1.97202">
        <ele>29.4575</ele>
        <time>2016-06-10T08:19:21Z</time>
      </trkpt>
      <trkpt lat="48.99089" lon="1.97193">
        <ele>29.4575</ele>
        <time>2016-06-10T08:19:27Z</time>
      </trkpt>
      <trkpt lat="48.99088" lon="1.97191">
        <ele>28.9769</ele>
        <time>2016-06-10T08:19:28Z</time>
      </trkpt>
      <trkpt lat="48.99082" lon="1.97184">
        <ele>28.9769</ele>
        <time>2016-06-10T08:19:34Z</time>
      </trkpt>
      <trkpt lat="48.99079" lon="1.9718">
        <ele>28.4962</ele>
        <time>2016-06-10T08:19:38Z</time>
      </trkpt>
      <trkpt lat="48.99074" lon="1.97167">
        <ele>26.0929</ele>
        <time>2016-06-10T08:19:44Z</time>
      </trkpt>
      <trkpt lat="48.99069" lon="1.97157">
        <ele>24.651</ele>
        <time>2016-06-10T08:19:50Z</time>
      </trkpt>
      <trkpt lat="48.99062" lon="1.97145">
        <ele>27.0543</ele>
        <time>2016-06-10T08:19:57Z</time>
      </trkpt>
      <trkpt lat="48.99058" lon="1.97136">
        <ele>28.0155</ele>
        <time>2016-06-10T08:20:02Z</time>
      </trkpt>
      <trkpt lat="48.99052" lon="1.97125">
        <ele>30.4188</ele>
        <time>2016-06-10T08:20:08Z</time>
      </trkpt>
      <trkpt lat="48.99044" lon="1.97117">
        <ele>33.3029</ele>
        <time>2016-06-10T08:20:15Z</time>
      </trkpt>
      <trkpt lat="48.99039" lon="1.97109">
        <ele>31.3801</ele>
        <time>2016-06-10T08:20:20Z</time>
      </trkpt>
      <trkpt lat="48.99031" lon="1.97098">
        <ele>30.8995</ele>
        <time>2016-06-10T08:20:28Z</time>
      </trkpt>
      <trkpt lat="48.99025" lon="1.97088">
        <ele>29.9381</ele>
        <time>2016-06-10T08:20:35Z</time>
      </trkpt>
      <trkpt lat="48.99023" lon="1.97087">
        <ele>29.4575</ele>
        <time>2016-06-10T08:20:36Z</time>
      </trkpt>
      <trkpt lat="48.99016" lon="1.97076">
        <ele>29.4575</ele>
        <time>2016-06-10T08:20:43Z</time>
      </trkpt>
      <trkpt lat="48.99012" lon="1.97068">
        <ele>29.4575</ele>
        <time>2016-06-10T08:20:49Z</time>
      </trkpt>
      <trkpt lat="48.99006" lon="1.9706">
        <ele>32.3416</ele>
        <time>2016-06-10T08:20:55Z</time>
      </trkpt>
      <trkpt lat="48.99002" lon="1.97056">
        <ele>33.3029</ele>
        <time>2016-06-10T08:20:58Z</time>
      </trkpt>
      <trkpt lat="48.98995" lon="1.97045">
        <ele>34.2642</ele>
        <time>2016-06-10T08:21:05Z</time>
      </trkpt>
      <trkpt lat="48.98988" lon="1.97032">
        <ele>33.3029</ele>
        <time>2016-06-10T08:21:12Z</time>
      </trkpt>
      <trkpt lat="48.98985" lon="1.97024">
        <ele>32.8223</ele>
        <time>2016-06-10T08:21:16Z</time>
      </trkpt>
      <trkpt lat="48.98982" lon="1.97016">
        <ele>33.7834</ele>
        <time>2016-06-10T08:21:21Z</time>
      </trkpt>
      <trkpt lat="48.98982" lon="1.97007">
        <ele>29.9381</ele>
        <time>2016-06-10T08:21:42Z</time>
      </trkpt>
      <trkpt lat="48.98976" lon="1.96997">
        <ele>30.8995</ele>
        <time>2016-06-10T08:21:49Z</time>
      </trkpt>
      <trkpt lat="48.98963" lon="1.96992">
        <ele>33.3029</ele>
        <time>2016-06-10T08:21:58Z</time>
      </trkpt>
      <trkpt lat="48.9895" lon="1.9699">
        <ele>36.1868</ele>
        <time>2016-06-10T08:22:08Z</time>
      </trkpt>
      <trkpt lat="48.98945" lon="1.96989">
        <ele>37.1481</ele>
        <time>2016-06-10T08:22:12Z</time>
      </trkpt>
      <trkpt lat="48.98937" lon="1.96985">
        <ele>38.1094</ele>
        <time>2016-06-10T08:22:20Z</time>
      </trkpt>
      <trkpt lat="48.98929" lon="1.96979">
        <ele>37.6287</ele>
        <time>2016-06-10T08:22:27Z</time>
      </trkpt>
      <trkpt lat="48.98915" lon="1.9697">
        <ele>38.5901</ele>
        <time>2016-06-10T08:22:38Z</time>
      </trkpt>
      <trkpt lat="48.98904" lon="1.96963">
        <ele>40.0321</ele>
        <time>2016-06-10T08:22:47Z</time>
      </trkpt>
      <trkpt lat="48.98894" lon="1.96954">
        <ele>40.5128</ele>
        <time>2016-06-10T08:22:55Z</time>
      </trkpt>
      <trkpt lat="48.98891" lon="1.96952">
        <ele>40.9934</ele>
        <time>2016-06-10T08:22:57Z</time>
      </trkpt>
      <trkpt lat="48.98886" lon="1.96949">
        <ele>40.9934</ele>
        <time>2016-06-10T08:23:01Z</time>
      </trkpt>
      <trkpt lat="48.98875" lon="1.96941">
        <ele>40.5128</ele>
        <time>2016-06-10T08:23:10Z</time>
      </trkpt>
      <trkpt lat="48.98861" lon="1.9693">
        <ele>40.9934</ele>
        <time>2016-06-10T08:23:21Z</time>
      </trkpt>
      <trkpt lat="48.98851" lon="1.96921">
        <ele>40.9934</ele>
        <time>2016-06-10T08:23:30Z</time>
      </trkpt>
      <trkpt lat="48.9884" lon="1.96912">
        <ele>40.5128</ele>
        <time>2016-06-10T08:23:40Z</time>
      </trkpt>
      <trkpt lat="48.98829" lon="1.96905">
        <ele>39.5513</ele>
        <time>2016-06-10T08:23:49Z</time>
      </trkpt>
      <trkpt lat="48.98818" lon="1.969">
        <ele>38.1094</ele>
        <time>2016-06-10T08:23:58Z</time>
      </trkpt>
      <trkpt lat="48.98806" lon="1.96897">
        <ele>36.6675</ele>
        <time>2016-06-10T08:24:08Z</time>
      </trkpt>
      <trkpt lat="48.98795" lon="1.96898">
        <ele>37.1481</ele>
        <time>2016-06-10T08:24:16Z</time>
      </trkpt>
      <trkpt lat="48.98784" lon="1.96897">
        <ele>34.2642</ele>
        <time>2016-06-10T08:24:24Z</time>
      </trkpt>
      <trkpt lat="48.9878" lon="1.96896">
        <ele>33.3029</ele>
        <time>2016-06-10T08:24:30Z</time>
      </trkpt>
      <trkpt lat="48.98773" lon="1.96885">
        <ele>30.4188</ele>
        <time>2016-06-10T08:24:39Z</time>
      </trkpt>
      <trkpt lat="48.98771" lon="1.96877">
        <ele>29.9381</ele>
        <time>2016-06-10T08:24:43Z</time>
      </trkpt>
      <trkpt lat="48.98775" lon="1.96865">
        <ele>28.4962</ele>
        <time>2016-06-10T08:24:49Z</time>
      </trkpt>
      <trkpt lat="48.98778" lon="1.96862">
        <ele>28.0155</ele>
        <time>2016-06-10T08:24:51Z</time>
      </trkpt>
      <trkpt lat="48.98786" lon="1.9685">
        <ele>27.5349</ele>
        <time>2016-06-10T08:24:59Z</time>
      </trkpt>
      <trkpt lat="48.98792" lon="1.96842">
        <ele>27.0543</ele>
        <time>2016-06-10T08:25:06Z</time>
      </trkpt>
      <trkpt lat="48.98796" lon="1.96836">
        <ele>27.0543</ele>
        <time>2016-06-10T08:25:13Z</time>
      </trkpt>
      <trkpt lat="48.98797" lon="1.96833">
        <ele>27.0543</ele>
        <time>2016-06-10T08:25:19Z</time>
      </trkpt>
      <trkpt lat="48.98792" lon="1.96821">
        <ele>28.0155</ele>
        <time>2016-06-10T08:25:25Z</time>
      </trkpt>
      <trkpt lat="48.98787" lon="1.96811">
        <ele>28.0155</ele>
        <time>2016-06-10T08:25:31Z</time>
      </trkpt>
      <trkpt lat="48.9878" lon="1.96796">
        <ele>28.4962</ele>
        <time>2016-06-10T08:25:40Z</time>
      </trkpt>
      <trkpt lat="48.98773" lon="1.96781">
        <ele>29.4575</ele>
        <time>2016-06-10T08:25:49Z</time>
      </trkpt>
      <trkpt lat="48.98767" lon="1.96768">
        <ele>28.9769</ele>
        <time>2016-06-10T08:25:57Z</time>
      </trkpt>
      <trkpt lat="48.98764" lon="1.96757">
        <ele>29.4575</ele>
        <time>2016-06-10T08:26:03Z</time>
      </trkpt>
      <trkpt lat="48.98758" lon="1.96741">
        <ele>29.9381</ele>
        <time>2016-06-10T08:26:12Z</time>
      </trkpt>
      <trkpt lat="48.98754" lon="1.96731">
        <ele>29.4575</ele>
        <time>2016-06-10T08:26:17Z</time>
      </trkpt>
      <trkpt lat="48.98749" lon="1.96723">
        <ele>29.4575</ele>
        <time>2016-06-10T08:26:22Z</time>
      </trkpt>
      <trkpt lat="48.98744" lon="1.96715">
        <ele>30.8995</ele>
        <time>2016-06-10T08:26:27Z</time>
      </trkpt>
      <trkpt lat="48.98742" lon="1.96713">
        <ele>30.8995</ele>
        <time>2016-06-10T08:26:29Z</time>
      </trkpt>
      <trkpt lat="48.98738" lon="1.96704">
        <ele>32.3416</ele>
        <time>2016-06-10T08:26:34Z</time>
      </trkpt>
      <trkpt lat="48.98734" lon="1.96695">
        <ele>33.3029</ele>
        <time>2016-06-10T08:26:40Z</time>
      </trkpt>
      <trkpt lat="48.9873" lon="1.96685">
        <ele>33.7834</ele>
        <time>2016-06-10T08:26:45Z</time>
      </trkpt>
      <trkpt lat="48.98727" lon="1.96679">
        <ele>32.3416</ele>
        <time>2016-06-10T08:26:50Z</time>
      </trkpt>
      <trkpt lat="48.98721" lon="1.96665">
        <ele>32.8223</ele>
        <time>2016-06-10T08:26:59Z</time>
      </trkpt>
      <trkpt lat="48.98717" lon="1.96652">
        <ele>31.3801</ele>
        <time>2016-06-10T08:27:07Z</time>
      </trkpt>
      <trkpt lat="48.98713" lon="1.9664">
        <ele>29.9381</ele>
        <time>2016-06-10T08:27:15Z</time>
      </trkpt>
      <trkpt lat="48.98705" lon="1.96622">
        <ele>28.9769</ele>
        <time>2016-06-10T08:27:26Z</time>
      </trkpt>
      <trkpt lat="48.98697" lon="1.96603">
        <ele>28.9769</ele>
        <time>2016-06-10T08:27:37Z</time>
      </trkpt>
      <trkpt lat="48.98691" lon="1.96589">
        <ele>28.4962</ele>
        <time>2016-06-10T08:27:46Z</time>
      </trkpt>
      <trkpt lat="48.98685" lon="1.96573">
        <ele>28.9769</ele>
        <time>2016-06-10T08:27:55Z</time>
      </trkpt>
      <trkpt lat="48.9868" lon="1.96563">
        <ele>27.5349</ele>
        <time>2016-06-10T08:28:02Z</time>
      </trkpt>
      <trkpt lat="48.98674" lon="1.96549">
        <ele>26.0929</ele>
        <time>2016-06-10T08:28:10Z</time>
      </trkpt>
      <trkpt lat="48.98674" lon="1.96549">
        <ele>26.0929</ele>
        <time>2016-06-10T08:28:10Z</time>
      </trkpt>
      <trkpt lat="48.98673" lon="1.96548">
        <ele>25.6123</ele>
        <time>2016-06-10T08:28:11Z</time>
      </trkpt>
      <trkpt lat="48.98669" lon="1.96538">
        <ele>24.651</ele>
        <time>2016-06-10T08:28:18Z</time>
      </trkpt>
      <trkpt lat="48.98668" lon="1.96533">
        <ele>25.1317</ele>
        <time>2016-06-10T08:28:26Z</time>
      </trkpt>
      <trkpt lat="48.98667" lon="1.96532">
        <ele>25.1317</ele>
        <time>2016-06-10T08:28:33Z</time>
      </trkpt>
      <trkpt lat="48.98659" lon="1.96517">
        <ele>26.5736</ele>
        <time>2016-06-10T08:28:43Z</time>
      </trkpt>
      <trkpt lat="48.98654" lon="1.96508">
        <ele>26.5736</ele>
        <time>2016-06-10T08:28:50Z</time>
      </trkpt>
      <trkpt lat="48.98654" lon="1.96502">
        <ele>27.0543</ele>
        <time>2016-06-10T08:28:56Z</time>
      </trkpt>
      <trkpt lat="48.98646" lon="1.96485">
        <ele>29.9381</ele>
        <time>2016-06-10T08:29:06Z</time>
      </trkpt>
      <trkpt lat="48.98639" lon="1.96471">
        <ele>30.4188</ele>
        <time>2016-06-10T08:29:15Z</time>
      </trkpt>
      <trkpt lat="48.98633" lon="1.96458">
        <ele>30.8995</ele>
        <time>2016-06-10T08:29:23Z</time>
      </trkpt>
      <trkpt lat="48.98628" lon="1.96444">
        <ele>30.4188</ele>
        <time>2016-06-10T08:29:31Z</time>
      </trkpt>
      <trkpt lat="48.98621" lon="1.96431">
        <ele>30.4188</ele>
        <time>2016-06-10T08:29:39Z</time>
      </trkpt>
      <trkpt lat="48.98616" lon="1.96419">
        <ele>31.8607</ele>
        <time>2016-06-10T08:29:46Z</time>
      </trkpt>
      <trkpt lat="48.98609" lon="1.9641">
        <ele>33.7834</ele>
        <time>2016-06-10T08:29:52Z</time>
      </trkpt>
      <trkpt lat="48.98602" lon="1.96396">
        <ele>36.1868</ele>
        <time>2016-06-10T08:30:01Z</time>
      </trkpt>
      <trkpt lat="48.98596" lon="1.96385">
        <ele>36.6675</ele>
        <time>2016-06-10T08:30:07Z</time>
      </trkpt>
      <trkpt lat="48.9859" lon="1.96374">
        <ele>35.2255</ele>
        <time>2016-06-10T08:30:14Z</time>
      </trkpt>
      <trkpt lat="48.98584" lon="1.96364">
        <ele>35.7061</ele>
        <time>2016-06-10T08:30:21Z</time>
      </trkpt>
      <trkpt lat="48.98578" lon="1.96355">
        <ele>35.7061</ele>
        <time>2016-06-10T08:30:28Z</time>
      </trkpt>
      <trkpt lat="48.98572" lon="1.96345">
        <ele>36.1868</ele>
        <time>2016-06-10T08:30:35Z</time>
      </trkpt>
      <trkpt lat="48.98568" lon="1.96334">
        <ele>35.7061</ele>
        <time>2016-06-10T08:30:40Z</time>
      </trkpt>
      <trkpt lat="48.98568" lon="1.96332">
        <ele>35.2255</ele>
        <time>2016-06-10T08:30:41Z</time>
      </trkpt>
      <trkpt lat="48.98566" lon="1.96319">
        <ele>33.3029</ele>
        <time>2016-06-10T08:30:47Z</time>
      </trkpt>
      <trkpt lat="48.98561" lon="1.96307">
        <ele>32.3416</ele>
        <time>2016-06-10T08:30:53Z</time>
      </trkpt>
      <trkpt lat="48.9856" lon="1.96301">
        <ele>31.8607</ele>
        <time>2016-06-10T08:30:56Z</time>
      </trkpt>
      <trkpt lat="48.98556" lon="1.96296">
        <ele>31.3801</ele>
        <time>2016-06-10T08:31:00Z</time>
      </trkpt>
      <trkpt lat="48.98546" lon="1.96283">
        <ele>31.8607</ele>
        <time>2016-06-10T08:31:09Z</time>
      </trkpt>
      <trkpt lat="48.98545" lon="1.96282">
        <ele>31.3801</ele>
        <time>2016-06-10T08:31:10Z</time>
      </trkpt>
      <trkpt lat="48.9854" lon="1.96277">
        <ele>33.3029</ele>
        <time>2016-06-10T08:31:15Z</time>
      </trkpt>
      <trkpt lat="48.98535" lon="1.96271">
        <ele>34.2642</ele>
        <time>2016-06-10T08:31:21Z</time>
      </trkpt>
      <trkpt lat="48.98527" lon="1.96268">
        <ele>34.7449</ele>
        <time>2016-06-10T08:31:28Z</time>
      </trkpt>
      <trkpt lat="48.98525" lon="1.96268">
        <ele>34.7449</ele>
        <time>2016-06-10T08:31:30Z</time>
      </trkpt>
      <trkpt lat="48.98518" lon="1.96266">
        <ele>36.6675</ele>
        <time>2016-06-10T08:31:37Z</time>
      </trkpt>
      <trkpt lat="48.98517" lon="1.96266">
        <ele>36.6675</ele>
        <time>2016-06-10T08:31:45Z</time>
      </trkpt>
      <trkpt lat="48.98517" lon="1.96269">
        <ele>37.6287</ele>
        <time>2016-06-10T08:31:48Z</time>
      </trkpt>
      <trkpt lat="48.98514" lon="1.96277">
        <ele>34.2642</ele>
        <time>2016-06-10T08:31:54Z</time>
      </trkpt>
      <trkpt lat="48.98514" lon="1.96282">
        <ele>33.3029</ele>
        <time>2016-06-10T08:31:58Z</time>
      </trkpt>
      <trkpt lat="48.98511" lon="1.96291">
        <ele>30.4188</ele>
        <time>2016-06-10T08:32:04Z</time>
      </trkpt>
      <trkpt lat="48.98508" lon="1.96299">
        <ele>25.6123</ele>
        <time>2016-06-10T08:32:09Z</time>
      </trkpt>
      <trkpt lat="48.98508" lon="1.96303">
        <ele>24.1703</ele>
        <time>2016-06-10T08:32:12Z</time>
      </trkpt>
      <trkpt lat="48.98506" lon="1.96309">
        <ele>24.1703</ele>
        <time>2016-06-10T08:32:18Z</time>
      </trkpt>
      <trkpt lat="48.98502" lon="1.96308">
        <ele>24.1703</ele>
        <time>2016-06-10T08:32:22Z</time>
      </trkpt>
      <trkpt lat="48.98498" lon="1.96304">
        <ele>23.6896</ele>
        <time>2016-06-10T08:32:25Z</time>
      </trkpt>
      <trkpt lat="48.98499" lon="1.96298">
        <ele>23.209</ele>
        <time>2016-06-10T08:32:28Z</time>
      </trkpt>
      <trkpt lat="48.98495" lon="1.96289">
        <ele>25.6123</ele>
        <time>2016-06-10T08:32:35Z</time>
      </trkpt>
      <trkpt lat="48.9849" lon="1.96282">
        <ele>26.0929</ele>
        <time>2016-06-10T08:32:40Z</time>
      </trkpt>
      <trkpt lat="48.98485" lon="1.96275">
        <ele>25.1317</ele>
        <time>2016-06-10T08:32:46Z</time>
      </trkpt>
      <trkpt lat="48.9848" lon="1.96266">
        <ele>27.0543</ele>
        <time>2016-06-10T08:32:52Z</time>
      </trkpt>
      <trkpt lat="48.98475" lon="1.96252">
        <ele>31.3801</ele>
        <time>2016-06-10T08:33:00Z</time>
      </trkpt>
      <trkpt lat="48.98471" lon="1.96232">
        <ele>35.2255</ele>
        <time>2016-06-10T08:33:10Z</time>
      </trkpt>
      <trkpt lat="48.9847" lon="1.96226">
        <ele>34.2642</ele>
        <time>2016-06-10T08:33:13Z</time>
      </trkpt>
      <trkpt lat="48.98468" lon="1.9621">
        <ele>34.2642</ele>
        <time>2016-06-10T08:33:21Z</time>
      </trkpt>
      <trkpt lat="48.98466" lon="1.96203">
        <ele>33.3029</ele>
        <time>2016-06-10T08:33:25Z</time>
      </trkpt>
      <trkpt lat="48.98465" lon="1.9619">
        <ele>30.4188</ele>
        <time>2016-06-10T08:33:32Z</time>
      </trkpt>
      <trkpt lat="48.98463" lon="1.96177">
        <ele>28.4962</ele>
        <time>2016-06-10T08:33:39Z</time>
      </trkpt>
      <trkpt lat="48.98459" lon="1.96166">
        <ele>28.4962</ele>
        <time>2016-06-10T08:33:44Z</time>
      </trkpt>
      <trkpt lat="48.98458" lon="1.96161">
        <ele>26.5736</ele>
        <time>2016-06-10T08:33:47Z</time>
      </trkpt>
      <trkpt lat="48.98456" lon="1.96156">
        <ele>25.6123</ele>
        <time>2016-06-10T08:33:50Z</time>
      </trkpt>
      <trkpt lat="48.98454" lon="1.96148">
        <ele>25.6123</ele>
        <time>2016-06-10T08:33:55Z</time>
      </trkpt>
      <trkpt lat="48.98452" lon="1.9614">
        <ele>26.5736</ele>
        <time>2016-06-10T08:33:59Z</time>
      </trkpt>
      <trkpt lat="48.98449" lon="1.96127">
        <ele>27.0543</ele>
        <time>2016-06-10T08:34:05Z</time>
      </trkpt>
      <trkpt lat="48.98446" lon="1.9612">
        <ele>26.0929</ele>
        <time>2016-06-10T08:34:10Z</time>
      </trkpt>
      <trkpt lat="48.98446" lon="1.96114">
        <ele>26.5736</ele>
        <time>2016-06-10T08:34:13Z</time>
      </trkpt>
      <trkpt lat="48.98445" lon="1.96102">
        <ele>27.5349</ele>
        <time>2016-06-10T08:34:19Z</time>
      </trkpt>
      <trkpt lat="48.98445" lon="1.96094">
        <ele>26.5736</ele>
        <time>2016-06-10T08:34:23Z</time>
      </trkpt>
      <trkpt lat="48.98443" lon="1.96081">
        <ele>28.0155</ele>
        <time>2016-06-10T08:34:30Z</time>
      </trkpt>
      <trkpt lat="48.98443" lon="1.96073">
        <ele>29.4575</ele>
        <time>2016-06-10T08:34:34Z</time>
      </trkpt>
      <trkpt lat="48.98442" lon="1.96069">
        <ele>31.8607</ele>
        <time>2016-06-10T08:34:37Z</time>
      </trkpt>
      <trkpt lat="48.98439" lon="1.96056">
        <ele>32.3416</ele>
        <time>2016-06-10T08:34:44Z</time>
      </trkpt>
      <trkpt lat="48.98437" lon="1.96046">
        <ele>31.8607</ele>
        <time>2016-06-10T08:34:49Z</time>
      </trkpt>
      <trkpt lat="48.98435" lon="1.96032">
        <ele>34.2642</ele>
        <time>2016-06-10T08:34:56Z</time>
      </trkpt>
      <trkpt lat="48.98431" lon="1.96024">
        <ele>37.6287</ele>
        <time>2016-06-10T08:35:01Z</time>
      </trkpt>
      <trkpt lat="48.98431" lon="1.9602">
        <ele>38.5901</ele>
        <time>2016-06-10T08:35:03Z</time>
      </trkpt>
      <trkpt lat="48.9843" lon="1.96011">
        <ele>38.5901</ele>
        <time>2016-06-10T08:35:08Z</time>
      </trkpt>
      <trkpt lat="48.98427" lon="1.95993">
        <ele>34.7449</ele>
        <time>2016-06-10T08:35:16Z</time>
      </trkpt>
      <trkpt lat="48.98425" lon="1.9598">
        <ele>34.7449</ele>
        <time>2016-06-10T08:35:22Z</time>
      </trkpt>
      <trkpt lat="48.98425" lon="1.95975">
        <ele>35.7061</ele>
        <time>2016-06-10T08:35:25Z</time>
      </trkpt>
      <trkpt lat="48.98423" lon="1.95962">
        <ele>35.7061</ele>
        <time>2016-06-10T08:35:32Z</time>
      </trkpt>
      <trkpt lat="48.98422" lon="1.95957">
        <ele>34.2642</ele>
        <time>2016-06-10T08:35:35Z</time>
      </trkpt>
      <trkpt lat="48.9842" lon="1.95943">
        <ele>34.2642</ele>
        <time>2016-06-10T08:35:42Z</time>
      </trkpt>
      <trkpt lat="48.98418" lon="1.95926">
        <ele>34.2642</ele>
        <time>2016-06-10T08:35:50Z</time>
      </trkpt>
      <trkpt lat="48.98417" lon="1.95923">
        <ele>34.7449</ele>
        <time>2016-06-10T08:35:52Z</time>
      </trkpt>
      <trkpt lat="48.98414" lon="1.95908">
        <ele>35.2255</ele>
        <time>2016-06-10T08:36:00Z</time>
      </trkpt>
      <trkpt lat="48.98414" lon="1.95904">
        <ele>33.7834</ele>
        <time>2016-06-10T08:36:02Z</time>
      </trkpt>
      <trkpt lat="48.98412" lon="1.95889">
        <ele>34.2642</ele>
        <time>2016-06-10T08:36:09Z</time>
      </trkpt>
      <trkpt lat="48.9841" lon="1.95876">
        <ele>33.7834</ele>
        <time>2016-06-10T08:36:15Z</time>
      </trkpt>
      <trkpt lat="48.98409" lon="1.95874">
        <ele>34.2642</ele>
        <time>2016-06-10T08:36:16Z</time>
      </trkpt>
      <trkpt lat="48.98407" lon="1.95859">
        <ele>32.3416</ele>
        <time>2016-06-10T08:36:23Z</time>
      </trkpt>
      <trkpt lat="48.98406" lon="1.9585">
        <ele>30.8995</ele>
        <time>2016-06-10T08:36:28Z</time>
      </trkpt>
      <trkpt lat="48.98406" lon="1.95847">
        <ele>30.4188</ele>
        <time>2016-06-10T08:36:30Z</time>
      </trkpt>
      <trkpt lat="48.98405" lon="1.9584">
        <ele>30.8995</ele>
        <time>2016-06-10T08:36:38Z</time>
      </trkpt>
      <trkpt lat="48.98402" lon="1.9584">
        <ele>30.4188</ele>
        <time>2016-06-10T08:36:53Z</time>
      </trkpt>
      <trkpt lat="48.98402" lon="1.9584">
        <ele>33.3029</ele>
        <time>2016-06-10T08:37:06Z</time>
      </trkpt>
      <trkpt lat="48.98404" lon="1.95844">
        <ele>38.5901</ele>
        <time>2016-06-10T08:37:17Z</time>
      </trkpt>
      <trkpt lat="48.98404" lon="1.95846">
        <ele>37.6287</ele>
        <time>2016-06-10T08:37:22Z</time>
      </trkpt>
      <trkpt lat="48.98404" lon="1.95843">
        <ele>37.1481</ele>
        <time>2016-06-10T08:37:27Z</time>
      </trkpt>
      <trkpt lat="48.98405" lon="1.95843">
        <ele>34.2642</ele>
        <time>2016-06-10T08:37:42Z</time>
      </trkpt>
      <trkpt lat="48.98403" lon="1.95843">
        <ele>31.3801</ele>
        <time>2016-06-10T08:38:13Z</time>
      </trkpt>
      <trkpt lat="48.98406" lon="1.95846">
        <ele>32.8223</ele>
        <time>2016-06-10T08:38:23Z</time>
      </trkpt>
      <trkpt lat="48.98406" lon="1.95846">
        <ele>31.3801</ele>
        <time>2016-06-10T08:38:48Z</time>
      </trkpt>
      <trkpt lat="48.98406" lon="1.95845">
        <ele>31.8607</ele>
        <time>2016-06-10T08:38:54Z</time>
      </trkpt>
      <trkpt lat="48.98407" lon="1.95844">
        <ele>31.3801</ele>
        <time>2016-06-10T08:39:17Z</time>
      </trkpt>
      <trkpt lat="48.98405" lon="1.95835">
        <ele>31.8607</ele>
        <time>2016-06-10T08:39:25Z</time>
      </trkpt>
      <trkpt lat="48.98402" lon="1.95828">
        <ele>33.7834</ele>
        <time>2016-06-10T08:39:33Z</time>
      </trkpt>
      <trkpt lat="48.98397" lon="1.9582">
        <ele>34.2642</ele>
        <time>2016-06-10T08:39:39Z</time>
      </trkpt>
      <trkpt lat="48.98396" lon="1.95817">
        <ele>34.7449</ele>
        <time>2016-06-10T08:39:40Z</time>
      </trkpt>
      <trkpt lat="48.98395" lon="1.95807">
        <ele>36.1868</ele>
        <time>2016-06-10T08:39:46Z</time>
      </trkpt>
      <trkpt lat="48.98394" lon="1.95797">
        <ele>34.7449</ele>
        <time>2016-06-10T08:39:51Z</time>
      </trkpt>
      <trkpt lat="48.98392" lon="1.95788">
        <ele>35.7061</ele>
        <time>2016-06-10T08:39:56Z</time>
      </trkpt>
      <trkpt lat="48.98391" lon="1.95779">
        <ele>36.1868</ele>
        <time>2016-06-10T08:40:00Z</time>
      </trkpt>
      <trkpt lat="48.9839" lon="1.95769">
        <ele>36.1868</ele>
        <time>2016-06-10T08:40:06Z</time>
      </trkpt>
      <trkpt lat="48.98388" lon="1.95758">
        <ele>38.1094</ele>
        <time>2016-06-10T08:40:11Z</time>
      </trkpt>
      <trkpt lat="48.98388" lon="1.95757">
        <ele>37.6287</ele>
        <time>2016-06-10T08:40:12Z</time>
      </trkpt>
      <trkpt lat="48.98387" lon="1.95753">
        <ele>37.6287</ele>
        <time>2016-06-10T08:40:14Z</time>
      </trkpt>
      <trkpt lat="48.98388" lon="1.9575">
        <ele>37.6287</ele>
        <time>2016-06-10T08:40:16Z</time>
      </trkpt>
      <trkpt lat="48.98386" lon="1.95736">
        <ele>39.0707</ele>
        <time>2016-06-10T08:40:22Z</time>
      </trkpt>
      <trkpt lat="48.98386" lon="1.95726">
        <ele>36.6675</ele>
        <time>2016-06-10T08:40:27Z</time>
      </trkpt>
      <trkpt lat="48.98386" lon="1.9571">
        <ele>37.1481</ele>
        <time>2016-06-10T08:40:35Z</time>
      </trkpt>
      <trkpt lat="48.98383" lon="1.95699">
        <ele>37.1481</ele>
        <time>2016-06-10T08:40:40Z</time>
      </trkpt>
      <trkpt lat="48.98383" lon="1.95697">
        <ele>37.1481</ele>
        <time>2016-06-10T08:40:41Z</time>
      </trkpt>
      <trkpt lat="48.98382" lon="1.9569">
        <ele>38.1094</ele>
        <time>2016-06-10T08:40:45Z</time>
      </trkpt>
      <trkpt lat="48.98382" lon="1.9568">
        <ele>39.0707</ele>
        <time>2016-06-10T08:40:50Z</time>
      </trkpt>
      <trkpt lat="48.9838" lon="1.95666">
        <ele>40.9934</ele>
        <time>2016-06-10T08:40:57Z</time>
      </trkpt>
      <trkpt lat="48.98378" lon="1.95655">
        <ele>41.9547</ele>
        <time>2016-06-10T08:41:03Z</time>
      </trkpt>
      <trkpt lat="48.98378" lon="1.95652">
        <ele>42.4354</ele>
        <time>2016-06-10T08:41:05Z</time>
      </trkpt>
      <trkpt lat="48.98375" lon="1.9564">
        <ele>45.7999</ele>
        <time>2016-06-10T08:41:10Z</time>
      </trkpt>
      <trkpt lat="48.98373" lon="1.95631">
        <ele>46.2806</ele>
        <time>2016-06-10T08:41:15Z</time>
      </trkpt>
      <trkpt lat="48.98369" lon="1.95618">
        <ele>48.684</ele>
        <time>2016-06-10T08:41:23Z</time>
      </trkpt>
      <trkpt lat="48.98368" lon="1.95614">
        <ele>49.6453</ele>
        <time>2016-06-10T08:41:25Z</time>
      </trkpt>
      <trkpt lat="48.98369" lon="1.95604">
        <ele>48.2034</ele>
        <time>2016-06-10T08:41:30Z</time>
      </trkpt>
      <trkpt lat="48.98368" lon="1.95594">
        <ele>47.7225</ele>
        <time>2016-06-10T08:41:34Z</time>
      </trkpt>
      <trkpt lat="48.98368" lon="1.95583">
        <ele>47.7225</ele>
        <time>2016-06-10T08:41:39Z</time>
      </trkpt>
      <trkpt lat="48.98367" lon="1.95575">
        <ele>47.7225</ele>
        <time>2016-06-10T08:41:43Z</time>
      </trkpt>
      <trkpt lat="48.98366" lon="1.95568">
        <ele>51.0872</ele>
        <time>2016-06-10T08:41:47Z</time>
      </trkpt>
      <trkpt lat="48.98365" lon="1.95554">
        <ele>50.6066</ele>
        <time>2016-06-10T08:41:54Z</time>
      </trkpt>
      <trkpt lat="48.98363" lon="1.95548">
        <ele>52.0486</ele>
        <time>2016-06-10T08:41:58Z</time>
      </trkpt>
      <trkpt lat="48.98363" lon="1.95532">
        <ele>48.684</ele>
        <time>2016-06-10T08:42:05Z</time>
      </trkpt>
      <trkpt lat="48.98363" lon="1.9553">
        <ele>48.684</ele>
        <time>2016-06-10T08:42:06Z</time>
      </trkpt>
      <trkpt lat="48.9836" lon="1.95513">
        <ele>41.9547</ele>
        <time>2016-06-10T08:42:12Z</time>
      </trkpt>
      <trkpt lat="48.9836" lon="1.95511">
        <ele>41.9547</ele>
        <time>2016-06-10T08:42:13Z</time>
      </trkpt>
      <trkpt lat="48.98362" lon="1.95506">
        <ele>40.0321</ele>
        <time>2016-06-10T08:42:16Z</time>
      </trkpt>
      <trkpt lat="48.9836" lon="1.95493">
        <ele>38.5901</ele>
        <time>2016-06-10T08:42:23Z</time>
      </trkpt>
      <trkpt lat="48.98358" lon="1.95481">
        <ele>39.0707</ele>
        <time>2016-06-10T08:42:29Z</time>
      </trkpt>
      <trkpt lat="48.98356" lon="1.95471">
        <ele>41.9547</ele>
        <time>2016-06-10T08:42:34Z</time>
      </trkpt>
      <trkpt lat="48.98354" lon="1.9546">
        <ele>44.358</ele>
        <time>2016-06-10T08:42:40Z</time>
      </trkpt>
      <trkpt lat="48.98353" lon="1.95458">
        <ele>44.8386</ele>
        <time>2016-06-10T08:42:41Z</time>
      </trkpt>
      <trkpt lat="48.98353" lon="1.95458">
        <ele>44.8386</ele>
        <time>2016-06-10T08:42:41Z</time>
      </trkpt>
      <trkpt lat="48.98351" lon="1.95449">
        <ele>44.8386</ele>
        <time>2016-06-10T08:42:46Z</time>
      </trkpt>
      <trkpt lat="48.9835" lon="1.95448">
        <ele>44.8386</ele>
        <time>2016-06-10T08:42:47Z</time>
      </trkpt>
      <trkpt lat="48.9835" lon="1.95436">
        <ele>45.7999</ele>
        <time>2016-06-10T08:42:53Z</time>
      </trkpt>
      <trkpt lat="48.9835" lon="1.95431">
        <ele>46.7612</ele>
        <time>2016-06-10T08:42:58Z</time>
      </trkpt>
      <trkpt lat="48.98354" lon="1.95423">
        <ele>41.9547</ele>
        <time>2016-06-10T08:43:11Z</time>
      </trkpt>
      <trkpt lat="48.98352" lon="1.95413">
        <ele>43.3966</ele>
        <time>2016-06-10T08:43:17Z</time>
      </trkpt>
      <trkpt lat="48.9835" lon="1.95398">
        <ele>41.9547</ele>
        <time>2016-06-10T08:43:24Z</time>
      </trkpt>
      <trkpt lat="48.98349" lon="1.95384">
        <ele>38.1094</ele>
        <time>2016-06-10T08:43:30Z</time>
      </trkpt>
      <trkpt lat="48.98347" lon="1.95375">
        <ele>34.7449</ele>
        <time>2016-06-10T08:43:34Z</time>
      </trkpt>
      <trkpt lat="48.98346" lon="1.95365">
        <ele>33.3029</ele>
        <time>2016-06-10T08:43:39Z</time>
      </trkpt>
      <trkpt lat="48.98341" lon="1.95354">
        <ele>39.5513</ele>
        <time>2016-06-10T08:43:46Z</time>
      </trkpt>
      <trkpt lat="48.9834" lon="1.95346">
        <ele>41.474</ele>
        <time>2016-06-10T08:43:50Z</time>
      </trkpt>
      <trkpt lat="48.98339" lon="1.95342">
        <ele>42.4354</ele>
        <time>2016-06-10T08:43:53Z</time>
      </trkpt>
      <trkpt lat="48.98337" lon="1.95327">
        <ele>39.0707</ele>
        <time>2016-06-10T08:43:59Z</time>
      </trkpt>
      <trkpt lat="48.98336" lon="1.95318">
        <ele>35.7061</ele>
        <time>2016-06-10T08:44:04Z</time>
      </trkpt>
      <trkpt lat="48.98334" lon="1.95308">
        <ele>36.6675</ele>
        <time>2016-06-10T08:44:09Z</time>
      </trkpt>
      <trkpt lat="48.98334" lon="1.95299">
        <ele>38.1094</ele>
        <time>2016-06-10T08:44:15Z</time>
      </trkpt>
      <trkpt lat="48.98335" lon="1.95285">
        <ele>40.5128</ele>
        <time>2016-06-10T08:44:22Z</time>
      </trkpt>
      <trkpt lat="48.98335" lon="1.95282">
        <ele>41.474</ele>
        <time>2016-06-10T08:44:24Z</time>
      </trkpt>
      <trkpt lat="48.98336" lon="1.95272">
        <ele>40.9934</ele>
        <time>2016-06-10T08:44:29Z</time>
      </trkpt>
      <trkpt lat="48.98337" lon="1.95269">
        <ele>38.5901</ele>
        <time>2016-06-10T08:44:31Z</time>
      </trkpt>
      <trkpt lat="48.98336" lon="1.95263">
        <ele>38.1094</ele>
        <time>2016-06-10T08:44:34Z</time>
      </trkpt>
      <trkpt lat="48.98338" lon="1.95249">
        <ele>37.6287</ele>
        <time>2016-06-10T08:44:41Z</time>
      </trkpt>
      <trkpt lat="48.98338" lon="1.95241">
        <ele>37.6287</ele>
        <time>2016-06-10T08:44:45Z</time>
      </trkpt>
      <trkpt lat="48.98338" lon="1.95233">
        <ele>36.1868</ele>
        <time>2016-06-10T08:44:49Z</time>
      </trkpt>
      <trkpt lat="48.98335" lon="1.95221">
        <ele>39.0707</ele>
        <time>2016-06-10T08:44:55Z</time>
      </trkpt>
      <trkpt lat="48.98333" lon="1.9521">
        <ele>36.1868</ele>
        <time>2016-06-10T08:45:00Z</time>
      </trkpt>
      <trkpt lat="48.98333" lon="1.95205">
        <ele>36.1868</ele>
        <time>2016-06-10T08:45:03Z</time>
      </trkpt>
      <trkpt lat="48.98332" lon="1.95197">
        <ele>39.5513</ele>
        <time>2016-06-10T08:45:07Z</time>
      </trkpt>
      <trkpt lat="48.98331" lon="1.95186">
        <ele>43.3966</ele>
        <time>2016-06-10T08:45:13Z</time>
      </trkpt>
      <trkpt lat="48.98332" lon="1.9517">
        <ele>39.5513</ele>
        <time>2016-06-10T08:45:21Z</time>
      </trkpt>
      <trkpt lat="48.98331" lon="1.95155">
        <ele>38.1094</ele>
        <time>2016-06-10T08:45:28Z</time>
      </trkpt>
      <trkpt lat="48.9833" lon="1.95143">
        <ele>36.1868</ele>
        <time>2016-06-10T08:45:34Z</time>
      </trkpt>
      <trkpt lat="48.9833" lon="1.95137">
        <ele>36.1868</ele>
        <time>2016-06-10T08:45:38Z</time>
      </trkpt>
      <trkpt lat="48.98329" lon="1.9513">
        <ele>37.1481</ele>
        <time>2016-06-10T08:45:41Z</time>
      </trkpt>
      <trkpt lat="48.98329" lon="1.95119">
        <ele>39.0707</ele>
        <time>2016-06-10T08:45:47Z</time>
      </trkpt>
      <trkpt lat="48.98328" lon="1.95115">
        <ele>40.0321</ele>
        <time>2016-06-10T08:45:49Z</time>
      </trkpt>
      <trkpt lat="48.98325" lon="1.95105">
        <ele>42.916</ele>
        <time>2016-06-10T08:45:55Z</time>
      </trkpt>
      <trkpt lat="48.98324" lon="1.951">
        <ele>47.2418</ele>
        <time>2016-06-10T08:45:58Z</time>
      </trkpt>
      <trkpt lat="48.98323" lon="1.95091">
        <ele>52.5292</ele>
        <time>2016-06-10T08:46:03Z</time>
      </trkpt>
      <trkpt lat="48.98323" lon="1.95079">
        <ele>52.5292</ele>
        <time>2016-06-10T08:46:09Z</time>
      </trkpt>
      <trkpt lat="48.9832" lon="1.95071">
        <ele>51.0872</ele>
        <time>2016-06-10T08:46:14Z</time>
      </trkpt>
      <trkpt lat="48.98319" lon="1.95059">
        <ele>52.5292</ele>
        <time>2016-06-10T08:46:21Z</time>
      </trkpt>
      <trkpt lat="48.98316" lon="1.95052">
        <ele>50.126</ele>
        <time>2016-06-10T08:46:36Z</time>
      </trkpt>
      <trkpt lat="48.98312" lon="1.95045">
        <ele>48.684</ele>
        <time>2016-06-10T08:46:42Z</time>
      </trkpt>
      <trkpt lat="48.98307" lon="1.95034">
        <ele>49.6453</ele>
        <time>2016-06-10T08:46:48Z</time>
      </trkpt>
      <trkpt lat="48.98305" lon="1.95026">
        <ele>53.0098</ele>
        <time>2016-06-10T08:46:52Z</time>
      </trkpt>
      <trkpt lat="48.98304" lon="1.95023">
        <ele>54.9324</ele>
        <time>2016-06-10T08:46:54Z</time>
      </trkpt>
      <trkpt lat="48.98303" lon="1.95016">
        <ele>54.9324</ele>
        <time>2016-06-10T08:46:58Z</time>
      </trkpt>
      <trkpt lat="48.98299" lon="1.95002">
        <ele>54.9324</ele>
        <time>2016-06-10T08:47:05Z</time>
      </trkpt>
      <trkpt lat="48.98298" lon="1.94995">
        <ele>57.3358</ele>
        <time>2016-06-10T08:47:09Z</time>
      </trkpt>
      <trkpt lat="48.98295" lon="1.94983">
        <ele>58.7777</ele>
        <time>2016-06-10T08:47:16Z</time>
      </trkpt>
      <trkpt lat="48.98294" lon="1.94981">
        <ele>59.2584</ele>
        <time>2016-06-10T08:47:17Z</time>
      </trkpt>
      <trkpt lat="48.98294" lon="1.94961">
        <ele>52.5292</ele>
        <time>2016-06-10T08:47:23Z</time>
      </trkpt>
      <trkpt lat="48.98293" lon="1.94957">
        <ele>52.5292</ele>
        <time>2016-06-10T08:47:25Z</time>
      </trkpt>
      <trkpt lat="48.98291" lon="1.94942">
        <ele>52.0486</ele>
        <time>2016-06-10T08:47:33Z</time>
      </trkpt>
      <trkpt lat="48.98289" lon="1.94936">
        <ele>49.1646</ele>
        <time>2016-06-10T08:47:36Z</time>
      </trkpt>
      <trkpt lat="48.98287" lon="1.94927">
        <ele>49.6453</ele>
        <time>2016-06-10T08:47:41Z</time>
      </trkpt>
      <trkpt lat="48.98286" lon="1.94915">
        <ele>48.2034</ele>
        <time>2016-06-10T08:47:47Z</time>
      </trkpt>
      <trkpt lat="48.98284" lon="1.94899">
        <ele>40.9934</ele>
        <time>2016-06-10T08:47:55Z</time>
      </trkpt>
      <trkpt lat="48.98282" lon="1.94892">
        <ele>39.0707</ele>
        <time>2016-06-10T08:47:58Z</time>
      </trkpt>
      <trkpt lat="48.98278" lon="1.94878">
        <ele>40.9934</ele>
        <time>2016-06-10T08:48:05Z</time>
      </trkpt>
      <trkpt lat="48.98278" lon="1.94874">
        <ele>43.3966</ele>
        <time>2016-06-10T08:48:07Z</time>
      </trkpt>
      <trkpt lat="48.98274" lon="1.94863">
        <ele>46.2806</ele>
        <time>2016-06-10T08:48:13Z</time>
      </trkpt>
      <trkpt lat="48.98274" lon="1.94856">
        <ele>46.7612</ele>
        <time>2016-06-10T08:48:17Z</time>
      </trkpt>
      <trkpt lat="48.98272" lon="1.94848">
        <ele>49.1646</ele>
        <time>2016-06-10T08:48:22Z</time>
      </trkpt>
      <trkpt lat="48.98268" lon="1.94837">
        <ele>53.0098</ele>
        <time>2016-06-10T08:48:29Z</time>
      </trkpt>
      <trkpt lat="48.98264" lon="1.94826">
        <ele>53.9712</ele>
        <time>2016-06-10T08:48:34Z</time>
      </trkpt>
      <trkpt lat="48.98262" lon="1.94814">
        <ele>55.4131</ele>
        <time>2016-06-10T08:48:41Z</time>
      </trkpt>
      <trkpt lat="48.98259" lon="1.94808">
        <ele>57.8165</ele>
        <time>2016-06-10T08:48:47Z</time>
      </trkpt>
      <trkpt lat="48.98253" lon="1.94811">
        <ele>57.3358</ele>
        <time>2016-06-10T08:48:53Z</time>
      </trkpt>
      <trkpt lat="48.98253" lon="1.94812">
        <ele>57.8165</ele>
        <time>2016-06-10T08:48:54Z</time>
      </trkpt>
      <trkpt lat="48.98251" lon="1.94812">
        <ele>58.2971</ele>
        <time>2016-06-10T08:48:56Z</time>
      </trkpt>
      <trkpt lat="48.98244" lon="1.94817">
        <ele>58.7777</ele>
        <time>2016-06-10T08:49:03Z</time>
      </trkpt>
      <trkpt lat="48.98235" lon="1.94812">
        <ele>60.2197</ele>
        <time>2016-06-10T08:49:09Z</time>
      </trkpt>
      <trkpt lat="48.98232" lon="1.94814">
        <ele>64.0651</ele>
        <time>2016-06-10T08:49:14Z</time>
      </trkpt>
      <trkpt lat="48.98229" lon="1.9481">
        <ele>62.1423</ele>
        <time>2016-06-10T08:49:25Z</time>
      </trkpt>
      <trkpt lat="48.98227" lon="1.94812">
        <ele>60.2197</ele>
        <time>2016-06-10T08:49:27Z</time>
      </trkpt>
      <trkpt lat="48.98223" lon="1.94816">
        <ele>54.9324</ele>
        <time>2016-06-10T08:49:31Z</time>
      </trkpt>
      <trkpt lat="48.98214" lon="1.94823">
        <ele>42.4354</ele>
        <time>2016-06-10T08:49:40Z</time>
      </trkpt>
      <trkpt lat="48.98206" lon="1.94828">
        <ele>43.3966</ele>
        <time>2016-06-10T08:49:48Z</time>
      </trkpt>
      <trkpt lat="48.98204" lon="1.94829">
        <ele>43.8773</ele>
        <time>2016-06-10T08:49:50Z</time>
      </trkpt>
      <trkpt lat="48.98194" lon="1.94835">
        <ele>43.3966</ele>
        <time>2016-06-10T08:49:58Z</time>
      </trkpt>
      <trkpt lat="48.98188" lon="1.94837">
        <ele>42.4354</ele>
        <time>2016-06-10T08:50:03Z</time>
      </trkpt>
      <trkpt lat="48.98179" lon="1.94845">
        <ele>40.5128</ele>
        <time>2016-06-10T08:50:12Z</time>
      </trkpt>
      <trkpt lat="48.98175" lon="1.94847">
        <ele>40.9934</ele>
        <time>2016-06-10T08:50:15Z</time>
      </trkpt>
      <trkpt lat="48.98173" lon="1.9485">
        <ele>40.0321</ele>
        <time>2016-06-10T08:50:17Z</time>
      </trkpt>
      <trkpt lat="48.9816" lon="1.9486">
        <ele>40.0321</ele>
        <time>2016-06-10T08:50:26Z</time>
      </trkpt>
      <trkpt lat="48.98159" lon="1.94862">
        <ele>41.474</ele>
        <time>2016-06-10T08:50:27Z</time>
      </trkpt>
      <trkpt lat="48.98149" lon="1.94869">
        <ele>42.4354</ele>
        <time>2016-06-10T08:50:36Z</time>
      </trkpt>
      <trkpt lat="48.98138" lon="1.94877">
        <ele>39.0707</ele>
        <time>2016-06-10T08:50:45Z</time>
      </trkpt>
      <trkpt lat="48.98127" lon="1.94881">
        <ele>36.1868</ele>
        <time>2016-06-10T08:50:53Z</time>
      </trkpt>
      <trkpt lat="48.98115" lon="1.94885">
        <ele>36.6675</ele>
        <time>2016-06-10T08:51:02Z</time>
      </trkpt>
      <trkpt lat="48.98106" lon="1.9489">
        <ele>34.2642</ele>
        <time>2016-06-10T08:51:09Z</time>
      </trkpt>
      <trkpt lat="48.98093" lon="1.94898">
        <ele>35.2255</ele>
        <time>2016-06-10T08:51:18Z</time>
      </trkpt>
      <trkpt lat="48.9809" lon="1.94899">
        <ele>35.7061</ele>
        <time>2016-06-10T08:51:20Z</time>
      </trkpt>
      <trkpt lat="48.98083" lon="1.94904">
        <ele>36.1868</ele>
        <time>2016-06-10T08:51:26Z</time>
      </trkpt>
      <trkpt lat="48.98076" lon="1.94906">
        <ele>34.7449</ele>
        <time>2016-06-10T08:51:31Z</time>
      </trkpt>
      <trkpt lat="48.98067" lon="1.94912">
        <ele>35.7061</ele>
        <time>2016-06-10T08:51:38Z</time>
      </trkpt>
      <trkpt lat="48.98059" lon="1.94917">
        <ele>35.7061</ele>
        <time>2016-06-10T08:51:45Z</time>
      </trkpt>
      <trkpt lat="48.98056" lon="1.9492">
        <ele>34.2642</ele>
        <time>2016-06-10T08:51:48Z</time>
      </trkpt>
      <trkpt lat="48.98053" lon="1.94923">
        <ele>33.7834</ele>
        <time>2016-06-10T08:51:51Z</time>
      </trkpt>
      <trkpt lat="48.98044" lon="1.94931">
        <ele>31.3801</ele>
        <time>2016-06-10T08:51:58Z</time>
      </trkpt>
      <trkpt lat="48.98041" lon="1.94934">
        <ele>30.4188</ele>
        <time>2016-06-10T08:52:00Z</time>
      </trkpt>
      <trkpt lat="48.98031" lon="1.94942">
        <ele>33.3029</ele>
        <time>2016-06-10T08:52:07Z</time>
      </trkpt>
      <trkpt lat="48.98024" lon="1.94946">
        <ele>33.7834</ele>
        <time>2016-06-10T08:52:11Z</time>
      </trkpt>
      <trkpt lat="48.98019" lon="1.94948">
        <ele>34.7449</ele>
        <time>2016-06-10T08:52:14Z</time>
      </trkpt>
      <trkpt lat="48.98017" lon="1.94949">
        <ele>34.2642</ele>
        <time>2016-06-10T08:52:16Z</time>
      </trkpt>
      <trkpt lat="48.9801" lon="1.94954">
        <ele>35.2255</ele>
        <time>2016-06-10T08:52:21Z</time>
      </trkpt>
      <trkpt lat="48.98003" lon="1.94955">
        <ele>39.0707</ele>
        <time>2016-06-10T08:52:26Z</time>
      </trkpt>
      <trkpt lat="48.98001" lon="1.94955">
        <ele>40.5128</ele>
        <time>2016-06-10T08:52:28Z</time>
      </trkpt>
      <trkpt lat="48.97996" lon="1.94958">
        <ele>38.1094</ele>
        <time>2016-06-10T08:52:32Z</time>
      </trkpt>
      <trkpt lat="48.97985" lon="1.94969">
        <ele>42.916</ele>
        <time>2016-06-10T08:52:39Z</time>
      </trkpt>
      <trkpt lat="48.97976" lon="1.94979">
        <ele>41.9547</ele>
        <time>2016-06-10T08:52:46Z</time>
      </trkpt>
      <trkpt lat="48.97974" lon="1.94981">
        <ele>41.474</ele>
        <time>2016-06-10T08:52:48Z</time>
      </trkpt>
      <trkpt lat="48.97972" lon="1.94987">
        <ele>39.5513</ele>
        <time>2016-06-10T08:52:52Z</time>
      </trkpt>
      <trkpt lat="48.97973" lon="1.94992">
        <ele>40.0321</ele>
        <time>2016-06-10T08:53:02Z</time>
      </trkpt>
      <trkpt lat="48.97971" lon="1.94996">
        <ele>41.474</ele>
        <time>2016-06-10T08:53:17Z</time>
      </trkpt>
      <trkpt lat="48.97969" lon="1.95">
        <ele>44.8386</ele>
        <time>2016-06-10T08:53:25Z</time>
      </trkpt>
      <trkpt lat="48.97966" lon="1.95003">
        <ele>54.4518</ele>
        <time>2016-06-10T08:53:56Z</time>
      </trkpt>
      <trkpt lat="48.97959" lon="1.95007">
        <ele>46.2806</ele>
        <time>2016-06-10T08:54:14Z</time>
      </trkpt>
      <trkpt lat="48.97958" lon="1.95007">
        <ele>47.7225</ele>
        <time>2016-06-10T08:54:20Z</time>
      </trkpt>
      <trkpt lat="48.97957" lon="1.95011">
        <ele>54.9324</ele>
        <time>2016-06-10T08:54:32Z</time>
      </trkpt>
      <trkpt lat="48.97959" lon="1.95014">
        <ele>59.7391</ele>
        <time>2016-06-10T08:55:02Z</time>
      </trkpt>
      <trkpt lat="48.97956" lon="1.95016">
        <ele>56.8551</ele>
        <time>2016-06-10T08:55:06Z</time>
      </trkpt>
      <trkpt lat="48.97947" lon="1.95022">
        <ele>51.0872</ele>
        <time>2016-06-10T08:55:14Z</time>
      </trkpt>
      <trkpt lat="48.9794" lon="1.95028">
        <ele>49.1646</ele>
        <time>2016-06-10T08:55:21Z</time>
      </trkpt>
      <trkpt lat="48.9794" lon="1.9503">
        <ele>48.2034</ele>
        <time>2016-06-10T08:55:23Z</time>
      </trkpt>
      <trkpt lat="48.97934" lon="1.95035">
        <ele>47.7225</ele>
        <time>2016-06-10T08:55:31Z</time>
      </trkpt>
      <trkpt lat="48.97928" lon="1.95035">
        <ele>45.7999</ele>
        <time>2016-06-10T08:55:35Z</time>
      </trkpt>
      <trkpt lat="48.97924" lon="1.95036">
        <ele>44.8386</ele>
        <time>2016-06-10T08:55:39Z</time>
      </trkpt>
      <trkpt lat="48.97915" lon="1.95043">
        <ele>46.7612</ele>
        <time>2016-06-10T08:55:49Z</time>
      </trkpt>
      <trkpt lat="48.97904" lon="1.95046">
        <ele>45.7999</ele>
        <time>2016-06-10T08:55:56Z</time>
      </trkpt>
      <trkpt lat="48.97896" lon="1.95054">
        <ele>41.9547</ele>
        <time>2016-06-10T08:56:03Z</time>
      </trkpt>
      <trkpt lat="48.9789" lon="1.95057">
        <ele>40.0321</ele>
        <time>2016-06-10T08:56:08Z</time>
      </trkpt>
      <trkpt lat="48.97888" lon="1.95058">
        <ele>38.5901</ele>
        <time>2016-06-10T08:56:10Z</time>
      </trkpt>
      <trkpt lat="48.97879" lon="1.95069">
        <ele>52.0486</ele>
        <time>2016-06-10T08:56:20Z</time>
      </trkpt>
      <trkpt lat="48.97875" lon="1.95074">
        <ele>61.6617</ele>
        <time>2016-06-10T08:56:45Z</time>
      </trkpt>
      <trkpt lat="48.97873" lon="1.95079">
        <ele>58.7777</ele>
        <time>2016-06-10T08:56:49Z</time>
      </trkpt>
      <trkpt lat="48.97867" lon="1.95081">
        <ele>56.8551</ele>
        <time>2016-06-10T08:56:55Z</time>
      </trkpt>
      <trkpt lat="48.97858" lon="1.95083">
        <ele>53.9712</ele>
        <time>2016-06-10T08:57:01Z</time>
      </trkpt>
      <trkpt lat="48.97856" lon="1.95085">
        <ele>52.5292</ele>
        <time>2016-06-10T08:57:03Z</time>
      </trkpt>
      <trkpt lat="48.97854" lon="1.95086">
        <ele>53.0098</ele>
        <time>2016-06-10T08:57:04Z</time>
      </trkpt>
      <trkpt lat="48.97845" lon="1.95094">
        <ele>48.2034</ele>
        <time>2016-06-10T08:57:12Z</time>
      </trkpt>
      <trkpt lat="48.97838" lon="1.95098">
        <ele>46.2806</ele>
        <time>2016-06-10T08:57:17Z</time>
      </trkpt>
      <trkpt lat="48.9783" lon="1.95099">
        <ele>43.8773</ele>
        <time>2016-06-10T08:57:23Z</time>
      </trkpt>
      <trkpt lat="48.97825" lon="1.95103">
        <ele>43.3966</ele>
        <time>2016-06-10T08:57:27Z</time>
      </trkpt>
      <trkpt lat="48.97819" lon="1.95108">
        <ele>46.7612</ele>
        <time>2016-06-10T08:57:31Z</time>
      </trkpt>
      <trkpt lat="48.97817" lon="1.95109">
        <ele>46.7612</ele>
        <time>2016-06-10T08:57:32Z</time>
      </trkpt>
      <trkpt lat="48.97807" lon="1.95114">
        <ele>48.2034</ele>
        <time>2016-06-10T08:57:39Z</time>
      </trkpt>
      <trkpt lat="48.97798" lon="1.95116">
        <ele>46.7612</ele>
        <time>2016-06-10T08:57:45Z</time>
      </trkpt>
      <trkpt lat="48.97788" lon="1.95119">
        <ele>45.7999</ele>
        <time>2016-06-10T08:57:53Z</time>
      </trkpt>
      <trkpt lat="48.97781" lon="1.95123">
        <ele>44.358</ele>
        <time>2016-06-10T08:57:59Z</time>
      </trkpt>
      <trkpt lat="48.97779" lon="1.95125">
        <ele>43.3966</ele>
        <time>2016-06-10T08:58:01Z</time>
      </trkpt>
      <trkpt lat="48.97772" lon="1.95127">
        <ele>42.4354</ele>
        <time>2016-06-10T08:58:06Z</time>
      </trkpt>
      <trkpt lat="48.97763" lon="1.95132">
        <ele>43.8773</ele>
        <time>2016-06-10T08:58:13Z</time>
      </trkpt>
      <trkpt lat="48.97757" lon="1.95135">
        <ele>43.8773</ele>
        <time>2016-06-10T08:58:18Z</time>
      </trkpt>
      <trkpt lat="48.97747" lon="1.95141">
        <ele>41.9547</ele>
        <time>2016-06-10T08:58:26Z</time>
      </trkpt>
      <trkpt lat="48.97737" lon="1.95147">
        <ele>42.4354</ele>
        <time>2016-06-10T08:58:34Z</time>
      </trkpt>
      <trkpt lat="48.97727" lon="1.95152">
        <ele>46.2806</ele>
        <time>2016-06-10T08:58:42Z</time>
      </trkpt>
      <trkpt lat="48.97717" lon="1.95156">
        <ele>46.2806</ele>
        <time>2016-06-10T08:58:49Z</time>
      </trkpt>
      <trkpt lat="48.97707" lon="1.95161">
        <ele>43.8773</ele>
        <time>2016-06-10T08:58:57Z</time>
      </trkpt>
      <trkpt lat="48.97698" lon="1.95164">
        <ele>42.916</ele>
        <time>2016-06-10T08:59:04Z</time>
      </trkpt>
      <trkpt lat="48.97692" lon="1.95167">
        <ele>41.9547</ele>
        <time>2016-06-10T08:59:09Z</time>
      </trkpt>
      <trkpt lat="48.97688" lon="1.95168">
        <ele>41.9547</ele>
        <time>2016-06-10T08:59:13Z</time>
      </trkpt>
      <trkpt lat="48.97675" lon="1.95175">
        <ele>45.7999</ele>
        <time>2016-06-10T08:59:21Z</time>
      </trkpt>
      <trkpt lat="48.97673" lon="1.95176">
        <ele>45.3192</ele>
        <time>2016-06-10T08:59:23Z</time>
      </trkpt>
      <trkpt lat="48.97664" lon="1.95177">
        <ele>51.0872</ele>
        <time>2016-06-10T08:59:29Z</time>
      </trkpt>
      <trkpt lat="48.97655" lon="1.95176">
        <ele>53.9712</ele>
        <time>2016-06-10T08:59:36Z</time>
      </trkpt>
      <trkpt lat="48.97645" lon="1.95181">
        <ele>55.4131</ele>
        <time>2016-06-10T08:59:43Z</time>
      </trkpt>
      <trkpt lat="48.97639" lon="1.95184">
        <ele>55.8938</ele>
        <time>2016-06-10T08:59:47Z</time>
      </trkpt>
      <trkpt lat="48.97631" lon="1.9519">
        <ele>56.8551</ele>
        <time>2016-06-10T08:59:53Z</time>
      </trkpt>
      <trkpt lat="48.97627" lon="1.95192">
        <ele>53.9712</ele>
        <time>2016-06-10T08:59:56Z</time>
      </trkpt>
      <trkpt lat="48.97615" lon="1.95194">
        <ele>53.4905</ele>
        <time>2016-06-10T09:00:03Z</time>
      </trkpt>
      <trkpt lat="48.97606" lon="1.95195">
        <ele>52.0486</ele>
        <time>2016-06-10T09:00:09Z</time>
      </trkpt>
      <trkpt lat="48.976" lon="1.95196">
        <ele>53.4905</ele>
        <time>2016-06-10T09:00:13Z</time>
      </trkpt>
      <trkpt lat="48.97592" lon="1.952">
        <ele>54.4518</ele>
        <time>2016-06-10T09:00:18Z</time>
      </trkpt>
      <trkpt lat="48.97586" lon="1.95201">
        <ele>55.8938</ele>
        <time>2016-06-10T09:00:23Z</time>
      </trkpt>
      <trkpt lat="48.97577" lon="1.95202">
        <ele>54.4518</ele>
        <time>2016-06-10T09:00:31Z</time>
      </trkpt>
      <trkpt lat="48.9757" lon="1.95202">
        <ele>50.126</ele>
        <time>2016-06-10T09:00:38Z</time>
      </trkpt>
      <trkpt lat="48.97567" lon="1.95206">
        <ele>49.6453</ele>
        <time>2016-06-10T09:00:40Z</time>
      </trkpt>
      <trkpt lat="48.97568" lon="1.95212">
        <ele>48.2034</ele>
        <time>2016-06-10T09:00:46Z</time>
      </trkpt>
      <trkpt lat="48.97571" lon="1.95217">
        <ele>46.7612</ele>
        <time>2016-06-10T09:00:49Z</time>
      </trkpt>
      <trkpt lat="48.9757" lon="1.95233">
        <ele>46.7612</ele>
        <time>2016-06-10T09:00:57Z</time>
      </trkpt>
      <trkpt lat="48.97569" lon="1.95244">
        <ele>46.2806</ele>
        <time>2016-06-10T09:01:02Z</time>
      </trkpt>
      <trkpt lat="48.97566" lon="1.95258">
        <ele>45.3192</ele>
        <time>2016-06-10T09:01:09Z</time>
      </trkpt>
      <trkpt lat="48.97562" lon="1.95273">
        <ele>46.2806</ele>
        <time>2016-06-10T09:01:17Z</time>
      </trkpt>
      <trkpt lat="48.97558" lon="1.95281">
        <ele>43.8773</ele>
        <time>2016-06-10T09:01:23Z</time>
      </trkpt>
      <trkpt lat="48.97558" lon="1.95282">
        <ele>42.916</ele>
        <time>2016-06-10T09:01:24Z</time>
      </trkpt>
      <trkpt lat="48.97555" lon="1.9529">
        <ele>43.8773</ele>
        <time>2016-06-10T09:01:29Z</time>
      </trkpt>
      <trkpt lat="48.97554" lon="1.95294">
        <ele>43.8773</ele>
        <time>2016-06-10T09:01:31Z</time>
      </trkpt>
      <trkpt lat="48.97555" lon="1.95301">
        <ele>42.4354</ele>
        <time>2016-06-10T09:01:35Z</time>
      </trkpt>
      <trkpt lat="48.97551" lon="1.95309">
        <ele>39.0707</ele>
        <time>2016-06-10T09:01:42Z</time>
      </trkpt>
      <trkpt lat="48.97547" lon="1.95315">
        <ele>38.5901</ele>
        <time>2016-06-10T09:01:47Z</time>
      </trkpt>
      <trkpt lat="48.97546" lon="1.95328">
        <ele>36.1868</ele>
        <time>2016-06-10T09:01:54Z</time>
      </trkpt>
      <trkpt lat="48.97546" lon="1.95329">
        <ele>35.2255</ele>
        <time>2016-06-10T09:01:55Z</time>
      </trkpt>
      <trkpt lat="48.97551" lon="1.95338">
        <ele>37.6287</ele>
        <time>2016-06-10T09:02:02Z</time>
      </trkpt>
      <trkpt lat="48.97554" lon="1.95336">
        <ele>40.5128</ele>
        <time>2016-06-10T09:02:06Z</time>
      </trkpt>
      <trkpt lat="48.97562" lon="1.95336">
        <ele>42.916</ele>
        <time>2016-06-10T09:02:12Z</time>
      </trkpt>
      <trkpt lat="48.97567" lon="1.95341">
        <ele>44.8386</ele>
        <time>2016-06-10T09:02:18Z</time>
      </trkpt>
      <trkpt lat="48.97572" lon="1.95353">
        <ele>40.9934</ele>
        <time>2016-06-10T09:02:24Z</time>
      </trkpt>
      <trkpt lat="48.97572" lon="1.95356">
        <ele>40.5128</ele>
        <time>2016-06-10T09:02:25Z</time>
      </trkpt>
      <trkpt lat="48.97575" lon="1.95371">
        <ele>34.7449</ele>
        <time>2016-06-10T09:02:32Z</time>
      </trkpt>
      <trkpt lat="48.97576" lon="1.95377">
        <ele>38.1094</ele>
        <time>2016-06-10T09:02:37Z</time>
      </trkpt>
      <trkpt lat="48.97578" lon="1.95391">
        <ele>41.474</ele>
        <time>2016-06-10T09:02:44Z</time>
      </trkpt>
      <trkpt lat="48.97584" lon="1.95404">
        <ele>45.3192</ele>
        <time>2016-06-10T09:02:52Z</time>
      </trkpt>
      <trkpt lat="48.97592" lon="1.95409">
        <ele>45.7999</ele>
        <time>2016-06-10T09:02:59Z</time>
      </trkpt>
      <trkpt lat="48.97596" lon="1.95412">
        <ele>47.2418</ele>
        <time>2016-06-10T09:03:04Z</time>
      </trkpt>
      <trkpt lat="48.97603" lon="1.95419">
        <ele>49.6453</ele>
        <time>2016-06-10T09:03:10Z</time>
      </trkpt>
      <trkpt lat="48.97604" lon="1.95421">
        <ele>49.1646</ele>
        <time>2016-06-10T09:03:11Z</time>
      </trkpt>
      <trkpt lat="48.97609" lon="1.95426">
        <ele>45.3192</ele>
        <time>2016-06-10T09:03:16Z</time>
      </trkpt>
      <trkpt lat="48.97612" lon="1.95428">
        <ele>44.358</ele>
        <time>2016-06-10T09:03:19Z</time>
      </trkpt>
      <trkpt lat="48.97619" lon="1.95441">
        <ele>41.9547</ele>
        <time>2016-06-10T09:03:25Z</time>
      </trkpt>
      <trkpt lat="48.9762" lon="1.95444">
        <ele>40.9934</ele>
        <time>2016-06-10T09:03:27Z</time>
      </trkpt>
      <trkpt lat="48.97622" lon="1.95451">
        <ele>39.5513</ele>
        <time>2016-06-10T09:03:30Z</time>
      </trkpt>
      <trkpt lat="48.97625" lon="1.95463">
        <ele>38.5901</ele>
        <time>2016-06-10T09:03:36Z</time>
      </trkpt>
      <trkpt lat="48.97626" lon="1.95464">
        <ele>38.5901</ele>
        <time>2016-06-10T09:03:37Z</time>
      </trkpt>
      <trkpt lat="48.97629" lon="1.95468">
        <ele>38.1094</ele>
        <time>2016-06-10T09:03:40Z</time>
      </trkpt>
      <trkpt lat="48.97634" lon="1.95474">
        <ele>37.6287</ele>
        <time>2016-06-10T09:03:46Z</time>
      </trkpt>
      <trkpt lat="48.9764" lon="1.95482">
        <ele>38.5901</ele>
        <time>2016-06-10T09:03:52Z</time>
      </trkpt>
      <trkpt lat="48.9764" lon="1.95509">
        <ele>52.5292</ele>
        <time>2016-06-10T09:05:29Z</time>
      </trkpt>
      <trkpt lat="48.9764" lon="1.95513">
        <ele>53.4905</ele>
        <time>2016-06-10T09:05:33Z</time>
      </trkpt>
      <trkpt lat="48.97641" lon="1.95519">
        <ele>49.1646</ele>
        <time>2016-06-10T09:05:56Z</time>
      </trkpt>
      <trkpt lat="48.97639" lon="1.9552">
        <ele>46.7612</ele>
        <time>2016-06-10T09:06:19Z</time>
      </trkpt>
      <trkpt lat="48.97644" lon="1.95524">
        <ele>43.3966</ele>
        <time>2016-06-10T09:06:26Z</time>
      </trkpt>
      <trkpt lat="48.97647" lon="1.95529">
        <ele>39.5513</ele>
        <time>2016-06-10T09:06:31Z</time>
      </trkpt>
      <trkpt lat="48.97651" lon="1.95536">
        <ele>38.5901</ele>
        <time>2016-06-10T09:06:37Z</time>
      </trkpt>
      <trkpt lat="48.97657" lon="1.95539">
        <ele>39.5513</ele>
        <time>2016-06-10T09:06:43Z</time>
      </trkpt>
      <trkpt lat="48.97661" lon="1.95538">
        <ele>39.0707</ele>
        <time>2016-06-10T09:06:46Z</time>
      </trkpt>
      <trkpt lat="48.97669" lon="1.95534">
        <ele>40.9934</ele>
        <time>2016-06-10T09:06:53Z</time>
      </trkpt>
      <trkpt lat="48.97676" lon="1.95528">
        <ele>41.474</ele>
        <time>2016-06-10T09:06:59Z</time>
      </trkpt>
      <trkpt lat="48.97682" lon="1.95523">
        <ele>40.5128</ele>
        <time>2016-06-10T09:07:04Z</time>
      </trkpt>
      <trkpt lat="48.9769" lon="1.95519">
        <ele>42.916</ele>
        <time>2016-06-10T09:07:10Z</time>
      </trkpt>
      <trkpt lat="48.97692" lon="1.95519">
        <ele>42.916</ele>
        <time>2016-06-10T09:07:11Z</time>
      </trkpt>
      <trkpt lat="48.97702" lon="1.9552">
        <ele>41.9547</ele>
        <time>2016-06-10T09:07:18Z</time>
      </trkpt>
      <trkpt lat="48.97704" lon="1.9552">
        <ele>40.9934</ele>
        <time>2016-06-10T09:07:19Z</time>
      </trkpt>
      <trkpt lat="48.97717" lon="1.95527">
        <ele>38.1094</ele>
        <time>2016-06-10T09:07:26Z</time>
      </trkpt>
      <trkpt lat="48.9772" lon="1.95531">
        <ele>37.1481</ele>
        <time>2016-06-10T09:07:29Z</time>
      </trkpt>
      <trkpt lat="48.97724" lon="1.95531">
        <ele>37.6287</ele>
        <time>2016-06-10T09:07:33Z</time>
      </trkpt>
      <trkpt lat="48.97732" lon="1.95528">
        <ele>40.9934</ele>
        <time>2016-06-10T09:07:39Z</time>
      </trkpt>
      <trkpt lat="48.97737" lon="1.95525">
        <ele>42.916</ele>
        <time>2016-06-10T09:07:43Z</time>
      </trkpt>
      <trkpt lat="48.97742" lon="1.95524">
        <ele>43.3966</ele>
        <time>2016-06-10T09:07:47Z</time>
      </trkpt>
      <trkpt lat="48.97752" lon="1.95519">
        <ele>43.3966</ele>
        <time>2016-06-10T09:07:54Z</time>
      </trkpt>
      <trkpt lat="48.97754" lon="1.95517">
        <ele>43.8773</ele>
        <time>2016-06-10T09:07:55Z</time>
      </trkpt>
      <trkpt lat="48.97758" lon="1.95517">
        <ele>42.4354</ele>
        <time>2016-06-10T09:07:57Z</time>
      </trkpt>
      <trkpt lat="48.97763" lon="1.95517">
        <ele>40.9934</ele>
        <time>2016-06-10T09:08:02Z</time>
      </trkpt>
      <trkpt lat="48.9777" lon="1.95524">
        <ele>35.7061</ele>
        <time>2016-06-10T09:08:09Z</time>
      </trkpt>
      <trkpt lat="48.97771" lon="1.95531">
        <ele>35.7061</ele>
        <time>2016-06-10T09:08:15Z</time>
      </trkpt>
      <trkpt lat="48.97772" lon="1.95541">
        <ele>32.8223</ele>
        <time>2016-06-10T09:08:22Z</time>
      </trkpt>
      <trkpt lat="48.97766" lon="1.95549">
        <ele>33.3029</ele>
        <time>2016-06-10T09:08:28Z</time>
      </trkpt>
      <trkpt lat="48.97764" lon="1.95555">
        <ele>33.7834</ele>
        <time>2016-06-10T09:08:32Z</time>
      </trkpt>
      <trkpt lat="48.9776" lon="1.95564">
        <ele>30.8995</ele>
        <time>2016-06-10T09:08:37Z</time>
      </trkpt>
      <trkpt lat="48.9776" lon="1.9557">
        <ele>29.4575</ele>
        <time>2016-06-10T09:08:40Z</time>
      </trkpt>
      <trkpt lat="48.97759" lon="1.95577">
        <ele>28.9769</ele>
        <time>2016-06-10T09:08:44Z</time>
      </trkpt>
      <trkpt lat="48.97758" lon="1.95579">
        <ele>27.5349</ele>
        <time>2016-06-10T09:08:46Z</time>
      </trkpt>
      <trkpt lat="48.97759" lon="1.95589">
        <ele>29.9381</ele>
        <time>2016-06-10T09:08:50Z</time>
      </trkpt>
      <trkpt lat="48.97756" lon="1.95598">
        <ele>22.7283</ele>
        <time>2016-06-10T09:08:57Z</time>
      </trkpt>
      <trkpt lat="48.97751" lon="1.95609">
        <ele>23.209</ele>
        <time>2016-06-10T09:09:04Z</time>
      </trkpt>
      <trkpt lat="48.97749" lon="1.95618">
        <ele>27.0543</ele>
        <time>2016-06-10T09:09:11Z</time>
      </trkpt>
      <trkpt lat="48.97741" lon="1.95632">
        <ele>46.7612</ele>
        <time>2016-06-10T09:09:42Z</time>
      </trkpt>
      <trkpt lat="48.97742" lon="1.95638">
        <ele>43.8773</ele>
        <time>2016-06-10T09:09:45Z</time>
      </trkpt>
      <trkpt lat="48.97747" lon="1.95649">
        <ele>40.5128</ele>
        <time>2016-06-10T09:09:52Z</time>
      </trkpt>
      <trkpt lat="48.97744" lon="1.95657">
        <ele>37.1481</ele>
        <time>2016-06-10T09:09:58Z</time>
      </trkpt>
      <trkpt lat="48.97742" lon="1.95666">
        <ele>32.3416</ele>
        <time>2016-06-10T09:10:04Z</time>
      </trkpt>
      <trkpt lat="48.9774" lon="1.95671">
        <ele>31.8607</ele>
        <time>2016-06-10T09:10:07Z</time>
      </trkpt>
      <trkpt lat="48.97737" lon="1.95678">
        <ele>29.4575</ele>
        <time>2016-06-10T09:10:11Z</time>
      </trkpt>
      <trkpt lat="48.97732" lon="1.95692">
        <ele>27.0543</ele>
        <time>2016-06-10T09:10:18Z</time>
      </trkpt>
      <trkpt lat="48.9773" lon="1.95694">
        <ele>28.0155</ele>
        <time>2016-06-10T09:10:19Z</time>
      </trkpt>
      <trkpt lat="48.97726" lon="1.95706">
        <ele>24.1703</ele>
        <time>2016-06-10T09:10:28Z</time>
      </trkpt>
      <trkpt lat="48.97724" lon="1.95713">
        <ele>22.2476</ele>
        <time>2016-06-10T09:10:31Z</time>
      </trkpt>
      <trkpt lat="48.97723" lon="1.95721">
        <ele>20.325</ele>
        <time>2016-06-10T09:10:36Z</time>
      </trkpt>
      <trkpt lat="48.97723" lon="1.95725">
        <ele>19.3638</ele>
        <time>2016-06-10T09:10:39Z</time>
      </trkpt>
      <trkpt lat="48.97721" lon="1.95734">
        <ele>17.9218</ele>
        <time>2016-06-10T09:10:43Z</time>
      </trkpt>
      <trkpt lat="48.97718" lon="1.95743">
        <ele>19.3638</ele>
        <time>2016-06-10T09:10:47Z</time>
      </trkpt>
      <trkpt lat="48.97713" lon="1.95755">
        <ele>27.5349</ele>
        <time>2016-06-10T09:10:51Z</time>
      </trkpt>
      <trkpt lat="48.97711" lon="1.95763">
        <ele>30.4188</ele>
        <time>2016-06-10T09:10:55Z</time>
      </trkpt>
      <trkpt lat="48.9771" lon="1.95764">
        <ele>30.4188</ele>
        <time>2016-06-10T09:10:57Z</time>
      </trkpt>
      <trkpt lat="48.9771" lon="1.95771">
        <ele>27.0543</ele>
        <time>2016-06-10T09:11:01Z</time>
      </trkpt>
      <trkpt lat="48.97709" lon="1.95776">
        <ele>24.651</ele>
        <time>2016-06-10T09:11:04Z</time>
      </trkpt>
      <trkpt lat="48.97703" lon="1.9578">
        <ele>23.6896</ele>
        <time>2016-06-10T09:11:08Z</time>
      </trkpt>
      <trkpt lat="48.97697" lon="1.95787">
        <ele>22.2476</ele>
        <time>2016-06-10T09:11:14Z</time>
      </trkpt>
      <trkpt lat="48.97695" lon="1.95794">
        <ele>20.8057</ele>
        <time>2016-06-10T09:11:19Z</time>
      </trkpt>
      <trkpt lat="48.97692" lon="1.95803">
        <ele>19.3638</ele>
        <time>2016-06-10T09:11:25Z</time>
      </trkpt>
      <trkpt lat="48.97692" lon="1.95807">
        <ele>17.9218</ele>
        <time>2016-06-10T09:11:29Z</time>
      </trkpt>
      <trkpt lat="48.9769" lon="1.95822">
        <ele>18.4023</ele>
        <time>2016-06-10T09:11:38Z</time>
      </trkpt>
      <trkpt lat="48.97687" lon="1.95832">
        <ele>28.0155</ele>
        <time>2016-06-10T09:11:42Z</time>
      </trkpt>
      <trkpt lat="48.97687" lon="1.9584">
        <ele>28.4962</ele>
        <time>2016-06-10T09:11:46Z</time>
      </trkpt>
      <trkpt lat="48.97684" lon="1.9585">
        <ele>30.4188</ele>
        <time>2016-06-10T09:11:51Z</time>
      </trkpt>
      <trkpt lat="48.97681" lon="1.95854">
        <ele>31.8607</ele>
        <time>2016-06-10T09:11:55Z</time>
      </trkpt>
      <trkpt lat="48.97677" lon="1.95855">
        <ele>34.7449</ele>
        <time>2016-06-10T09:12:01Z</time>
      </trkpt>
      <trkpt lat="48.97674" lon="1.95858">
        <ele>36.6675</ele>
        <time>2016-06-10T09:12:07Z</time>
      </trkpt>
      <trkpt lat="48.9767" lon="1.95861">
        <ele>38.1094</ele>
        <time>2016-06-10T09:12:13Z</time>
      </trkpt>
      <trkpt lat="48.97669" lon="1.95863">
        <ele>39.0707</ele>
        <time>2016-06-10T09:12:17Z</time>
      </trkpt>
      <trkpt lat="48.97667" lon="1.95864">
        <ele>40.0321</ele>
        <time>2016-06-10T09:12:24Z</time>
      </trkpt>
      <trkpt lat="48.97667" lon="1.95862">
        <ele>40.5128</ele>
        <time>2016-06-10T09:12:33Z</time>
      </trkpt>
      <trkpt lat="48.97666" lon="1.95863">
        <ele>39.0707</ele>
        <time>2016-06-10T09:12:38Z</time>
      </trkpt>
      <trkpt lat="48.97667" lon="1.95862">
        <ele>34.7449</ele>
        <time>2016-06-10T09:12:52Z</time>
      </trkpt>
      <trkpt lat="48.97667" lon="1.95861">
        <ele>35.7061</ele>
        <time>2016-06-10T09:12:55Z</time>
      </trkpt>
      <trkpt lat="48.97667" lon="1.9586">
        <ele>36.1868</ele>
        <time>2016-06-10T09:13:03Z</time>
      </trkpt>
      <trkpt lat="48.97665" lon="1.95861">
        <ele>36.6675</ele>
        <time>2016-06-10T09:13:10Z</time>
      </trkpt>
      <trkpt lat="48.97664" lon="1.95862">
        <ele>37.1481</ele>
        <time>2016-06-10T09:13:15Z</time>
      </trkpt>
      <trkpt lat="48.97663" lon="1.95863">
        <ele>37.1481</ele>
        <time>2016-06-10T09:13:23Z</time>
      </trkpt>
      <trkpt lat="48.97663" lon="1.95862">
        <ele>38.1094</ele>
        <time>2016-06-10T09:13:27Z</time>
      </trkpt>
      <trkpt lat="48.97663" lon="1.95863">
        <ele>36.6675</ele>
        <time>2016-06-10T09:13:36Z</time>
      </trkpt>
      <trkpt lat="48.97663" lon="1.95864">
        <ele>37.1481</ele>
        <time>2016-06-10T09:13:45Z</time>
      </trkpt>
      <trkpt lat="48.97662" lon="1.95864">
        <ele>37.6287</ele>
        <time>2016-06-10T09:13:57Z</time>
      </trkpt>
      <trkpt lat="48.97662" lon="1.95863">
        <ele>38.5901</ele>
        <time>2016-06-10T09:14:03Z</time>
      </trkpt>
      <trkpt lat="48.97661" lon="1.95865">
        <ele>39.5513</ele>
        <time>2016-06-10T09:14:23Z</time>
      </trkpt>
      <trkpt lat="48.97663" lon="1.95868">
        <ele>38.5901</ele>
        <time>2016-06-10T09:14:30Z</time>
      </trkpt>
      <trkpt lat="48.97662" lon="1.95868">
        <ele>38.1094</ele>
        <time>2016-06-10T09:14:44Z</time>
      </trkpt>
      <trkpt lat="48.9766" lon="1.95866">
        <ele>37.1481</ele>
        <time>2016-06-10T09:14:51Z</time>
      </trkpt>
      <trkpt lat="48.97662" lon="1.95865">
        <ele>37.1481</ele>
        <time>2016-06-10T09:14:55Z</time>
      </trkpt>
      <trkpt lat="48.9766" lon="1.95863">
        <ele>36.1868</ele>
        <time>2016-06-10T09:15:02Z</time>
      </trkpt>
      <trkpt lat="48.97658" lon="1.95858">
        <ele>36.6675</ele>
        <time>2016-06-10T09:15:09Z</time>
      </trkpt>
      <trkpt lat="48.9766" lon="1.95858">
        <ele>38.5901</ele>
        <time>2016-06-10T09:15:16Z</time>
      </trkpt>
      <trkpt lat="48.97661" lon="1.95856">
        <ele>49.6453</ele>
        <time>2016-06-10T09:15:33Z</time>
      </trkpt>
      <trkpt lat="48.97662" lon="1.95858">
        <ele>43.3966</ele>
        <time>2016-06-10T09:15:52Z</time>
      </trkpt>
      <trkpt lat="48.97664" lon="1.95856">
        <ele>40.5128</ele>
        <time>2016-06-10T09:15:57Z</time>
      </trkpt>
      <trkpt lat="48.97666" lon="1.95855">
        <ele>40.0321</ele>
        <time>2016-06-10T09:15:59Z</time>
      </trkpt>
      <trkpt lat="48.97671" lon="1.95857">
        <ele>38.5901</ele>
        <time>2016-06-10T09:16:04Z</time>
      </trkpt>
      <trkpt lat="48.97669" lon="1.95866">
        <ele>39.5513</ele>
        <time>2016-06-10T09:16:18Z</time>
      </trkpt>
      <trkpt lat="48.97665" lon="1.95867">
        <ele>39.0707</ele>
        <time>2016-06-10T09:16:22Z</time>
      </trkpt>
      <trkpt lat="48.97657" lon="1.95865">
        <ele>39.0707</ele>
        <time>2016-06-10T09:16:28Z</time>
      </trkpt>
      <trkpt lat="48.97643" lon="1.95856">
        <ele>40.0321</ele>
        <time>2016-06-10T09:16:37Z</time>
      </trkpt>
      <trkpt lat="48.97631" lon="1.95844">
        <ele>40.5128</ele>
        <time>2016-06-10T09:16:45Z</time>
      </trkpt>
      <trkpt lat="48.97625" lon="1.95839">
        <ele>40.9934</ele>
        <time>2016-06-10T09:16:49Z</time>
      </trkpt>
      <trkpt lat="48.97613" lon="1.95844">
        <ele>40.9934</ele>
        <time>2016-06-10T09:16:57Z</time>
      </trkpt>
      <trkpt lat="48.976" lon="1.95857">
        <ele>42.916</ele>
        <time>2016-06-10T09:17:07Z</time>
      </trkpt>
      <trkpt lat="48.97586" lon="1.95861">
        <ele>44.358</ele>
        <time>2016-06-10T09:17:16Z</time>
      </trkpt>
      <trkpt lat="48.97576" lon="1.95851">
        <ele>45.7999</ele>
        <time>2016-06-10T09:17:24Z</time>
      </trkpt>
      <trkpt lat="48.97569" lon="1.95846">
        <ele>46.2806</ele>
        <time>2016-06-10T09:17:29Z</time>
      </trkpt>
      <trkpt lat="48.97553" lon="1.95835">
        <ele>47.7225</ele>
        <time>2016-06-10T09:17:40Z</time>
      </trkpt>
      <trkpt lat="48.97547" lon="1.95819">
        <ele>46.2806</ele>
        <time>2016-06-10T09:17:47Z</time>
      </trkpt>
      <trkpt lat="48.97539" lon="1.95801">
        <ele>45.7999</ele>
        <time>2016-06-10T09:17:56Z</time>
      </trkpt>
      <trkpt lat="48.97536" lon="1.95786">
        <ele>44.8386</ele>
        <time>2016-06-10T09:18:03Z</time>
      </trkpt>
      <trkpt lat="48.97532" lon="1.95769">
        <ele>43.8773</ele>
        <time>2016-06-10T09:18:11Z</time>
      </trkpt>
      <trkpt lat="48.97522" lon="1.95763">
        <ele>43.8773</ele>
        <time>2016-06-10T09:18:18Z</time>
      </trkpt>
      <trkpt lat="48.97505" lon="1.95748">
        <ele>42.4354</ele>
        <time>2016-06-10T09:18:32Z</time>
      </trkpt>
      <trkpt lat="48.9749" lon="1.95732">
        <ele>41.9547</ele>
        <time>2016-06-10T09:18:44Z</time>
      </trkpt>
      <trkpt lat="48.97477" lon="1.95719">
        <ele>41.9547</ele>
        <time>2016-06-10T09:18:54Z</time>
      </trkpt>
      <trkpt lat="48.97461" lon="1.95711">
        <ele>42.916</ele>
        <time>2016-06-10T09:19:05Z</time>
      </trkpt>
      <trkpt lat="48.97447" lon="1.9571">
        <ele>43.8773</ele>
        <time>2016-06-10T09:19:14Z</time>
      </trkpt>
      <trkpt lat="48.97433" lon="1.95714">
        <ele>44.358</ele>
        <time>2016-06-10T09:19:22Z</time>
      </trkpt>
      <trkpt lat="48.97427" lon="1.95704">
        <ele>46.2806</ele>
        <time>2016-06-10T09:19:28Z</time>
      </trkpt>
      <trkpt lat="48.97427" lon="1.957">
        <ele>46.2806</ele>
        <time>2016-06-10T09:19:30Z</time>
      </trkpt>
      <trkpt lat="48.97423" lon="1.95686">
        <ele>47.2418</ele>
        <time>2016-06-10T09:19:36Z</time>
      </trkpt>
      <trkpt lat="48.97421" lon="1.95675">
        <ele>45.7999</ele>
        <time>2016-06-10T09:19:41Z</time>
      </trkpt>
      <trkpt lat="48.97414" lon="1.95662">
        <ele>46.2806</ele>
        <time>2016-06-10T09:19:48Z</time>
      </trkpt>
      <trkpt lat="48.97408" lon="1.95652">
        <ele>46.7612</ele>
        <time>2016-06-10T09:19:54Z</time>
      </trkpt>
      <trkpt lat="48.97402" lon="1.95653">
        <ele>45.3192</ele>
        <time>2016-06-10T09:20:00Z</time>
      </trkpt>
      <trkpt lat="48.97397" lon="1.95657">
        <ele>43.8773</ele>
        <time>2016-06-10T09:20:05Z</time>
      </trkpt>
      <trkpt lat="48.97388" lon="1.95646">
        <ele>42.4354</ele>
        <time>2016-06-10T09:20:14Z</time>
      </trkpt>
      <trkpt lat="48.9738" lon="1.95636">
        <ele>42.4354</ele>
        <time>2016-06-10T09:20:22Z</time>
      </trkpt>
      <trkpt lat="48.97378" lon="1.95634">
        <ele>41.9547</ele>
        <time>2016-06-10T09:20:25Z</time>
      </trkpt>
      <trkpt lat="48.97372" lon="1.95635">
        <ele>43.3966</ele>
        <time>2016-06-10T09:20:31Z</time>
      </trkpt>
      <trkpt lat="48.97363" lon="1.95643">
        <ele>44.358</ele>
        <time>2016-06-10T09:20:38Z</time>
      </trkpt>
      <trkpt lat="48.97355" lon="1.95643">
        <ele>45.3192</ele>
        <time>2016-06-10T09:20:44Z</time>
      </trkpt>
      <trkpt lat="48.97345" lon="1.95638">
        <ele>47.2418</ele>
        <time>2016-06-10T09:20:51Z</time>
      </trkpt>
      <trkpt lat="48.97337" lon="1.9564">
        <ele>48.2034</ele>
        <time>2016-06-10T09:20:57Z</time>
      </trkpt>
      <trkpt lat="48.9733" lon="1.95648">
        <ele>49.1646</ele>
        <time>2016-06-10T09:21:03Z</time>
      </trkpt>
      <trkpt lat="48.97322" lon="1.9566">
        <ele>51.0872</ele>
        <time>2016-06-10T09:21:10Z</time>
      </trkpt>
      <trkpt lat="48.97311" lon="1.95679">
        <ele>53.0098</ele>
        <time>2016-06-10T09:21:21Z</time>
      </trkpt>
      <trkpt lat="48.97302" lon="1.95691">
        <ele>54.4518</ele>
        <time>2016-06-10T09:21:29Z</time>
      </trkpt>
      <trkpt lat="48.97301" lon="1.95702">
        <ele>54.4518</ele>
        <time>2016-06-10T09:21:35Z</time>
      </trkpt>
      <trkpt lat="48.97309" lon="1.95717">
        <ele>53.9712</ele>
        <time>2016-06-10T09:21:44Z</time>
      </trkpt>
      <trkpt lat="48.97318" lon="1.9573">
        <ele>53.4905</ele>
        <time>2016-06-10T09:21:52Z</time>
      </trkpt>
      <trkpt lat="48.97328" lon="1.95748">
        <ele>53.4905</ele>
        <time>2016-06-10T09:22:02Z</time>
      </trkpt>
      <trkpt lat="48.97334" lon="1.95764">
        <ele>53.9712</ele>
        <time>2016-06-10T09:22:09Z</time>
      </trkpt>
      <trkpt lat="48.97327" lon="1.95778">
        <ele>55.8938</ele>
        <time>2016-06-10T09:22:16Z</time>
      </trkpt>
      <trkpt lat="48.97318" lon="1.95796">
        <ele>57.3358</ele>
        <time>2016-06-10T09:22:25Z</time>
      </trkpt>
      <trkpt lat="48.97308" lon="1.95813">
        <ele>59.2584</ele>
        <time>2016-06-10T09:22:34Z</time>
      </trkpt>
      <trkpt lat="48.97296" lon="1.95833">
        <ele>59.7391</ele>
        <time>2016-06-10T09:22:45Z</time>
      </trkpt>
      <trkpt lat="48.97286" lon="1.9585">
        <ele>60.7003</ele>
        <time>2016-06-10T09:22:54Z</time>
      </trkpt>
      <trkpt lat="48.97278" lon="1.95865">
        <ele>60.7003</ele>
        <time>2016-06-10T09:23:03Z</time>
      </trkpt>
      <trkpt lat="48.97271" lon="1.95876">
        <ele>61.6617</ele>
        <time>2016-06-10T09:23:09Z</time>
      </trkpt>
      <trkpt lat="48.97259" lon="1.95895">
        <ele>62.1423</ele>
        <time>2016-06-10T09:23:20Z</time>
      </trkpt>
      <trkpt lat="48.9725" lon="1.95911">
        <ele>62.6229</ele>
        <time>2016-06-10T09:23:29Z</time>
      </trkpt>
      <trkpt lat="48.97239" lon="1.95929">
        <ele>63.1036</ele>
        <time>2016-06-10T09:23:38Z</time>
      </trkpt>
      <trkpt lat="48.97229" lon="1.95943">
        <ele>63.1036</ele>
        <time>2016-06-10T09:23:47Z</time>
      </trkpt>
      <trkpt lat="48.97224" lon="1.95947">
        <ele>63.5844</ele>
        <time>2016-06-10T09:23:51Z</time>
      </trkpt>
      <trkpt lat="48.9722" lon="1.95938">
        <ele>63.1036</ele>
        <time>2016-06-10T09:23:57Z</time>
      </trkpt>
      <trkpt lat="48.9722" lon="1.95936">
        <ele>62.6229</ele>
        <time>2016-06-10T09:23:58Z</time>
      </trkpt>
      <trkpt lat="48.97211" lon="1.95911">
        <ele>62.1423</ele>
        <time>2016-06-10T09:24:10Z</time>
      </trkpt>
      <trkpt lat="48.97202" lon="1.95889">
        <ele>61.6617</ele>
        <time>2016-06-10T09:24:21Z</time>
      </trkpt>
      <trkpt lat="48.97194" lon="1.95873">
        <ele>62.1423</ele>
        <time>2016-06-10T09:24:30Z</time>
      </trkpt>
      <trkpt lat="48.97187" lon="1.95858">
        <ele>62.1423</ele>
        <time>2016-06-10T09:24:37Z</time>
      </trkpt>
      <trkpt lat="48.97185" lon="1.95854">
        <ele>62.6229</ele>
        <time>2016-06-10T09:24:39Z</time>
      </trkpt>
      <trkpt lat="48.97179" lon="1.95844">
        <ele>62.1423</ele>
        <time>2016-06-10T09:24:45Z</time>
      </trkpt>
      <trkpt lat="48.97171" lon="1.95833">
        <ele>62.1423</ele>
        <time>2016-06-10T09:24:52Z</time>
      </trkpt>
      <trkpt lat="48.97159" lon="1.95814">
        <ele>62.6229</ele>
        <time>2016-06-10T09:25:03Z</time>
      </trkpt>
      <trkpt lat="48.97148" lon="1.95801">
        <ele>63.1036</ele>
        <time>2016-06-10T09:25:12Z</time>
      </trkpt>
      <trkpt lat="48.97139" lon="1.95791">
        <ele>63.1036</ele>
        <time>2016-06-10T09:25:18Z</time>
      </trkpt>
      <trkpt lat="48.97126" lon="1.95777">
        <ele>63.5844</ele>
        <time>2016-06-10T09:25:27Z</time>
      </trkpt>
      <trkpt lat="48.97114" lon="1.95766">
        <ele>64.0651</ele>
        <time>2016-06-10T09:25:35Z</time>
      </trkpt>
      <trkpt lat="48.97103" lon="1.95755">
        <ele>64.0651</ele>
        <time>2016-06-10T09:25:43Z</time>
      </trkpt>
      <trkpt lat="48.97088" lon="1.95741">
        <ele>64.0651</ele>
        <time>2016-06-10T09:25:54Z</time>
      </trkpt>
      <trkpt lat="48.97071" lon="1.95725">
        <ele>64.0651</ele>
        <time>2016-06-10T09:26:07Z</time>
      </trkpt>
      <trkpt lat="48.97058" lon="1.95714">
        <ele>64.0651</ele>
        <time>2016-06-10T09:26:18Z</time>
      </trkpt>
      <trkpt lat="48.97048" lon="1.95716">
        <ele>64.0651</ele>
        <time>2016-06-10T09:26:26Z</time>
      </trkpt>
      <trkpt lat="48.97044" lon="1.95715">
        <ele>64.5457</ele>
        <time>2016-06-10T09:26:32Z</time>
      </trkpt>
      <trkpt lat="48.97039" lon="1.95712">
        <ele>63.1036</ele>
        <time>2016-06-10T09:26:54Z</time>
      </trkpt>
      <trkpt lat="48.97028" lon="1.957">
        <ele>62.1423</ele>
        <time>2016-06-10T09:27:04Z</time>
      </trkpt>
      <trkpt lat="48.97017" lon="1.95692">
        <ele>61.181</ele>
        <time>2016-06-10T09:27:14Z</time>
      </trkpt>
      <trkpt lat="48.97016" lon="1.95692">
        <ele>61.181</ele>
        <time>2016-06-10T09:27:15Z</time>
      </trkpt>
      <trkpt lat="48.97006" lon="1.95688">
        <ele>60.7003</ele>
        <time>2016-06-10T09:27:23Z</time>
      </trkpt>
      <trkpt lat="48.96997" lon="1.9568">
        <ele>61.181</ele>
        <time>2016-06-10T09:27:30Z</time>
      </trkpt>
      <trkpt lat="48.9699" lon="1.95669">
        <ele>63.1036</ele>
        <time>2016-06-10T09:27:37Z</time>
      </trkpt>
      <trkpt lat="48.96983" lon="1.95662">
        <ele>63.1036</ele>
        <time>2016-06-10T09:27:44Z</time>
      </trkpt>
      <trkpt lat="48.96973" lon="1.95656">
        <ele>62.6229</ele>
        <time>2016-06-10T09:27:53Z</time>
      </trkpt>
      <trkpt lat="48.96962" lon="1.95643">
        <ele>61.6617</ele>
        <time>2016-06-10T09:28:03Z</time>
      </trkpt>
      <trkpt lat="48.96953" lon="1.95632">
        <ele>61.6617</ele>
        <time>2016-06-10T09:28:11Z</time>
      </trkpt>
      <trkpt lat="48.96939" lon="1.95617">
        <ele>63.1036</ele>
        <time>2016-06-10T09:28:22Z</time>
      </trkpt>
      <trkpt lat="48.96927" lon="1.95613">
        <ele>62.6229</ele>
        <time>2016-06-10T09:28:31Z</time>
      </trkpt>
      <trkpt lat="48.96914" lon="1.95611">
        <ele>62.1423</ele>
        <time>2016-06-10T09:28:40Z</time>
      </trkpt>
      <trkpt lat="48.96903" lon="1.95607">
        <ele>62.6229</ele>
        <time>2016-06-10T09:28:48Z</time>
      </trkpt>
      <trkpt lat="48.96896" lon="1.95604">
        <ele>62.6229</ele>
        <time>2016-06-10T09:28:54Z</time>
      </trkpt>
      <trkpt lat="48.96889" lon="1.95602">
        <ele>62.6229</ele>
        <time>2016-06-10T09:29:00Z</time>
      </trkpt>
      <trkpt lat="48.96878" lon="1.95603">
        <ele>60.7003</ele>
        <time>2016-06-10T09:29:08Z</time>
      </trkpt>
      <trkpt lat="48.96873" lon="1.95602">
        <ele>60.7003</ele>
        <time>2016-06-10T09:29:11Z</time>
      </trkpt>
      <trkpt lat="48.9686" lon="1.95596">
        <ele>62.6229</ele>
        <time>2016-06-10T09:29:20Z</time>
      </trkpt>
      <trkpt lat="48.9685" lon="1.95595">
        <ele>61.6617</ele>
        <time>2016-06-10T09:29:28Z</time>
      </trkpt>
      <trkpt lat="48.96839" lon="1.95597">
        <ele>62.1423</ele>
        <time>2016-06-10T09:29:35Z</time>
      </trkpt>
      <trkpt lat="48.96836" lon="1.95597">
        <ele>62.1423</ele>
        <time>2016-06-10T09:29:37Z</time>
      </trkpt>
      <trkpt lat="48.96827" lon="1.95593">
        <ele>62.6229</ele>
        <time>2016-06-10T09:29:44Z</time>
      </trkpt>
      <trkpt lat="48.96823" lon="1.95591">
        <ele>62.6229</ele>
        <time>2016-06-10T09:29:47Z</time>
      </trkpt>
      <trkpt lat="48.96812" lon="1.95584">
        <ele>63.5844</ele>
        <time>2016-06-10T09:29:56Z</time>
      </trkpt>
      <trkpt lat="48.96802" lon="1.95582">
        <ele>64.5457</ele>
        <time>2016-06-10T09:30:03Z</time>
      </trkpt>
      <trkpt lat="48.9679" lon="1.95584">
        <ele>65.0264</ele>
        <time>2016-06-10T09:30:13Z</time>
      </trkpt>
      <trkpt lat="48.96787" lon="1.95583">
        <ele>65.5071</ele>
        <time>2016-06-10T09:30:33Z</time>
      </trkpt>
      <trkpt lat="48.96778" lon="1.95578">
        <ele>65.9877</ele>
        <time>2016-06-10T09:30:40Z</time>
      </trkpt>
      <trkpt lat="48.96771" lon="1.95573">
        <ele>66.4683</ele>
        <time>2016-06-10T09:30:46Z</time>
      </trkpt>
      <trkpt lat="48.96768" lon="1.9557">
        <ele>66.4683</ele>
        <time>2016-06-10T09:30:48Z</time>
      </trkpt>
      <trkpt lat="48.96761" lon="1.95567">
        <ele>66.4683</ele>
        <time>2016-06-10T09:30:53Z</time>
      </trkpt>
      <trkpt lat="48.96743" lon="1.95563">
        <ele>66.4683</ele>
        <time>2016-06-10T09:31:04Z</time>
      </trkpt>
      <trkpt lat="48.9673" lon="1.95561">
        <ele>66.949</ele>
        <time>2016-06-10T09:31:12Z</time>
      </trkpt>
      <trkpt lat="48.96717" lon="1.95559">
        <ele>67.9103</ele>
        <time>2016-06-10T09:31:21Z</time>
      </trkpt>
      <trkpt lat="48.96704" lon="1.95554">
        <ele>68.8716</ele>
        <time>2016-06-10T09:31:31Z</time>
      </trkpt>
      <trkpt lat="48.96698" lon="1.95544">
        <ele>69.3523</ele>
        <time>2016-06-10T09:31:37Z</time>
      </trkpt>
      <trkpt lat="48.96696" lon="1.95527">
        <ele>69.3523</ele>
        <time>2016-06-10T09:31:44Z</time>
      </trkpt>
      <trkpt lat="48.96697" lon="1.95506">
        <ele>68.8716</ele>
        <time>2016-06-10T09:31:53Z</time>
      </trkpt>
      <trkpt lat="48.96699" lon="1.95483">
        <ele>68.3909</ele>
        <time>2016-06-10T09:32:03Z</time>
      </trkpt>
      <trkpt lat="48.96699" lon="1.95456">
        <ele>68.8716</ele>
        <time>2016-06-10T09:32:15Z</time>
      </trkpt>
      <trkpt lat="48.96697" lon="1.95438">
        <ele>68.8716</ele>
        <time>2016-06-10T09:32:23Z</time>
      </trkpt>
      <trkpt lat="48.96696" lon="1.95422">
        <ele>68.3909</ele>
        <time>2016-06-10T09:32:30Z</time>
      </trkpt>
      <trkpt lat="48.96696" lon="1.95406">
        <ele>68.8716</ele>
        <time>2016-06-10T09:32:38Z</time>
      </trkpt>
      <trkpt lat="48.96696" lon="1.95403">
        <ele>68.8716</ele>
        <time>2016-06-10T09:32:43Z</time>
      </trkpt>
      <trkpt lat="48.96697" lon="1.95395">
        <ele>68.8716</ele>
        <time>2016-06-10T09:32:48Z</time>
      </trkpt>
      <trkpt lat="48.96695" lon="1.95372">
        <ele>69.3523</ele>
        <time>2016-06-10T09:32:58Z</time>
      </trkpt>
      <trkpt lat="48.96694" lon="1.95366">
        <ele>69.3523</ele>
        <time>2016-06-10T09:33:01Z</time>
      </trkpt>
      <trkpt lat="48.96684" lon="1.95365">
        <ele>69.3523</ele>
        <time>2016-06-10T09:33:09Z</time>
      </trkpt>
      <trkpt lat="48.9667" lon="1.95363">
        <ele>69.8329</ele>
        <time>2016-06-10T09:33:19Z</time>
      </trkpt>
      <trkpt lat="48.96658" lon="1.95361">
        <ele>70.3135</ele>
        <time>2016-06-10T09:33:28Z</time>
      </trkpt>
      <trkpt lat="48.96656" lon="1.95362">
        <ele>70.7942</ele>
        <time>2016-06-10T09:33:33Z</time>
      </trkpt>
      <trkpt lat="48.96656" lon="1.95362">
        <ele>70.7942</ele>
        <time>2016-06-10T09:33:37Z</time>
      </trkpt>
      <trkpt lat="48.96653" lon="1.95365">
        <ele>71.2749</ele>
        <time>2016-06-10T09:33:44Z</time>
      </trkpt>
      <trkpt lat="48.96653" lon="1.95363">
        <ele>71.7555</ele>
        <time>2016-06-10T09:33:57Z</time>
      </trkpt>
      <trkpt lat="48.96654" lon="1.95363">
        <ele>71.7555</ele>
        <time>2016-06-10T09:33:58Z</time>
      </trkpt>
      <trkpt lat="48.96659" lon="1.95362">
        <ele>71.2749</ele>
        <time>2016-06-10T09:34:02Z</time>
      </trkpt>
      <trkpt lat="48.9667" lon="1.95366">
        <ele>70.3135</ele>
        <time>2016-06-10T09:34:10Z</time>
      </trkpt>
      <trkpt lat="48.96683" lon="1.95366">
        <ele>66.4683</ele>
        <time>2016-06-10T09:34:20Z</time>
      </trkpt>
      <trkpt lat="48.9669" lon="1.95368">
        <ele>65.5071</ele>
        <time>2016-06-10T09:34:26Z</time>
      </trkpt>
      <trkpt lat="48.96695" lon="1.95381">
        <ele>66.949</ele>
        <time>2016-06-10T09:34:32Z</time>
      </trkpt>
      <trkpt lat="48.96695" lon="1.95405">
        <ele>67.4297</ele>
        <time>2016-06-10T09:34:42Z</time>
      </trkpt>
      <trkpt lat="48.96697" lon="1.95429">
        <ele>67.9103</ele>
        <time>2016-06-10T09:34:52Z</time>
      </trkpt>
      <trkpt lat="48.96698" lon="1.95457">
        <ele>67.4297</ele>
        <time>2016-06-10T09:35:04Z</time>
      </trkpt>
      <trkpt lat="48.96699" lon="1.9548">
        <ele>66.4683</ele>
        <time>2016-06-10T09:35:14Z</time>
      </trkpt>
      <trkpt lat="48.96698" lon="1.95495">
        <ele>67.9103</ele>
        <time>2016-06-10T09:35:21Z</time>
      </trkpt>
      <trkpt lat="48.96696" lon="1.95523">
        <ele>66.949</ele>
        <time>2016-06-10T09:35:31Z</time>
      </trkpt>
      <trkpt lat="48.96698" lon="1.95544">
        <ele>66.949</ele>
        <time>2016-06-10T09:35:39Z</time>
      </trkpt>
      <trkpt lat="48.96694" lon="1.95561">
        <ele>67.4297</ele>
        <time>2016-06-10T09:35:46Z</time>
      </trkpt>
      <trkpt lat="48.96687" lon="1.95581">
        <ele>67.9103</ele>
        <time>2016-06-10T09:35:54Z</time>
      </trkpt>
      <trkpt lat="48.96684" lon="1.95588">
        <ele>67.9103</ele>
        <time>2016-06-10T09:35:57Z</time>
      </trkpt>
      <trkpt lat="48.96677" lon="1.95599">
        <ele>67.9103</ele>
        <time>2016-06-10T09:36:03Z</time>
      </trkpt>
      <trkpt lat="48.96665" lon="1.95608">
        <ele>68.3909</ele>
        <time>2016-06-10T09:36:11Z</time>
      </trkpt>
      <trkpt lat="48.96651" lon="1.95612">
        <ele>68.8716</ele>
        <time>2016-06-10T09:36:19Z</time>
      </trkpt>
      <trkpt lat="48.96636" lon="1.95618">
        <ele>68.3909</ele>
        <time>2016-06-10T09:36:27Z</time>
      </trkpt>
      <trkpt lat="48.96624" lon="1.95625">
        <ele>68.8716</ele>
        <time>2016-06-10T09:36:35Z</time>
      </trkpt>
      <trkpt lat="48.96614" lon="1.95629">
        <ele>68.3909</ele>
        <time>2016-06-10T09:36:42Z</time>
      </trkpt>
      <trkpt lat="48.96603" lon="1.9563">
        <ele>66.949</ele>
        <time>2016-06-10T09:36:50Z</time>
      </trkpt>
      <trkpt lat="48.96589" lon="1.95629">
        <ele>65.9877</ele>
        <time>2016-06-10T09:37:00Z</time>
      </trkpt>
      <trkpt lat="48.96575" lon="1.95627">
        <ele>67.9103</ele>
        <time>2016-06-10T09:37:09Z</time>
      </trkpt>
      <trkpt lat="48.96562" lon="1.95625">
        <ele>68.8716</ele>
        <time>2016-06-10T09:37:17Z</time>
      </trkpt>
      <trkpt lat="48.96551" lon="1.95621">
        <ele>69.8329</ele>
        <time>2016-06-10T09:37:24Z</time>
      </trkpt>
      <trkpt lat="48.9654" lon="1.95617">
        <ele>71.2749</ele>
        <time>2016-06-10T09:37:31Z</time>
      </trkpt>
      <trkpt lat="48.96528" lon="1.95615">
        <ele>70.7942</ele>
        <time>2016-06-10T09:37:39Z</time>
      </trkpt>
      <trkpt lat="48.96515" lon="1.95612">
        <ele>72.2362</ele>
        <time>2016-06-10T09:37:48Z</time>
      </trkpt>
      <trkpt lat="48.96498" lon="1.95605">
        <ele>72.2362</ele>
        <time>2016-06-10T09:38:00Z</time>
      </trkpt>
      <trkpt lat="48.96485" lon="1.956">
        <ele>72.2362</ele>
        <time>2016-06-10T09:38:09Z</time>
      </trkpt>
      <trkpt lat="48.96468" lon="1.95596">
        <ele>73.1976</ele>
        <time>2016-06-10T09:38:21Z</time>
      </trkpt>
      <trkpt lat="48.96454" lon="1.9559">
        <ele>73.6782</ele>
        <time>2016-06-10T09:38:31Z</time>
      </trkpt>
      <trkpt lat="48.96442" lon="1.9558">
        <ele>75.1202</ele>
        <time>2016-06-10T09:38:40Z</time>
      </trkpt>
      <trkpt lat="48.96433" lon="1.95577">
        <ele>75.6008</ele>
        <time>2016-06-10T09:38:47Z</time>
      </trkpt>
      <trkpt lat="48.96419" lon="1.95573">
        <ele>76.5621</ele>
        <time>2016-06-10T09:38:56Z</time>
      </trkpt>
      <trkpt lat="48.96405" lon="1.95569">
        <ele>77.5234</ele>
        <time>2016-06-10T09:39:06Z</time>
      </trkpt>
      <trkpt lat="48.96392" lon="1.95559">
        <ele>77.5234</ele>
        <time>2016-06-10T09:39:16Z</time>
      </trkpt>
      <trkpt lat="48.9638" lon="1.95547">
        <ele>78.004</ele>
        <time>2016-06-10T09:39:26Z</time>
      </trkpt>
      <trkpt lat="48.9637" lon="1.95541">
        <ele>78.004</ele>
        <time>2016-06-10T09:39:33Z</time>
      </trkpt>
      <trkpt lat="48.96366" lon="1.95535">
        <ele>78.004</ele>
        <time>2016-06-10T09:39:39Z</time>
      </trkpt>
      <trkpt lat="48.96361" lon="1.9553">
        <ele>78.004</ele>
        <time>2016-06-10T09:39:46Z</time>
      </trkpt>
      <trkpt lat="48.96351" lon="1.95523">
        <ele>78.004</ele>
        <time>2016-06-10T09:39:54Z</time>
      </trkpt>
      <trkpt lat="48.96339" lon="1.95518">
        <ele>77.5234</ele>
        <time>2016-06-10T09:40:03Z</time>
      </trkpt>
      <trkpt lat="48.96323" lon="1.9551">
        <ele>78.004</ele>
        <time>2016-06-10T09:40:14Z</time>
      </trkpt>
      <trkpt lat="48.96312" lon="1.95508">
        <ele>78.4847</ele>
        <time>2016-06-10T09:40:22Z</time>
      </trkpt>
      <trkpt lat="48.96302" lon="1.95514">
        <ele>78.4847</ele>
        <time>2016-06-10T09:40:30Z</time>
      </trkpt>
      <trkpt lat="48.96295" lon="1.9552">
        <ele>78.9655</ele>
        <time>2016-06-10T09:40:36Z</time>
      </trkpt>
      <trkpt lat="48.96289" lon="1.95533">
        <ele>78.9655</ele>
        <time>2016-06-10T09:40:44Z</time>
      </trkpt>
      <trkpt lat="48.96287" lon="1.95546">
        <ele>78.4847</ele>
        <time>2016-06-10T09:40:51Z</time>
      </trkpt>
      <trkpt lat="48.96285" lon="1.95558">
        <ele>78.004</ele>
        <time>2016-06-10T09:40:57Z</time>
      </trkpt>
      <trkpt lat="48.96284" lon="1.95571">
        <ele>78.4847</ele>
        <time>2016-06-10T09:41:03Z</time>
      </trkpt>
      <trkpt lat="48.96283" lon="1.95585">
        <ele>78.004</ele>
        <time>2016-06-10T09:41:09Z</time>
      </trkpt>
      <trkpt lat="48.96283" lon="1.95601">
        <ele>79.446</ele>
        <time>2016-06-10T09:41:16Z</time>
      </trkpt>
      <trkpt lat="48.96279" lon="1.95616">
        <ele>79.446</ele>
        <time>2016-06-10T09:41:23Z</time>
      </trkpt>
      <trkpt lat="48.96275" lon="1.95634">
        <ele>78.004</ele>
        <time>2016-06-10T09:41:31Z</time>
      </trkpt>
      <trkpt lat="48.96273" lon="1.95658">
        <ele>77.5234</ele>
        <time>2016-06-10T09:41:41Z</time>
      </trkpt>
      <trkpt lat="48.96274" lon="1.95681">
        <ele>78.9655</ele>
        <time>2016-06-10T09:41:50Z</time>
      </trkpt>
      <trkpt lat="48.96274" lon="1.95698">
        <ele>78.9655</ele>
        <time>2016-06-10T09:41:57Z</time>
      </trkpt>
      <trkpt lat="48.96275" lon="1.95713">
        <ele>78.004</ele>
        <time>2016-06-10T09:42:04Z</time>
      </trkpt>
      <trkpt lat="48.9627" lon="1.95742">
        <ele>77.5234</ele>
        <time>2016-06-10T09:42:15Z</time>
      </trkpt>
      <trkpt lat="48.96267" lon="1.95763">
        <ele>75.1202</ele>
        <time>2016-06-10T09:42:23Z</time>
      </trkpt>
      <trkpt lat="48.96266" lon="1.95777">
        <ele>76.5621</ele>
        <time>2016-06-10T09:42:29Z</time>
      </trkpt>
      <trkpt lat="48.96257" lon="1.95782">
        <ele>78.4847</ele>
        <time>2016-06-10T09:42:34Z</time>
      </trkpt>
      <trkpt lat="48.96252" lon="1.95781">
        <ele>78.9655</ele>
        <time>2016-06-10T09:42:37Z</time>
      </trkpt>
      <trkpt lat="48.9624" lon="1.95784">
        <ele>82.3301</ele>
        <time>2016-06-10T09:42:44Z</time>
      </trkpt>
      <trkpt lat="48.96238" lon="1.95784">
        <ele>82.8108</ele>
        <time>2016-06-10T09:42:45Z</time>
      </trkpt>
      <trkpt lat="48.9623" lon="1.95779">
        <ele>83.2914</ele>
        <time>2016-06-10T09:42:51Z</time>
      </trkpt>
      <trkpt lat="48.96219" lon="1.95776">
        <ele>82.3301</ele>
        <time>2016-06-10T09:42:58Z</time>
      </trkpt>
      <trkpt lat="48.962" lon="1.95772">
        <ele>81.3688</ele>
        <time>2016-06-10T09:43:08Z</time>
      </trkpt>
      <trkpt lat="48.96183" lon="1.95767">
        <ele>82.3301</ele>
        <time>2016-06-10T09:43:18Z</time>
      </trkpt>
      <trkpt lat="48.96169" lon="1.95765">
        <ele>83.2914</ele>
        <time>2016-06-10T09:43:26Z</time>
      </trkpt>
      <trkpt lat="48.96158" lon="1.95764">
        <ele>84.2527</ele>
        <time>2016-06-10T09:43:33Z</time>
      </trkpt>
      <trkpt lat="48.96147" lon="1.95761">
        <ele>84.7334</ele>
        <time>2016-06-10T09:43:40Z</time>
      </trkpt>
      <trkpt lat="48.96143" lon="1.95761">
        <ele>84.7334</ele>
        <time>2016-06-10T09:43:46Z</time>
      </trkpt>
      <trkpt lat="48.96138" lon="1.95759">
        <ele>85.214</ele>
        <time>2016-06-10T09:43:50Z</time>
      </trkpt>
      <trkpt lat="48.9613" lon="1.95759">
        <ele>85.6946</ele>
        <time>2016-06-10T09:43:56Z</time>
      </trkpt>
      <trkpt lat="48.96117" lon="1.95757">
        <ele>86.1753</ele>
        <time>2016-06-10T09:44:05Z</time>
      </trkpt>
      <trkpt lat="48.96104" lon="1.95755">
        <ele>86.656</ele>
        <time>2016-06-10T09:44:14Z</time>
      </trkpt>
      <trkpt lat="48.9609" lon="1.95752">
        <ele>86.656</ele>
        <time>2016-06-10T09:44:24Z</time>
      </trkpt>
      <trkpt lat="48.96073" lon="1.95748">
        <ele>87.1366</ele>
        <time>2016-06-10T09:44:35Z</time>
      </trkpt>
      <trkpt lat="48.96057" lon="1.95747">
        <ele>87.6172</ele>
        <time>2016-06-10T09:44:45Z</time>
      </trkpt>
      <trkpt lat="48.96038" lon="1.95745">
        <ele>91.4625</ele>
        <time>2016-06-10T09:44:57Z</time>
      </trkpt>
      <trkpt lat="48.9602" lon="1.95739">
        <ele>90.5013</ele>
        <time>2016-06-10T09:45:09Z</time>
      </trkpt>
      <trkpt lat="48.96005" lon="1.9574">
        <ele>90.9819</ele>
        <time>2016-06-10T09:45:18Z</time>
      </trkpt>
      <trkpt lat="48.95994" lon="1.9574">
        <ele>90.5013</ele>
        <time>2016-06-10T09:45:25Z</time>
      </trkpt>
      <trkpt lat="48.95985" lon="1.95743">
        <ele>90.9819</ele>
        <time>2016-06-10T09:45:31Z</time>
      </trkpt>
      <trkpt lat="48.95976" lon="1.95743">
        <ele>91.9432</ele>
        <time>2016-06-10T09:45:38Z</time>
      </trkpt>
      <trkpt lat="48.95959" lon="1.95746">
        <ele>93.3851</ele>
        <time>2016-06-10T09:45:49Z</time>
      </trkpt>
      <trkpt lat="48.95957" lon="1.95746">
        <ele>93.3851</ele>
        <time>2016-06-10T09:45:50Z</time>
      </trkpt>
      <trkpt lat="48.9595" lon="1.95749">
        <ele>93.8658</ele>
        <time>2016-06-10T09:45:55Z</time>
      </trkpt>
      <trkpt lat="48.95938" lon="1.95749">
        <ele>93.8658</ele>
        <time>2016-06-10T09:46:03Z</time>
      </trkpt>
      <trkpt lat="48.95924" lon="1.95747">
        <ele>93.8658</ele>
        <time>2016-06-10T09:46:13Z</time>
      </trkpt>
      <trkpt lat="48.95913" lon="1.95744">
        <ele>94.3466</ele>
        <time>2016-06-10T09:46:22Z</time>
      </trkpt>
      <trkpt lat="48.95907" lon="1.95743">
        <ele>95.3077</ele>
        <time>2016-06-10T09:46:29Z</time>
      </trkpt>
      <trkpt lat="48.95893" lon="1.95736">
        <ele>96.2693</ele>
        <time>2016-06-10T09:46:40Z</time>
      </trkpt>
      <trkpt lat="48.95884" lon="1.95732">
        <ele>96.2693</ele>
        <time>2016-06-10T09:46:47Z</time>
      </trkpt>
      <trkpt lat="48.95874" lon="1.95725">
        <ele>96.7499</ele>
        <time>2016-06-10T09:46:55Z</time>
      </trkpt>
      <trkpt lat="48.95866" lon="1.95723">
        <ele>96.7499</ele>
        <time>2016-06-10T09:47:01Z</time>
      </trkpt>
      <trkpt lat="48.95866" lon="1.95713">
        <ele>97.7112</ele>
        <time>2016-06-10T09:47:06Z</time>
      </trkpt>
      <trkpt lat="48.9587" lon="1.95691">
        <ele>98.6725</ele>
        <time>2016-06-10T09:47:17Z</time>
      </trkpt>
      <trkpt lat="48.95874" lon="1.95668">
        <ele>99.6338</ele>
        <time>2016-06-10T09:47:28Z</time>
      </trkpt>
      <trkpt lat="48.95877" lon="1.95651">
        <ele>100.595</ele>
        <time>2016-06-10T09:47:37Z</time>
      </trkpt>
      <trkpt lat="48.95878" lon="1.95643">
        <ele>101.076</ele>
        <time>2016-06-10T09:47:45Z</time>
      </trkpt>
      <trkpt lat="48.95882" lon="1.95626">
        <ele>101.556</ele>
        <time>2016-06-10T09:47:54Z</time>
      </trkpt>
      <trkpt lat="48.95885" lon="1.95607">
        <ele>102.518</ele>
        <time>2016-06-10T09:48:03Z</time>
      </trkpt>
      <trkpt lat="48.9589" lon="1.95587">
        <ele>102.518</ele>
        <time>2016-06-10T09:48:14Z</time>
      </trkpt>
      <trkpt lat="48.95894" lon="1.9557">
        <ele>102.518</ele>
        <time>2016-06-10T09:48:22Z</time>
      </trkpt>
      <trkpt lat="48.959" lon="1.9555">
        <ele>101.076</ele>
        <time>2016-06-10T09:48:33Z</time>
      </trkpt>
      <trkpt lat="48.95904" lon="1.9553">
        <ele>99.1531</ele>
        <time>2016-06-10T09:48:43Z</time>
      </trkpt>
      <trkpt lat="48.95907" lon="1.95513">
        <ele>99.1531</ele>
        <time>2016-06-10T09:48:51Z</time>
      </trkpt>
      <trkpt lat="48.95909" lon="1.95504">
        <ele>99.1531</ele>
        <time>2016-06-10T09:48:55Z</time>
      </trkpt>
      <trkpt lat="48.95911" lon="1.95486">
        <ele>99.6338</ele>
        <time>2016-06-10T09:49:04Z</time>
      </trkpt>
      <trkpt lat="48.95911" lon="1.9547">
        <ele>99.6338</ele>
        <time>2016-06-10T09:49:12Z</time>
      </trkpt>
      <trkpt lat="48.95911" lon="1.95455">
        <ele>100.115</ele>
        <time>2016-06-10T09:49:19Z</time>
      </trkpt>
      <trkpt lat="48.95908" lon="1.95442">
        <ele>100.595</ele>
        <time>2016-06-10T09:49:25Z</time>
      </trkpt>
      <trkpt lat="48.95902" lon="1.95416">
        <ele>99.6338</ele>
        <time>2016-06-10T09:49:38Z</time>
      </trkpt>
      <trkpt lat="48.95902" lon="1.9541">
        <ele>99.6338</ele>
        <time>2016-06-10T09:49:44Z</time>
      </trkpt>
      <trkpt lat="48.95904" lon="1.95405">
        <ele>99.1531</ele>
        <time>2016-06-10T09:49:48Z</time>
      </trkpt>
      <trkpt lat="48.95908" lon="1.954">
        <ele>99.6338</ele>
        <time>2016-06-10T09:49:55Z</time>
      </trkpt>
      <trkpt lat="48.9592" lon="1.9539">
        <ele>98.6725</ele>
        <time>2016-06-10T09:50:05Z</time>
      </trkpt>
      <trkpt lat="48.95937" lon="1.95378">
        <ele>96.7499</ele>
        <time>2016-06-10T09:50:18Z</time>
      </trkpt>
      <trkpt lat="48.9595" lon="1.95368">
        <ele>95.3077</ele>
        <time>2016-06-10T09:50:28Z</time>
      </trkpt>
      <trkpt lat="48.95966" lon="1.95356">
        <ele>94.3466</ele>
        <time>2016-06-10T09:50:40Z</time>
      </trkpt>
      <trkpt lat="48.95973" lon="1.9535">
        <ele>94.3466</ele>
        <time>2016-06-10T09:50:45Z</time>
      </trkpt>
      <trkpt lat="48.95985" lon="1.9534">
        <ele>93.3851</ele>
        <time>2016-06-10T09:50:54Z</time>
      </trkpt>
      <trkpt lat="48.95994" lon="1.95328">
        <ele>93.3851</ele>
        <time>2016-06-10T09:51:02Z</time>
      </trkpt>
      <trkpt lat="48.95999" lon="1.95317">
        <ele>92.9045</ele>
        <time>2016-06-10T09:51:09Z</time>
      </trkpt>
      <trkpt lat="48.95999" lon="1.95315">
        <ele>92.9045</ele>
        <time>2016-06-10T09:51:10Z</time>
      </trkpt>
      <trkpt lat="48.95997" lon="1.95303">
        <ele>92.424</ele>
        <time>2016-06-10T09:51:17Z</time>
      </trkpt>
      <trkpt lat="48.95993" lon="1.95284">
        <ele>92.424</ele>
        <time>2016-06-10T09:51:27Z</time>
      </trkpt>
      <trkpt lat="48.95987" lon="1.95257">
        <ele>92.424</ele>
        <time>2016-06-10T09:51:40Z</time>
      </trkpt>
      <trkpt lat="48.95982" lon="1.95238">
        <ele>91.4625</ele>
        <time>2016-06-10T09:51:50Z</time>
      </trkpt>
      <trkpt lat="48.95978" lon="1.95228">
        <ele>91.4625</ele>
        <time>2016-06-10T09:51:56Z</time>
      </trkpt>
      <trkpt lat="48.95974" lon="1.95213">
        <ele>90.9819</ele>
        <time>2016-06-10T09:52:04Z</time>
      </trkpt>
      <trkpt lat="48.9597" lon="1.95196">
        <ele>90.9819</ele>
        <time>2016-06-10T09:52:12Z</time>
      </trkpt>
      <trkpt lat="48.95968" lon="1.95178">
        <ele>90.9819</ele>
        <time>2016-06-10T09:52:20Z</time>
      </trkpt>
      <trkpt lat="48.95963" lon="1.95156">
        <ele>91.9432</ele>
        <time>2016-06-10T09:52:30Z</time>
      </trkpt>
      <trkpt lat="48.95958" lon="1.95136">
        <ele>92.424</ele>
        <time>2016-06-10T09:52:40Z</time>
      </trkpt>
      <trkpt lat="48.95954" lon="1.9512">
        <ele>92.424</ele>
        <time>2016-06-10T09:52:49Z</time>
      </trkpt>
      <trkpt lat="48.9595" lon="1.95104">
        <ele>92.9045</ele>
        <time>2016-06-10T09:52:58Z</time>
      </trkpt>
      <trkpt lat="48.95946" lon="1.95092">
        <ele>92.9045</ele>
        <time>2016-06-10T09:53:05Z</time>
      </trkpt>
      <trkpt lat="48.95942" lon="1.95073">
        <ele>92.424</ele>
        <time>2016-06-10T09:53:15Z</time>
      </trkpt>
      <trkpt lat="48.95938" lon="1.95055">
        <ele>92.9045</ele>
        <time>2016-06-10T09:53:23Z</time>
      </trkpt>
      <trkpt lat="48.95935" lon="1.95041">
        <ele>92.424</ele>
        <time>2016-06-10T09:53:30Z</time>
      </trkpt>
      <trkpt lat="48.9593" lon="1.95019">
        <ele>92.424</ele>
        <time>2016-06-10T09:53:40Z</time>
      </trkpt>
      <trkpt lat="48.95925" lon="1.94997">
        <ele>92.424</ele>
        <time>2016-06-10T09:53:50Z</time>
      </trkpt>
      <trkpt lat="48.95922" lon="1.9498">
        <ele>91.9432</ele>
        <time>2016-06-10T09:53:58Z</time>
      </trkpt>
      <trkpt lat="48.95921" lon="1.94979">
        <ele>91.9432</ele>
        <time>2016-06-10T09:53:59Z</time>
      </trkpt>
      <trkpt lat="48.95917" lon="1.94962">
        <ele>91.4625</ele>
        <time>2016-06-10T09:54:07Z</time>
      </trkpt>
      <trkpt lat="48.95917" lon="1.9496">
        <ele>91.4625</ele>
        <time>2016-06-10T09:54:08Z</time>
      </trkpt>
      <trkpt lat="48.95913" lon="1.94942">
        <ele>91.4625</ele>
        <time>2016-06-10T09:54:16Z</time>
      </trkpt>
      <trkpt lat="48.9591" lon="1.94931">
        <ele>91.4625</ele>
        <time>2016-06-10T09:54:22Z</time>
      </trkpt>
      <trkpt lat="48.95904" lon="1.94905">
        <ele>91.4625</ele>
        <time>2016-06-10T09:54:35Z</time>
      </trkpt>
      <trkpt lat="48.95897" lon="1.94877">
        <ele>91.4625</ele>
        <time>2016-06-10T09:54:48Z</time>
      </trkpt>
      <trkpt lat="48.95892" lon="1.94854">
        <ele>91.4625</ele>
        <time>2016-06-10T09:54:59Z</time>
      </trkpt>
      <trkpt lat="48.95886" lon="1.94829">
        <ele>90.9819</ele>
        <time>2016-06-10T09:55:10Z</time>
      </trkpt>
      <trkpt lat="48.9588" lon="1.94799">
        <ele>91.4625</ele>
        <time>2016-06-10T09:55:23Z</time>
      </trkpt>
      <trkpt lat="48.95877" lon="1.94787">
        <ele>90.9819</ele>
        <time>2016-06-10T09:55:30Z</time>
      </trkpt>
      <trkpt lat="48.95877" lon="1.9478">
        <ele>90.9819</ele>
        <time>2016-06-10T09:55:37Z</time>
      </trkpt>
      <trkpt lat="48.95871" lon="1.94771">
        <ele>91.4625</ele>
        <time>2016-06-10T09:55:44Z</time>
      </trkpt>
      <trkpt lat="48.95871" lon="1.9477">
        <ele>91.9432</ele>
        <time>2016-06-10T09:55:52Z</time>
      </trkpt>
      <trkpt lat="48.95869" lon="1.9477">
        <ele>91.9432</ele>
        <time>2016-06-10T09:56:13Z</time>
      </trkpt>
      <trkpt lat="48.95864" lon="1.94769">
        <ele>92.424</ele>
        <time>2016-06-10T09:56:17Z</time>
      </trkpt>
      <trkpt lat="48.95863" lon="1.94768">
        <ele>92.424</ele>
        <time>2016-06-10T09:56:24Z</time>
      </trkpt>
      <trkpt lat="48.95862" lon="1.94767">
        <ele>92.424</ele>
        <time>2016-06-10T09:56:31Z</time>
      </trkpt>
      <trkpt lat="48.95859" lon="1.94765">
        <ele>92.424</ele>
        <time>2016-06-10T09:56:36Z</time>
      </trkpt>
      <trkpt lat="48.95846" lon="1.94756">
        <ele>91.9432</ele>
        <time>2016-06-10T09:56:47Z</time>
      </trkpt>
      <trkpt lat="48.95834" lon="1.94748">
        <ele>91.9432</ele>
        <time>2016-06-10T09:56:56Z</time>
      </trkpt>
      <trkpt lat="48.95821" lon="1.94739">
        <ele>91.9432</ele>
        <time>2016-06-10T09:57:06Z</time>
      </trkpt>
      <trkpt lat="48.95809" lon="1.94731">
        <ele>92.424</ele>
        <time>2016-06-10T09:57:15Z</time>
      </trkpt>
      <trkpt lat="48.95798" lon="1.94725">
        <ele>93.3851</ele>
        <time>2016-06-10T09:57:23Z</time>
      </trkpt>
      <trkpt lat="48.9579" lon="1.94719">
        <ele>93.3851</ele>
        <time>2016-06-10T09:57:29Z</time>
      </trkpt>
      <trkpt lat="48.95789" lon="1.94718">
        <ele>93.3851</ele>
        <time>2016-06-10T09:57:30Z</time>
      </trkpt>
      <trkpt lat="48.95789" lon="1.94718">
        <ele>93.3851</ele>
        <time>2016-06-10T09:57:30Z</time>
      </trkpt>
      <trkpt lat="48.95773" lon="1.94708">
        <ele>93.8658</ele>
        <time>2016-06-10T09:57:42Z</time>
      </trkpt>
      <trkpt lat="48.95762" lon="1.947">
        <ele>93.8658</ele>
        <time>2016-06-10T09:57:50Z</time>
      </trkpt>
      <trkpt lat="48.95752" lon="1.94694">
        <ele>93.8658</ele>
        <time>2016-06-10T09:57:57Z</time>
      </trkpt>
      <trkpt lat="48.95741" lon="1.94687">
        <ele>93.8658</ele>
        <time>2016-06-10T09:58:05Z</time>
      </trkpt>
      <trkpt lat="48.95731" lon="1.94681">
        <ele>93.3851</ele>
        <time>2016-06-10T09:58:13Z</time>
      </trkpt>
      <trkpt lat="48.95727" lon="1.94678">
        <ele>93.3851</ele>
        <time>2016-06-10T09:58:20Z</time>
      </trkpt>
      <trkpt lat="48.9572" lon="1.94675">
        <ele>93.8658</ele>
        <time>2016-06-10T09:58:25Z</time>
      </trkpt>
      <trkpt lat="48.95711" lon="1.94669">
        <ele>93.8658</ele>
        <time>2016-06-10T09:58:32Z</time>
      </trkpt>
      <trkpt lat="48.95701" lon="1.94662">
        <ele>93.8658</ele>
        <time>2016-06-10T09:58:39Z</time>
      </trkpt>
      <trkpt lat="48.95691" lon="1.94654">
        <ele>93.3851</ele>
        <time>2016-06-10T09:58:47Z</time>
      </trkpt>
      <trkpt lat="48.95679" lon="1.94648">
        <ele>93.3851</ele>
        <time>2016-06-10T09:58:56Z</time>
      </trkpt>
      <trkpt lat="48.95669" lon="1.94639">
        <ele>93.3851</ele>
        <time>2016-06-10T09:59:05Z</time>
      </trkpt>
      <trkpt lat="48.95663" lon="1.94636">
        <ele>92.9045</ele>
        <time>2016-06-10T09:59:10Z</time>
      </trkpt>
      <trkpt lat="48.9566" lon="1.94634">
        <ele>92.9045</ele>
        <time>2016-06-10T09:59:12Z</time>
      </trkpt>
      <trkpt lat="48.95647" lon="1.9463">
        <ele>92.9045</ele>
        <time>2016-06-10T09:59:21Z</time>
      </trkpt>
      <trkpt lat="48.95633" lon="1.94631">
        <ele>93.8658</ele>
        <time>2016-06-10T09:59:31Z</time>
      </trkpt>
      <trkpt lat="48.95621" lon="1.94636">
        <ele>93.8658</ele>
        <time>2016-06-10T09:59:39Z</time>
      </trkpt>
      <trkpt lat="48.95605" lon="1.94643">
        <ele>93.8658</ele>
        <time>2016-06-10T09:59:50Z</time>
      </trkpt>
      <trkpt lat="48.9559" lon="1.94649">
        <ele>93.8658</ele>
        <time>2016-06-10T10:00:01Z</time>
      </trkpt>
      <trkpt lat="48.95574" lon="1.94656">
        <ele>93.3851</ele>
        <time>2016-06-10T10:00:12Z</time>
      </trkpt>
      <trkpt lat="48.95562" lon="1.9466">
        <ele>92.9045</ele>
        <time>2016-06-10T10:00:20Z</time>
      </trkpt>
      <trkpt lat="48.95552" lon="1.94666">
        <ele>91.9432</ele>
        <time>2016-06-10T10:00:27Z</time>
      </trkpt>
      <trkpt lat="48.95541" lon="1.9467">
        <ele>91.9432</ele>
        <time>2016-06-10T10:00:35Z</time>
      </trkpt>
      <trkpt lat="48.95532" lon="1.94675">
        <ele>93.8658</ele>
        <time>2016-06-10T10:00:42Z</time>
      </trkpt>
      <trkpt lat="48.95518" lon="1.9468">
        <ele>95.3077</ele>
        <time>2016-06-10T10:00:52Z</time>
      </trkpt>
      <trkpt lat="48.95505" lon="1.94687">
        <ele>95.7885</ele>
        <time>2016-06-10T10:01:02Z</time>
      </trkpt>
      <trkpt lat="48.95495" lon="1.94692">
        <ele>95.7885</ele>
        <time>2016-06-10T10:01:10Z</time>
      </trkpt>
      <trkpt lat="48.95484" lon="1.94699">
        <ele>96.2693</ele>
        <time>2016-06-10T10:01:19Z</time>
      </trkpt>
      <trkpt lat="48.95472" lon="1.94705">
        <ele>96.2693</ele>
        <time>2016-06-10T10:01:28Z</time>
      </trkpt>
      <trkpt lat="48.95459" lon="1.94711">
        <ele>96.2693</ele>
        <time>2016-06-10T10:01:38Z</time>
      </trkpt>
      <trkpt lat="48.95445" lon="1.94718">
        <ele>95.7885</ele>
        <time>2016-06-10T10:01:47Z</time>
      </trkpt>
      <trkpt lat="48.95433" lon="1.94723">
        <ele>95.7885</ele>
        <time>2016-06-10T10:01:56Z</time>
      </trkpt>
      <trkpt lat="48.95424" lon="1.94728">
        <ele>96.2693</ele>
        <time>2016-06-10T10:02:02Z</time>
      </trkpt>
      <trkpt lat="48.95408" lon="1.94736">
        <ele>95.7885</ele>
        <time>2016-06-10T10:02:13Z</time>
      </trkpt>
      <trkpt lat="48.9539" lon="1.94745">
        <ele>94.8271</ele>
        <time>2016-06-10T10:02:26Z</time>
      </trkpt>
      <trkpt lat="48.95379" lon="1.94752">
        <ele>93.3851</ele>
        <time>2016-06-10T10:02:34Z</time>
      </trkpt>
      <trkpt lat="48.95367" lon="1.94762">
        <ele>92.424</ele>
        <time>2016-06-10T10:02:44Z</time>
      </trkpt>
      <trkpt lat="48.9535" lon="1.9477">
        <ele>91.4625</ele>
        <time>2016-06-10T10:02:56Z</time>
      </trkpt>
      <trkpt lat="48.95339" lon="1.94778">
        <ele>90.9819</ele>
        <time>2016-06-10T10:03:05Z</time>
      </trkpt>
      <trkpt lat="48.95331" lon="1.94781">
        <ele>90.9819</ele>
        <time>2016-06-10T10:03:11Z</time>
      </trkpt>
      <trkpt lat="48.95322" lon="1.94787">
        <ele>90.5013</ele>
        <time>2016-06-10T10:03:18Z</time>
      </trkpt>
      <trkpt lat="48.95312" lon="1.94795">
        <ele>90.5013</ele>
        <time>2016-06-10T10:03:26Z</time>
      </trkpt>
      <trkpt lat="48.953" lon="1.948">
        <ele>90.5013</ele>
        <time>2016-06-10T10:03:34Z</time>
      </trkpt>
      <trkpt lat="48.9529" lon="1.94808">
        <ele>90.5013</ele>
        <time>2016-06-10T10:03:42Z</time>
      </trkpt>
      <trkpt lat="48.9528" lon="1.94813">
        <ele>90.5013</ele>
        <time>2016-06-10T10:03:50Z</time>
      </trkpt>
      <trkpt lat="48.95271" lon="1.94816">
        <ele>90.0206</ele>
        <time>2016-06-10T10:03:57Z</time>
      </trkpt>
      <trkpt lat="48.95262" lon="1.94809">
        <ele>90.0206</ele>
        <time>2016-06-10T10:04:04Z</time>
      </trkpt>
      <trkpt lat="48.95258" lon="1.94799">
        <ele>89.0593</ele>
        <time>2016-06-10T10:04:10Z</time>
      </trkpt>
      <trkpt lat="48.95257" lon="1.94792">
        <ele>89.0593</ele>
        <time>2016-06-10T10:04:14Z</time>
      </trkpt>
      <trkpt lat="48.95251" lon="1.94771">
        <ele>88.5787</ele>
        <time>2016-06-10T10:04:24Z</time>
      </trkpt>
      <trkpt lat="48.95247" lon="1.94761">
        <ele>88.098</ele>
        <time>2016-06-10T10:04:31Z</time>
      </trkpt>
      <trkpt lat="48.95246" lon="1.9476">
        <ele>88.098</ele>
        <time>2016-06-10T10:04:35Z</time>
      </trkpt>
      <trkpt lat="48.95242" lon="1.94749">
        <ele>87.6172</ele>
        <time>2016-06-10T10:04:41Z</time>
      </trkpt>
      <trkpt lat="48.95237" lon="1.94735">
        <ele>87.1366</ele>
        <time>2016-06-10T10:04:48Z</time>
      </trkpt>
      <trkpt lat="48.95229" lon="1.94713">
        <ele>86.656</ele>
        <time>2016-06-10T10:04:59Z</time>
      </trkpt>
      <trkpt lat="48.9522" lon="1.94689">
        <ele>86.1753</ele>
        <time>2016-06-10T10:05:11Z</time>
      </trkpt>
      <trkpt lat="48.95212" lon="1.94667">
        <ele>85.6946</ele>
        <time>2016-06-10T10:05:22Z</time>
      </trkpt>
      <trkpt lat="48.95206" lon="1.94651">
        <ele>85.214</ele>
        <time>2016-06-10T10:05:31Z</time>
      </trkpt>
      <trkpt lat="48.95205" lon="1.94643">
        <ele>85.214</ele>
        <time>2016-06-10T10:05:36Z</time>
      </trkpt>
      <trkpt lat="48.95199" lon="1.9463">
        <ele>85.214</ele>
        <time>2016-06-10T10:05:45Z</time>
      </trkpt>
      <trkpt lat="48.95195" lon="1.94618">
        <ele>85.214</ele>
        <time>2016-06-10T10:05:53Z</time>
      </trkpt>
      <trkpt lat="48.9519" lon="1.94602">
        <ele>84.7334</ele>
        <time>2016-06-10T10:06:03Z</time>
      </trkpt>
      <trkpt lat="48.95187" lon="1.94595">
        <ele>84.7334</ele>
        <time>2016-06-10T10:06:08Z</time>
      </trkpt>
      <trkpt lat="48.95183" lon="1.9459">
        <ele>84.7334</ele>
        <time>2016-06-10T10:06:12Z</time>
      </trkpt>
      <trkpt lat="48.95175" lon="1.94568">
        <ele>84.2527</ele>
        <time>2016-06-10T10:06:23Z</time>
      </trkpt>
      <trkpt lat="48.95166" lon="1.94545">
        <ele>83.772</ele>
        <time>2016-06-10T10:06:35Z</time>
      </trkpt>
      <trkpt lat="48.95159" lon="1.94524">
        <ele>83.2914</ele>
        <time>2016-06-10T10:06:45Z</time>
      </trkpt>
      <trkpt lat="48.95158" lon="1.94518">
        <ele>83.2914</ele>
        <time>2016-06-10T10:06:48Z</time>
      </trkpt>
      <trkpt lat="48.95154" lon="1.94508">
        <ele>83.2914</ele>
        <time>2016-06-10T10:06:55Z</time>
      </trkpt>
      <trkpt lat="48.95153" lon="1.94505">
        <ele>83.2914</ele>
        <time>2016-06-10T10:07:00Z</time>
      </trkpt>
      <trkpt lat="48.95151" lon="1.94503">
        <ele>83.2914</ele>
        <time>2016-06-10T10:07:09Z</time>
      </trkpt>
      <trkpt lat="48.95146" lon="1.94492">
        <ele>82.8108</ele>
        <time>2016-06-10T10:07:16Z</time>
      </trkpt>
      <trkpt lat="48.95139" lon="1.94473">
        <ele>83.2914</ele>
        <time>2016-06-10T10:07:26Z</time>
      </trkpt>
      <trkpt lat="48.95139" lon="1.94471">
        <ele>83.2914</ele>
        <time>2016-06-10T10:07:31Z</time>
      </trkpt>
      <trkpt lat="48.95137" lon="1.94466">
        <ele>82.8108</ele>
        <time>2016-06-10T10:07:47Z</time>
      </trkpt>
      <trkpt lat="48.95127" lon="1.9444">
        <ele>82.3301</ele>
        <time>2016-06-10T10:08:01Z</time>
      </trkpt>
      <trkpt lat="48.9512" lon="1.94421">
        <ele>81.8494</ele>
        <time>2016-06-10T10:08:11Z</time>
      </trkpt>
      <trkpt lat="48.95112" lon="1.94399">
        <ele>80.4075</ele>
        <time>2016-06-10T10:08:23Z</time>
      </trkpt>
      <trkpt lat="48.9511" lon="1.94393">
        <ele>79.9266</ele>
        <time>2016-06-10T10:08:26Z</time>
      </trkpt>
      <trkpt lat="48.95105" lon="1.94386">
        <ele>79.446</ele>
        <time>2016-06-10T10:08:31Z</time>
      </trkpt>
      <trkpt lat="48.951" lon="1.94374">
        <ele>78.9655</ele>
        <time>2016-06-10T10:08:39Z</time>
      </trkpt>
      <trkpt lat="48.95098" lon="1.94369">
        <ele>78.4847</ele>
        <time>2016-06-10T10:08:42Z</time>
      </trkpt>
      <trkpt lat="48.95096" lon="1.94362">
        <ele>78.004</ele>
        <time>2016-06-10T10:08:46Z</time>
      </trkpt>
      <trkpt lat="48.95095" lon="1.94358">
        <ele>78.004</ele>
        <time>2016-06-10T10:08:52Z</time>
      </trkpt>
      <trkpt lat="48.95093" lon="1.94352">
        <ele>77.0428</ele>
        <time>2016-06-10T10:08:57Z</time>
      </trkpt>
      <trkpt lat="48.95092" lon="1.9435">
        <ele>77.0428</ele>
        <time>2016-06-10T10:08:58Z</time>
      </trkpt>
      <trkpt lat="48.9509" lon="1.94338">
        <ele>77.5234</ele>
        <time>2016-06-10T10:09:05Z</time>
      </trkpt>
      <trkpt lat="48.95069" lon="1.94289">
        <ele>73.6782</ele>
        <time>2016-06-10T10:09:31Z</time>
      </trkpt>
      <trkpt lat="48.95062" lon="1.9427">
        <ele>73.1976</ele>
        <time>2016-06-10T10:09:41Z</time>
      </trkpt>
      <trkpt lat="48.95057" lon="1.94252">
        <ele>72.7169</ele>
        <time>2016-06-10T10:09:50Z</time>
      </trkpt>
      <trkpt lat="48.9505" lon="1.94233">
        <ele>72.7169</ele>
        <time>2016-06-10T10:10:00Z</time>
      </trkpt>
      <trkpt lat="48.95046" lon="1.9422">
        <ele>72.2362</ele>
        <time>2016-06-10T10:10:07Z</time>
      </trkpt>
      <trkpt lat="48.95038" lon="1.94198">
        <ele>71.7555</ele>
        <time>2016-06-10T10:10:18Z</time>
      </trkpt>
      <trkpt lat="48.95033" lon="1.94183">
        <ele>71.2749</ele>
        <time>2016-06-10T10:10:26Z</time>
      </trkpt>
      <trkpt lat="48.95027" lon="1.94166">
        <ele>70.7942</ele>
        <time>2016-06-10T10:10:36Z</time>
      </trkpt>
      <trkpt lat="48.95026" lon="1.94165">
        <ele>70.7942</ele>
        <time>2016-06-10T10:10:42Z</time>
      </trkpt>
      <trkpt lat="48.95024" lon="1.94158">
        <ele>70.7942</ele>
        <time>2016-06-10T10:10:50Z</time>
      </trkpt>
      <trkpt lat="48.95019" lon="1.94146">
        <ele>70.3135</ele>
        <time>2016-06-10T10:10:56Z</time>
      </trkpt>
      <trkpt lat="48.95018" lon="1.94141">
        <ele>70.3135</ele>
        <time>2016-06-10T10:11:02Z</time>
      </trkpt>
      <trkpt lat="48.95014" lon="1.94134">
        <ele>70.3135</ele>
        <time>2016-06-10T10:11:06Z</time>
      </trkpt>
      <trkpt lat="48.95006" lon="1.94113">
        <ele>70.3135</ele>
        <time>2016-06-10T10:11:17Z</time>
      </trkpt>
      <trkpt lat="48.94999" lon="1.94093">
        <ele>69.3523</ele>
        <time>2016-06-10T10:11:27Z</time>
      </trkpt>
      <trkpt lat="48.94992" lon="1.94075">
        <ele>68.8716</ele>
        <time>2016-06-10T10:11:37Z</time>
      </trkpt>
      <trkpt lat="48.94985" lon="1.94056">
        <ele>68.3909</ele>
        <time>2016-06-10T10:11:47Z</time>
      </trkpt>
      <trkpt lat="48.9498" lon="1.94043">
        <ele>68.3909</ele>
        <time>2016-06-10T10:11:54Z</time>
      </trkpt>
      <trkpt lat="48.94975" lon="1.9403">
        <ele>67.9103</ele>
        <time>2016-06-10T10:12:01Z</time>
      </trkpt>
      <trkpt lat="48.9497" lon="1.94018">
        <ele>67.4297</ele>
        <time>2016-06-10T10:12:07Z</time>
      </trkpt>
      <trkpt lat="48.94966" lon="1.94006">
        <ele>67.4297</ele>
        <time>2016-06-10T10:12:13Z</time>
      </trkpt>
      <trkpt lat="48.9496" lon="1.93991">
        <ele>66.949</ele>
        <time>2016-06-10T10:12:21Z</time>
      </trkpt>
      <trkpt lat="48.94953" lon="1.93973">
        <ele>66.4683</ele>
        <time>2016-06-10T10:12:30Z</time>
      </trkpt>
      <trkpt lat="48.94948" lon="1.93963">
        <ele>66.4683</ele>
        <time>2016-06-10T10:12:37Z</time>
      </trkpt>
      <trkpt lat="48.94945" lon="1.93957">
        <ele>66.4683</ele>
        <time>2016-06-10T10:12:44Z</time>
      </trkpt>
      <trkpt lat="48.94942" lon="1.9394">
        <ele>65.9877</ele>
        <time>2016-06-10T10:12:52Z</time>
      </trkpt>
      <trkpt lat="48.94935" lon="1.93923">
        <ele>65.0264</ele>
        <time>2016-06-10T10:13:01Z</time>
      </trkpt>
      <trkpt lat="48.94927" lon="1.93903">
        <ele>65.0264</ele>
        <time>2016-06-10T10:13:12Z</time>
      </trkpt>
      <trkpt lat="48.94925" lon="1.93898">
        <ele>65.0264</ele>
        <time>2016-06-10T10:13:18Z</time>
      </trkpt>
      <trkpt lat="48.94924" lon="1.93891">
        <ele>65.0264</ele>
        <time>2016-06-10T10:13:25Z</time>
      </trkpt>
      <trkpt lat="48.94917" lon="1.93882">
        <ele>65.0264</ele>
        <time>2016-06-10T10:13:32Z</time>
      </trkpt>
      <trkpt lat="48.9491" lon="1.93868">
        <ele>65.0264</ele>
        <time>2016-06-10T10:13:41Z</time>
      </trkpt>
      <trkpt lat="48.94907" lon="1.93863">
        <ele>64.5457</ele>
        <time>2016-06-10T10:13:45Z</time>
      </trkpt>
      <trkpt lat="48.94905" lon="1.93859">
        <ele>64.5457</ele>
        <time>2016-06-10T10:13:52Z</time>
      </trkpt>
      <trkpt lat="48.94901" lon="1.93857">
        <ele>65.0264</ele>
        <time>2016-06-10T10:14:00Z</time>
      </trkpt>
      <trkpt lat="48.94892" lon="1.93861">
        <ele>65.0264</ele>
        <time>2016-06-10T10:14:07Z</time>
      </trkpt>
      <trkpt lat="48.94884" lon="1.93859">
        <ele>64.5457</ele>
        <time>2016-06-10T10:14:13Z</time>
      </trkpt>
      <trkpt lat="48.94877" lon="1.9386">
        <ele>65.0264</ele>
        <time>2016-06-10T10:14:19Z</time>
      </trkpt>
      <trkpt lat="48.94868" lon="1.9386">
        <ele>64.5457</ele>
        <time>2016-06-10T10:14:26Z</time>
      </trkpt>
      <trkpt lat="48.94851" lon="1.93859">
        <ele>65.0264</ele>
        <time>2016-06-10T10:14:38Z</time>
      </trkpt>
      <trkpt lat="48.94842" lon="1.93862">
        <ele>65.5071</ele>
        <time>2016-06-10T10:14:45Z</time>
      </trkpt>
      <trkpt lat="48.94831" lon="1.93867">
        <ele>65.9877</ele>
        <time>2016-06-10T10:14:54Z</time>
      </trkpt>
      <trkpt lat="48.94816" lon="1.93878">
        <ele>66.949</ele>
        <time>2016-06-10T10:15:05Z</time>
      </trkpt>
      <trkpt lat="48.9481" lon="1.93883">
        <ele>67.4297</ele>
        <time>2016-06-10T10:15:11Z</time>
      </trkpt>
      <trkpt lat="48.94809" lon="1.93883">
        <ele>66.949</ele>
        <time>2016-06-10T10:15:16Z</time>
      </trkpt>
      <trkpt lat="48.94798" lon="1.93876">
        <ele>65.9877</ele>
        <time>2016-06-10T10:15:24Z</time>
      </trkpt>
      <trkpt lat="48.94787" lon="1.93865">
        <ele>65.5071</ele>
        <time>2016-06-10T10:15:33Z</time>
      </trkpt>
      <trkpt lat="48.94779" lon="1.93854">
        <ele>65.0264</ele>
        <time>2016-06-10T10:15:41Z</time>
      </trkpt>
      <trkpt lat="48.94769" lon="1.93843">
        <ele>64.0651</ele>
        <time>2016-06-10T10:15:49Z</time>
      </trkpt>
      <trkpt lat="48.94757" lon="1.93832">
        <ele>63.1036</ele>
        <time>2016-06-10T10:15:58Z</time>
      </trkpt>
      <trkpt lat="48.94747" lon="1.93821">
        <ele>62.6229</ele>
        <time>2016-06-10T10:16:05Z</time>
      </trkpt>
      <trkpt lat="48.94744" lon="1.93818">
        <ele>61.6617</ele>
        <time>2016-06-10T10:16:11Z</time>
      </trkpt>
      <trkpt lat="48.94739" lon="1.93816">
        <ele>60.7003</ele>
        <time>2016-06-10T10:16:17Z</time>
      </trkpt>
      <trkpt lat="48.9473" lon="1.93805">
        <ele>59.2584</ele>
        <time>2016-06-10T10:16:25Z</time>
      </trkpt>
      <trkpt lat="48.94724" lon="1.93796">
        <ele>58.7777</ele>
        <time>2016-06-10T10:16:31Z</time>
      </trkpt>
      <trkpt lat="48.94722" lon="1.93793">
        <ele>58.7777</ele>
        <time>2016-06-10T10:16:33Z</time>
      </trkpt>
      <trkpt lat="48.94725" lon="1.93777">
        <ele>56.8551</ele>
        <time>2016-06-10T10:16:41Z</time>
      </trkpt>
      <trkpt lat="48.94727" lon="1.93771">
        <ele>56.3745</ele>
        <time>2016-06-10T10:16:44Z</time>
      </trkpt>
      <trkpt lat="48.94729" lon="1.93761">
        <ele>55.8938</ele>
        <time>2016-06-10T10:16:50Z</time>
      </trkpt>
      <trkpt lat="48.94724" lon="1.93743">
        <ele>54.9324</ele>
        <time>2016-06-10T10:16:59Z</time>
      </trkpt>
      <trkpt lat="48.9472" lon="1.93729">
        <ele>54.9324</ele>
        <time>2016-06-10T10:17:07Z</time>
      </trkpt>
      <trkpt lat="48.94718" lon="1.93721">
        <ele>54.9324</ele>
        <time>2016-06-10T10:17:13Z</time>
      </trkpt>
      <trkpt lat="48.94715" lon="1.93709">
        <ele>55.8938</ele>
        <time>2016-06-10T10:17:19Z</time>
      </trkpt>
      <trkpt lat="48.94711" lon="1.93692">
        <ele>55.4131</ele>
        <time>2016-06-10T10:17:27Z</time>
      </trkpt>
      <trkpt lat="48.94705" lon="1.93668">
        <ele>55.8938</ele>
        <time>2016-06-10T10:17:39Z</time>
      </trkpt>
      <trkpt lat="48.94699" lon="1.9365">
        <ele>56.3745</ele>
        <time>2016-06-10T10:17:48Z</time>
      </trkpt>
      <trkpt lat="48.94698" lon="1.93646">
        <ele>56.8551</ele>
        <time>2016-06-10T10:17:52Z</time>
      </trkpt>
      <trkpt lat="48.94694" lon="1.93638">
        <ele>56.8551</ele>
        <time>2016-06-10T10:17:58Z</time>
      </trkpt>
      <trkpt lat="48.9469" lon="1.93625">
        <ele>56.3745</ele>
        <time>2016-06-10T10:18:05Z</time>
      </trkpt>
      <trkpt lat="48.94686" lon="1.93614">
        <ele>56.8551</ele>
        <time>2016-06-10T10:18:11Z</time>
      </trkpt>
      <trkpt lat="48.94683" lon="1.93607">
        <ele>56.3745</ele>
        <time>2016-06-10T10:18:15Z</time>
      </trkpt>
      <trkpt lat="48.94675" lon="1.9359">
        <ele>56.3745</ele>
        <time>2016-06-10T10:18:25Z</time>
      </trkpt>
      <trkpt lat="48.94665" lon="1.93571">
        <ele>57.3358</ele>
        <time>2016-06-10T10:18:36Z</time>
      </trkpt>
      <trkpt lat="48.9466" lon="1.93559">
        <ele>57.8165</ele>
        <time>2016-06-10T10:18:42Z</time>
      </trkpt>
      <trkpt lat="48.94655" lon="1.93548">
        <ele>58.2971</ele>
        <time>2016-06-10T10:18:48Z</time>
      </trkpt>
      <trkpt lat="48.9465" lon="1.93537">
        <ele>59.2584</ele>
        <time>2016-06-10T10:18:54Z</time>
      </trkpt>
      <trkpt lat="48.94643" lon="1.93521">
        <ele>59.2584</ele>
        <time>2016-06-10T10:19:03Z</time>
      </trkpt>
      <trkpt lat="48.9464" lon="1.93514">
        <ele>59.2584</ele>
        <time>2016-06-10T10:19:07Z</time>
      </trkpt>
      <trkpt lat="48.94632" lon="1.93495">
        <ele>59.2584</ele>
        <time>2016-06-10T10:19:17Z</time>
      </trkpt>
      <trkpt lat="48.94627" lon="1.93479">
        <ele>59.2584</ele>
        <time>2016-06-10T10:19:25Z</time>
      </trkpt>
      <trkpt lat="48.94622" lon="1.93467">
        <ele>59.2584</ele>
        <time>2016-06-10T10:19:32Z</time>
      </trkpt>
      <trkpt lat="48.94616" lon="1.93447">
        <ele>59.2584</ele>
        <time>2016-06-10T10:19:42Z</time>
      </trkpt>
      <trkpt lat="48.94611" lon="1.9343">
        <ele>59.7391</ele>
        <time>2016-06-10T10:19:50Z</time>
      </trkpt>
      <trkpt lat="48.94603" lon="1.93409">
        <ele>60.2197</ele>
        <time>2016-06-10T10:20:00Z</time>
      </trkpt>
      <trkpt lat="48.946" lon="1.934">
        <ele>60.2197</ele>
        <time>2016-06-10T10:20:04Z</time>
      </trkpt>
      <trkpt lat="48.946" lon="1.934">
        <ele>60.2197</ele>
        <time>2016-06-10T10:20:04Z</time>
      </trkpt>
      <trkpt lat="48.94596" lon="1.93389">
        <ele>60.7003</ele>
        <time>2016-06-10T10:20:09Z</time>
      </trkpt>
      <trkpt lat="48.94587" lon="1.93365">
        <ele>62.1423</ele>
        <time>2016-06-10T10:20:20Z</time>
      </trkpt>
      <trkpt lat="48.94578" lon="1.93344">
        <ele>63.1036</ele>
        <time>2016-06-10T10:20:30Z</time>
      </trkpt>
      <trkpt lat="48.94571" lon="1.93325">
        <ele>64.0651</ele>
        <time>2016-06-10T10:20:38Z</time>
      </trkpt>
      <trkpt lat="48.94566" lon="1.93309">
        <ele>64.5457</ele>
        <time>2016-06-10T10:20:44Z</time>
      </trkpt>
      <trkpt lat="48.9456" lon="1.93293">
        <ele>65.5071</ele>
        <time>2016-06-10T10:20:49Z</time>
      </trkpt>
      <trkpt lat="48.94552" lon="1.93271">
        <ele>66.4683</ele>
        <time>2016-06-10T10:20:54Z</time>
      </trkpt>
      <trkpt lat="48.94542" lon="1.93237">
        <ele>68.8716</ele>
        <time>2016-06-10T10:21:01Z</time>
      </trkpt>
      <trkpt lat="48.94528" lon="1.932">
        <ele>69.8329</ele>
        <time>2016-06-10T10:21:09Z</time>
      </trkpt>
      <trkpt lat="48.94515" lon="1.93162">
        <ele>70.7942</ele>
        <time>2016-06-10T10:21:17Z</time>
      </trkpt>
      <trkpt lat="48.94505" lon="1.93143">
        <ele>72.2362</ele>
        <time>2016-06-10T10:21:22Z</time>
      </trkpt>
      <trkpt lat="48.94494" lon="1.93135">
        <ele>76.0814</ele>
        <time>2016-06-10T10:21:27Z</time>
      </trkpt>
      <trkpt lat="48.94482" lon="1.9314">
        <ele>78.9655</ele>
        <time>2016-06-10T10:21:34Z</time>
      </trkpt>
      <trkpt lat="48.94471" lon="1.93146">
        <ele>80.8882</ele>
        <time>2016-06-10T10:21:41Z</time>
      </trkpt>
      <trkpt lat="48.94467" lon="1.93146">
        <ele>80.8882</ele>
        <time>2016-06-10T10:21:46Z</time>
      </trkpt>
      <trkpt lat="48.94466" lon="1.93146">
        <ele>80.8882</ele>
        <time>2016-06-10T10:22:04Z</time>
      </trkpt>
      <trkpt lat="48.94465" lon="1.93144">
        <ele>81.3688</ele>
        <time>2016-06-10T10:22:13Z</time>
      </trkpt>
      <trkpt lat="48.94464" lon="1.93138">
        <ele>81.3688</ele>
        <time>2016-06-10T10:22:16Z</time>
      </trkpt>
      <trkpt lat="48.94457" lon="1.93133">
        <ele>80.8882</ele>
        <time>2016-06-10T10:22:22Z</time>
      </trkpt>
      <trkpt lat="48.94454" lon="1.93132">
        <ele>80.8882</ele>
        <time>2016-06-10T10:22:26Z</time>
      </trkpt>
      <trkpt lat="48.94453" lon="1.93131">
        <ele>80.4075</ele>
        <time>2016-06-10T10:22:29Z</time>
      </trkpt>
      <trkpt lat="48.94447" lon="1.93126">
        <ele>80.4075</ele>
        <time>2016-06-10T10:22:34Z</time>
      </trkpt>
      <trkpt lat="48.94436" lon="1.9313">
        <ele>80.8882</ele>
        <time>2016-06-10T10:22:40Z</time>
      </trkpt>
      <trkpt lat="48.9442" lon="1.93132">
        <ele>80.4075</ele>
        <time>2016-06-10T10:22:49Z</time>
      </trkpt>
      <trkpt lat="48.944" lon="1.9313">
        <ele>80.4075</ele>
        <time>2016-06-10T10:23:01Z</time>
      </trkpt>
      <trkpt lat="48.94383" lon="1.93128">
        <ele>80.8882</ele>
        <time>2016-06-10T10:23:10Z</time>
      </trkpt>
      <trkpt lat="48.94364" lon="1.93128">
        <ele>80.8882</ele>
        <time>2016-06-10T10:23:21Z</time>
      </trkpt>
      <trkpt lat="48.94344" lon="1.93126">
        <ele>80.8882</ele>
        <time>2016-06-10T10:23:33Z</time>
      </trkpt>
      <trkpt lat="48.94326" lon="1.93124">
        <ele>79.9266</ele>
        <time>2016-06-10T10:23:43Z</time>
      </trkpt>
      <trkpt lat="48.94318" lon="1.93123">
        <ele>79.446</ele>
        <time>2016-06-10T10:23:49Z</time>
      </trkpt>
      <trkpt lat="48.94307" lon="1.93124">
        <ele>79.446</ele>
        <time>2016-06-10T10:23:57Z</time>
      </trkpt>
      <trkpt lat="48.94295" lon="1.93121">
        <ele>79.446</ele>
        <time>2016-06-10T10:24:04Z</time>
      </trkpt>
      <trkpt lat="48.94283" lon="1.93122">
        <ele>77.5234</ele>
        <time>2016-06-10T10:24:11Z</time>
      </trkpt>
      <trkpt lat="48.9427" lon="1.93121">
        <ele>77.0428</ele>
        <time>2016-06-10T10:24:18Z</time>
      </trkpt>
      <trkpt lat="48.94256" lon="1.93119">
        <ele>77.5234</ele>
        <time>2016-06-10T10:24:27Z</time>
      </trkpt>
      <trkpt lat="48.94241" lon="1.93118">
        <ele>77.5234</ele>
        <time>2016-06-10T10:24:35Z</time>
      </trkpt>
      <trkpt lat="48.94228" lon="1.93116">
        <ele>76.5621</ele>
        <time>2016-06-10T10:24:43Z</time>
      </trkpt>
      <trkpt lat="48.94213" lon="1.93114">
        <ele>75.1202</ele>
        <time>2016-06-10T10:24:52Z</time>
      </trkpt>
      <trkpt lat="48.94196" lon="1.93114">
        <ele>75.1202</ele>
        <time>2016-06-10T10:25:01Z</time>
      </trkpt>
      <trkpt lat="48.94181" lon="1.93116">
        <ele>75.1202</ele>
        <time>2016-06-10T10:25:10Z</time>
      </trkpt>
      <trkpt lat="48.94168" lon="1.9312">
        <ele>75.6008</ele>
        <time>2016-06-10T10:25:19Z</time>
      </trkpt>
      <trkpt lat="48.9415" lon="1.93126">
        <ele>76.0814</ele>
        <time>2016-06-10T10:25:30Z</time>
      </trkpt>
      <trkpt lat="48.94134" lon="1.93133">
        <ele>77.0428</ele>
        <time>2016-06-10T10:25:40Z</time>
      </trkpt>
      <trkpt lat="48.94119" lon="1.93141">
        <ele>79.446</ele>
        <time>2016-06-10T10:25:50Z</time>
      </trkpt>
      <trkpt lat="48.94112" lon="1.93147">
        <ele>81.3688</ele>
        <time>2016-06-10T10:25:56Z</time>
      </trkpt>
      <trkpt lat="48.94102" lon="1.93157">
        <ele>85.6946</ele>
        <time>2016-06-10T10:26:04Z</time>
      </trkpt>
      <trkpt lat="48.94096" lon="1.93163">
        <ele>88.098</ele>
        <time>2016-06-10T10:26:08Z</time>
      </trkpt>
      <trkpt lat="48.94087" lon="1.93175">
        <ele>91.9432</ele>
        <time>2016-06-10T10:26:16Z</time>
      </trkpt>
      <trkpt lat="48.94074" lon="1.93184">
        <ele>95.3077</ele>
        <time>2016-06-10T10:26:24Z</time>
      </trkpt>
      <trkpt lat="48.94073" lon="1.93184">
        <ele>95.3077</ele>
        <time>2016-06-10T10:26:25Z</time>
      </trkpt>
      <trkpt lat="48.94067" lon="1.93194">
        <ele>95.7885</ele>
        <time>2016-06-10T10:26:31Z</time>
      </trkpt>
      <trkpt lat="48.9406" lon="1.932">
        <ele>94.8271</ele>
        <time>2016-06-10T10:26:35Z</time>
      </trkpt>
      <trkpt lat="48.9405" lon="1.9321">
        <ele>95.3077</ele>
        <time>2016-06-10T10:26:42Z</time>
      </trkpt>
      <trkpt lat="48.94042" lon="1.93222">
        <ele>96.7499</ele>
        <time>2016-06-10T10:26:49Z</time>
      </trkpt>
      <trkpt lat="48.94037" lon="1.93228">
        <ele>98.1919</ele>
        <time>2016-06-10T10:26:53Z</time>
      </trkpt>
      <trkpt lat="48.94031" lon="1.93238">
        <ele>99.1531</ele>
        <time>2016-06-10T10:27:00Z</time>
      </trkpt>
      <trkpt lat="48.94025" lon="1.93247">
        <ele>99.6338</ele>
        <time>2016-06-10T10:27:05Z</time>
      </trkpt>
      <trkpt lat="48.94021" lon="1.93253">
        <ele>100.595</ele>
        <time>2016-06-10T10:27:09Z</time>
      </trkpt>
      <trkpt lat="48.94013" lon="1.9327">
        <ele>103.96</ele>
        <time>2016-06-10T10:27:18Z</time>
      </trkpt>
      <trkpt lat="48.9401" lon="1.93273">
        <ele>103.96</ele>
        <time>2016-06-10T10:27:20Z</time>
      </trkpt>
      <trkpt lat="48.94005" lon="1.9328">
        <ele>105.882</ele>
        <time>2016-06-10T10:27:25Z</time>
      </trkpt>
      <trkpt lat="48.93997" lon="1.9329">
        <ele>105.402</ele>
        <time>2016-06-10T10:27:30Z</time>
      </trkpt>
      <trkpt lat="48.93986" lon="1.93307">
        <ele>106.844</ele>
        <time>2016-06-10T10:27:38Z</time>
      </trkpt>
      <trkpt lat="48.93977" lon="1.93321">
        <ele>106.844</ele>
        <time>2016-06-10T10:27:46Z</time>
      </trkpt>
      <trkpt lat="48.93966" lon="1.93335">
        <ele>105.882</ele>
        <time>2016-06-10T10:27:54Z</time>
      </trkpt>
      <trkpt lat="48.93955" lon="1.93349">
        <ele>102.518</ele>
        <time>2016-06-10T10:28:02Z</time>
      </trkpt>
      <trkpt lat="48.93946" lon="1.93361">
        <ele>100.115</ele>
        <time>2016-06-10T10:28:09Z</time>
      </trkpt>
      <trkpt lat="48.93935" lon="1.93373">
        <ele>92.9045</ele>
        <time>2016-06-10T10:28:17Z</time>
      </trkpt>
      <trkpt lat="48.93925" lon="1.93384">
        <ele>90.5013</ele>
        <time>2016-06-10T10:28:23Z</time>
      </trkpt>
      <trkpt lat="48.93911" lon="1.93404">
        <ele>90.0206</ele>
        <time>2016-06-10T10:28:32Z</time>
      </trkpt>
      <trkpt lat="48.939" lon="1.93418">
        <ele>89.0593</ele>
        <time>2016-06-10T10:28:40Z</time>
      </trkpt>
      <trkpt lat="48.93891" lon="1.93431">
        <ele>88.5787</ele>
        <time>2016-06-10T10:28:47Z</time>
      </trkpt>
      <trkpt lat="48.93885" lon="1.93438">
        <ele>87.1366</ele>
        <time>2016-06-10T10:28:51Z</time>
      </trkpt>
      <trkpt lat="48.93885" lon="1.93438">
        <ele>87.1366</ele>
        <time>2016-06-10T10:28:51Z</time>
      </trkpt>
      <trkpt lat="48.93878" lon="1.93449">
        <ele>87.1366</ele>
        <time>2016-06-10T10:28:56Z</time>
      </trkpt>
      <trkpt lat="48.93865" lon="1.93469">
        <ele>87.1366</ele>
        <time>2016-06-10T10:29:06Z</time>
      </trkpt>
      <trkpt lat="48.93853" lon="1.93484">
        <ele>86.1753</ele>
        <time>2016-06-10T10:29:15Z</time>
      </trkpt>
      <trkpt lat="48.93841" lon="1.93501">
        <ele>85.214</ele>
        <time>2016-06-10T10:29:24Z</time>
      </trkpt>
      <trkpt lat="48.93833" lon="1.93511">
        <ele>84.7334</ele>
        <time>2016-06-10T10:29:30Z</time>
      </trkpt>
      <trkpt lat="48.93827" lon="1.93522">
        <ele>84.7334</ele>
        <time>2016-06-10T10:29:35Z</time>
      </trkpt>
      <trkpt lat="48.93824" lon="1.93526">
        <ele>84.7334</ele>
        <time>2016-06-10T10:29:38Z</time>
      </trkpt>
      <trkpt lat="48.93819" lon="1.93534">
        <ele>84.2527</ele>
        <time>2016-06-10T10:29:44Z</time>
      </trkpt>
      <trkpt lat="48.93812" lon="1.93546">
        <ele>83.772</ele>
        <time>2016-06-10T10:29:50Z</time>
      </trkpt>
      <trkpt lat="48.93802" lon="1.93562">
        <ele>83.2914</ele>
        <time>2016-06-10T10:29:58Z</time>
      </trkpt>
      <trkpt lat="48.9379" lon="1.93585">
        <ele>83.2914</ele>
        <time>2016-06-10T10:30:08Z</time>
      </trkpt>
      <trkpt lat="48.93777" lon="1.93613">
        <ele>82.8108</ele>
        <time>2016-06-10T10:30:19Z</time>
      </trkpt>
      <trkpt lat="48.93768" lon="1.93634">
        <ele>82.3301</ele>
        <time>2016-06-10T10:30:25Z</time>
      </trkpt>
      <trkpt lat="48.9375" lon="1.93673">
        <ele>81.3688</ele>
        <time>2016-06-10T10:30:34Z</time>
      </trkpt>
      <trkpt lat="48.93738" lon="1.93696">
        <ele>80.8882</ele>
        <time>2016-06-10T10:30:39Z</time>
      </trkpt>
      <trkpt lat="48.93727" lon="1.93719">
        <ele>80.8882</ele>
        <time>2016-06-10T10:30:44Z</time>
      </trkpt>
      <trkpt lat="48.93713" lon="1.93749">
        <ele>81.8494</ele>
        <time>2016-06-10T10:30:50Z</time>
      </trkpt>
      <trkpt lat="48.93699" lon="1.93777">
        <ele>82.8108</ele>
        <time>2016-06-10T10:30:55Z</time>
      </trkpt>
      <trkpt lat="48.93687" lon="1.93802">
        <ele>82.8108</ele>
        <time>2016-06-10T10:30:59Z</time>
      </trkpt>
      <trkpt lat="48.93669" lon="1.93846">
        <ele>82.8108</ele>
        <time>2016-06-10T10:31:05Z</time>
      </trkpt>
      <trkpt lat="48.93648" lon="1.93893">
        <ele>83.772</ele>
        <time>2016-06-10T10:31:12Z</time>
      </trkpt>
      <trkpt lat="48.93629" lon="1.93938">
        <ele>85.214</ele>
        <time>2016-06-10T10:31:18Z</time>
      </trkpt>
      <trkpt lat="48.93606" lon="1.93988">
        <ele>86.1753</ele>
        <time>2016-06-10T10:31:26Z</time>
      </trkpt>
      <trkpt lat="48.93592" lon="1.94021">
        <ele>86.656</ele>
        <time>2016-06-10T10:31:32Z</time>
      </trkpt>
      <trkpt lat="48.93573" lon="1.94063">
        <ele>88.098</ele>
        <time>2016-06-10T10:31:39Z</time>
      </trkpt>
      <trkpt lat="48.93568" lon="1.94074">
        <ele>88.5787</ele>
        <time>2016-06-10T10:31:41Z</time>
      </trkpt>
      <trkpt lat="48.9356" lon="1.94089">
        <ele>89.0593</ele>
        <time>2016-06-10T10:31:45Z</time>
      </trkpt>
      <trkpt lat="48.9355" lon="1.94111">
        <ele>89.5399</ele>
        <time>2016-06-10T10:31:52Z</time>
      </trkpt>
      <trkpt lat="48.93541" lon="1.94133">
        <ele>90.5013</ele>
        <time>2016-06-10T10:32:00Z</time>
      </trkpt>
      <trkpt lat="48.93533" lon="1.94154">
        <ele>90.9819</ele>
        <time>2016-06-10T10:32:09Z</time>
      </trkpt>
      <trkpt lat="48.93525" lon="1.94173">
        <ele>91.4625</ele>
        <time>2016-06-10T10:32:17Z</time>
      </trkpt>
      <trkpt lat="48.93517" lon="1.9419">
        <ele>92.424</ele>
        <time>2016-06-10T10:32:25Z</time>
      </trkpt>
      <trkpt lat="48.93509" lon="1.94205">
        <ele>93.3851</ele>
        <time>2016-06-10T10:32:33Z</time>
      </trkpt>
      <trkpt lat="48.935" lon="1.94216">
        <ele>93.3851</ele>
        <time>2016-06-10T10:32:40Z</time>
      </trkpt>
      <trkpt lat="48.93492" lon="1.94222">
        <ele>93.8658</ele>
        <time>2016-06-10T10:32:46Z</time>
      </trkpt>
      <trkpt lat="48.93475" lon="1.94232">
        <ele>93.8658</ele>
        <time>2016-06-10T10:32:58Z</time>
      </trkpt>
      <trkpt lat="48.93459" lon="1.94238">
        <ele>94.3466</ele>
        <time>2016-06-10T10:33:09Z</time>
      </trkpt>
      <trkpt lat="48.9344" lon="1.94243">
        <ele>94.3466</ele>
        <time>2016-06-10T10:33:21Z</time>
      </trkpt>
      <trkpt lat="48.93427" lon="1.94248">
        <ele>94.8271</ele>
        <time>2016-06-10T10:33:30Z</time>
      </trkpt>
      <trkpt lat="48.93412" lon="1.94254">
        <ele>94.3466</ele>
        <time>2016-06-10T10:33:40Z</time>
      </trkpt>
      <trkpt lat="48.93396" lon="1.94257">
        <ele>94.3466</ele>
        <time>2016-06-10T10:33:50Z</time>
      </trkpt>
      <trkpt lat="48.9338" lon="1.94259">
        <ele>94.8271</ele>
        <time>2016-06-10T10:34:00Z</time>
      </trkpt>
      <trkpt lat="48.93364" lon="1.94261">
        <ele>94.8271</ele>
        <time>2016-06-10T10:34:10Z</time>
      </trkpt>
      <trkpt lat="48.93344" lon="1.94266">
        <ele>95.3077</ele>
        <time>2016-06-10T10:34:22Z</time>
      </trkpt>
      <trkpt lat="48.93342" lon="1.94266">
        <ele>95.3077</ele>
        <time>2016-06-10T10:34:27Z</time>
      </trkpt>
      <trkpt lat="48.93336" lon="1.94265">
        <ele>95.3077</ele>
        <time>2016-06-10T10:34:33Z</time>
      </trkpt>
      <trkpt lat="48.93316" lon="1.94269">
        <ele>95.7885</ele>
        <time>2016-06-10T10:34:46Z</time>
      </trkpt>
      <trkpt lat="48.93313" lon="1.94271">
        <ele>96.2693</ele>
        <time>2016-06-10T10:34:49Z</time>
      </trkpt>
      <trkpt lat="48.93306" lon="1.94272">
        <ele>96.2693</ele>
        <time>2016-06-10T10:34:54Z</time>
      </trkpt>
      <trkpt lat="48.93286" lon="1.94277">
        <ele>95.7885</ele>
        <time>2016-06-10T10:35:07Z</time>
      </trkpt>
      <trkpt lat="48.93283" lon="1.94279">
        <ele>95.7885</ele>
        <time>2016-06-10T10:35:10Z</time>
      </trkpt>
      <trkpt lat="48.93282" lon="1.94283">
        <ele>96.2693</ele>
        <time>2016-06-10T10:35:18Z</time>
      </trkpt>
      <trkpt lat="48.93283" lon="1.94284">
        <ele>96.2693</ele>
        <time>2016-06-10T10:35:35Z</time>
      </trkpt>
      <trkpt lat="48.93282" lon="1.94285">
        <ele>95.7885</ele>
        <time>2016-06-10T10:35:44Z</time>
      </trkpt>
      <trkpt lat="48.93284" lon="1.94284">
        <ele>97.2305</ele>
        <time>2016-06-10T10:37:42Z</time>
      </trkpt>
      <trkpt lat="48.93285" lon="1.94284">
        <ele>97.2305</ele>
        <time>2016-06-10T10:37:53Z</time>
      </trkpt>
      <trkpt lat="48.93286" lon="1.94286">
        <ele>98.1919</ele>
        <time>2016-06-10T10:38:28Z</time>
      </trkpt>
      <trkpt lat="48.93287" lon="1.94289">
        <ele>97.7112</ele>
        <time>2016-06-10T10:38:33Z</time>
      </trkpt>
      <trkpt lat="48.93286" lon="1.94288">
        <ele>95.3077</ele>
        <time>2016-06-10T10:39:05Z</time>
      </trkpt>
      <trkpt lat="48.93284" lon="1.94291">
        <ele>90.9819</ele>
        <time>2016-06-10T10:44:50Z</time>
      </trkpt>
      <trkpt lat="48.93283" lon="1.9429">
        <ele>93.3851</ele>
        <time>2016-06-10T10:45:21Z</time>
      </trkpt>
      <trkpt lat="48.93278" lon="1.94287">
        <ele>93.3851</ele>
        <time>2016-06-10T10:45:27Z</time>
      </trkpt>
      <trkpt lat="48.93278" lon="1.94293">
        <ele>92.9045</ele>
        <time>2016-06-10T10:45:30Z</time>
      </trkpt>
      <trkpt lat="48.9328" lon="1.94297">
        <ele>92.424</ele>
        <time>2016-06-10T10:45:32Z</time>
      </trkpt>
      <trkpt lat="48.9328" lon="1.94297">
        <ele>92.424</ele>
        <time>2016-06-10T10:45:32Z</time>
      </trkpt>
      <trkpt lat="48.93287" lon="1.94312">
        <ele>91.4625</ele>
        <time>2016-06-10T10:45:40Z</time>
      </trkpt>
      <trkpt lat="48.93294" lon="1.94328">
        <ele>90.9819</ele>
        <time>2016-06-10T10:45:48Z</time>
      </trkpt>
      <trkpt lat="48.93304" lon="1.94346">
        <ele>89.5399</ele>
        <time>2016-06-10T10:45:58Z</time>
      </trkpt>
      <trkpt lat="48.9331" lon="1.94359">
        <ele>88.5787</ele>
        <time>2016-06-10T10:46:04Z</time>
      </trkpt>
      <trkpt lat="48.93315" lon="1.94371">
        <ele>87.1366</ele>
        <time>2016-06-10T10:46:11Z</time>
      </trkpt>
      <trkpt lat="48.93321" lon="1.94387">
        <ele>86.1753</ele>
        <time>2016-06-10T10:46:19Z</time>
      </trkpt>
      <trkpt lat="48.93326" lon="1.94401">
        <ele>85.6946</ele>
        <time>2016-06-10T10:46:26Z</time>
      </trkpt>
      <trkpt lat="48.93332" lon="1.94417">
        <ele>84.7334</ele>
        <time>2016-06-10T10:46:33Z</time>
      </trkpt>
      <trkpt lat="48.93338" lon="1.94441">
        <ele>84.2527</ele>
        <time>2016-06-10T10:46:44Z</time>
      </trkpt>
      <trkpt lat="48.9334" lon="1.94446">
        <ele>84.2527</ele>
        <time>2016-06-10T10:46:50Z</time>
      </trkpt>
      <trkpt lat="48.9334" lon="1.94443">
        <ele>83.2914</ele>
        <time>2016-06-10T10:47:22Z</time>
      </trkpt>
      <trkpt lat="48.93333" lon="1.94428">
        <ele>82.3301</ele>
        <time>2016-06-10T10:47:31Z</time>
      </trkpt>
      <trkpt lat="48.93328" lon="1.9442">
        <ele>82.8108</ele>
        <time>2016-06-10T10:47:38Z</time>
      </trkpt>
      <trkpt lat="48.93325" lon="1.94409">
        <ele>83.2914</ele>
        <time>2016-06-10T10:47:44Z</time>
      </trkpt>
      <trkpt lat="48.93322" lon="1.94396">
        <ele>84.2527</ele>
        <time>2016-06-10T10:47:51Z</time>
      </trkpt>
      <trkpt lat="48.93314" lon="1.94383">
        <ele>87.1366</ele>
        <time>2016-06-10T10:47:59Z</time>
      </trkpt>
      <trkpt lat="48.93309" lon="1.9437">
        <ele>88.098</ele>
        <time>2016-06-10T10:48:06Z</time>
      </trkpt>
      <trkpt lat="48.93303" lon="1.94356">
        <ele>89.0593</ele>
        <time>2016-06-10T10:48:14Z</time>
      </trkpt>
      <trkpt lat="48.933" lon="1.94354">
        <ele>89.5399</ele>
        <time>2016-06-10T10:48:16Z</time>
      </trkpt>
      <trkpt lat="48.93296" lon="1.94344">
        <ele>90.0206</ele>
        <time>2016-06-10T10:48:22Z</time>
      </trkpt>
      <trkpt lat="48.93288" lon="1.94329">
        <ele>90.9819</ele>
        <time>2016-06-10T10:48:32Z</time>
      </trkpt>
      <trkpt lat="48.93283" lon="1.94311">
        <ele>91.4625</ele>
        <time>2016-06-10T10:48:41Z</time>
      </trkpt>
      <trkpt lat="48.93273" lon="1.94295">
        <ele>92.424</ele>
        <time>2016-06-10T10:48:52Z</time>
      </trkpt>
      <trkpt lat="48.9327" lon="1.94288">
        <ele>92.9045</ele>
        <time>2016-06-10T10:48:59Z</time>
      </trkpt>
      <trkpt lat="48.93268" lon="1.94285">
        <ele>92.9045</ele>
        <time>2016-06-10T10:49:03Z</time>
      </trkpt>
      <trkpt lat="48.93267" lon="1.94281">
        <ele>92.424</ele>
        <time>2016-06-10T10:49:06Z</time>
      </trkpt>
      <trkpt lat="48.93264" lon="1.94274">
        <ele>92.9045</ele>
        <time>2016-06-10T10:49:10Z</time>
      </trkpt>
      <trkpt lat="48.93255" lon="1.94255">
        <ele>94.3466</ele>
        <time>2016-06-10T10:49:21Z</time>
      </trkpt>
      <trkpt lat="48.9325" lon="1.94244">
        <ele>94.3466</ele>
        <time>2016-06-10T10:49:28Z</time>
      </trkpt>
      <trkpt lat="48.93243" lon="1.94238">
        <ele>95.3077</ele>
        <time>2016-06-10T10:49:34Z</time>
      </trkpt>
      <trkpt lat="48.93237" lon="1.94238">
        <ele>96.2693</ele>
        <time>2016-06-10T10:49:38Z</time>
      </trkpt>
      <trkpt lat="48.93218" lon="1.94241">
        <ele>96.7499</ele>
        <time>2016-06-10T10:49:52Z</time>
      </trkpt>
      <trkpt lat="48.93214" lon="1.94241">
        <ele>96.7499</ele>
        <time>2016-06-10T10:49:57Z</time>
      </trkpt>
      <trkpt lat="48.93207" lon="1.94243">
        <ele>96.7499</ele>
        <time>2016-06-10T10:50:03Z</time>
      </trkpt>
      <trkpt lat="48.93195" lon="1.94244">
        <ele>96.7499</ele>
        <time>2016-06-10T10:50:12Z</time>
      </trkpt>
      <trkpt lat="48.93179" lon="1.94247">
        <ele>97.2305</ele>
        <time>2016-06-10T10:50:24Z</time>
      </trkpt>
      <trkpt lat="48.93162" lon="1.94252">
        <ele>96.7499</ele>
        <time>2016-06-10T10:50:36Z</time>
      </trkpt>
      <trkpt lat="48.93152" lon="1.94254">
        <ele>96.7499</ele>
        <time>2016-06-10T10:50:46Z</time>
      </trkpt>
      <trkpt lat="48.93154" lon="1.94257">
        <ele>96.7499</ele>
        <time>2016-06-10T10:50:54Z</time>
      </trkpt>
      <trkpt lat="48.93165" lon="1.9426">
        <ele>97.2305</ele>
        <time>2016-06-10T10:51:02Z</time>
      </trkpt>
      <trkpt lat="48.93177" lon="1.94255">
        <ele>96.2693</ele>
        <time>2016-06-10T10:51:11Z</time>
      </trkpt>
      <trkpt lat="48.93197" lon="1.9425">
        <ele>95.7885</ele>
        <time>2016-06-10T10:51:26Z</time>
      </trkpt>
      <trkpt lat="48.93209" lon="1.94246">
        <ele>96.2693</ele>
        <time>2016-06-10T10:51:35Z</time>
      </trkpt>
      <trkpt lat="48.9323" lon="1.94241">
        <ele>96.7499</ele>
        <time>2016-06-10T10:51:49Z</time>
      </trkpt>
      <trkpt lat="48.93242" lon="1.94238">
        <ele>97.2305</ele>
        <time>2016-06-10T10:51:57Z</time>
      </trkpt>
      <trkpt lat="48.93249" lon="1.94238">
        <ele>96.2693</ele>
        <time>2016-06-10T10:52:05Z</time>
      </trkpt>
      <trkpt lat="48.93249" lon="1.94238">
        <ele>96.2693</ele>
        <time>2016-06-10T10:52:07Z</time>
      </trkpt>
      <trkpt lat="48.93259" lon="1.94234">
        <ele>96.2693</ele>
        <time>2016-06-10T10:52:15Z</time>
      </trkpt>
      <trkpt lat="48.93269" lon="1.9423">
        <ele>96.7499</ele>
        <time>2016-06-10T10:52:23Z</time>
      </trkpt>
      <trkpt lat="48.93282" lon="1.94225">
        <ele>96.7499</ele>
        <time>2016-06-10T10:52:33Z</time>
      </trkpt>
      <trkpt lat="48.93299" lon="1.94217">
        <ele>95.3077</ele>
        <time>2016-06-10T10:52:44Z</time>
      </trkpt>
      <trkpt lat="48.93308" lon="1.94212">
        <ele>94.8271</ele>
        <time>2016-06-10T10:52:51Z</time>
      </trkpt>
      <trkpt lat="48.93323" lon="1.94204">
        <ele>94.8271</ele>
        <time>2016-06-10T10:53:01Z</time>
      </trkpt>
      <trkpt lat="48.93339" lon="1.94195">
        <ele>95.3077</ele>
        <time>2016-06-10T10:53:12Z</time>
      </trkpt>
      <trkpt lat="48.93353" lon="1.94186">
        <ele>94.8271</ele>
        <time>2016-06-10T10:53:22Z</time>
      </trkpt>
      <trkpt lat="48.93363" lon="1.94179">
        <ele>95.3077</ele>
        <time>2016-06-10T10:53:30Z</time>
      </trkpt>
      <trkpt lat="48.93365" lon="1.94178">
        <ele>95.3077</ele>
        <time>2016-06-10T10:53:35Z</time>
      </trkpt>
      <trkpt lat="48.9337" lon="1.94175">
        <ele>95.3077</ele>
        <time>2016-06-10T10:53:41Z</time>
      </trkpt>
      <trkpt lat="48.93376" lon="1.9417">
        <ele>95.3077</ele>
        <time>2016-06-10T10:54:32Z</time>
      </trkpt>
      <trkpt lat="48.93388" lon="1.94163">
        <ele>95.3077</ele>
        <time>2016-06-10T10:54:41Z</time>
      </trkpt>
      <trkpt lat="48.93401" lon="1.94155">
        <ele>95.3077</ele>
        <time>2016-06-10T10:54:51Z</time>
      </trkpt>
      <trkpt lat="48.93407" lon="1.9415">
        <ele>95.3077</ele>
        <time>2016-06-10T10:54:58Z</time>
      </trkpt>
      <trkpt lat="48.93414" lon="1.94148">
        <ele>96.2693</ele>
        <time>2016-06-10T10:55:03Z</time>
      </trkpt>
      <trkpt lat="48.93421" lon="1.94138">
        <ele>95.3077</ele>
        <time>2016-06-10T10:55:11Z</time>
      </trkpt>
      <trkpt lat="48.93423" lon="1.94135">
        <ele>95.3077</ele>
        <time>2016-06-10T10:55:14Z</time>
      </trkpt>
      <trkpt lat="48.93429" lon="1.94124">
        <ele>94.8271</ele>
        <time>2016-06-10T10:55:22Z</time>
      </trkpt>
      <trkpt lat="48.93435" lon="1.94112">
        <ele>93.8658</ele>
        <time>2016-06-10T10:55:30Z</time>
      </trkpt>
      <trkpt lat="48.93436" lon="1.9411">
        <ele>94.3466</ele>
        <time>2016-06-10T10:55:38Z</time>
      </trkpt>
      <trkpt lat="48.93439" lon="1.94106">
        <ele>94.3466</ele>
        <time>2016-06-10T10:55:41Z</time>
      </trkpt>
      <trkpt lat="48.93436" lon="1.94095">
        <ele>94.8271</ele>
        <time>2016-06-10T10:55:47Z</time>
      </trkpt>
      <trkpt lat="48.93436" lon="1.94093">
        <ele>95.3077</ele>
        <time>2016-06-10T10:55:48Z</time>
      </trkpt>
      <trkpt lat="48.93429" lon="1.94074">
        <ele>96.7499</ele>
        <time>2016-06-10T10:55:57Z</time>
      </trkpt>
      <trkpt lat="48.93421" lon="1.9406">
        <ele>97.2305</ele>
        <time>2016-06-10T10:56:06Z</time>
      </trkpt>
      <trkpt lat="48.93411" lon="1.94045">
        <ele>99.1531</ele>
        <time>2016-06-10T10:56:16Z</time>
      </trkpt>
      <trkpt lat="48.93403" lon="1.94035">
        <ele>99.6338</ele>
        <time>2016-06-10T10:56:24Z</time>
      </trkpt>
      <trkpt lat="48.9339" lon="1.94019">
        <ele>100.595</ele>
        <time>2016-06-10T10:56:36Z</time>
      </trkpt>
      <trkpt lat="48.93381" lon="1.94009">
        <ele>101.076</ele>
        <time>2016-06-10T10:56:45Z</time>
      </trkpt>
      <trkpt lat="48.93373" lon="1.94005">
        <ele>101.556</ele>
        <time>2016-06-10T10:56:51Z</time>
      </trkpt>
      <trkpt lat="48.93359" lon="1.93987">
        <ele>102.518</ele>
        <time>2016-06-10T10:57:03Z</time>
      </trkpt>
      <trkpt lat="48.93345" lon="1.93969">
        <ele>102.998</ele>
        <time>2016-06-10T10:57:15Z</time>
      </trkpt>
      <trkpt lat="48.93331" lon="1.93947">
        <ele>103.479</ele>
        <time>2016-06-10T10:57:28Z</time>
      </trkpt>
      <trkpt lat="48.93319" lon="1.93929">
        <ele>104.44</ele>
        <time>2016-06-10T10:57:39Z</time>
      </trkpt>
      <trkpt lat="48.93305" lon="1.93905">
        <ele>104.921</ele>
        <time>2016-06-10T10:57:53Z</time>
      </trkpt>
      <trkpt lat="48.93297" lon="1.93891">
        <ele>105.882</ele>
        <time>2016-06-10T10:58:01Z</time>
      </trkpt>
      <trkpt lat="48.9329" lon="1.93881">
        <ele>105.402</ele>
        <time>2016-06-10T10:58:07Z</time>
      </trkpt>
      <trkpt lat="48.93278" lon="1.93862">
        <ele>104.44</ele>
        <time>2016-06-10T10:58:18Z</time>
      </trkpt>
      <trkpt lat="48.93276" lon="1.93857">
        <ele>103.96</ele>
        <time>2016-06-10T10:58:22Z</time>
      </trkpt>
      <trkpt lat="48.9327" lon="1.93848">
        <ele>103.479</ele>
        <time>2016-06-10T10:58:28Z</time>
      </trkpt>
      <trkpt lat="48.93257" lon="1.93827">
        <ele>102.998</ele>
        <time>2016-06-10T10:58:41Z</time>
      </trkpt>
      <trkpt lat="48.93245" lon="1.93808">
        <ele>102.998</ele>
        <time>2016-06-10T10:58:53Z</time>
      </trkpt>
      <trkpt lat="48.93233" lon="1.93788">
        <ele>103.96</ele>
        <time>2016-06-10T10:59:05Z</time>
      </trkpt>
      <trkpt lat="48.9322" lon="1.93768">
        <ele>105.402</ele>
        <time>2016-06-10T10:59:18Z</time>
      </trkpt>
      <trkpt lat="48.9321" lon="1.93752">
        <ele>106.363</ele>
        <time>2016-06-10T10:59:29Z</time>
      </trkpt>
      <trkpt lat="48.93209" lon="1.9375">
        <ele>106.363</ele>
        <time>2016-06-10T10:59:34Z</time>
      </trkpt>
      <trkpt lat="48.93206" lon="1.93745">
        <ele>106.363</ele>
        <time>2016-06-10T10:59:38Z</time>
      </trkpt>
      <trkpt lat="48.93205" lon="1.93744">
        <ele>106.844</ele>
        <time>2016-06-10T10:59:43Z</time>
      </trkpt>
      <trkpt lat="48.93207" lon="1.93747">
        <ele>106.844</ele>
        <time>2016-06-10T10:59:48Z</time>
      </trkpt>
      <trkpt lat="48.93208" lon="1.93747">
        <ele>107.324</ele>
        <time>2016-06-10T10:59:56Z</time>
      </trkpt>
      <trkpt lat="48.93203" lon="1.9374">
        <ele>107.805</ele>
        <time>2016-06-10T11:00:16Z</time>
      </trkpt>
      <trkpt lat="48.93193" lon="1.93721">
        <ele>107.805</ele>
        <time>2016-06-10T11:00:27Z</time>
      </trkpt>
      <trkpt lat="48.93183" lon="1.937">
        <ele>108.286</ele>
        <time>2016-06-10T11:00:39Z</time>
      </trkpt>
      <trkpt lat="48.93175" lon="1.93686">
        <ele>109.247</ele>
        <time>2016-06-10T11:00:47Z</time>
      </trkpt>
      <trkpt lat="48.93169" lon="1.93674">
        <ele>109.728</ele>
        <time>2016-06-10T11:00:54Z</time>
      </trkpt>
      <trkpt lat="48.93161" lon="1.93658">
        <ele>110.208</ele>
        <time>2016-06-10T11:01:03Z</time>
      </trkpt>
      <trkpt lat="48.93159" lon="1.93655">
        <ele>110.208</ele>
        <time>2016-06-10T11:01:05Z</time>
      </trkpt>
      <trkpt lat="48.93157" lon="1.93639">
        <ele>110.689</ele>
        <time>2016-06-10T11:01:13Z</time>
      </trkpt>
      <trkpt lat="48.93149" lon="1.93628">
        <ele>112.131</ele>
        <time>2016-06-10T11:01:21Z</time>
      </trkpt>
      <trkpt lat="48.93145" lon="1.93625">
        <ele>113.092</ele>
        <time>2016-06-10T11:01:26Z</time>
      </trkpt>
      <trkpt lat="48.93144" lon="1.93625">
        <ele>113.092</ele>
        <time>2016-06-10T11:01:34Z</time>
      </trkpt>
      <trkpt lat="48.93143" lon="1.93627">
        <ele>112.612</ele>
        <time>2016-06-10T11:01:38Z</time>
      </trkpt>
      <trkpt lat="48.93142" lon="1.93624">
        <ele>112.612</ele>
        <time>2016-06-10T11:01:44Z</time>
      </trkpt>
      <trkpt lat="48.93144" lon="1.93626">
        <ele>113.573</ele>
        <time>2016-06-10T11:01:51Z</time>
      </trkpt>
      <trkpt lat="48.93146" lon="1.93629">
        <ele>114.054</ele>
        <time>2016-06-10T11:01:58Z</time>
      </trkpt>
      <trkpt lat="48.93147" lon="1.9363">
        <ele>114.054</ele>
        <time>2016-06-10T11:02:05Z</time>
      </trkpt>
      <trkpt lat="48.93146" lon="1.93629">
        <ele>114.054</ele>
        <time>2016-06-10T11:02:10Z</time>
      </trkpt>
      <trkpt lat="48.93144" lon="1.9363">
        <ele>115.976</ele>
        <time>2016-06-10T11:02:23Z</time>
      </trkpt>
      <trkpt lat="48.93145" lon="1.9363">
        <ele>115.015</ele>
        <time>2016-06-10T11:02:50Z</time>
      </trkpt>
      <trkpt lat="48.93146" lon="1.93629">
        <ele>114.054</ele>
        <time>2016-06-10T11:03:01Z</time>
      </trkpt>
      <trkpt lat="48.93147" lon="1.93629">
        <ele>115.496</ele>
        <time>2016-06-10T11:03:11Z</time>
      </trkpt>
      <trkpt lat="48.93148" lon="1.93628">
        <ele>117.418</ele>
        <time>2016-06-10T11:03:37Z</time>
      </trkpt>
      <trkpt lat="48.93143" lon="1.93629">
        <ele>115.015</ele>
        <time>2016-06-10T11:03:53Z</time>
      </trkpt>
      <trkpt lat="48.93141" lon="1.93628">
        <ele>115.496</ele>
        <time>2016-06-10T11:04:01Z</time>
      </trkpt>
      <trkpt lat="48.93145" lon="1.93629">
        <ele>113.573</ele>
        <time>2016-06-10T11:04:14Z</time>
      </trkpt>
      <trkpt lat="48.93146" lon="1.93629">
        <ele>113.092</ele>
        <time>2016-06-10T11:04:43Z</time>
      </trkpt>
      <trkpt lat="48.93144" lon="1.9363">
        <ele>112.131</ele>
        <time>2016-06-10T11:04:51Z</time>
      </trkpt>
      <trkpt lat="48.93145" lon="1.93629">
        <ele>111.65</ele>
        <time>2016-06-10T11:04:57Z</time>
      </trkpt>
      <trkpt lat="48.93147" lon="1.93628">
        <ele>113.092</ele>
        <time>2016-06-10T11:05:03Z</time>
      </trkpt>
      <trkpt lat="48.93147" lon="1.93627">
        <ele>113.092</ele>
        <time>2016-06-10T11:05:08Z</time>
      </trkpt>
      <trkpt lat="48.93146" lon="1.93628">
        <ele>114.054</ele>
        <time>2016-06-10T11:05:24Z</time>
      </trkpt>
      <trkpt lat="48.93143" lon="1.93621">
        <ele>114.534</ele>
        <time>2016-06-10T11:05:39Z</time>
      </trkpt>
      <trkpt lat="48.93139" lon="1.93614">
        <ele>115.015</ele>
        <time>2016-06-10T11:05:45Z</time>
      </trkpt>
      <trkpt lat="48.93134" lon="1.93605">
        <ele>115.496</ele>
        <time>2016-06-10T11:05:51Z</time>
      </trkpt>
      <trkpt lat="48.93129" lon="1.93595">
        <ele>116.938</ele>
        <time>2016-06-10T11:05:58Z</time>
      </trkpt>
      <trkpt lat="48.93127" lon="1.93592">
        <ele>116.938</ele>
        <time>2016-06-10T11:06:00Z</time>
      </trkpt>
      <trkpt lat="48.9312" lon="1.93581">
        <ele>117.899</ele>
        <time>2016-06-10T11:06:08Z</time>
      </trkpt>
      <trkpt lat="48.93114" lon="1.93569">
        <ele>118.86</ele>
        <time>2016-06-10T11:06:16Z</time>
      </trkpt>
      <trkpt lat="48.93111" lon="1.93562">
        <ele>119.341</ele>
        <time>2016-06-10T11:06:23Z</time>
      </trkpt>
      <trkpt lat="48.93109" lon="1.9356">
        <ele>119.341</ele>
        <time>2016-06-10T11:06:31Z</time>
      </trkpt>
      <trkpt lat="48.93111" lon="1.93555">
        <ele>119.341</ele>
        <time>2016-06-10T11:06:36Z</time>
      </trkpt>
      <trkpt lat="48.93111" lon="1.93557">
        <ele>118.86</ele>
        <time>2016-06-10T11:06:41Z</time>
      </trkpt>
      <trkpt lat="48.9311" lon="1.93559">
        <ele>119.821</ele>
        <time>2016-06-10T11:06:57Z</time>
      </trkpt>
      <trkpt lat="48.93103" lon="1.93546">
        <ele>120.302</ele>
        <time>2016-06-10T11:07:05Z</time>
      </trkpt>
      <trkpt lat="48.93096" lon="1.93535">
        <ele>119.821</ele>
        <time>2016-06-10T11:07:12Z</time>
      </trkpt>
      <trkpt lat="48.93089" lon="1.93519">
        <ele>118.379</ele>
        <time>2016-06-10T11:07:22Z</time>
      </trkpt>
      <trkpt lat="48.93082" lon="1.93507">
        <ele>117.899</ele>
        <time>2016-06-10T11:07:29Z</time>
      </trkpt>
      <trkpt lat="48.93076" lon="1.93495">
        <ele>118.379</ele>
        <time>2016-06-10T11:07:36Z</time>
      </trkpt>
      <trkpt lat="48.9307" lon="1.93481">
        <ele>118.86</ele>
        <time>2016-06-10T11:07:45Z</time>
      </trkpt>
      <trkpt lat="48.93063" lon="1.9347">
        <ele>118.379</ele>
        <time>2016-06-10T11:07:52Z</time>
      </trkpt>
      <trkpt lat="48.93062" lon="1.93468">
        <ele>119.821</ele>
        <time>2016-06-10T11:07:57Z</time>
      </trkpt>
      <trkpt lat="48.93058" lon="1.93454">
        <ele>119.821</ele>
        <time>2016-06-10T11:08:05Z</time>
      </trkpt>
      <trkpt lat="48.93052" lon="1.93444">
        <ele>119.821</ele>
        <time>2016-06-10T11:08:10Z</time>
      </trkpt>
      <trkpt lat="48.93044" lon="1.93429">
        <ele>120.783</ele>
        <time>2016-06-10T11:08:18Z</time>
      </trkpt>
      <trkpt lat="48.93037" lon="1.93411">
        <ele>119.341</ele>
        <time>2016-06-10T11:08:28Z</time>
      </trkpt>
      <trkpt lat="48.93029" lon="1.93392">
        <ele>118.86</ele>
        <time>2016-06-10T11:08:38Z</time>
      </trkpt>
      <trkpt lat="48.9302" lon="1.93373">
        <ele>120.302</ele>
        <time>2016-06-10T11:08:48Z</time>
      </trkpt>
      <trkpt lat="48.93012" lon="1.93358">
        <ele>123.667</ele>
        <time>2016-06-10T11:08:56Z</time>
      </trkpt>
      <trkpt lat="48.93006" lon="1.93348">
        <ele>123.667</ele>
        <time>2016-06-10T11:09:02Z</time>
      </trkpt>
      <trkpt lat="48.92996" lon="1.9333">
        <ele>122.705</ele>
        <time>2016-06-10T11:09:13Z</time>
      </trkpt>
      <trkpt lat="48.92986" lon="1.93313">
        <ele>123.667</ele>
        <time>2016-06-10T11:09:23Z</time>
      </trkpt>
      <trkpt lat="48.92976" lon="1.93301">
        <ele>125.589</ele>
        <time>2016-06-10T11:09:33Z</time>
      </trkpt>
      <trkpt lat="48.92971" lon="1.93295">
        <ele>127.512</ele>
        <time>2016-06-10T11:09:41Z</time>
      </trkpt>
      <trkpt lat="48.92964" lon="1.93284">
        <ele>125.589</ele>
        <time>2016-06-10T11:09:48Z</time>
      </trkpt>
      <trkpt lat="48.92953" lon="1.93268">
        <ele>124.628</ele>
        <time>2016-06-10T11:09:59Z</time>
      </trkpt>
      <trkpt lat="48.92948" lon="1.93256">
        <ele>126.07</ele>
        <time>2016-06-10T11:10:07Z</time>
      </trkpt>
      <trkpt lat="48.92947" lon="1.93255">
        <ele>129.435</ele>
        <time>2016-06-10T11:10:19Z</time>
      </trkpt>
      <trkpt lat="48.92941" lon="1.93253">
        <ele>129.915</ele>
        <time>2016-06-10T11:10:25Z</time>
      </trkpt>
      <trkpt lat="48.9294" lon="1.93253">
        <ele>130.396</ele>
        <time>2016-06-10T11:10:26Z</time>
      </trkpt>
      <trkpt lat="48.92935" lon="1.93248">
        <ele>129.435</ele>
        <time>2016-06-10T11:10:31Z</time>
      </trkpt>
      <trkpt lat="48.92928" lon="1.93235">
        <ele>128.954</ele>
        <time>2016-06-10T11:10:38Z</time>
      </trkpt>
      <trkpt lat="48.92922" lon="1.93228">
        <ele>126.07</ele>
        <time>2016-06-10T11:10:45Z</time>
      </trkpt>
      <trkpt lat="48.92915" lon="1.93216">
        <ele>125.109</ele>
        <time>2016-06-10T11:10:53Z</time>
      </trkpt>
      <trkpt lat="48.92905" lon="1.93206">
        <ele>129.915</ele>
        <time>2016-06-10T11:11:00Z</time>
      </trkpt>
      <trkpt lat="48.92897" lon="1.93193">
        <ele>132.319</ele>
        <time>2016-06-10T11:11:07Z</time>
      </trkpt>
      <trkpt lat="48.9289" lon="1.93177">
        <ele>133.76</ele>
        <time>2016-06-10T11:11:15Z</time>
      </trkpt>
      <trkpt lat="48.92885" lon="1.93164">
        <ele>135.203</ele>
        <time>2016-06-10T11:11:22Z</time>
      </trkpt>
      <trkpt lat="48.92881" lon="1.93157">
        <ele>132.799</ele>
        <time>2016-06-10T11:11:26Z</time>
      </trkpt>
      <trkpt lat="48.92879" lon="1.93151">
        <ele>131.357</ele>
        <time>2016-06-10T11:11:30Z</time>
      </trkpt>
      <trkpt lat="48.92873" lon="1.93135">
        <ele>135.683</ele>
        <time>2016-06-10T11:11:38Z</time>
      </trkpt>
      <trkpt lat="48.92868" lon="1.93127">
        <ele>137.125</ele>
        <time>2016-06-10T11:11:43Z</time>
      </trkpt>
      <trkpt lat="48.92861" lon="1.93118">
        <ele>134.722</ele>
        <time>2016-06-10T11:11:49Z</time>
      </trkpt>
      <trkpt lat="48.9286" lon="1.93117">
        <ele>133.76</ele>
        <time>2016-06-10T11:11:50Z</time>
      </trkpt>
      <trkpt lat="48.9285" lon="1.93105">
        <ele>127.993</ele>
        <time>2016-06-10T11:11:59Z</time>
      </trkpt>
      <trkpt lat="48.92842" lon="1.93102">
        <ele>131.838</ele>
        <time>2016-06-10T11:12:04Z</time>
      </trkpt>
      <trkpt lat="48.92837" lon="1.93098">
        <ele>132.799</ele>
        <time>2016-06-10T11:12:12Z</time>
      </trkpt>
      <trkpt lat="48.92831" lon="1.93097">
        <ele>144.816</ele>
        <time>2016-06-10T11:12:31Z</time>
      </trkpt>
      <trkpt lat="48.92832" lon="1.93093">
        <ele>145.296</ele>
        <time>2016-06-10T11:12:36Z</time>
      </trkpt>
      <trkpt lat="48.92835" lon="1.93086">
        <ele>143.854</ele>
        <time>2016-06-10T11:12:43Z</time>
      </trkpt>
      <trkpt lat="48.92837" lon="1.93082">
        <ele>147.219</ele>
        <time>2016-06-10T11:12:49Z</time>
      </trkpt>
      <trkpt lat="48.9284" lon="1.93082">
        <ele>148.661</ele>
        <time>2016-06-10T11:12:53Z</time>
      </trkpt>
      <trkpt lat="48.92845" lon="1.93079">
        <ele>155.871</ele>
        <time>2016-06-10T11:13:03Z</time>
      </trkpt>
      <trkpt lat="48.92844" lon="1.93084">
        <ele>155.871</ele>
        <time>2016-06-10T11:13:09Z</time>
      </trkpt>
      <trkpt lat="48.92837" lon="1.93091">
        <ele>152.506</ele>
        <time>2016-06-10T11:13:17Z</time>
      </trkpt>
      <trkpt lat="48.92832" lon="1.93092">
        <ele>144.335</ele>
        <time>2016-06-10T11:14:41Z</time>
      </trkpt>
      <trkpt lat="48.92832" lon="1.93088">
        <ele>143.854</ele>
        <time>2016-06-10T11:14:54Z</time>
      </trkpt>
      <trkpt lat="48.92831" lon="1.93093">
        <ele>155.39</ele>
        <time>2016-06-10T11:15:25Z</time>
      </trkpt>
      <trkpt lat="48.92832" lon="1.9309">
        <ele>154.91</ele>
        <time>2016-06-10T11:15:26Z</time>
      </trkpt>
      <trkpt lat="48.92837" lon="1.93085">
        <ele>152.506</ele>
        <time>2016-06-10T11:15:31Z</time>
      </trkpt>
      <trkpt lat="48.92838" lon="1.93065">
        <ele>148.18</ele>
        <time>2016-06-10T11:15:39Z</time>
      </trkpt>
      <trkpt lat="48.92838" lon="1.93063">
        <ele>147.7</ele>
        <time>2016-06-10T11:15:40Z</time>
      </trkpt>
      <trkpt lat="48.92839" lon="1.93054">
        <ele>150.103</ele>
        <time>2016-06-10T11:15:44Z</time>
      </trkpt>
      <trkpt lat="48.92843" lon="1.93041">
        <ele>151.064</ele>
        <time>2016-06-10T11:15:51Z</time>
      </trkpt>
      <trkpt lat="48.92852" lon="1.93024">
        <ele>152.026</ele>
        <time>2016-06-10T11:16:00Z</time>
      </trkpt>
      <trkpt lat="48.92855" lon="1.93017">
        <ele>152.506</ele>
        <time>2016-06-10T11:16:04Z</time>
      </trkpt>
      <trkpt lat="48.92857" lon="1.93012">
        <ele>152.026</ele>
        <time>2016-06-10T11:16:07Z</time>
      </trkpt>
      <trkpt lat="48.92858" lon="1.93004">
        <ele>150.584</ele>
        <time>2016-06-10T11:16:11Z</time>
      </trkpt>
      <trkpt lat="48.9286" lon="1.92995">
        <ele>147.219</ele>
        <time>2016-06-10T11:16:15Z</time>
      </trkpt>
      <trkpt lat="48.92863" lon="1.92984">
        <ele>145.777</ele>
        <time>2016-06-10T11:16:21Z</time>
      </trkpt>
      <trkpt lat="48.92864" lon="1.9298">
        <ele>144.335</ele>
        <time>2016-06-10T11:16:23Z</time>
      </trkpt>
      <trkpt lat="48.92867" lon="1.92963">
        <ele>143.374</ele>
        <time>2016-06-10T11:16:31Z</time>
      </trkpt>
      <trkpt lat="48.92871" lon="1.92952">
        <ele>143.854</ele>
        <time>2016-06-10T11:16:37Z</time>
      </trkpt>
      <trkpt lat="48.92874" lon="1.92945">
        <ele>144.335</ele>
        <time>2016-06-10T11:16:41Z</time>
      </trkpt>
      <trkpt lat="48.92875" lon="1.92941">
        <ele>145.296</ele>
        <time>2016-06-10T11:16:46Z</time>
      </trkpt>
      <trkpt lat="48.92877" lon="1.92931">
        <ele>146.738</ele>
        <time>2016-06-10T11:16:50Z</time>
      </trkpt>
      <trkpt lat="48.92877" lon="1.92926">
        <ele>146.738</ele>
        <time>2016-06-10T11:16:52Z</time>
      </trkpt>
      <trkpt lat="48.92877" lon="1.92914">
        <ele>146.258</ele>
        <time>2016-06-10T11:16:58Z</time>
      </trkpt>
      <trkpt lat="48.92878" lon="1.92898">
        <ele>148.661</ele>
        <time>2016-06-10T11:17:07Z</time>
      </trkpt>
      <trkpt lat="48.92878" lon="1.92894">
        <ele>148.661</ele>
        <time>2016-06-10T11:17:09Z</time>
      </trkpt>
      <trkpt lat="48.92879" lon="1.9289">
        <ele>148.18</ele>
        <time>2016-06-10T11:17:11Z</time>
      </trkpt>
      <trkpt lat="48.92881" lon="1.92877">
        <ele>147.219</ele>
        <time>2016-06-10T11:17:18Z</time>
      </trkpt>
      <trkpt lat="48.9288" lon="1.92871">
        <ele>148.18</ele>
        <time>2016-06-10T11:17:21Z</time>
      </trkpt>
      <trkpt lat="48.92878" lon="1.92863">
        <ele>148.18</ele>
        <time>2016-06-10T11:17:26Z</time>
      </trkpt>
      <trkpt lat="48.92875" lon="1.92856">
        <ele>149.142</ele>
        <time>2016-06-10T11:17:31Z</time>
      </trkpt>
      <trkpt lat="48.92875" lon="1.92853">
        <ele>147.7</ele>
        <time>2016-06-10T11:17:33Z</time>
      </trkpt>
      <trkpt lat="48.92872" lon="1.92844">
        <ele>149.142</ele>
        <time>2016-06-10T11:17:37Z</time>
      </trkpt>
      <trkpt lat="48.9287" lon="1.92838">
        <ele>147.219</ele>
        <time>2016-06-10T11:17:41Z</time>
      </trkpt>
      <trkpt lat="48.92866" lon="1.92823">
        <ele>146.738</ele>
        <time>2016-06-10T11:17:49Z</time>
      </trkpt>
      <trkpt lat="48.92858" lon="1.92804">
        <ele>149.622</ele>
        <time>2016-06-10T11:18:00Z</time>
      </trkpt>
      <trkpt lat="48.92857" lon="1.92802">
        <ele>149.142</ele>
        <time>2016-06-10T11:18:01Z</time>
      </trkpt>
      <trkpt lat="48.92854" lon="1.92794">
        <ele>150.584</ele>
        <time>2016-06-10T11:18:06Z</time>
      </trkpt>
      <trkpt lat="48.9285" lon="1.92778">
        <ele>155.871</ele>
        <time>2016-06-10T11:18:15Z</time>
      </trkpt>
      <trkpt lat="48.9285" lon="1.92766">
        <ele>158.755</ele>
        <time>2016-06-10T11:18:26Z</time>
      </trkpt>
      <trkpt lat="48.92848" lon="1.92749">
        <ele>153.468</ele>
        <time>2016-06-10T11:18:34Z</time>
      </trkpt>
      <trkpt lat="48.92845" lon="1.92737">
        <ele>152.506</ele>
        <time>2016-06-10T11:18:40Z</time>
      </trkpt>
      <trkpt lat="48.92843" lon="1.92718">
        <ele>152.987</ele>
        <time>2016-06-10T11:18:49Z</time>
      </trkpt>
      <trkpt lat="48.92842" lon="1.92713">
        <ele>155.39</ele>
        <time>2016-06-10T11:18:56Z</time>
      </trkpt>
      <trkpt lat="48.92842" lon="1.9271">
        <ele>157.313</ele>
        <time>2016-06-10T11:19:00Z</time>
      </trkpt>
      <trkpt lat="48.92837" lon="1.92699">
        <ele>155.39</ele>
        <time>2016-06-10T11:19:06Z</time>
      </trkpt>
      <trkpt lat="48.92834" lon="1.92688">
        <ele>154.429</ele>
        <time>2016-06-10T11:19:13Z</time>
      </trkpt>
      <trkpt lat="48.92828" lon="1.9268">
        <ele>153.948</ele>
        <time>2016-06-10T11:19:20Z</time>
      </trkpt>
      <trkpt lat="48.92826" lon="1.92672">
        <ele>153.468</ele>
        <time>2016-06-10T11:19:24Z</time>
      </trkpt>
      <trkpt lat="48.92822" lon="1.9266">
        <ele>150.103</ele>
        <time>2016-06-10T11:19:30Z</time>
      </trkpt>
      <trkpt lat="48.92821" lon="1.92656">
        <ele>149.622</ele>
        <time>2016-06-10T11:19:33Z</time>
      </trkpt>
      <trkpt lat="48.9282" lon="1.92654">
        <ele>149.622</ele>
        <time>2016-06-10T11:19:35Z</time>
      </trkpt>
      <trkpt lat="48.92818" lon="1.92649">
        <ele>149.142</ele>
        <time>2016-06-10T11:19:38Z</time>
      </trkpt>
      <trkpt lat="48.92814" lon="1.92636">
        <ele>144.816</ele>
        <time>2016-06-10T11:19:45Z</time>
      </trkpt>
      <trkpt lat="48.92815" lon="1.9262">
        <ele>143.374</ele>
        <time>2016-06-10T11:19:52Z</time>
      </trkpt>
      <trkpt lat="48.92814" lon="1.92614">
        <ele>142.412</ele>
        <time>2016-06-10T11:19:55Z</time>
      </trkpt>
      <trkpt lat="48.92813" lon="1.92607">
        <ele>141.932</ele>
        <time>2016-06-10T11:19:59Z</time>
      </trkpt>
      <trkpt lat="48.92811" lon="1.92591">
        <ele>141.932</ele>
        <time>2016-06-10T11:20:07Z</time>
      </trkpt>
      <trkpt lat="48.9281" lon="1.92587">
        <ele>143.374</ele>
        <time>2016-06-10T11:20:09Z</time>
      </trkpt>
      <trkpt lat="48.92809" lon="1.92585">
        <ele>143.854</ele>
        <time>2016-06-10T11:20:11Z</time>
      </trkpt>
      <trkpt lat="48.92807" lon="1.92569">
        <ele>145.777</ele>
        <time>2016-06-10T11:20:18Z</time>
      </trkpt>
      <trkpt lat="48.92806" lon="1.92564">
        <ele>148.661</ele>
        <time>2016-06-10T11:20:21Z</time>
      </trkpt>
      <trkpt lat="48.92804" lon="1.92554">
        <ele>154.91</ele>
        <time>2016-06-10T11:20:27Z</time>
      </trkpt>
      <trkpt lat="48.92804" lon="1.9255">
        <ele>160.677</ele>
        <time>2016-06-10T11:20:35Z</time>
      </trkpt>
      <trkpt lat="48.92804" lon="1.92545">
        <ele>161.158</ele>
        <time>2016-06-10T11:20:38Z</time>
      </trkpt>
      <trkpt lat="48.92806" lon="1.92537">
        <ele>160.677</ele>
        <time>2016-06-10T11:20:42Z</time>
      </trkpt>
      <trkpt lat="48.92806" lon="1.92524">
        <ele>160.197</ele>
        <time>2016-06-10T11:20:49Z</time>
      </trkpt>
      <trkpt lat="48.92806" lon="1.92522">
        <ele>159.716</ele>
        <time>2016-06-10T11:20:50Z</time>
      </trkpt>
      <trkpt lat="48.92808" lon="1.92513">
        <ele>158.274</ele>
        <time>2016-06-10T11:20:56Z</time>
      </trkpt>
      <trkpt lat="48.92808" lon="1.92506">
        <ele>155.871</ele>
        <time>2016-06-10T11:21:00Z</time>
      </trkpt>
      <trkpt lat="48.92811" lon="1.92497">
        <ele>154.429</ele>
        <time>2016-06-10T11:21:05Z</time>
      </trkpt>
      <trkpt lat="48.92815" lon="1.92483">
        <ele>150.103</ele>
        <time>2016-06-10T11:21:13Z</time>
      </trkpt>
      <trkpt lat="48.92818" lon="1.92475">
        <ele>147.7</ele>
        <time>2016-06-10T11:21:18Z</time>
      </trkpt>
      <trkpt lat="48.9282" lon="1.92462">
        <ele>144.816</ele>
        <time>2016-06-10T11:21:26Z</time>
      </trkpt>
      <trkpt lat="48.92824" lon="1.9245">
        <ele>142.893</ele>
        <time>2016-06-10T11:21:33Z</time>
      </trkpt>
      <trkpt lat="48.92822" lon="1.92439">
        <ele>152.987</ele>
        <time>2016-06-10T11:21:39Z</time>
      </trkpt>
      <trkpt lat="48.92822" lon="1.92428">
        <ele>152.987</ele>
        <time>2016-06-10T11:21:45Z</time>
      </trkpt>
      <trkpt lat="48.92823" lon="1.92423">
        <ele>153.468</ele>
        <time>2016-06-10T11:21:48Z</time>
      </trkpt>
      <trkpt lat="48.9282" lon="1.92409">
        <ele>159.235</ele>
        <time>2016-06-10T11:21:55Z</time>
      </trkpt>
      <trkpt lat="48.9282" lon="1.924">
        <ele>157.313</ele>
        <time>2016-06-10T11:21:59Z</time>
      </trkpt>
      <trkpt lat="48.92819" lon="1.92397">
        <ele>156.832</ele>
        <time>2016-06-10T11:22:01Z</time>
      </trkpt>
      <trkpt lat="48.9282" lon="1.92379">
        <ele>150.103</ele>
        <time>2016-06-10T11:22:11Z</time>
      </trkpt>
      <trkpt lat="48.92821" lon="1.92374">
        <ele>151.064</ele>
        <time>2016-06-10T11:22:13Z</time>
      </trkpt>
      <trkpt lat="48.92818" lon="1.92361">
        <ele>148.661</ele>
        <time>2016-06-10T11:22:21Z</time>
      </trkpt>
      <trkpt lat="48.92818" lon="1.9236">
        <ele>149.142</ele>
        <time>2016-06-10T11:22:22Z</time>
      </trkpt>
      <trkpt lat="48.92818" lon="1.92354">
        <ele>147.219</ele>
        <time>2016-06-10T11:22:27Z</time>
      </trkpt>
      <trkpt lat="48.92822" lon="1.92349">
        <ele>145.296</ele>
        <time>2016-06-10T11:22:32Z</time>
      </trkpt>
      <trkpt lat="48.92825" lon="1.92337">
        <ele>142.893</ele>
        <time>2016-06-10T11:22:38Z</time>
      </trkpt>
      <trkpt lat="48.92826" lon="1.92334">
        <ele>142.893</ele>
        <time>2016-06-10T11:22:39Z</time>
      </trkpt>
      <trkpt lat="48.92827" lon="1.92328">
        <ele>146.258</ele>
        <time>2016-06-10T11:22:41Z</time>
      </trkpt>
      <trkpt lat="48.92831" lon="1.92316">
        <ele>142.412</ele>
        <time>2016-06-10T11:22:48Z</time>
      </trkpt>
      <trkpt lat="48.92836" lon="1.923">
        <ele>139.048</ele>
        <time>2016-06-10T11:22:56Z</time>
      </trkpt>
      <trkpt lat="48.92839" lon="1.92293">
        <ele>138.567</ele>
        <time>2016-06-10T11:23:00Z</time>
      </trkpt>
      <trkpt lat="48.92841" lon="1.92281">
        <ele>144.816</ele>
        <time>2016-06-10T11:23:04Z</time>
      </trkpt>
      <trkpt lat="48.92842" lon="1.92264">
        <ele>144.816</ele>
        <time>2016-06-10T11:23:11Z</time>
      </trkpt>
      <trkpt lat="48.92844" lon="1.92254">
        <ele>143.854</ele>
        <time>2016-06-10T11:23:18Z</time>
      </trkpt>
      <trkpt lat="48.92845" lon="1.92251">
        <ele>142.412</ele>
        <time>2016-06-10T11:23:20Z</time>
      </trkpt>
      <trkpt lat="48.9285" lon="1.9224">
        <ele>139.528</ele>
        <time>2016-06-10T11:23:28Z</time>
      </trkpt>
      <trkpt lat="48.92856" lon="1.92229">
        <ele>137.125</ele>
        <time>2016-06-10T11:23:34Z</time>
      </trkpt>
      <trkpt lat="48.9286" lon="1.92222">
        <ele>136.645</ele>
        <time>2016-06-10T11:23:39Z</time>
      </trkpt>
      <trkpt lat="48.92867" lon="1.92208">
        <ele>137.125</ele>
        <time>2016-06-10T11:23:46Z</time>
      </trkpt>
      <trkpt lat="48.92873" lon="1.92195">
        <ele>138.087</ele>
        <time>2016-06-10T11:23:53Z</time>
      </trkpt>
      <trkpt lat="48.92874" lon="1.92194">
        <ele>138.567</ele>
        <time>2016-06-10T11:23:54Z</time>
      </trkpt>
      <trkpt lat="48.92879" lon="1.92179">
        <ele>138.567</ele>
        <time>2016-06-10T11:24:02Z</time>
      </trkpt>
      <trkpt lat="48.9288" lon="1.92176">
        <ele>138.567</ele>
        <time>2016-06-10T11:24:04Z</time>
      </trkpt>
      <trkpt lat="48.92882" lon="1.9217">
        <ele>138.087</ele>
        <time>2016-06-10T11:24:07Z</time>
      </trkpt>
      <trkpt lat="48.92885" lon="1.92154">
        <ele>137.125</ele>
        <time>2016-06-10T11:24:15Z</time>
      </trkpt>
      <trkpt lat="48.92885" lon="1.92143">
        <ele>137.606</ele>
        <time>2016-06-10T11:24:22Z</time>
      </trkpt>
      <trkpt lat="48.92887" lon="1.92129">
        <ele>153.468</ele>
        <time>2016-06-10T11:24:48Z</time>
      </trkpt>
      <trkpt lat="48.92887" lon="1.92129">
        <ele>161.639</ele>
        <time>2016-06-10T11:25:00Z</time>
      </trkpt>
      <trkpt lat="48.92883" lon="1.92124">
        <ele>176.539</ele>
        <time>2016-06-10T11:26:32Z</time>
      </trkpt>
      <trkpt lat="48.92874" lon="1.92121">
        <ele>169.81</ele>
        <time>2016-06-10T11:26:39Z</time>
      </trkpt>
      <trkpt lat="48.92869" lon="1.92117">
        <ele>165.003</ele>
        <time>2016-06-10T11:26:44Z</time>
      </trkpt>
      <trkpt lat="48.92867" lon="1.92116">
        <ele>164.042</ele>
        <time>2016-06-10T11:26:46Z</time>
      </trkpt>
      <trkpt lat="48.92861" lon="1.92112">
        <ele>159.716</ele>
        <time>2016-06-10T11:26:52Z</time>
      </trkpt>
      <trkpt lat="48.92854" lon="1.92105">
        <ele>152.506</ele>
        <time>2016-06-10T11:26:58Z</time>
      </trkpt>
      <trkpt lat="48.92849" lon="1.92102">
        <ele>150.584</ele>
        <time>2016-06-10T11:27:03Z</time>
      </trkpt>
      <trkpt lat="48.92843" lon="1.92097">
        <ele>148.661</ele>
        <time>2016-06-10T11:27:07Z</time>
      </trkpt>
      <trkpt lat="48.92833" lon="1.92089">
        <ele>151.064</ele>
        <time>2016-06-10T11:27:16Z</time>
      </trkpt>
      <trkpt lat="48.92824" lon="1.9208">
        <ele>151.545</ele>
        <time>2016-06-10T11:27:24Z</time>
      </trkpt>
      <trkpt lat="48.9282" lon="1.92076">
        <ele>152.026</ele>
        <time>2016-06-10T11:27:27Z</time>
      </trkpt>
      <trkpt lat="48.92815" lon="1.9207">
        <ele>149.622</ele>
        <time>2016-06-10T11:27:32Z</time>
      </trkpt>
      <trkpt lat="48.92803" lon="1.92058">
        <ele>152.987</ele>
        <time>2016-06-10T11:27:42Z</time>
      </trkpt>
      <trkpt lat="48.92801" lon="1.92055">
        <ele>154.91</ele>
        <time>2016-06-10T11:27:48Z</time>
      </trkpt>
      <trkpt lat="48.92798" lon="1.9205">
        <ele>161.158</ele>
        <time>2016-06-10T11:28:06Z</time>
      </trkpt>
      <trkpt lat="48.92801" lon="1.9204">
        <ele>158.274</ele>
        <time>2016-06-10T11:28:12Z</time>
      </trkpt>
      <trkpt lat="48.92806" lon="1.92023">
        <ele>156.352</ele>
        <time>2016-06-10T11:28:21Z</time>
      </trkpt>
      <trkpt lat="48.92811" lon="1.92005">
        <ele>156.352</ele>
        <time>2016-06-10T11:28:31Z</time>
      </trkpt>
      <trkpt lat="48.92815" lon="1.9199">
        <ele>155.39</ele>
        <time>2016-06-10T11:28:39Z</time>
      </trkpt>
      <trkpt lat="48.92817" lon="1.91977">
        <ele>160.677</ele>
        <time>2016-06-10T11:28:47Z</time>
      </trkpt>
      <trkpt lat="48.92816" lon="1.91976">
        <ele>161.158</ele>
        <time>2016-06-10T11:28:48Z</time>
      </trkpt>
      <trkpt lat="48.92821" lon="1.9196">
        <ele>160.677</ele>
        <time>2016-06-10T11:28:57Z</time>
      </trkpt>
      <trkpt lat="48.92825" lon="1.91947">
        <ele>160.677</ele>
        <time>2016-06-10T11:29:04Z</time>
      </trkpt>
      <trkpt lat="48.92831" lon="1.91935">
        <ele>164.042</ele>
        <time>2016-06-10T11:29:11Z</time>
      </trkpt>
      <trkpt lat="48.92836" lon="1.91918">
        <ele>164.042</ele>
        <time>2016-06-10T11:29:19Z</time>
      </trkpt>
      <trkpt lat="48.92839" lon="1.91906">
        <ele>162.12</ele>
        <time>2016-06-10T11:29:26Z</time>
      </trkpt>
      <trkpt lat="48.92844" lon="1.9189">
        <ele>163.081</ele>
        <time>2016-06-10T11:29:34Z</time>
      </trkpt>
      <trkpt lat="48.92849" lon="1.91878">
        <ele>161.158</ele>
        <time>2016-06-10T11:29:41Z</time>
      </trkpt>
      <trkpt lat="48.92852" lon="1.91865">
        <ele>159.716</ele>
        <time>2016-06-10T11:29:48Z</time>
      </trkpt>
      <trkpt lat="48.92855" lon="1.9185">
        <ele>156.352</ele>
        <time>2016-06-10T11:29:56Z</time>
      </trkpt>
      <trkpt lat="48.92857" lon="1.91846">
        <ele>156.832</ele>
        <time>2016-06-10T11:29:58Z</time>
      </trkpt>
      <trkpt lat="48.92862" lon="1.91832">
        <ele>155.39</ele>
        <time>2016-06-10T11:30:05Z</time>
      </trkpt>
      <trkpt lat="48.92866" lon="1.9182">
        <ele>155.871</ele>
        <time>2016-06-10T11:30:11Z</time>
      </trkpt>
      <trkpt lat="48.92866" lon="1.91816">
        <ele>156.352</ele>
        <time>2016-06-10T11:30:13Z</time>
      </trkpt>
      <trkpt lat="48.92863" lon="1.91805">
        <ele>155.871</ele>
        <time>2016-06-10T11:30:21Z</time>
      </trkpt>
      <trkpt lat="48.92863" lon="1.91801">
        <ele>156.832</ele>
        <time>2016-06-10T11:30:39Z</time>
      </trkpt>
      <trkpt lat="48.92871" lon="1.91796">
        <ele>154.91</ele>
        <time>2016-06-10T11:30:46Z</time>
      </trkpt>
      <trkpt lat="48.92879" lon="1.91801">
        <ele>152.987</ele>
        <time>2016-06-10T11:30:53Z</time>
      </trkpt>
      <trkpt lat="48.92882" lon="1.91802">
        <ele>152.506</ele>
        <time>2016-06-10T11:30:55Z</time>
      </trkpt>
      <trkpt lat="48.92894" lon="1.91798">
        <ele>152.987</ele>
        <time>2016-06-10T11:31:02Z</time>
      </trkpt>
      <trkpt lat="48.92902" lon="1.91802">
        <ele>152.026</ele>
        <time>2016-06-10T11:31:07Z</time>
      </trkpt>
      <trkpt lat="48.92913" lon="1.91808">
        <ele>151.545</ele>
        <time>2016-06-10T11:31:14Z</time>
      </trkpt>
      <trkpt lat="48.92925" lon="1.91816">
        <ele>151.064</ele>
        <time>2016-06-10T11:31:22Z</time>
      </trkpt>
      <trkpt lat="48.9294" lon="1.91822">
        <ele>151.064</ele>
        <time>2016-06-10T11:31:31Z</time>
      </trkpt>
      <trkpt lat="48.9295" lon="1.91825">
        <ele>150.584</ele>
        <time>2016-06-10T11:31:38Z</time>
      </trkpt>
      <trkpt lat="48.92957" lon="1.91826">
        <ele>150.584</ele>
        <time>2016-06-10T11:31:44Z</time>
      </trkpt>
      <trkpt lat="48.92959" lon="1.91826">
        <ele>151.064</ele>
        <time>2016-06-10T11:31:50Z</time>
      </trkpt>
      <trkpt lat="48.9296" lon="1.91822">
        <ele>151.064</ele>
        <time>2016-06-10T11:31:58Z</time>
      </trkpt>
      <trkpt lat="48.92965" lon="1.91818">
        <ele>151.064</ele>
        <time>2016-06-10T11:32:04Z</time>
      </trkpt>
      <trkpt lat="48.92972" lon="1.91816">
        <ele>149.142</ele>
        <time>2016-06-10T11:32:10Z</time>
      </trkpt>
      <trkpt lat="48.92979" lon="1.91814">
        <ele>148.18</ele>
        <time>2016-06-10T11:32:16Z</time>
      </trkpt>
      <trkpt lat="48.92983" lon="1.91814">
        <ele>147.219</ele>
        <time>2016-06-10T11:32:19Z</time>
      </trkpt>
      <trkpt lat="48.92992" lon="1.91818">
        <ele>146.258</ele>
        <time>2016-06-10T11:32:25Z</time>
      </trkpt>
      <trkpt lat="48.93" lon="1.91823">
        <ele>145.296</ele>
        <time>2016-06-10T11:32:33Z</time>
      </trkpt>
      <trkpt lat="48.93009" lon="1.91825">
        <ele>143.374</ele>
        <time>2016-06-10T11:32:41Z</time>
      </trkpt>
      <trkpt lat="48.9302" lon="1.91825">
        <ele>142.412</ele>
        <time>2016-06-10T11:32:49Z</time>
      </trkpt>
      <trkpt lat="48.93028" lon="1.91826">
        <ele>141.932</ele>
        <time>2016-06-10T11:32:54Z</time>
      </trkpt>
      <trkpt lat="48.93035" lon="1.91831">
        <ele>143.374</ele>
        <time>2016-06-10T11:33:00Z</time>
      </trkpt>
      <trkpt lat="48.93037" lon="1.91832">
        <ele>143.854</ele>
        <time>2016-06-10T11:33:01Z</time>
      </trkpt>
      <trkpt lat="48.93043" lon="1.91832">
        <ele>141.932</ele>
        <time>2016-06-10T11:33:05Z</time>
      </trkpt>
      <trkpt lat="48.9305" lon="1.91835">
        <ele>140.009</ele>
        <time>2016-06-10T11:33:10Z</time>
      </trkpt>
      <trkpt lat="48.93063" lon="1.9183">
        <ele>136.645</ele>
        <time>2016-06-10T11:33:19Z</time>
      </trkpt>
      <trkpt lat="48.93072" lon="1.91825">
        <ele>136.164</ele>
        <time>2016-06-10T11:33:25Z</time>
      </trkpt>
      <trkpt lat="48.93081" lon="1.91821">
        <ele>135.683</ele>
        <time>2016-06-10T11:33:31Z</time>
      </trkpt>
      <trkpt lat="48.93093" lon="1.91815">
        <ele>134.722</ele>
        <time>2016-06-10T11:33:39Z</time>
      </trkpt>
      <trkpt lat="48.93103" lon="1.91803">
        <ele>132.319</ele>
        <time>2016-06-10T11:33:47Z</time>
      </trkpt>
      <trkpt lat="48.93114" lon="1.91799">
        <ele>129.435</ele>
        <time>2016-06-10T11:33:55Z</time>
      </trkpt>
      <trkpt lat="48.93116" lon="1.91798">
        <ele>128.954</ele>
        <time>2016-06-10T11:33:56Z</time>
      </trkpt>
      <trkpt lat="48.93126" lon="1.91786">
        <ele>127.031</ele>
        <time>2016-06-10T11:34:04Z</time>
      </trkpt>
      <trkpt lat="48.93132" lon="1.9178">
        <ele>126.07</ele>
        <time>2016-06-10T11:34:09Z</time>
      </trkpt>
      <trkpt lat="48.93138" lon="1.91775">
        <ele>125.109</ele>
        <time>2016-06-10T11:34:13Z</time>
      </trkpt>
      <trkpt lat="48.93148" lon="1.91765">
        <ele>121.744</ele>
        <time>2016-06-10T11:34:21Z</time>
      </trkpt>
      <trkpt lat="48.93152" lon="1.91758">
        <ele>120.302</ele>
        <time>2016-06-10T11:34:25Z</time>
      </trkpt>
      <trkpt lat="48.93163" lon="1.91748">
        <ele>119.341</ele>
        <time>2016-06-10T11:34:33Z</time>
      </trkpt>
      <trkpt lat="48.93173" lon="1.91741">
        <ele>116.457</ele>
        <time>2016-06-10T11:34:40Z</time>
      </trkpt>
      <trkpt lat="48.93183" lon="1.91735">
        <ele>118.86</ele>
        <time>2016-06-10T11:34:47Z</time>
      </trkpt>
      <trkpt lat="48.93196" lon="1.91737">
        <ele>119.341</ele>
        <time>2016-06-10T11:34:54Z</time>
      </trkpt>
      <trkpt lat="48.93207" lon="1.91744">
        <ele>120.302</ele>
        <time>2016-06-10T11:35:02Z</time>
      </trkpt>
      <trkpt lat="48.93216" lon="1.91747">
        <ele>119.341</ele>
        <time>2016-06-10T11:35:08Z</time>
      </trkpt>
      <trkpt lat="48.93225" lon="1.91752">
        <ele>119.821</ele>
        <time>2016-06-10T11:35:14Z</time>
      </trkpt>
      <trkpt lat="48.93229" lon="1.91754">
        <ele>120.783</ele>
        <time>2016-06-10T11:35:19Z</time>
      </trkpt>
      <trkpt lat="48.93236" lon="1.91758">
        <ele>122.225</ele>
        <time>2016-06-10T11:35:25Z</time>
      </trkpt>
      <trkpt lat="48.93245" lon="1.91761">
        <ele>120.783</ele>
        <time>2016-06-10T11:35:33Z</time>
      </trkpt>
      <trkpt lat="48.93253" lon="1.91767">
        <ele>119.341</ele>
        <time>2016-06-10T11:35:39Z</time>
      </trkpt>
      <trkpt lat="48.93265" lon="1.91777">
        <ele>116.457</ele>
        <time>2016-06-10T11:35:47Z</time>
      </trkpt>
      <trkpt lat="48.9328" lon="1.91786">
        <ele>113.573</ele>
        <time>2016-06-10T11:35:57Z</time>
      </trkpt>
      <trkpt lat="48.93289" lon="1.91788">
        <ele>112.131</ele>
        <time>2016-06-10T11:36:03Z</time>
      </trkpt>
      <trkpt lat="48.93299" lon="1.91794">
        <ele>111.17</ele>
        <time>2016-06-10T11:36:10Z</time>
      </trkpt>
      <trkpt lat="48.93314" lon="1.91797">
        <ele>111.17</ele>
        <time>2016-06-10T11:36:19Z</time>
      </trkpt>
      <trkpt lat="48.93329" lon="1.91805">
        <ele>108.286</ele>
        <time>2016-06-10T11:36:29Z</time>
      </trkpt>
      <trkpt lat="48.9334" lon="1.9181">
        <ele>107.324</ele>
        <time>2016-06-10T11:36:37Z</time>
      </trkpt>
      <trkpt lat="48.93348" lon="1.91816">
        <ele>106.844</ele>
        <time>2016-06-10T11:36:43Z</time>
      </trkpt>
      <trkpt lat="48.93355" lon="1.91821">
        <ele>106.844</ele>
        <time>2016-06-10T11:36:48Z</time>
      </trkpt>
      <trkpt lat="48.93362" lon="1.91827">
        <ele>105.882</ele>
        <time>2016-06-10T11:36:54Z</time>
      </trkpt>
      <trkpt lat="48.93365" lon="1.91829">
        <ele>105.402</ele>
        <time>2016-06-10T11:36:56Z</time>
      </trkpt>
      <trkpt lat="48.93378" lon="1.91839">
        <ele>105.402</ele>
        <time>2016-06-10T11:37:05Z</time>
      </trkpt>
      <trkpt lat="48.93391" lon="1.91845">
        <ele>105.402</ele>
        <time>2016-06-10T11:37:13Z</time>
      </trkpt>
      <trkpt lat="48.93399" lon="1.91851">
        <ele>103.479</ele>
        <time>2016-06-10T11:37:20Z</time>
      </trkpt>
      <trkpt lat="48.93401" lon="1.91852">
        <ele>102.998</ele>
        <time>2016-06-10T11:37:21Z</time>
      </trkpt>
      <trkpt lat="48.93404" lon="1.91852">
        <ele>102.998</ele>
        <time>2016-06-10T11:37:29Z</time>
      </trkpt>
      <trkpt lat="48.93406" lon="1.91855">
        <ele>101.076</ele>
        <time>2016-06-10T11:38:28Z</time>
      </trkpt>
      <trkpt lat="48.93409" lon="1.91857">
        <ele>100.115</ele>
        <time>2016-06-10T11:38:35Z</time>
      </trkpt>
      <trkpt lat="48.93419" lon="1.91858">
        <ele>99.6338</ele>
        <time>2016-06-10T11:38:42Z</time>
      </trkpt>
      <trkpt lat="48.93432" lon="1.91846">
        <ele>98.1919</ele>
        <time>2016-06-10T11:38:52Z</time>
      </trkpt>
      <trkpt lat="48.93442" lon="1.91836">
        <ele>97.7112</ele>
        <time>2016-06-10T11:39:00Z</time>
      </trkpt>
      <trkpt lat="48.93446" lon="1.9183">
        <ele>97.7112</ele>
        <time>2016-06-10T11:39:04Z</time>
      </trkpt>
      <trkpt lat="48.93458" lon="1.91818">
        <ele>99.6338</ele>
        <time>2016-06-10T11:39:13Z</time>
      </trkpt>
      <trkpt lat="48.93472" lon="1.91802">
        <ele>101.076</ele>
        <time>2016-06-10T11:39:24Z</time>
      </trkpt>
      <trkpt lat="48.93486" lon="1.91787">
        <ele>101.076</ele>
        <time>2016-06-10T11:39:35Z</time>
      </trkpt>
      <trkpt lat="48.93503" lon="1.91776">
        <ele>101.076</ele>
        <time>2016-06-10T11:39:46Z</time>
      </trkpt>
      <trkpt lat="48.93514" lon="1.91777">
        <ele>101.076</ele>
        <time>2016-06-10T11:39:53Z</time>
      </trkpt>
      <trkpt lat="48.9352" lon="1.91782">
        <ele>101.556</ele>
        <time>2016-06-10T11:40:00Z</time>
      </trkpt>
      <trkpt lat="48.9352" lon="1.9178">
        <ele>102.037</ele>
        <time>2016-06-10T11:40:02Z</time>
      </trkpt>
      <trkpt lat="48.9351" lon="1.9177">
        <ele>100.115</ele>
        <time>2016-06-10T11:40:10Z</time>
      </trkpt>
      <trkpt lat="48.93509" lon="1.91768">
        <ele>99.1531</ele>
        <time>2016-06-10T11:40:15Z</time>
      </trkpt>
      <trkpt lat="48.93513" lon="1.9177">
        <ele>100.115</ele>
        <time>2016-06-10T11:41:08Z</time>
      </trkpt>
      <trkpt lat="48.93523" lon="1.9178">
        <ele>99.6338</ele>
        <time>2016-06-10T11:41:16Z</time>
      </trkpt>
      <trkpt lat="48.93533" lon="1.91793">
        <ele>99.1531</ele>
        <time>2016-06-10T11:41:24Z</time>
      </trkpt>
      <trkpt lat="48.93542" lon="1.918">
        <ele>97.2305</ele>
        <time>2016-06-10T11:41:32Z</time>
      </trkpt>
      <trkpt lat="48.9355" lon="1.91799">
        <ele>97.7112</ele>
        <time>2016-06-10T11:41:38Z</time>
      </trkpt>
      <trkpt lat="48.93553" lon="1.91799">
        <ele>97.2305</ele>
        <time>2016-06-10T11:41:40Z</time>
      </trkpt>
      <trkpt lat="48.93561" lon="1.91797">
        <ele>97.2305</ele>
        <time>2016-06-10T11:41:45Z</time>
      </trkpt>
      <trkpt lat="48.93574" lon="1.91793">
        <ele>97.7112</ele>
        <time>2016-06-10T11:41:56Z</time>
      </trkpt>
      <trkpt lat="48.93581" lon="1.9179">
        <ele>99.1531</ele>
        <time>2016-06-10T11:42:01Z</time>
      </trkpt>
      <trkpt lat="48.9359" lon="1.91793">
        <ele>101.076</ele>
        <time>2016-06-10T11:42:07Z</time>
      </trkpt>
      <trkpt lat="48.93602" lon="1.9179">
        <ele>102.037</ele>
        <time>2016-06-10T11:42:14Z</time>
      </trkpt>
      <trkpt lat="48.93604" lon="1.91789">
        <ele>102.037</ele>
        <time>2016-06-10T11:42:15Z</time>
      </trkpt>
      <trkpt lat="48.93614" lon="1.91785">
        <ele>102.998</ele>
        <time>2016-06-10T11:42:21Z</time>
      </trkpt>
      <trkpt lat="48.93626" lon="1.91778">
        <ele>105.402</ele>
        <time>2016-06-10T11:42:27Z</time>
      </trkpt>
      <trkpt lat="48.93632" lon="1.91773">
        <ele>106.363</ele>
        <time>2016-06-10T11:42:32Z</time>
      </trkpt>
      <trkpt lat="48.93641" lon="1.9177">
        <ele>109.247</ele>
        <time>2016-06-10T11:42:39Z</time>
      </trkpt>
      <trkpt lat="48.93649" lon="1.91767">
        <ele>109.728</ele>
        <time>2016-06-10T11:42:45Z</time>
      </trkpt>
      <trkpt lat="48.93651" lon="1.91767">
        <ele>109.728</ele>
        <time>2016-06-10T11:42:46Z</time>
      </trkpt>
      <trkpt lat="48.93665" lon="1.91761">
        <ele>110.208</ele>
        <time>2016-06-10T11:42:54Z</time>
      </trkpt>
      <trkpt lat="48.93677" lon="1.91751">
        <ele>111.65</ele>
        <time>2016-06-10T11:43:00Z</time>
      </trkpt>
      <trkpt lat="48.93685" lon="1.91747">
        <ele>113.573</ele>
        <time>2016-06-10T11:43:06Z</time>
      </trkpt>
      <trkpt lat="48.93694" lon="1.91746">
        <ele>114.054</ele>
        <time>2016-06-10T11:43:13Z</time>
      </trkpt>
      <trkpt lat="48.93708" lon="1.91736">
        <ele>115.015</ele>
        <time>2016-06-10T11:43:22Z</time>
      </trkpt>
      <trkpt lat="48.93723" lon="1.91727">
        <ele>116.457</ele>
        <time>2016-06-10T11:43:32Z</time>
      </trkpt>
      <trkpt lat="48.93735" lon="1.91719">
        <ele>118.379</ele>
        <time>2016-06-10T11:43:41Z</time>
      </trkpt>
      <trkpt lat="48.93745" lon="1.9171">
        <ele>119.341</ele>
        <time>2016-06-10T11:43:49Z</time>
      </trkpt>
      <trkpt lat="48.93748" lon="1.91704">
        <ele>120.302</ele>
        <time>2016-06-10T11:43:55Z</time>
      </trkpt>
      <trkpt lat="48.93748" lon="1.91704">
        <ele>120.783</ele>
        <time>2016-06-10T11:43:59Z</time>
      </trkpt>
      <trkpt lat="48.93764" lon="1.91705">
        <ele>120.783</ele>
        <time>2016-06-10T11:44:10Z</time>
      </trkpt>
      <trkpt lat="48.9378" lon="1.91711">
        <ele>119.341</ele>
        <time>2016-06-10T11:44:21Z</time>
      </trkpt>
      <trkpt lat="48.93799" lon="1.91718">
        <ele>118.86</ele>
        <time>2016-06-10T11:44:34Z</time>
      </trkpt>
      <trkpt lat="48.93807" lon="1.91721">
        <ele>118.379</ele>
        <time>2016-06-10T11:44:40Z</time>
      </trkpt>
      <trkpt lat="48.93819" lon="1.91725">
        <ele>118.379</ele>
        <time>2016-06-10T11:44:49Z</time>
      </trkpt>
      <trkpt lat="48.93834" lon="1.91729">
        <ele>118.86</ele>
        <time>2016-06-10T11:44:59Z</time>
      </trkpt>
      <trkpt lat="48.93844" lon="1.91732">
        <ele>118.86</ele>
        <time>2016-06-10T11:45:07Z</time>
      </trkpt>
      <trkpt lat="48.93855" lon="1.91735">
        <ele>121.264</ele>
        <time>2016-06-10T11:45:15Z</time>
      </trkpt>
      <trkpt lat="48.93866" lon="1.91739">
        <ele>120.783</ele>
        <time>2016-06-10T11:45:23Z</time>
      </trkpt>
      <trkpt lat="48.93879" lon="1.91742">
        <ele>122.225</ele>
        <time>2016-06-10T11:45:33Z</time>
      </trkpt>
      <trkpt lat="48.93894" lon="1.91746">
        <ele>123.186</ele>
        <time>2016-06-10T11:45:43Z</time>
      </trkpt>
      <trkpt lat="48.93902" lon="1.91749">
        <ele>121.744</ele>
        <time>2016-06-10T11:45:50Z</time>
      </trkpt>
      <trkpt lat="48.93913" lon="1.91752">
        <ele>123.667</ele>
        <time>2016-06-10T11:45:58Z</time>
      </trkpt>
      <trkpt lat="48.93923" lon="1.91754">
        <ele>122.705</ele>
        <time>2016-06-10T11:46:05Z</time>
      </trkpt>
      <trkpt lat="48.93936" lon="1.91754">
        <ele>122.705</ele>
        <time>2016-06-10T11:46:14Z</time>
      </trkpt>
      <trkpt lat="48.93947" lon="1.91759">
        <ele>122.705</ele>
        <time>2016-06-10T11:46:22Z</time>
      </trkpt>
      <trkpt lat="48.93959" lon="1.91763">
        <ele>121.744</ele>
        <time>2016-06-10T11:46:32Z</time>
      </trkpt>
      <trkpt lat="48.93969" lon="1.91767">
        <ele>122.225</ele>
        <time>2016-06-10T11:46:40Z</time>
      </trkpt>
      <trkpt lat="48.93982" lon="1.9177">
        <ele>123.186</ele>
        <time>2016-06-10T11:46:49Z</time>
      </trkpt>
      <trkpt lat="48.93996" lon="1.91775">
        <ele>123.667</ele>
        <time>2016-06-10T11:46:59Z</time>
      </trkpt>
      <trkpt lat="48.9401" lon="1.91779">
        <ele>125.109</ele>
        <time>2016-06-10T11:47:08Z</time>
      </trkpt>
      <trkpt lat="48.94025" lon="1.91784">
        <ele>126.07</ele>
        <time>2016-06-10T11:47:17Z</time>
      </trkpt>
      <trkpt lat="48.94037" lon="1.91788">
        <ele>126.07</ele>
        <time>2016-06-10T11:47:25Z</time>
      </trkpt>
      <trkpt lat="48.94047" lon="1.91792">
        <ele>127.512</ele>
        <time>2016-06-10T11:47:32Z</time>
      </trkpt>
      <trkpt lat="48.94052" lon="1.91794">
        <ele>127.993</ele>
        <time>2016-06-10T11:47:35Z</time>
      </trkpt>
      <trkpt lat="48.94064" lon="1.918">
        <ele>131.838</ele>
        <time>2016-06-10T11:47:44Z</time>
      </trkpt>
      <trkpt lat="48.94076" lon="1.91806">
        <ele>136.164</ele>
        <time>2016-06-10T11:47:52Z</time>
      </trkpt>
      <trkpt lat="48.94087" lon="1.9181">
        <ele>133.76</ele>
        <time>2016-06-10T11:47:58Z</time>
      </trkpt>
      <trkpt lat="48.94097" lon="1.91814">
        <ele>130.396</ele>
        <time>2016-06-10T11:48:04Z</time>
      </trkpt>
      <trkpt lat="48.94109" lon="1.9182">
        <ele>129.915</ele>
        <time>2016-06-10T11:48:12Z</time>
      </trkpt>
      <trkpt lat="48.94119" lon="1.91824">
        <ele>130.877</ele>
        <time>2016-06-10T11:48:18Z</time>
      </trkpt>
      <trkpt lat="48.94132" lon="1.91839">
        <ele>127.031</ele>
        <time>2016-06-10T11:48:28Z</time>
      </trkpt>
      <trkpt lat="48.94142" lon="1.91842">
        <ele>127.031</ele>
        <time>2016-06-10T11:48:35Z</time>
      </trkpt>
      <trkpt lat="48.94143" lon="1.91841">
        <ele>127.512</ele>
        <time>2016-06-10T11:48:36Z</time>
      </trkpt>
      <trkpt lat="48.94146" lon="1.91835">
        <ele>127.512</ele>
        <time>2016-06-10T11:48:40Z</time>
      </trkpt>
      <trkpt lat="48.94145" lon="1.91819">
        <ele>127.512</ele>
        <time>2016-06-10T11:48:48Z</time>
      </trkpt>
      <trkpt lat="48.94142" lon="1.91806">
        <ele>126.07</ele>
        <time>2016-06-10T11:48:55Z</time>
      </trkpt>
      <trkpt lat="48.94137" lon="1.91789">
        <ele>125.109</ele>
        <time>2016-06-10T11:49:03Z</time>
      </trkpt>
      <trkpt lat="48.94134" lon="1.91774">
        <ele>125.109</ele>
        <time>2016-06-10T11:49:10Z</time>
      </trkpt>
      <trkpt lat="48.94129" lon="1.91755">
        <ele>124.628</ele>
        <time>2016-06-10T11:49:18Z</time>
      </trkpt>
      <trkpt lat="48.94126" lon="1.91746">
        <ele>123.186</ele>
        <time>2016-06-10T11:49:23Z</time>
      </trkpt>
      <trkpt lat="48.94121" lon="1.91729">
        <ele>126.551</ele>
        <time>2016-06-10T11:49:30Z</time>
      </trkpt>
      <trkpt lat="48.94116" lon="1.91719">
        <ele>132.319</ele>
        <time>2016-06-10T11:49:36Z</time>
      </trkpt>
      <trkpt lat="48.9411" lon="1.91709">
        <ele>137.606</ele>
        <time>2016-06-10T11:49:43Z</time>
      </trkpt>
      <trkpt lat="48.94105" lon="1.91692">
        <ele>136.645</ele>
        <time>2016-06-10T11:49:50Z</time>
      </trkpt>
      <trkpt lat="48.941" lon="1.91681">
        <ele>135.203</ele>
        <time>2016-06-10T11:49:56Z</time>
      </trkpt>
      <trkpt lat="48.94095" lon="1.91669">
        <ele>130.396</ele>
        <time>2016-06-10T11:50:02Z</time>
      </trkpt>
      <trkpt lat="48.94092" lon="1.91654">
        <ele>127.031</ele>
        <time>2016-06-10T11:50:08Z</time>
      </trkpt>
      <trkpt lat="48.94087" lon="1.91637">
        <ele>131.838</ele>
        <time>2016-06-10T11:50:16Z</time>
      </trkpt>
      <trkpt lat="48.94083" lon="1.91624">
        <ele>136.645</ele>
        <time>2016-06-10T11:50:23Z</time>
      </trkpt>
      <trkpt lat="48.94076" lon="1.91614">
        <ele>139.528</ele>
        <time>2016-06-10T11:50:29Z</time>
      </trkpt>
      <trkpt lat="48.94068" lon="1.91601">
        <ele>140.97</ele>
        <time>2016-06-10T11:50:37Z</time>
      </trkpt>
      <trkpt lat="48.94066" lon="1.91598">
        <ele>137.606</ele>
        <time>2016-06-10T11:50:39Z</time>
      </trkpt>
      <trkpt lat="48.94061" lon="1.9159">
        <ele>134.722</ele>
        <time>2016-06-10T11:50:44Z</time>
      </trkpt>
      <trkpt lat="48.94056" lon="1.91582">
        <ele>133.76</ele>
        <time>2016-06-10T11:50:51Z</time>
      </trkpt>
      <trkpt lat="48.94053" lon="1.91577">
        <ele>133.76</ele>
        <time>2016-06-10T11:50:54Z</time>
      </trkpt>
      <trkpt lat="48.94049" lon="1.9157">
        <ele>132.319</ele>
        <time>2016-06-10T11:50:58Z</time>
      </trkpt>
      <trkpt lat="48.94043" lon="1.91553">
        <ele>134.241</ele>
        <time>2016-06-10T11:51:06Z</time>
      </trkpt>
      <trkpt lat="48.94042" lon="1.91551">
        <ele>134.241</ele>
        <time>2016-06-10T11:51:07Z</time>
      </trkpt>
      <trkpt lat="48.94037" lon="1.9154">
        <ele>134.722</ele>
        <time>2016-06-10T11:51:13Z</time>
      </trkpt>
      <trkpt lat="48.94033" lon="1.91526">
        <ele>135.203</ele>
        <time>2016-06-10T11:51:20Z</time>
      </trkpt>
      <trkpt lat="48.94031" lon="1.91522">
        <ele>135.683</ele>
        <time>2016-06-10T11:51:23Z</time>
      </trkpt>
      <trkpt lat="48.94028" lon="1.91515">
        <ele>145.296</ele>
        <time>2016-06-10T11:51:30Z</time>
      </trkpt>
      <trkpt lat="48.94021" lon="1.91504">
        <ele>144.335</ele>
        <time>2016-06-10T11:51:36Z</time>
      </trkpt>
      <trkpt lat="48.9402" lon="1.91496">
        <ele>142.893</ele>
        <time>2016-06-10T11:51:42Z</time>
      </trkpt>
      <trkpt lat="48.9402" lon="1.9149">
        <ele>143.854</ele>
        <time>2016-06-10T11:51:46Z</time>
      </trkpt>
      <trkpt lat="48.94018" lon="1.91474">
        <ele>140.49</ele>
        <time>2016-06-10T11:51:54Z</time>
      </trkpt>
      <trkpt lat="48.94018" lon="1.91465">
        <ele>138.567</ele>
        <time>2016-06-10T11:51:59Z</time>
      </trkpt>
      <trkpt lat="48.94018" lon="1.91461">
        <ele>138.087</ele>
        <time>2016-06-10T11:52:04Z</time>
      </trkpt>
      <trkpt lat="48.94017" lon="1.91448">
        <ele>138.567</ele>
        <time>2016-06-10T11:52:11Z</time>
      </trkpt>
      <trkpt lat="48.94016" lon="1.91436">
        <ele>139.528</ele>
        <time>2016-06-10T11:52:17Z</time>
      </trkpt>
      <trkpt lat="48.94014" lon="1.91424">
        <ele>140.49</ele>
        <time>2016-06-10T11:52:23Z</time>
      </trkpt>
      <trkpt lat="48.94014" lon="1.9142">
        <ele>141.451</ele>
        <time>2016-06-10T11:52:25Z</time>
      </trkpt>
      <trkpt lat="48.9401" lon="1.91409">
        <ele>143.374</ele>
        <time>2016-06-10T11:52:30Z</time>
      </trkpt>
      <trkpt lat="48.94012" lon="1.91399">
        <ele>143.374</ele>
        <time>2016-06-10T11:52:37Z</time>
      </trkpt>
      <trkpt lat="48.9401" lon="1.91386">
        <ele>143.374</ele>
        <time>2016-06-10T11:52:43Z</time>
      </trkpt>
      <trkpt lat="48.94005" lon="1.91376">
        <ele>143.854</ele>
        <time>2016-06-10T11:52:50Z</time>
      </trkpt>
      <trkpt lat="48.94005" lon="1.91372">
        <ele>144.335</ele>
        <time>2016-06-10T11:52:56Z</time>
      </trkpt>
      <trkpt lat="48.94006" lon="1.91353">
        <ele>142.893</ele>
        <time>2016-06-10T11:53:06Z</time>
      </trkpt>
      <trkpt lat="48.94005" lon="1.91349">
        <ele>141.932</ele>
        <time>2016-06-10T11:53:08Z</time>
      </trkpt>
      <trkpt lat="48.94004" lon="1.91338">
        <ele>143.854</ele>
        <time>2016-06-10T11:53:13Z</time>
      </trkpt>
      <trkpt lat="48.94003" lon="1.91318">
        <ele>144.816</ele>
        <time>2016-06-10T11:53:22Z</time>
      </trkpt>
      <trkpt lat="48.94003" lon="1.91313">
        <ele>146.258</ele>
        <time>2016-06-10T11:53:24Z</time>
      </trkpt>
      <trkpt lat="48.94003" lon="1.91305">
        <ele>149.142</ele>
        <time>2016-06-10T11:53:28Z</time>
      </trkpt>
      <trkpt lat="48.94" lon="1.91291">
        <ele>152.987</ele>
        <time>2016-06-10T11:53:59Z</time>
      </trkpt>
      <trkpt lat="48.93998" lon="1.91284">
        <ele>154.429</ele>
        <time>2016-06-10T11:54:04Z</time>
      </trkpt>
      <trkpt lat="48.93995" lon="1.91275">
        <ele>154.91</ele>
        <time>2016-06-10T11:54:09Z</time>
      </trkpt>
      <trkpt lat="48.93993" lon="1.9127">
        <ele>154.429</ele>
        <time>2016-06-10T11:54:12Z</time>
      </trkpt>
      <trkpt lat="48.93991" lon="1.91256">
        <ele>153.468</ele>
        <time>2016-06-10T11:54:19Z</time>
      </trkpt>
      <trkpt lat="48.93989" lon="1.91248">
        <ele>152.506</ele>
        <time>2016-06-10T11:54:23Z</time>
      </trkpt>
      <trkpt lat="48.93983" lon="1.91235">
        <ele>152.026</ele>
        <time>2016-06-10T11:54:31Z</time>
      </trkpt>
      <trkpt lat="48.93982" lon="1.91233">
        <ele>152.026</ele>
        <time>2016-06-10T11:54:32Z</time>
      </trkpt>
      <trkpt lat="48.9398" lon="1.91226">
        <ele>152.026</ele>
        <time>2016-06-10T11:54:36Z</time>
      </trkpt>
      <trkpt lat="48.93976" lon="1.91214">
        <ele>153.468</ele>
        <time>2016-06-10T11:54:43Z</time>
      </trkpt>
      <trkpt lat="48.93974" lon="1.91204">
        <ele>154.91</ele>
        <time>2016-06-10T11:54:48Z</time>
      </trkpt>
      <trkpt lat="48.93974" lon="1.91203">
        <ele>154.91</ele>
        <time>2016-06-10T11:54:49Z</time>
      </trkpt>
      <trkpt lat="48.93972" lon="1.91189">
        <ele>157.313</ele>
        <time>2016-06-10T11:54:56Z</time>
      </trkpt>
      <trkpt lat="48.93967" lon="1.91176">
        <ele>157.794</ele>
        <time>2016-06-10T11:55:04Z</time>
      </trkpt>
      <trkpt lat="48.93968" lon="1.91164">
        <ele>152.987</ele>
        <time>2016-06-10T11:55:10Z</time>
      </trkpt>
      <trkpt lat="48.93967" lon="1.9115">
        <ele>149.622</ele>
        <time>2016-06-10T11:55:17Z</time>
      </trkpt>
      <trkpt lat="48.93966" lon="1.91144">
        <ele>149.142</ele>
        <time>2016-06-10T11:55:20Z</time>
      </trkpt>
      <trkpt lat="48.93965" lon="1.91134">
        <ele>148.18</ele>
        <time>2016-06-10T11:55:25Z</time>
      </trkpt>
      <trkpt lat="48.93965" lon="1.91127">
        <ele>148.18</ele>
        <time>2016-06-10T11:55:29Z</time>
      </trkpt>
      <trkpt lat="48.93967" lon="1.9112">
        <ele>152.026</ele>
        <time>2016-06-10T11:55:39Z</time>
      </trkpt>
      <trkpt lat="48.93967" lon="1.91112">
        <ele>152.506</ele>
        <time>2016-06-10T11:55:44Z</time>
      </trkpt>
      <trkpt lat="48.93963" lon="1.91101">
        <ele>153.948</ele>
        <time>2016-06-10T11:55:52Z</time>
      </trkpt>
      <trkpt lat="48.93962" lon="1.91099">
        <ele>153.948</ele>
        <time>2016-06-10T11:55:53Z</time>
      </trkpt>
      <trkpt lat="48.93958" lon="1.91085">
        <ele>153.948</ele>
        <time>2016-06-10T11:56:03Z</time>
      </trkpt>
      <trkpt lat="48.93954" lon="1.91073">
        <ele>152.506</ele>
        <time>2016-06-10T11:56:11Z</time>
      </trkpt>
      <trkpt lat="48.9395" lon="1.91059">
        <ele>152.506</ele>
        <time>2016-06-10T11:56:20Z</time>
      </trkpt>
      <trkpt lat="48.93948" lon="1.91045">
        <ele>153.468</ele>
        <time>2016-06-10T11:56:28Z</time>
      </trkpt>
      <trkpt lat="48.93947" lon="1.91043">
        <ele>153.468</ele>
        <time>2016-06-10T11:56:29Z</time>
      </trkpt>
      <trkpt lat="48.93947" lon="1.9103">
        <ele>152.026</ele>
        <time>2016-06-10T11:56:36Z</time>
      </trkpt>
      <trkpt lat="48.93947" lon="1.91027">
        <ele>152.026</ele>
        <time>2016-06-10T11:56:38Z</time>
      </trkpt>
      <trkpt lat="48.93947" lon="1.91014">
        <ele>152.506</ele>
        <time>2016-06-10T11:56:45Z</time>
      </trkpt>
      <trkpt lat="48.93949" lon="1.91011">
        <ele>153.948</ele>
        <time>2016-06-10T11:56:47Z</time>
      </trkpt>
      <trkpt lat="48.9395" lon="1.9101">
        <ele>153.468</ele>
        <time>2016-06-10T11:56:49Z</time>
      </trkpt>
      <trkpt lat="48.93948" lon="1.91">
        <ele>153.468</ele>
        <time>2016-06-10T11:56:55Z</time>
      </trkpt>
      <trkpt lat="48.93948" lon="1.9099">
        <ele>152.506</ele>
        <time>2016-06-10T11:57:01Z</time>
      </trkpt>
      <trkpt lat="48.93947" lon="1.90975">
        <ele>152.506</ele>
        <time>2016-06-10T11:57:09Z</time>
      </trkpt>
      <trkpt lat="48.93945" lon="1.90958">
        <ele>152.987</ele>
        <time>2016-06-10T11:57:17Z</time>
      </trkpt>
      <trkpt lat="48.93945" lon="1.90937">
        <ele>152.987</ele>
        <time>2016-06-10T11:57:27Z</time>
      </trkpt>
      <trkpt lat="48.93945" lon="1.90925">
        <ele>153.468</ele>
        <time>2016-06-10T11:57:34Z</time>
      </trkpt>
      <trkpt lat="48.93946" lon="1.90913">
        <ele>153.948</ele>
        <time>2016-06-10T11:57:41Z</time>
      </trkpt>
      <trkpt lat="48.93944" lon="1.90899">
        <ele>152.987</ele>
        <time>2016-06-10T11:57:48Z</time>
      </trkpt>
      <trkpt lat="48.93943" lon="1.90883">
        <ele>154.91</ele>
        <time>2016-06-10T11:57:56Z</time>
      </trkpt>
      <trkpt lat="48.93942" lon="1.90868">
        <ele>156.352</ele>
        <time>2016-06-10T11:58:04Z</time>
      </trkpt>
      <trkpt lat="48.93942" lon="1.9086">
        <ele>154.91</ele>
        <time>2016-06-10T11:58:08Z</time>
      </trkpt>
      <trkpt lat="48.93942" lon="1.90838">
        <ele>155.871</ele>
        <time>2016-06-10T11:58:18Z</time>
      </trkpt>
      <trkpt lat="48.93941" lon="1.9082">
        <ele>154.91</ele>
        <time>2016-06-10T11:58:27Z</time>
      </trkpt>
      <trkpt lat="48.93941" lon="1.90805">
        <ele>153.948</ele>
        <time>2016-06-10T11:58:35Z</time>
      </trkpt>
      <trkpt lat="48.9394" lon="1.90792">
        <ele>153.948</ele>
        <time>2016-06-10T11:58:42Z</time>
      </trkpt>
      <trkpt lat="48.9394" lon="1.9078">
        <ele>153.948</ele>
        <time>2016-06-10T11:58:49Z</time>
      </trkpt>
      <trkpt lat="48.9394" lon="1.90766">
        <ele>153.468</ele>
        <time>2016-06-10T11:58:57Z</time>
      </trkpt>
      <trkpt lat="48.9394" lon="1.90754">
        <ele>152.987</ele>
        <time>2016-06-10T11:59:03Z</time>
      </trkpt>
      <trkpt lat="48.93939" lon="1.90744">
        <ele>151.545</ele>
        <time>2016-06-10T11:59:09Z</time>
      </trkpt>
      <trkpt lat="48.93936" lon="1.90726">
        <ele>153.468</ele>
        <time>2016-06-10T11:59:18Z</time>
      </trkpt>
      <trkpt lat="48.93934" lon="1.90721">
        <ele>154.429</ele>
        <time>2016-06-10T11:59:21Z</time>
      </trkpt>
      <trkpt lat="48.93929" lon="1.90708">
        <ele>155.871</ele>
        <time>2016-06-10T11:59:28Z</time>
      </trkpt>
      <trkpt lat="48.93924" lon="1.90689">
        <ele>154.91</ele>
        <time>2016-06-10T11:59:38Z</time>
      </trkpt>
      <trkpt lat="48.93922" lon="1.90675">
        <ele>159.235</ele>
        <time>2016-06-10T11:59:45Z</time>
      </trkpt>
      <trkpt lat="48.93919" lon="1.90658">
        <ele>159.235</ele>
        <time>2016-06-10T11:59:53Z</time>
      </trkpt>
      <trkpt lat="48.93914" lon="1.90641">
        <ele>156.832</ele>
        <time>2016-06-10T12:00:02Z</time>
      </trkpt>
      <trkpt lat="48.93911" lon="1.90627">
        <ele>155.871</ele>
        <time>2016-06-10T12:00:10Z</time>
      </trkpt>
      <trkpt lat="48.9391" lon="1.90615">
        <ele>155.871</ele>
        <time>2016-06-10T12:00:17Z</time>
      </trkpt>
      <trkpt lat="48.9391" lon="1.9061">
        <ele>156.832</ele>
        <time>2016-06-10T12:00:21Z</time>
      </trkpt>
      <trkpt lat="48.93907" lon="1.90602">
        <ele>158.274</ele>
        <time>2016-06-10T12:00:26Z</time>
      </trkpt>
      <trkpt lat="48.93902" lon="1.90595">
        <ele>159.716</ele>
        <time>2016-06-10T12:00:30Z</time>
      </trkpt>
      <trkpt lat="48.93896" lon="1.90586">
        <ele>158.274</ele>
        <time>2016-06-10T12:00:37Z</time>
      </trkpt>
      <trkpt lat="48.93895" lon="1.90585">
        <ele>158.274</ele>
        <time>2016-06-10T12:00:38Z</time>
      </trkpt>
      <trkpt lat="48.93891" lon="1.90576">
        <ele>157.313</ele>
        <time>2016-06-10T12:00:44Z</time>
      </trkpt>
      <trkpt lat="48.93888" lon="1.90571">
        <ele>157.794</ele>
        <time>2016-06-10T12:00:48Z</time>
      </trkpt>
      <trkpt lat="48.93886" lon="1.90568">
        <ele>159.716</ele>
        <time>2016-06-10T12:00:50Z</time>
      </trkpt>
      <trkpt lat="48.9388" lon="1.9056">
        <ele>160.197</ele>
        <time>2016-06-10T12:00:56Z</time>
      </trkpt>
      <trkpt lat="48.93876" lon="1.90552">
        <ele>160.197</ele>
        <time>2016-06-10T12:01:01Z</time>
      </trkpt>
      <trkpt lat="48.93873" lon="1.90547">
        <ele>163.081</ele>
        <time>2016-06-10T12:01:06Z</time>
      </trkpt>
      <trkpt lat="48.93867" lon="1.90542">
        <ele>169.81</ele>
        <time>2016-06-10T12:01:11Z</time>
      </trkpt>
      <trkpt lat="48.9386" lon="1.90532">
        <ele>171.252</ele>
        <time>2016-06-10T12:01:18Z</time>
      </trkpt>
      <trkpt lat="48.93855" lon="1.90525">
        <ele>171.252</ele>
        <time>2016-06-10T12:01:23Z</time>
      </trkpt>
      <trkpt lat="48.93852" lon="1.90518">
        <ele>173.175</ele>
        <time>2016-06-10T12:01:28Z</time>
      </trkpt>
      <trkpt lat="48.93851" lon="1.90515">
        <ele>173.175</ele>
        <time>2016-06-10T12:01:30Z</time>
      </trkpt>
      <trkpt lat="48.93849" lon="1.90506">
        <ele>173.655</ele>
        <time>2016-06-10T12:01:36Z</time>
      </trkpt>
      <trkpt lat="48.93846" lon="1.905">
        <ele>171.252</ele>
        <time>2016-06-10T12:01:41Z</time>
      </trkpt>
      <trkpt lat="48.9384" lon="1.90491">
        <ele>166.926</ele>
        <time>2016-06-10T12:01:57Z</time>
      </trkpt>
      <trkpt lat="48.9384" lon="1.90486">
        <ele>167.887</ele>
        <time>2016-06-10T12:02:02Z</time>
      </trkpt>
      <trkpt lat="48.93841" lon="1.90481">
        <ele>168.849</ele>
        <time>2016-06-10T12:02:07Z</time>
      </trkpt>
      <trkpt lat="48.93841" lon="1.90478">
        <ele>166.445</ele>
        <time>2016-06-10T12:02:10Z</time>
      </trkpt>
      <trkpt lat="48.9384" lon="1.90473">
        <ele>165.484</ele>
        <time>2016-06-10T12:02:15Z</time>
      </trkpt>
      <trkpt lat="48.93839" lon="1.90466">
        <ele>166.926</ele>
        <time>2016-06-10T12:02:19Z</time>
      </trkpt>
      <trkpt lat="48.93839" lon="1.90459">
        <ele>167.887</ele>
        <time>2016-06-10T12:02:24Z</time>
      </trkpt>
      <trkpt lat="48.93842" lon="1.90453">
        <ele>175.097</ele>
        <time>2016-06-10T12:02:34Z</time>
      </trkpt>
      <trkpt lat="48.9384" lon="1.90449">
        <ele>175.578</ele>
        <time>2016-06-10T12:02:40Z</time>
      </trkpt>
      <trkpt lat="48.93839" lon="1.9045">
        <ele>175.097</ele>
        <time>2016-06-10T12:02:49Z</time>
      </trkpt>
      <trkpt lat="48.93832" lon="1.90452">
        <ele>181.346</ele>
        <time>2016-06-10T12:02:57Z</time>
      </trkpt>
      <trkpt lat="48.93832" lon="1.90444">
        <ele>177.501</ele>
        <time>2016-06-10T12:03:03Z</time>
      </trkpt>
      <trkpt lat="48.93832" lon="1.9044">
        <ele>177.02</ele>
        <time>2016-06-10T12:03:05Z</time>
      </trkpt>
      <trkpt lat="48.93829" lon="1.90434">
        <ele>176.539</ele>
        <time>2016-06-10T12:03:09Z</time>
      </trkpt>
      <trkpt lat="48.93829" lon="1.90427">
        <ele>174.617</ele>
        <time>2016-06-10T12:03:12Z</time>
      </trkpt>
      <trkpt lat="48.93826" lon="1.90421">
        <ele>173.655</ele>
        <time>2016-06-10T12:03:17Z</time>
      </trkpt>
      <trkpt lat="48.93824" lon="1.90412">
        <ele>170.291</ele>
        <time>2016-06-10T12:03:23Z</time>
      </trkpt>
      <trkpt lat="48.93823" lon="1.9041">
        <ele>171.733</ele>
        <time>2016-06-10T12:03:29Z</time>
      </trkpt>
      <trkpt lat="48.93822" lon="1.90411">
        <ele>171.252</ele>
        <time>2016-06-10T12:03:31Z</time>
      </trkpt>
      <trkpt lat="48.93824" lon="1.90406">
        <ele>168.368</ele>
        <time>2016-06-10T12:03:35Z</time>
      </trkpt>
      <trkpt lat="48.93823" lon="1.90404">
        <ele>168.368</ele>
        <time>2016-06-10T12:03:37Z</time>
      </trkpt>
      <trkpt lat="48.93823" lon="1.90395">
        <ele>165.003</ele>
        <time>2016-06-10T12:03:41Z</time>
      </trkpt>
      <trkpt lat="48.9382" lon="1.90382">
        <ele>162.12</ele>
        <time>2016-06-10T12:03:47Z</time>
      </trkpt>
      <trkpt lat="48.9382" lon="1.90376">
        <ele>163.081</ele>
        <time>2016-06-10T12:03:50Z</time>
      </trkpt>
      <trkpt lat="48.93819" lon="1.90367">
        <ele>162.6</ele>
        <time>2016-06-10T12:03:56Z</time>
      </trkpt>
      <trkpt lat="48.93818" lon="1.90356">
        <ele>162.6</ele>
        <time>2016-06-10T12:04:03Z</time>
      </trkpt>
      <trkpt lat="48.93816" lon="1.90349">
        <ele>162.12</ele>
        <time>2016-06-10T12:04:08Z</time>
      </trkpt>
      <trkpt lat="48.93812" lon="1.90343">
        <ele>162.6</ele>
        <time>2016-06-10T12:04:12Z</time>
      </trkpt>
      <trkpt lat="48.93806" lon="1.90329">
        <ele>163.562</ele>
        <time>2016-06-10T12:04:20Z</time>
      </trkpt>
      <trkpt lat="48.93805" lon="1.90322">
        <ele>164.042</ele>
        <time>2016-06-10T12:04:25Z</time>
      </trkpt>
      <trkpt lat="48.938" lon="1.90319">
        <ele>165.965</ele>
        <time>2016-06-10T12:04:30Z</time>
      </trkpt>
      <trkpt lat="48.93794" lon="1.90316">
        <ele>167.887</ele>
        <time>2016-06-10T12:04:35Z</time>
      </trkpt>
      <trkpt lat="48.9379" lon="1.90312">
        <ele>169.81</ele>
        <time>2016-06-10T12:04:40Z</time>
      </trkpt>
      <trkpt lat="48.93789" lon="1.90309">
        <ele>170.291</ele>
        <time>2016-06-10T12:04:43Z</time>
      </trkpt>
      <trkpt lat="48.9379" lon="1.90305">
        <ele>170.291</ele>
        <time>2016-06-10T12:04:49Z</time>
      </trkpt>
      <trkpt lat="48.9379" lon="1.90303">
        <ele>170.291</ele>
        <time>2016-06-10T12:05:00Z</time>
      </trkpt>
      <trkpt lat="48.9379" lon="1.90303">
        <ele>170.771</ele>
        <time>2016-06-10T12:05:01Z</time>
      </trkpt>
      <trkpt lat="48.93796" lon="1.90306">
        <ele>170.291</ele>
        <time>2016-06-10T12:05:16Z</time>
      </trkpt>
      <trkpt lat="48.93795" lon="1.90305">
        <ele>169.81</ele>
        <time>2016-06-10T12:05:21Z</time>
      </trkpt>
      <trkpt lat="48.93795" lon="1.90306">
        <ele>169.81</ele>
        <time>2016-06-10T12:05:29Z</time>
      </trkpt>
      <trkpt lat="48.93796" lon="1.90303">
        <ele>168.849</ele>
        <time>2016-06-10T12:05:36Z</time>
      </trkpt>
      <trkpt lat="48.93796" lon="1.90302">
        <ele>168.368</ele>
        <time>2016-06-10T12:05:37Z</time>
      </trkpt>
      <trkpt lat="48.9379" lon="1.90298">
        <ele>167.887</ele>
        <time>2016-06-10T12:05:41Z</time>
      </trkpt>
      <trkpt lat="48.93782" lon="1.9029">
        <ele>165.965</ele>
        <time>2016-06-10T12:05:48Z</time>
      </trkpt>
      <trkpt lat="48.93773" lon="1.9028">
        <ele>165.484</ele>
        <time>2016-06-10T12:05:57Z</time>
      </trkpt>
      <trkpt lat="48.93769" lon="1.90274">
        <ele>166.926</ele>
        <time>2016-06-10T12:06:01Z</time>
      </trkpt>
      <trkpt lat="48.93766" lon="1.90268">
        <ele>168.368</ele>
        <time>2016-06-10T12:06:04Z</time>
      </trkpt>
      <trkpt lat="48.93764" lon="1.90264">
        <ele>171.733</ele>
        <time>2016-06-10T12:06:11Z</time>
      </trkpt>
      <trkpt lat="48.9376" lon="1.9026">
        <ele>173.655</ele>
        <time>2016-06-10T12:06:17Z</time>
      </trkpt>
      <trkpt lat="48.93756" lon="1.90252">
        <ele>171.733</ele>
        <time>2016-06-10T12:06:22Z</time>
      </trkpt>
      <trkpt lat="48.93752" lon="1.90246">
        <ele>168.849</ele>
        <time>2016-06-10T12:06:27Z</time>
      </trkpt>
      <trkpt lat="48.93744" lon="1.90236">
        <ele>164.042</ele>
        <time>2016-06-10T12:06:36Z</time>
      </trkpt>
      <trkpt lat="48.93741" lon="1.90232">
        <ele>163.081</ele>
        <time>2016-06-10T12:06:39Z</time>
      </trkpt>
      <trkpt lat="48.93737" lon="1.90222">
        <ele>162.6</ele>
        <time>2016-06-10T12:06:46Z</time>
      </trkpt>
      <trkpt lat="48.93731" lon="1.90209">
        <ele>162.12</ele>
        <time>2016-06-10T12:06:53Z</time>
      </trkpt>
      <trkpt lat="48.93727" lon="1.90201">
        <ele>164.523</ele>
        <time>2016-06-10T12:07:00Z</time>
      </trkpt>
      <trkpt lat="48.93727" lon="1.90201">
        <ele>165.965</ele>
        <time>2016-06-10T12:07:02Z</time>
      </trkpt>
      <trkpt lat="48.93725" lon="1.90194">
        <ele>167.887</ele>
        <time>2016-06-10T12:07:06Z</time>
      </trkpt>
      <trkpt lat="48.93723" lon="1.90188">
        <ele>168.849</ele>
        <time>2016-06-10T12:07:09Z</time>
      </trkpt>
      <trkpt lat="48.93721" lon="1.90181">
        <ele>169.81</ele>
        <time>2016-06-10T12:07:14Z</time>
      </trkpt>
      <trkpt lat="48.93713" lon="1.90164">
        <ele>165.965</ele>
        <time>2016-06-10T12:07:24Z</time>
      </trkpt>
      <trkpt lat="48.93713" lon="1.90155">
        <ele>162.12</ele>
        <time>2016-06-10T12:07:29Z</time>
      </trkpt>
      <trkpt lat="48.93711" lon="1.90141">
        <ele>163.562</ele>
        <time>2016-06-10T12:07:35Z</time>
      </trkpt>
      <trkpt lat="48.93711" lon="1.90126">
        <ele>170.771</ele>
        <time>2016-06-10T12:07:48Z</time>
      </trkpt>
      <trkpt lat="48.9371" lon="1.90114">
        <ele>169.81</ele>
        <time>2016-06-10T12:07:55Z</time>
      </trkpt>
      <trkpt lat="48.93711" lon="1.90112">
        <ele>169.329</ele>
        <time>2016-06-10T12:07:56Z</time>
      </trkpt>
      <trkpt lat="48.93711" lon="1.90112">
        <ele>169.329</ele>
        <time>2016-06-10T12:07:56Z</time>
      </trkpt>
      <trkpt lat="48.93709" lon="1.90102">
        <ele>167.887</ele>
        <time>2016-06-10T12:08:03Z</time>
      </trkpt>
      <trkpt lat="48.93708" lon="1.90081">
        <ele>175.578</ele>
        <time>2016-06-10T12:08:28Z</time>
      </trkpt>
      <trkpt lat="48.93705" lon="1.90077">
        <ele>176.059</ele>
        <time>2016-06-10T12:08:33Z</time>
      </trkpt>
      <trkpt lat="48.937" lon="1.9007">
        <ele>175.097</ele>
        <time>2016-06-10T12:08:40Z</time>
      </trkpt>
      <trkpt lat="48.937" lon="1.90066">
        <ele>173.175</ele>
        <time>2016-06-10T12:08:43Z</time>
      </trkpt>
      <trkpt lat="48.93699" lon="1.90064">
        <ele>171.733</ele>
        <time>2016-06-10T12:08:45Z</time>
      </trkpt>
      <trkpt lat="48.93692" lon="1.90054">
        <ele>174.136</ele>
        <time>2016-06-10T12:08:52Z</time>
      </trkpt>
      <trkpt lat="48.93688" lon="1.90048">
        <ele>171.252</ele>
        <time>2016-06-10T12:08:55Z</time>
      </trkpt>
      <trkpt lat="48.93681" lon="1.90036">
        <ele>167.407</ele>
        <time>2016-06-10T12:09:02Z</time>
      </trkpt>
      <trkpt lat="48.93679" lon="1.90033">
        <ele>166.926</ele>
        <time>2016-06-10T12:09:04Z</time>
      </trkpt>
      <trkpt lat="48.93676" lon="1.90026">
        <ele>164.523</ele>
        <time>2016-06-10T12:09:13Z</time>
      </trkpt>
      <trkpt lat="48.93674" lon="1.90022">
        <ele>164.042</ele>
        <time>2016-06-10T12:09:16Z</time>
      </trkpt>
      <trkpt lat="48.93668" lon="1.90012">
        <ele>165.003</ele>
        <time>2016-06-10T12:09:22Z</time>
      </trkpt>
      <trkpt lat="48.93665" lon="1.9">
        <ele>165.484</ele>
        <time>2016-06-10T12:09:27Z</time>
      </trkpt>
      <trkpt lat="48.93659" lon="1.89983">
        <ele>162.6</ele>
        <time>2016-06-10T12:09:34Z</time>
      </trkpt>
      <trkpt lat="48.93658" lon="1.89981">
        <ele>162.6</ele>
        <time>2016-06-10T12:09:35Z</time>
      </trkpt>
      <trkpt lat="48.93647" lon="1.89968">
        <ele>163.562</ele>
        <time>2016-06-10T12:09:44Z</time>
      </trkpt>
      <trkpt lat="48.93641" lon="1.89961">
        <ele>164.523</ele>
        <time>2016-06-10T12:09:50Z</time>
      </trkpt>
      <trkpt lat="48.93634" lon="1.89954">
        <ele>168.368</ele>
        <time>2016-06-10T12:09:59Z</time>
      </trkpt>
      <trkpt lat="48.93633" lon="1.89952">
        <ele>168.849</ele>
        <time>2016-06-10T12:10:00Z</time>
      </trkpt>
      <trkpt lat="48.93625" lon="1.89941">
        <ele>171.733</ele>
        <time>2016-06-10T12:10:07Z</time>
      </trkpt>
      <trkpt lat="48.93615" lon="1.89923">
        <ele>176.539</ele>
        <time>2016-06-10T12:10:16Z</time>
      </trkpt>
      <trkpt lat="48.93613" lon="1.89919">
        <ele>176.539</ele>
        <time>2016-06-10T12:10:19Z</time>
      </trkpt>
      <trkpt lat="48.93606" lon="1.89909">
        <ele>175.578</ele>
        <time>2016-06-10T12:10:26Z</time>
      </trkpt>
      <trkpt lat="48.93602" lon="1.89902">
        <ele>175.097</ele>
        <time>2016-06-10T12:10:30Z</time>
      </trkpt>
      <trkpt lat="48.93595" lon="1.89892">
        <ele>175.097</ele>
        <time>2016-06-10T12:10:36Z</time>
      </trkpt>
      <trkpt lat="48.93591" lon="1.89885">
        <ele>173.175</ele>
        <time>2016-06-10T12:10:40Z</time>
      </trkpt>
      <trkpt lat="48.93589" lon="1.89881">
        <ele>172.694</ele>
        <time>2016-06-10T12:10:42Z</time>
      </trkpt>
      <trkpt lat="48.93587" lon="1.89875">
        <ele>173.175</ele>
        <time>2016-06-10T12:10:45Z</time>
      </trkpt>
      <trkpt lat="48.93583" lon="1.89868">
        <ele>173.175</ele>
        <time>2016-06-10T12:10:51Z</time>
      </trkpt>
      <trkpt lat="48.93583" lon="1.89867">
        <ele>173.175</ele>
        <time>2016-06-10T12:10:52Z</time>
      </trkpt>
      <trkpt lat="48.9358" lon="1.89864">
        <ele>174.136</ele>
        <time>2016-06-10T12:10:56Z</time>
      </trkpt>
      <trkpt lat="48.93577" lon="1.89859">
        <ele>175.578</ele>
        <time>2016-06-10T12:11:02Z</time>
      </trkpt>
      <trkpt lat="48.93575" lon="1.89854">
        <ele>175.578</ele>
        <time>2016-06-10T12:11:07Z</time>
      </trkpt>
      <trkpt lat="48.93573" lon="1.89851">
        <ele>174.136</ele>
        <time>2016-06-10T12:11:09Z</time>
      </trkpt>
      <trkpt lat="48.93569" lon="1.8984">
        <ele>171.733</ele>
        <time>2016-06-10T12:11:15Z</time>
      </trkpt>
      <trkpt lat="48.93566" lon="1.89835">
        <ele>172.213</ele>
        <time>2016-06-10T12:11:18Z</time>
      </trkpt>
      <trkpt lat="48.93559" lon="1.89826">
        <ele>172.213</ele>
        <time>2016-06-10T12:11:25Z</time>
      </trkpt>
      <trkpt lat="48.93554" lon="1.89823">
        <ele>176.539</ele>
        <time>2016-06-10T12:11:29Z</time>
      </trkpt>
      <trkpt lat="48.93552" lon="1.8982">
        <ele>177.02</ele>
        <time>2016-06-10T12:11:31Z</time>
      </trkpt>
      <trkpt lat="48.93545" lon="1.8981">
        <ele>178.462</ele>
        <time>2016-06-10T12:11:37Z</time>
      </trkpt>
      <trkpt lat="48.93544" lon="1.89808">
        <ele>178.462</ele>
        <time>2016-06-10T12:11:38Z</time>
      </trkpt>
      <trkpt lat="48.93544" lon="1.89797">
        <ele>173.655</ele>
        <time>2016-06-10T12:11:44Z</time>
      </trkpt>
      <trkpt lat="48.93541" lon="1.89791">
        <ele>170.771</ele>
        <time>2016-06-10T12:11:50Z</time>
      </trkpt>
      <trkpt lat="48.9354" lon="1.89782">
        <ele>170.291</ele>
        <time>2016-06-10T12:11:55Z</time>
      </trkpt>
      <trkpt lat="48.93531" lon="1.89772">
        <ele>172.213</ele>
        <time>2016-06-10T12:12:03Z</time>
      </trkpt>
      <trkpt lat="48.93528" lon="1.8977">
        <ele>172.694</ele>
        <time>2016-06-10T12:12:05Z</time>
      </trkpt>
      <trkpt lat="48.93523" lon="1.8976">
        <ele>172.694</ele>
        <time>2016-06-10T12:12:12Z</time>
      </trkpt>
      <trkpt lat="48.93522" lon="1.89757">
        <ele>172.694</ele>
        <time>2016-06-10T12:12:13Z</time>
      </trkpt>
      <trkpt lat="48.93517" lon="1.89738">
        <ele>167.407</ele>
        <time>2016-06-10T12:12:21Z</time>
      </trkpt>
      <trkpt lat="48.93515" lon="1.89737">
        <ele>167.887</ele>
        <time>2016-06-10T12:12:22Z</time>
      </trkpt>
      <trkpt lat="48.93511" lon="1.89735">
        <ele>170.771</ele>
        <time>2016-06-10T12:12:26Z</time>
      </trkpt>
      <trkpt lat="48.93507" lon="1.89725">
        <ele>170.291</ele>
        <time>2016-06-10T12:12:31Z</time>
      </trkpt>
      <trkpt lat="48.93506" lon="1.89722">
        <ele>170.291</ele>
        <time>2016-06-10T12:12:33Z</time>
      </trkpt>
      <trkpt lat="48.93499" lon="1.8971">
        <ele>174.136</ele>
        <time>2016-06-10T12:12:40Z</time>
      </trkpt>
      <trkpt lat="48.93498" lon="1.89707">
        <ele>173.175</ele>
        <time>2016-06-10T12:12:42Z</time>
      </trkpt>
      <trkpt lat="48.93495" lon="1.89702">
        <ele>171.252</ele>
        <time>2016-06-10T12:12:45Z</time>
      </trkpt>
      <trkpt lat="48.93491" lon="1.89692">
        <ele>173.655</ele>
        <time>2016-06-10T12:12:50Z</time>
      </trkpt>
      <trkpt lat="48.93489" lon="1.89692">
        <ele>176.059</ele>
        <time>2016-06-10T12:12:52Z</time>
      </trkpt>
      <trkpt lat="48.93484" lon="1.89684">
        <ele>177.501</ele>
        <time>2016-06-10T12:12:58Z</time>
      </trkpt>
      <trkpt lat="48.93478" lon="1.89676">
        <ele>177.981</ele>
        <time>2016-06-10T12:13:03Z</time>
      </trkpt>
      <trkpt lat="48.93473" lon="1.89672">
        <ele>177.02</ele>
        <time>2016-06-10T12:13:09Z</time>
      </trkpt>
      <trkpt lat="48.93471" lon="1.89666">
        <ele>177.981</ele>
        <time>2016-06-10T12:13:13Z</time>
      </trkpt>
      <trkpt lat="48.93463" lon="1.89654">
        <ele>174.617</ele>
        <time>2016-06-10T12:13:19Z</time>
      </trkpt>
      <trkpt lat="48.93459" lon="1.89647">
        <ele>173.655</ele>
        <time>2016-06-10T12:13:23Z</time>
      </trkpt>
      <trkpt lat="48.93451" lon="1.89636">
        <ele>173.655</ele>
        <time>2016-06-10T12:13:31Z</time>
      </trkpt>
      <trkpt lat="48.93444" lon="1.89625">
        <ele>174.617</ele>
        <time>2016-06-10T12:13:37Z</time>
      </trkpt>
      <trkpt lat="48.93441" lon="1.89617">
        <ele>174.136</ele>
        <time>2016-06-10T12:13:41Z</time>
      </trkpt>
      <trkpt lat="48.93434" lon="1.8961">
        <ele>177.02</ele>
        <time>2016-06-10T12:13:47Z</time>
      </trkpt>
      <trkpt lat="48.93431" lon="1.89609">
        <ele>178.943</ele>
        <time>2016-06-10T12:13:51Z</time>
      </trkpt>
      <trkpt lat="48.93432" lon="1.89608">
        <ele>179.423</ele>
        <time>2016-06-10T12:13:53Z</time>
      </trkpt>
      <trkpt lat="48.93425" lon="1.896">
        <ele>178.943</ele>
        <time>2016-06-10T12:14:00Z</time>
      </trkpt>
      <trkpt lat="48.93421" lon="1.89591">
        <ele>179.423</ele>
        <time>2016-06-10T12:14:06Z</time>
      </trkpt>
      <trkpt lat="48.93415" lon="1.89585">
        <ele>176.539</ele>
        <time>2016-06-10T12:14:13Z</time>
      </trkpt>
      <trkpt lat="48.9341" lon="1.89579">
        <ele>177.02</ele>
        <time>2016-06-10T12:14:18Z</time>
      </trkpt>
      <trkpt lat="48.93404" lon="1.89567">
        <ele>176.059</ele>
        <time>2016-06-10T12:14:25Z</time>
      </trkpt>
      <trkpt lat="48.93398" lon="1.8956">
        <ele>177.501</ele>
        <time>2016-06-10T12:14:30Z</time>
      </trkpt>
      <trkpt lat="48.93397" lon="1.89559">
        <ele>177.02</ele>
        <time>2016-06-10T12:14:31Z</time>
      </trkpt>
      <trkpt lat="48.93387" lon="1.89548">
        <ele>174.617</ele>
        <time>2016-06-10T12:14:39Z</time>
      </trkpt>
      <trkpt lat="48.93385" lon="1.89544">
        <ele>173.175</ele>
        <time>2016-06-10T12:14:41Z</time>
      </trkpt>
      <trkpt lat="48.93384" lon="1.8954">
        <ele>172.213</ele>
        <time>2016-06-10T12:14:43Z</time>
      </trkpt>
      <trkpt lat="48.93381" lon="1.89534">
        <ele>171.252</ele>
        <time>2016-06-10T12:14:46Z</time>
      </trkpt>
      <trkpt lat="48.9337" lon="1.89518">
        <ele>171.252</ele>
        <time>2016-06-10T12:14:55Z</time>
      </trkpt>
      <trkpt lat="48.93366" lon="1.89513">
        <ele>170.771</ele>
        <time>2016-06-10T12:14:59Z</time>
      </trkpt>
      <trkpt lat="48.93359" lon="1.895">
        <ele>167.887</ele>
        <time>2016-06-10T12:15:07Z</time>
      </trkpt>
      <trkpt lat="48.93355" lon="1.89494">
        <ele>167.887</ele>
        <time>2016-06-10T12:15:11Z</time>
      </trkpt>
      <trkpt lat="48.93348" lon="1.89483">
        <ele>167.407</ele>
        <time>2016-06-10T12:15:18Z</time>
      </trkpt>
      <trkpt lat="48.93343" lon="1.89476">
        <ele>162.6</ele>
        <time>2016-06-10T12:15:23Z</time>
      </trkpt>
      <trkpt lat="48.93339" lon="1.89468">
        <ele>164.523</ele>
        <time>2016-06-10T12:15:27Z</time>
      </trkpt>
      <trkpt lat="48.93337" lon="1.89463">
        <ele>161.158</ele>
        <time>2016-06-10T12:15:31Z</time>
      </trkpt>
      <trkpt lat="48.93331" lon="1.8945">
        <ele>159.235</ele>
        <time>2016-06-10T12:15:37Z</time>
      </trkpt>
      <trkpt lat="48.93331" lon="1.89448">
        <ele>159.235</ele>
        <time>2016-06-10T12:15:38Z</time>
      </trkpt>
      <trkpt lat="48.93328" lon="1.89441">
        <ele>162.12</ele>
        <time>2016-06-10T12:15:41Z</time>
      </trkpt>
      <trkpt lat="48.93326" lon="1.89436">
        <ele>162.6</ele>
        <time>2016-06-10T12:15:44Z</time>
      </trkpt>
      <trkpt lat="48.93325" lon="1.89429">
        <ele>164.042</ele>
        <time>2016-06-10T12:15:48Z</time>
      </trkpt>
      <trkpt lat="48.93321" lon="1.89416">
        <ele>168.368</ele>
        <time>2016-06-10T12:15:54Z</time>
      </trkpt>
      <trkpt lat="48.93312" lon="1.89406">
        <ele>171.733</ele>
        <time>2016-06-10T12:16:01Z</time>
      </trkpt>
      <trkpt lat="48.9331" lon="1.89402">
        <ele>172.694</ele>
        <time>2016-06-10T12:16:03Z</time>
      </trkpt>
      <trkpt lat="48.93307" lon="1.89399">
        <ele>174.617</ele>
        <time>2016-06-10T12:16:05Z</time>
      </trkpt>
      <trkpt lat="48.93302" lon="1.89391">
        <ele>176.539</ele>
        <time>2016-06-10T12:16:10Z</time>
      </trkpt>
      <trkpt lat="48.93293" lon="1.89376">
        <ele>174.617</ele>
        <time>2016-06-10T12:16:18Z</time>
      </trkpt>
      <trkpt lat="48.9329" lon="1.89369">
        <ele>171.733</ele>
        <time>2016-06-10T12:16:22Z</time>
      </trkpt>
      <trkpt lat="48.93288" lon="1.89359">
        <ele>171.252</ele>
        <time>2016-06-10T12:16:26Z</time>
      </trkpt>
      <trkpt lat="48.93285" lon="1.89354">
        <ele>168.849</ele>
        <time>2016-06-10T12:16:29Z</time>
      </trkpt>
      <trkpt lat="48.93283" lon="1.89345">
        <ele>166.926</ele>
        <time>2016-06-10T12:16:38Z</time>
      </trkpt>
      <trkpt lat="48.93281" lon="1.89341">
        <ele>171.252</ele>
        <time>2016-06-10T12:16:44Z</time>
      </trkpt>
      <trkpt lat="48.93284" lon="1.89333">
        <ele>172.213</ele>
        <time>2016-06-10T12:16:48Z</time>
      </trkpt>
      <trkpt lat="48.93286" lon="1.89328">
        <ele>172.694</ele>
        <time>2016-06-10T12:16:51Z</time>
      </trkpt>
      <trkpt lat="48.93289" lon="1.89312">
        <ele>174.617</ele>
        <time>2016-06-10T12:16:59Z</time>
      </trkpt>
      <trkpt lat="48.9329" lon="1.89302">
        <ele>175.097</ele>
        <time>2016-06-10T12:17:04Z</time>
      </trkpt>
      <trkpt lat="48.93292" lon="1.89298">
        <ele>174.617</ele>
        <time>2016-06-10T12:17:06Z</time>
      </trkpt>
      <trkpt lat="48.93295" lon="1.89288">
        <ele>174.136</ele>
        <time>2016-06-10T12:17:11Z</time>
      </trkpt>
      <trkpt lat="48.93297" lon="1.89279">
        <ele>173.655</ele>
        <time>2016-06-10T12:17:16Z</time>
      </trkpt>
      <trkpt lat="48.93298" lon="1.89274">
        <ele>173.175</ele>
        <time>2016-06-10T12:17:20Z</time>
      </trkpt>
      <trkpt lat="48.93301" lon="1.89261">
        <ele>172.694</ele>
        <time>2016-06-10T12:17:27Z</time>
      </trkpt>
      <trkpt lat="48.93305" lon="1.89247">
        <ele>166.926</ele>
        <time>2016-06-10T12:17:34Z</time>
      </trkpt>
      <trkpt lat="48.9331" lon="1.89231">
        <ele>167.887</ele>
        <time>2016-06-10T12:17:42Z</time>
      </trkpt>
      <trkpt lat="48.9331" lon="1.89229">
        <ele>167.887</ele>
        <time>2016-06-10T12:17:44Z</time>
      </trkpt>
      <trkpt lat="48.93312" lon="1.89222">
        <ele>165.484</ele>
        <time>2016-06-10T12:17:48Z</time>
      </trkpt>
      <trkpt lat="48.93315" lon="1.89215">
        <ele>165.484</ele>
        <time>2016-06-10T12:17:52Z</time>
      </trkpt>
      <trkpt lat="48.93317" lon="1.89211">
        <ele>164.523</ele>
        <time>2016-06-10T12:17:54Z</time>
      </trkpt>
      <trkpt lat="48.93322" lon="1.89196">
        <ele>164.042</ele>
        <time>2016-06-10T12:18:01Z</time>
      </trkpt>
      <trkpt lat="48.93324" lon="1.89186">
        <ele>166.445</ele>
        <time>2016-06-10T12:18:06Z</time>
      </trkpt>
      <trkpt lat="48.93327" lon="1.89171">
        <ele>166.445</ele>
        <time>2016-06-10T12:18:14Z</time>
      </trkpt>
      <trkpt lat="48.93329" lon="1.89168">
        <ele>165.965</ele>
        <time>2016-06-10T12:18:17Z</time>
      </trkpt>
      <trkpt lat="48.9333" lon="1.89161">
        <ele>166.926</ele>
        <time>2016-06-10T12:18:21Z</time>
      </trkpt>
      <trkpt lat="48.93333" lon="1.89151">
        <ele>165.003</ele>
        <time>2016-06-10T12:18:27Z</time>
      </trkpt>
      <trkpt lat="48.93334" lon="1.8915">
        <ele>165.484</ele>
        <time>2016-06-10T12:18:28Z</time>
      </trkpt>
      <trkpt lat="48.93334" lon="1.89145">
        <ele>167.887</ele>
        <time>2016-06-10T12:18:30Z</time>
      </trkpt>
      <trkpt lat="48.93339" lon="1.89126">
        <ele>165.003</ele>
        <time>2016-06-10T12:18:38Z</time>
      </trkpt>
      <trkpt lat="48.93341" lon="1.89118">
        <ele>163.562</ele>
        <time>2016-06-10T12:18:42Z</time>
      </trkpt>
      <trkpt lat="48.93343" lon="1.8911">
        <ele>163.081</ele>
        <time>2016-06-10T12:18:46Z</time>
      </trkpt>
      <trkpt lat="48.93346" lon="1.89102">
        <ele>163.562</ele>
        <time>2016-06-10T12:18:50Z</time>
      </trkpt>
      <trkpt lat="48.93348" lon="1.89087">
        <ele>165.003</ele>
        <time>2016-06-10T12:18:56Z</time>
      </trkpt>
      <trkpt lat="48.93351" lon="1.89073">
        <ele>169.329</ele>
        <time>2016-06-10T12:19:02Z</time>
      </trkpt>
      <trkpt lat="48.93353" lon="1.89066">
        <ele>171.252</ele>
        <time>2016-06-10T12:19:05Z</time>
      </trkpt>
      <trkpt lat="48.93358" lon="1.89051">
        <ele>168.849</ele>
        <time>2016-06-10T12:19:13Z</time>
      </trkpt>
      <trkpt lat="48.93363" lon="1.8904">
        <ele>166.926</ele>
        <time>2016-06-10T12:19:19Z</time>
      </trkpt>
      <trkpt lat="48.93363" lon="1.89036">
        <ele>165.965</ele>
        <time>2016-06-10T12:19:21Z</time>
      </trkpt>
      <trkpt lat="48.93365" lon="1.89029">
        <ele>164.523</ele>
        <time>2016-06-10T12:19:25Z</time>
      </trkpt>
      <trkpt lat="48.93367" lon="1.89023">
        <ele>165.003</ele>
        <time>2016-06-10T12:19:28Z</time>
      </trkpt>
      <trkpt lat="48.93369" lon="1.89013">
        <ele>165.484</ele>
        <time>2016-06-10T12:19:33Z</time>
      </trkpt>
      <trkpt lat="48.93372" lon="1.89004">
        <ele>168.368</ele>
        <time>2016-06-10T12:19:41Z</time>
      </trkpt>
      <trkpt lat="48.93373" lon="1.88996">
        <ele>172.694</ele>
        <time>2016-06-10T12:19:45Z</time>
      </trkpt>
      <trkpt lat="48.93375" lon="1.88986">
        <ele>171.252</ele>
        <time>2016-06-10T12:19:50Z</time>
      </trkpt>
      <trkpt lat="48.93376" lon="1.88984">
        <ele>170.771</ele>
        <time>2016-06-10T12:19:51Z</time>
      </trkpt>
      <trkpt lat="48.93379" lon="1.88972">
        <ele>169.81</ele>
        <time>2016-06-10T12:19:57Z</time>
      </trkpt>
      <trkpt lat="48.93379" lon="1.88966">
        <ele>168.849</ele>
        <time>2016-06-10T12:20:00Z</time>
      </trkpt>
      <trkpt lat="48.93384" lon="1.88948">
        <ele>167.887</ele>
        <time>2016-06-10T12:20:08Z</time>
      </trkpt>
      <trkpt lat="48.93385" lon="1.88946">
        <ele>167.407</ele>
        <time>2016-06-10T12:20:09Z</time>
      </trkpt>
      <trkpt lat="48.93389" lon="1.88934">
        <ele>167.887</ele>
        <time>2016-06-10T12:20:15Z</time>
      </trkpt>
      <trkpt lat="48.93391" lon="1.88926">
        <ele>165.965</ele>
        <time>2016-06-10T12:20:19Z</time>
      </trkpt>
      <trkpt lat="48.93396" lon="1.8891">
        <ele>165.484</ele>
        <time>2016-06-10T12:20:26Z</time>
      </trkpt>
      <trkpt lat="48.93399" lon="1.88899">
        <ele>165.484</ele>
        <time>2016-06-10T12:20:31Z</time>
      </trkpt>
      <trkpt lat="48.93401" lon="1.88892">
        <ele>165.484</ele>
        <time>2016-06-10T12:20:35Z</time>
      </trkpt>
      <trkpt lat="48.93402" lon="1.88882">
        <ele>166.926</ele>
        <time>2016-06-10T12:20:40Z</time>
      </trkpt>
      <trkpt lat="48.93408" lon="1.88871">
        <ele>166.445</ele>
        <time>2016-06-10T12:20:46Z</time>
      </trkpt>
      <trkpt lat="48.9341" lon="1.8886">
        <ele>167.407</ele>
        <time>2016-06-10T12:20:52Z</time>
      </trkpt>
      <trkpt lat="48.93411" lon="1.88851">
        <ele>170.291</ele>
        <time>2016-06-10T12:20:57Z</time>
      </trkpt>
      <trkpt lat="48.93413" lon="1.88839">
        <ele>173.655</ele>
        <time>2016-06-10T12:21:03Z</time>
      </trkpt>
      <trkpt lat="48.93416" lon="1.8883">
        <ele>174.136</ele>
        <time>2016-06-10T12:21:07Z</time>
      </trkpt>
      <trkpt lat="48.93421" lon="1.88814">
        <ele>172.213</ele>
        <time>2016-06-10T12:21:14Z</time>
      </trkpt>
      <trkpt lat="48.93422" lon="1.8881">
        <ele>172.213</ele>
        <time>2016-06-10T12:21:16Z</time>
      </trkpt>
      <trkpt lat="48.93426" lon="1.88798">
        <ele>172.213</ele>
        <time>2016-06-10T12:21:22Z</time>
      </trkpt>
      <trkpt lat="48.93429" lon="1.88787">
        <ele>175.097</ele>
        <time>2016-06-10T12:21:27Z</time>
      </trkpt>
      <trkpt lat="48.93437" lon="1.88772">
        <ele>175.097</ele>
        <time>2016-06-10T12:21:35Z</time>
      </trkpt>
      <trkpt lat="48.93437" lon="1.88762">
        <ele>176.539</ele>
        <time>2016-06-10T12:21:40Z</time>
      </trkpt>
      <trkpt lat="48.93437" lon="1.88757">
        <ele>177.02</ele>
        <time>2016-06-10T12:21:42Z</time>
      </trkpt>
      <trkpt lat="48.93438" lon="1.88746">
        <ele>176.539</ele>
        <time>2016-06-10T12:21:48Z</time>
      </trkpt>
      <trkpt lat="48.93442" lon="1.88736">
        <ele>175.578</ele>
        <time>2016-06-10T12:21:52Z</time>
      </trkpt>
      <trkpt lat="48.93447" lon="1.8872">
        <ele>175.097</ele>
        <time>2016-06-10T12:22:00Z</time>
      </trkpt>
      <trkpt lat="48.9345" lon="1.88708">
        <ele>172.213</ele>
        <time>2016-06-10T12:22:06Z</time>
      </trkpt>
      <trkpt lat="48.93453" lon="1.88698">
        <ele>170.291</ele>
        <time>2016-06-10T12:22:11Z</time>
      </trkpt>
      <trkpt lat="48.93457" lon="1.88686">
        <ele>170.771</ele>
        <time>2016-06-10T12:22:17Z</time>
      </trkpt>
      <trkpt lat="48.93459" lon="1.88679">
        <ele>170.291</ele>
        <time>2016-06-10T12:22:21Z</time>
      </trkpt>
      <trkpt lat="48.9346" lon="1.88668">
        <ele>173.175</ele>
        <time>2016-06-10T12:22:27Z</time>
      </trkpt>
      <trkpt lat="48.93464" lon="1.88656">
        <ele>175.097</ele>
        <time>2016-06-10T12:22:33Z</time>
      </trkpt>
      <trkpt lat="48.93466" lon="1.88648">
        <ele>175.578</ele>
        <time>2016-06-10T12:22:37Z</time>
      </trkpt>
      <trkpt lat="48.93468" lon="1.8864">
        <ele>173.655</ele>
        <time>2016-06-10T12:22:40Z</time>
      </trkpt>
      <trkpt lat="48.93471" lon="1.88634">
        <ele>173.175</ele>
        <time>2016-06-10T12:22:43Z</time>
      </trkpt>
      <trkpt lat="48.93475" lon="1.88618">
        <ele>169.81</ele>
        <time>2016-06-10T12:22:50Z</time>
      </trkpt>
      <trkpt lat="48.93478" lon="1.88606">
        <ele>168.368</ele>
        <time>2016-06-10T12:22:56Z</time>
      </trkpt>
      <trkpt lat="48.93478" lon="1.88598">
        <ele>165.484</ele>
        <time>2016-06-10T12:23:01Z</time>
      </trkpt>
      <trkpt lat="48.93474" lon="1.88593">
        <ele>170.291</ele>
        <time>2016-06-10T12:23:21Z</time>
      </trkpt>
      <trkpt lat="48.93479" lon="1.88577">
        <ele>175.097</ele>
        <time>2016-06-10T12:23:29Z</time>
      </trkpt>
      <trkpt lat="48.93486" lon="1.88558">
        <ele>176.539</ele>
        <time>2016-06-10T12:23:37Z</time>
      </trkpt>
      <trkpt lat="48.9349" lon="1.88548">
        <ele>177.981</ele>
        <time>2016-06-10T12:23:42Z</time>
      </trkpt>
      <trkpt lat="48.93493" lon="1.88542">
        <ele>176.539</ele>
        <time>2016-06-10T12:23:45Z</time>
      </trkpt>
      <trkpt lat="48.93496" lon="1.88532">
        <ele>175.097</ele>
        <time>2016-06-10T12:23:50Z</time>
      </trkpt>
      <trkpt lat="48.93505" lon="1.88506">
        <ele>166.926</ele>
        <time>2016-06-10T12:23:57Z</time>
      </trkpt>
      <trkpt lat="48.93516" lon="1.88486">
        <ele>156.832</ele>
        <time>2016-06-10T12:24:03Z</time>
      </trkpt>
      <trkpt lat="48.93525" lon="1.88462">
        <ele>141.932</ele>
        <time>2016-06-10T12:24:10Z</time>
      </trkpt>
      <trkpt lat="48.93533" lon="1.88444">
        <ele>128.473</ele>
        <time>2016-06-10T12:24:16Z</time>
      </trkpt>
      <trkpt lat="48.93535" lon="1.8844">
        <ele>127.512</ele>
        <time>2016-06-10T12:24:17Z</time>
      </trkpt>
      <trkpt lat="48.93543" lon="1.88419">
        <ele>115.976</ele>
        <time>2016-06-10T12:24:23Z</time>
      </trkpt>
      <trkpt lat="48.93552" lon="1.88399">
        <ele>100.595</ele>
        <time>2016-06-10T12:24:29Z</time>
      </trkpt>
      <trkpt lat="48.93561" lon="1.88376">
        <ele>87.1366</ele>
        <time>2016-06-10T12:24:35Z</time>
      </trkpt>
      <trkpt lat="48.93564" lon="1.88361">
        <ele>81.8494</ele>
        <time>2016-06-10T12:24:41Z</time>
      </trkpt>
      <trkpt lat="48.93567" lon="1.88344">
        <ele>81.8494</ele>
        <time>2016-06-10T12:24:47Z</time>
      </trkpt>
      <trkpt lat="48.9357" lon="1.88333">
        <ele>80.4075</ele>
        <time>2016-06-10T12:24:52Z</time>
      </trkpt>
      <trkpt lat="48.93574" lon="1.88311">
        <ele>81.3688</ele>
        <time>2016-06-10T12:25:00Z</time>
      </trkpt>
      <trkpt lat="48.93577" lon="1.88299">
        <ele>88.098</ele>
        <time>2016-06-10T12:25:04Z</time>
      </trkpt>
      <trkpt lat="48.93581" lon="1.88286">
        <ele>89.0593</ele>
        <time>2016-06-10T12:25:10Z</time>
      </trkpt>
      <trkpt lat="48.93581" lon="1.88275">
        <ele>90.9819</ele>
        <time>2016-06-10T12:25:14Z</time>
      </trkpt>
      <trkpt lat="48.93583" lon="1.88268">
        <ele>90.0206</ele>
        <time>2016-06-10T12:25:18Z</time>
      </trkpt>
      <trkpt lat="48.93586" lon="1.88257">
        <ele>92.424</ele>
        <time>2016-06-10T12:25:22Z</time>
      </trkpt>
      <trkpt lat="48.93586" lon="1.88236">
        <ele>115.015</ele>
        <time>2016-06-10T12:25:24Z</time>
      </trkpt>
      <trkpt lat="48.93593" lon="1.8822">
        <ele>118.379</ele>
        <time>2016-06-10T12:25:31Z</time>
      </trkpt>
      <trkpt lat="48.93597" lon="1.88209">
        <ele>118.86</ele>
        <time>2016-06-10T12:25:35Z</time>
      </trkpt>
      <trkpt lat="48.936" lon="1.88199">
        <ele>120.302</ele>
        <time>2016-06-10T12:25:39Z</time>
      </trkpt>
      <trkpt lat="48.93603" lon="1.88163">
        <ele>155.39</ele>
        <time>2016-06-10T12:25:44Z</time>
      </trkpt>
      <trkpt lat="48.93601" lon="1.88155">
        <ele>160.677</ele>
        <time>2016-06-10T12:25:47Z</time>
      </trkpt>
      <trkpt lat="48.93602" lon="1.8815">
        <ele>162.6</ele>
        <time>2016-06-10T12:25:49Z</time>
      </trkpt>
      <trkpt lat="48.93605" lon="1.88141">
        <ele>165.965</ele>
        <time>2016-06-10T12:25:52Z</time>
      </trkpt>
      <trkpt lat="48.93609" lon="1.88125">
        <ele>164.523</ele>
        <time>2016-06-10T12:25:59Z</time>
      </trkpt>
      <trkpt lat="48.93612" lon="1.88118">
        <ele>164.042</ele>
        <time>2016-06-10T12:26:02Z</time>
      </trkpt>
      <trkpt lat="48.93615" lon="1.881">
        <ele>165.484</ele>
        <time>2016-06-10T12:26:09Z</time>
      </trkpt>
      <trkpt lat="48.93621" lon="1.88082">
        <ele>169.329</ele>
        <time>2016-06-10T12:26:17Z</time>
      </trkpt>
      <trkpt lat="48.93624" lon="1.8807">
        <ele>165.965</ele>
        <time>2016-06-10T12:26:24Z</time>
      </trkpt>
      <trkpt lat="48.93629" lon="1.88059">
        <ele>161.158</ele>
        <time>2016-06-10T12:26:31Z</time>
      </trkpt>
      <trkpt lat="48.93632" lon="1.88048">
        <ele>160.677</ele>
        <time>2016-06-10T12:26:36Z</time>
      </trkpt>
      <trkpt lat="48.93634" lon="1.88037">
        <ele>161.639</ele>
        <time>2016-06-10T12:26:41Z</time>
      </trkpt>
      <trkpt lat="48.93637" lon="1.88018">
        <ele>164.042</ele>
        <time>2016-06-10T12:26:49Z</time>
      </trkpt>
      <trkpt lat="48.93641" lon="1.88005">
        <ele>164.042</ele>
        <time>2016-06-10T12:26:56Z</time>
      </trkpt>
      <trkpt lat="48.93646" lon="1.87987">
        <ele>165.965</ele>
        <time>2016-06-10T12:27:04Z</time>
      </trkpt>
      <trkpt lat="48.93647" lon="1.87984">
        <ele>168.368</ele>
        <time>2016-06-10T12:27:05Z</time>
      </trkpt>
      <trkpt lat="48.9365" lon="1.8797">
        <ele>169.81</ele>
        <time>2016-06-10T12:27:10Z</time>
      </trkpt>
      <trkpt lat="48.93652" lon="1.87955">
        <ele>174.136</ele>
        <time>2016-06-10T12:27:16Z</time>
      </trkpt>
      <trkpt lat="48.93652" lon="1.87952">
        <ele>174.617</ele>
        <time>2016-06-10T12:27:17Z</time>
      </trkpt>
      <trkpt lat="48.93658" lon="1.87933">
        <ele>183.749</ele>
        <time>2016-06-10T12:27:25Z</time>
      </trkpt>
      <trkpt lat="48.93658" lon="1.87929">
        <ele>184.711</ele>
        <time>2016-06-10T12:27:27Z</time>
      </trkpt>
      <trkpt lat="48.9366" lon="1.8792">
        <ele>183.268</ele>
        <time>2016-06-10T12:27:33Z</time>
      </trkpt>
      <trkpt lat="48.93664" lon="1.87908">
        <ele>181.826</ele>
        <time>2016-06-10T12:27:38Z</time>
      </trkpt>
      <trkpt lat="48.93669" lon="1.8789">
        <ele>183.268</ele>
        <time>2016-06-10T12:27:45Z</time>
      </trkpt>
      <trkpt lat="48.93671" lon="1.87883">
        <ele>180.865</ele>
        <time>2016-06-10T12:27:48Z</time>
      </trkpt>
      <trkpt lat="48.93674" lon="1.8787">
        <ele>176.539</ele>
        <time>2016-06-10T12:27:54Z</time>
      </trkpt>
      <trkpt lat="48.93677" lon="1.87861">
        <ele>173.175</ele>
        <time>2016-06-10T12:27:58Z</time>
      </trkpt>
      <trkpt lat="48.93683" lon="1.87843">
        <ele>162.6</ele>
        <time>2016-06-10T12:28:04Z</time>
      </trkpt>
      <trkpt lat="48.93693" lon="1.87822">
        <ele>152.506</ele>
        <time>2016-06-10T12:28:10Z</time>
      </trkpt>
      <trkpt lat="48.93701" lon="1.87799">
        <ele>139.048</ele>
        <time>2016-06-10T12:28:16Z</time>
      </trkpt>
      <trkpt lat="48.93704" lon="1.87784">
        <ele>130.877</ele>
        <time>2016-06-10T12:28:21Z</time>
      </trkpt>
      <trkpt lat="48.93702" lon="1.87773">
        <ele>126.551</ele>
        <time>2016-06-10T12:28:26Z</time>
      </trkpt>
      <trkpt lat="48.93694" lon="1.87766">
        <ele>123.186</ele>
        <time>2016-06-10T12:28:30Z</time>
      </trkpt>
      <trkpt lat="48.93693" lon="1.87764">
        <ele>122.225</ele>
        <time>2016-06-10T12:28:31Z</time>
      </trkpt>
      <trkpt lat="48.93693" lon="1.87764">
        <ele>122.225</ele>
        <time>2016-06-10T12:28:31Z</time>
      </trkpt>
      <trkpt lat="48.93689" lon="1.87751">
        <ele>121.264</ele>
        <time>2016-06-10T12:28:36Z</time>
      </trkpt>
      <trkpt lat="48.93684" lon="1.87741">
        <ele>124.147</ele>
        <time>2016-06-10T12:28:41Z</time>
      </trkpt>
      <trkpt lat="48.93675" lon="1.8773">
        <ele>130.877</ele>
        <time>2016-06-10T12:28:48Z</time>
      </trkpt>
      <trkpt lat="48.93674" lon="1.87716">
        <ele>141.451</ele>
        <time>2016-06-10T12:28:51Z</time>
      </trkpt>
      <trkpt lat="48.93669" lon="1.87703">
        <ele>144.335</ele>
        <time>2016-06-10T12:28:58Z</time>
      </trkpt>
      <trkpt lat="48.93664" lon="1.87695">
        <ele>143.854</ele>
        <time>2016-06-10T12:29:04Z</time>
      </trkpt>
      <trkpt lat="48.93659" lon="1.87681">
        <ele>142.893</ele>
        <time>2016-06-10T12:29:12Z</time>
      </trkpt>
      <trkpt lat="48.93656" lon="1.87668">
        <ele>143.374</ele>
        <time>2016-06-10T12:29:19Z</time>
      </trkpt>
      <trkpt lat="48.93652" lon="1.8766">
        <ele>142.412</ele>
        <time>2016-06-10T12:29:23Z</time>
      </trkpt>
      <trkpt lat="48.93648" lon="1.87648">
        <ele>139.048</ele>
        <time>2016-06-10T12:29:30Z</time>
      </trkpt>
      <trkpt lat="48.93645" lon="1.87644">
        <ele>137.606</ele>
        <time>2016-06-10T12:29:33Z</time>
      </trkpt>
      <trkpt lat="48.93639" lon="1.87621">
        <ele>177.981</ele>
        <time>2016-06-10T12:30:01Z</time>
      </trkpt>
      <trkpt lat="48.93641" lon="1.87617">
        <ele>186.152</ele>
        <time>2016-06-10T12:30:12Z</time>
      </trkpt>
      <trkpt lat="48.93645" lon="1.87614">
        <ele>189.998</ele>
        <time>2016-06-10T12:30:24Z</time>
      </trkpt>
      <trkpt lat="48.93641" lon="1.87609">
        <ele>185.191</ele>
        <time>2016-06-10T12:30:33Z</time>
      </trkpt>
      <trkpt lat="48.9364" lon="1.87608">
        <ele>181.826</ele>
        <time>2016-06-10T12:30:41Z</time>
      </trkpt>
      <trkpt lat="48.93636" lon="1.87605">
        <ele>178.462</ele>
        <time>2016-06-10T12:30:45Z</time>
      </trkpt>
      <trkpt lat="48.93635" lon="1.87604">
        <ele>177.02</ele>
        <time>2016-06-10T12:30:47Z</time>
      </trkpt>
      <trkpt lat="48.93635" lon="1.87598">
        <ele>176.059</ele>
        <time>2016-06-10T12:30:51Z</time>
      </trkpt>
      <trkpt lat="48.9363" lon="1.87593">
        <ele>174.617</ele>
        <time>2016-06-10T12:30:57Z</time>
      </trkpt>
      <trkpt lat="48.93627" lon="1.87591">
        <ele>171.733</ele>
        <time>2016-06-10T12:31:00Z</time>
      </trkpt>
      <trkpt lat="48.93621" lon="1.87586">
        <ele>170.291</ele>
        <time>2016-06-10T12:31:07Z</time>
      </trkpt>
      <trkpt lat="48.93618" lon="1.87586">
        <ele>169.329</ele>
        <time>2016-06-10T12:31:09Z</time>
      </trkpt>
      <trkpt lat="48.93612" lon="1.87577">
        <ele>165.965</ele>
        <time>2016-06-10T12:31:15Z</time>
      </trkpt>
      <trkpt lat="48.93611" lon="1.87572">
        <ele>164.042</ele>
        <time>2016-06-10T12:31:22Z</time>
      </trkpt>
      <trkpt lat="48.93611" lon="1.87572">
        <ele>164.523</ele>
        <time>2016-06-10T12:31:24Z</time>
      </trkpt>
      <trkpt lat="48.93606" lon="1.87565">
        <ele>165.965</ele>
        <time>2016-06-10T12:31:30Z</time>
      </trkpt>
      <trkpt lat="48.93598" lon="1.8756">
        <ele>165.484</ele>
        <time>2016-06-10T12:31:35Z</time>
      </trkpt>
      <trkpt lat="48.93596" lon="1.8756">
        <ele>165.484</ele>
        <time>2016-06-10T12:31:37Z</time>
      </trkpt>
      <trkpt lat="48.9359" lon="1.87553">
        <ele>164.523</ele>
        <time>2016-06-10T12:31:45Z</time>
      </trkpt>
      <trkpt lat="48.93586" lon="1.87546">
        <ele>164.042</ele>
        <time>2016-06-10T12:31:51Z</time>
      </trkpt>
      <trkpt lat="48.93581" lon="1.87539">
        <ele>162.6</ele>
        <time>2016-06-10T12:31:58Z</time>
      </trkpt>
      <trkpt lat="48.93578" lon="1.87534">
        <ele>161.158</ele>
        <time>2016-06-10T12:32:03Z</time>
      </trkpt>
      <trkpt lat="48.93573" lon="1.87526">
        <ele>159.235</ele>
        <time>2016-06-10T12:32:10Z</time>
      </trkpt>
      <trkpt lat="48.93566" lon="1.87512">
        <ele>161.158</ele>
        <time>2016-06-10T12:32:19Z</time>
      </trkpt>
      <trkpt lat="48.93566" lon="1.87511">
        <ele>160.677</ele>
        <time>2016-06-10T12:32:20Z</time>
      </trkpt>
      <trkpt lat="48.93562" lon="1.87507">
        <ele>158.274</ele>
        <time>2016-06-10T12:32:26Z</time>
      </trkpt>
      <trkpt lat="48.9356" lon="1.875">
        <ele>154.91</ele>
        <time>2016-06-10T12:32:33Z</time>
      </trkpt>
      <trkpt lat="48.9356" lon="1.87499">
        <ele>154.429</ele>
        <time>2016-06-10T12:32:34Z</time>
      </trkpt>
      <trkpt lat="48.93558" lon="1.87493">
        <ele>153.948</ele>
        <time>2016-06-10T12:32:38Z</time>
      </trkpt>
      <trkpt lat="48.93555" lon="1.87485">
        <ele>154.429</ele>
        <time>2016-06-10T12:32:43Z</time>
      </trkpt>
      <trkpt lat="48.93551" lon="1.87481">
        <ele>153.948</ele>
        <time>2016-06-10T12:32:48Z</time>
      </trkpt>
      <trkpt lat="48.93547" lon="1.87476">
        <ele>155.39</ele>
        <time>2016-06-10T12:32:52Z</time>
      </trkpt>
      <trkpt lat="48.93545" lon="1.87473">
        <ele>153.948</ele>
        <time>2016-06-10T12:32:56Z</time>
      </trkpt>
      <trkpt lat="48.93542" lon="1.87464">
        <ele>155.39</ele>
        <time>2016-06-10T12:33:02Z</time>
      </trkpt>
      <trkpt lat="48.9354" lon="1.87462">
        <ele>155.39</ele>
        <time>2016-06-10T12:33:04Z</time>
      </trkpt>
      <trkpt lat="48.93537" lon="1.87457">
        <ele>154.91</ele>
        <time>2016-06-10T12:33:07Z</time>
      </trkpt>
      <trkpt lat="48.93532" lon="1.87453">
        <ele>156.352</ele>
        <time>2016-06-10T12:33:12Z</time>
      </trkpt>
      <trkpt lat="48.93534" lon="1.8745">
        <ele>155.39</ele>
        <time>2016-06-10T12:33:20Z</time>
      </trkpt>
      <trkpt lat="48.93536" lon="1.87448">
        <ele>159.235</ele>
        <time>2016-06-10T12:33:31Z</time>
      </trkpt>
      <trkpt lat="48.93533" lon="1.87446">
        <ele>156.352</ele>
        <time>2016-06-10T12:33:49Z</time>
      </trkpt>
      <trkpt lat="48.93531" lon="1.87438">
        <ele>155.871</ele>
        <time>2016-06-10T12:33:56Z</time>
      </trkpt>
      <trkpt lat="48.9353" lon="1.87436">
        <ele>156.352</ele>
        <time>2016-06-10T12:33:57Z</time>
      </trkpt>
      <trkpt lat="48.9353" lon="1.87425">
        <ele>155.871</ele>
        <time>2016-06-10T12:34:03Z</time>
      </trkpt>
      <trkpt lat="48.93534" lon="1.87413">
        <ele>154.91</ele>
        <time>2016-06-10T12:34:11Z</time>
      </trkpt>
      <trkpt lat="48.93536" lon="1.87403">
        <ele>152.506</ele>
        <time>2016-06-10T12:34:17Z</time>
      </trkpt>
      <trkpt lat="48.93537" lon="1.87401">
        <ele>152.987</ele>
        <time>2016-06-10T12:34:18Z</time>
      </trkpt>
      <trkpt lat="48.93539" lon="1.87391">
        <ele>148.661</ele>
        <time>2016-06-10T12:34:25Z</time>
      </trkpt>
      <trkpt lat="48.9354" lon="1.87384">
        <ele>147.7</ele>
        <time>2016-06-10T12:34:29Z</time>
      </trkpt>
      <trkpt lat="48.9354" lon="1.87377">
        <ele>149.142</ele>
        <time>2016-06-10T12:34:36Z</time>
      </trkpt>
      <trkpt lat="48.93541" lon="1.87375">
        <ele>146.738</ele>
        <time>2016-06-10T12:34:44Z</time>
      </trkpt>
      <trkpt lat="48.9354" lon="1.87374">
        <ele>149.622</ele>
        <time>2016-06-10T12:34:57Z</time>
      </trkpt>
      <trkpt lat="48.9355" lon="1.87375">
        <ele>157.794</ele>
        <time>2016-06-10T12:36:27Z</time>
      </trkpt>
      <trkpt lat="48.93561" lon="1.87378">
        <ele>158.755</ele>
        <time>2016-06-10T12:36:36Z</time>
      </trkpt>
      <trkpt lat="48.9354" lon="1.87369">
        <ele>151.545</ele>
        <time>2016-06-10T12:37:17Z</time>
      </trkpt>
      <trkpt lat="48.93541" lon="1.87357">
        <ele>152.026</ele>
        <time>2016-06-10T12:37:38Z</time>
      </trkpt>
      <trkpt lat="48.93539" lon="1.87341">
        <ele>151.545</ele>
        <time>2016-06-10T12:37:47Z</time>
      </trkpt>
      <trkpt lat="48.9354" lon="1.8734">
        <ele>151.064</ele>
        <time>2016-06-10T12:37:48Z</time>
      </trkpt>
      <trkpt lat="48.93538" lon="1.87335">
        <ele>150.103</ele>
        <time>2016-06-10T12:37:52Z</time>
      </trkpt>
      <trkpt lat="48.93538" lon="1.87333">
        <ele>151.064</ele>
        <time>2016-06-10T12:37:54Z</time>
      </trkpt>
      <trkpt lat="48.93539" lon="1.87331">
        <ele>150.103</ele>
        <time>2016-06-10T12:37:56Z</time>
      </trkpt>
      <trkpt lat="48.93536" lon="1.87319">
        <ele>146.738</ele>
        <time>2016-06-10T12:38:03Z</time>
      </trkpt>
      <trkpt lat="48.93536" lon="1.87311">
        <ele>145.296</ele>
        <time>2016-06-10T12:38:07Z</time>
      </trkpt>
      <trkpt lat="48.93537" lon="1.87296">
        <ele>143.374</ele>
        <time>2016-06-10T12:38:14Z</time>
      </trkpt>
      <trkpt lat="48.93538" lon="1.87292">
        <ele>142.893</ele>
        <time>2016-06-10T12:38:16Z</time>
      </trkpt>
      <trkpt lat="48.93539" lon="1.87283">
        <ele>141.932</ele>
        <time>2016-06-10T12:38:22Z</time>
      </trkpt>
      <trkpt lat="48.93539" lon="1.87271">
        <ele>140.49</ele>
        <time>2016-06-10T12:38:28Z</time>
      </trkpt>
      <trkpt lat="48.93539" lon="1.87261">
        <ele>141.451</ele>
        <time>2016-06-10T12:38:34Z</time>
      </trkpt>
      <trkpt lat="48.93541" lon="1.87254">
        <ele>142.893</ele>
        <time>2016-06-10T12:38:37Z</time>
      </trkpt>
      <trkpt lat="48.93543" lon="1.87237">
        <ele>142.412</ele>
        <time>2016-06-10T12:38:45Z</time>
      </trkpt>
      <trkpt lat="48.93543" lon="1.87233">
        <ele>142.893</ele>
        <time>2016-06-10T12:38:47Z</time>
      </trkpt>
      <trkpt lat="48.93542" lon="1.87224">
        <ele>142.893</ele>
        <time>2016-06-10T12:38:52Z</time>
      </trkpt>
      <trkpt lat="48.93542" lon="1.87212">
        <ele>141.932</ele>
        <time>2016-06-10T12:38:59Z</time>
      </trkpt>
      <trkpt lat="48.93541" lon="1.87197">
        <ele>144.335</ele>
        <time>2016-06-10T12:39:05Z</time>
      </trkpt>
      <trkpt lat="48.93543" lon="1.87192">
        <ele>141.932</ele>
        <time>2016-06-10T12:39:12Z</time>
      </trkpt>
      <trkpt lat="48.93541" lon="1.87182">
        <ele>139.528</ele>
        <time>2016-06-10T12:39:22Z</time>
      </trkpt>
      <trkpt lat="48.93539" lon="1.87179">
        <ele>137.125</ele>
        <time>2016-06-10T12:39:27Z</time>
      </trkpt>
      <trkpt lat="48.93537" lon="1.87175">
        <ele>135.683</ele>
        <time>2016-06-10T12:39:32Z</time>
      </trkpt>
      <trkpt lat="48.93538" lon="1.87175">
        <ele>135.203</ele>
        <time>2016-06-10T12:39:34Z</time>
      </trkpt>
      <trkpt lat="48.93534" lon="1.87174">
        <ele>136.645</ele>
        <time>2016-06-10T12:39:41Z</time>
      </trkpt>
      <trkpt lat="48.93535" lon="1.87174">
        <ele>135.683</ele>
        <time>2016-06-10T12:39:43Z</time>
      </trkpt>
      <trkpt lat="48.93533" lon="1.87173">
        <ele>134.722</ele>
        <time>2016-06-10T12:39:52Z</time>
      </trkpt>
      <trkpt lat="48.93532" lon="1.87174">
        <ele>129.915</ele>
        <time>2016-06-10T12:40:08Z</time>
      </trkpt>
      <trkpt lat="48.93532" lon="1.87178">
        <ele>129.915</ele>
        <time>2016-06-10T12:40:21Z</time>
      </trkpt>
      <trkpt lat="48.93534" lon="1.87174">
        <ele>133.28</ele>
        <time>2016-06-10T12:40:24Z</time>
      </trkpt>
      <trkpt lat="48.93542" lon="1.87165">
        <ele>136.645</ele>
        <time>2016-06-10T12:40:32Z</time>
      </trkpt>
      <trkpt lat="48.93552" lon="1.87152">
        <ele>139.528</ele>
        <time>2016-06-10T12:40:41Z</time>
      </trkpt>
      <trkpt lat="48.93555" lon="1.87151">
        <ele>140.49</ele>
        <time>2016-06-10T12:40:43Z</time>
      </trkpt>
      <trkpt lat="48.93566" lon="1.87142">
        <ele>138.567</ele>
        <time>2016-06-10T12:40:51Z</time>
      </trkpt>
      <trkpt lat="48.93576" lon="1.87138">
        <ele>132.799</ele>
        <time>2016-06-10T12:40:58Z</time>
      </trkpt>
      <trkpt lat="48.93583" lon="1.87134">
        <ele>129.435</ele>
        <time>2016-06-10T12:41:05Z</time>
      </trkpt>
      <trkpt lat="48.93583" lon="1.87134">
        <ele>127.7</ele>
        <time>2016-06-10T12:41:11Z</time>
      </trkpt>
      <trkpt lat="48.93583" lon="1.87134">
        <ele>127.7</ele>
        <time>2016-06-10T13:44:20Z</time>
      </trkpt>
      <trkpt lat="48.93583" lon="1.87134">
        <ele>127.7</ele>
        <time>2016-06-10T13:44:20Z</time>
      </trkpt>
      <trkpt lat="48.93587" lon="1.87071">
        <ele>130.396</ele>
        <time>2016-06-10T13:44:22Z</time>
      </trkpt>
      <trkpt lat="48.93583" lon="1.87063">
        <ele>128.954</ele>
        <time>2016-06-10T13:44:27Z</time>
      </trkpt>
      <trkpt lat="48.93577" lon="1.87055">
        <ele>125.109</ele>
        <time>2016-06-10T13:44:33Z</time>
      </trkpt>
      <trkpt lat="48.93574" lon="1.87051">
        <ele>121.744</ele>
        <time>2016-06-10T13:44:40Z</time>
      </trkpt>
      <trkpt lat="48.93567" lon="1.8704">
        <ele>122.225</ele>
        <time>2016-06-10T13:44:47Z</time>
      </trkpt>
      <trkpt lat="48.9356" lon="1.87031">
        <ele>121.744</ele>
        <time>2016-06-10T13:44:54Z</time>
      </trkpt>
      <trkpt lat="48.93554" lon="1.87019">
        <ele>120.302</ele>
        <time>2016-06-10T13:45:01Z</time>
      </trkpt>
      <trkpt lat="48.93548" lon="1.87009">
        <ele>116.938</ele>
        <time>2016-06-10T13:45:08Z</time>
      </trkpt>
      <trkpt lat="48.93542" lon="1.87002">
        <ele>115.496</ele>
        <time>2016-06-10T13:45:14Z</time>
      </trkpt>
      <trkpt lat="48.93539" lon="1.86997">
        <ele>115.015</ele>
        <time>2016-06-10T13:45:19Z</time>
      </trkpt>
      <trkpt lat="48.93535" lon="1.86992">
        <ele>114.054</ele>
        <time>2016-06-10T13:45:24Z</time>
      </trkpt>
      <trkpt lat="48.93529" lon="1.86982">
        <ele>114.534</ele>
        <time>2016-06-10T13:45:31Z</time>
      </trkpt>
      <trkpt lat="48.93522" lon="1.86974">
        <ele>114.054</ele>
        <time>2016-06-10T13:45:37Z</time>
      </trkpt>
      <trkpt lat="48.93518" lon="1.86965">
        <ele>114.534</ele>
        <time>2016-06-10T13:45:43Z</time>
      </trkpt>
      <trkpt lat="48.93517" lon="1.86964">
        <ele>114.054</ele>
        <time>2016-06-10T13:45:44Z</time>
      </trkpt>
      <trkpt lat="48.93514" lon="1.86956">
        <ele>112.131</ele>
        <time>2016-06-10T13:45:50Z</time>
      </trkpt>
      <trkpt lat="48.93512" lon="1.86949">
        <ele>111.17</ele>
        <time>2016-06-10T13:45:54Z</time>
      </trkpt>
      <trkpt lat="48.93509" lon="1.86945">
        <ele>112.131</ele>
        <time>2016-06-10T13:45:57Z</time>
      </trkpt>
      <trkpt lat="48.93504" lon="1.86938">
        <ele>114.054</ele>
        <time>2016-06-10T13:46:01Z</time>
      </trkpt>
      <trkpt lat="48.93501" lon="1.86926">
        <ele>113.573</ele>
        <time>2016-06-10T13:46:07Z</time>
      </trkpt>
      <trkpt lat="48.935" lon="1.86915">
        <ele>110.689</ele>
        <time>2016-06-10T13:46:13Z</time>
      </trkpt>
      <trkpt lat="48.93498" lon="1.86903">
        <ele>110.208</ele>
        <time>2016-06-10T13:46:19Z</time>
      </trkpt>
      <trkpt lat="48.93498" lon="1.86901">
        <ele>110.208</ele>
        <time>2016-06-10T13:46:20Z</time>
      </trkpt>
      <trkpt lat="48.93495" lon="1.86892">
        <ele>108.766</ele>
        <time>2016-06-10T13:46:27Z</time>
      </trkpt>
      <trkpt lat="48.93493" lon="1.86885">
        <ele>108.286</ele>
        <time>2016-06-10T13:46:31Z</time>
      </trkpt>
      <trkpt lat="48.9349" lon="1.86873">
        <ele>108.766</ele>
        <time>2016-06-10T13:46:38Z</time>
      </trkpt>
      <trkpt lat="48.93486" lon="1.86862">
        <ele>109.728</ele>
        <time>2016-06-10T13:46:45Z</time>
      </trkpt>
      <trkpt lat="48.93483" lon="1.86857">
        <ele>109.247</ele>
        <time>2016-06-10T13:46:50Z</time>
      </trkpt>
      <trkpt lat="48.93479" lon="1.86843">
        <ele>107.805</ele>
        <time>2016-06-10T13:46:59Z</time>
      </trkpt>
      <trkpt lat="48.93479" lon="1.86839">
        <ele>106.844</ele>
        <time>2016-06-10T13:47:07Z</time>
      </trkpt>
      <trkpt lat="48.93477" lon="1.86836">
        <ele>106.844</ele>
        <time>2016-06-10T13:47:10Z</time>
      </trkpt>
      <trkpt lat="48.93469" lon="1.86828">
        <ele>106.363</ele>
        <time>2016-06-10T13:47:18Z</time>
      </trkpt>
      <trkpt lat="48.93458" lon="1.86823">
        <ele>105.882</ele>
        <time>2016-06-10T13:47:27Z</time>
      </trkpt>
      <trkpt lat="48.9345" lon="1.86817">
        <ele>106.363</ele>
        <time>2016-06-10T13:47:35Z</time>
      </trkpt>
      <trkpt lat="48.93438" lon="1.86809">
        <ele>108.766</ele>
        <time>2016-06-10T13:47:46Z</time>
      </trkpt>
      <trkpt lat="48.9343" lon="1.86805">
        <ele>111.17</ele>
        <time>2016-06-10T13:47:53Z</time>
      </trkpt>
      <trkpt lat="48.93423" lon="1.86802">
        <ele>112.131</ele>
        <time>2016-06-10T13:47:59Z</time>
      </trkpt>
      <trkpt lat="48.93415" lon="1.868">
        <ele>111.65</ele>
        <time>2016-06-10T13:48:05Z</time>
      </trkpt>
      <trkpt lat="48.93408" lon="1.86799">
        <ele>112.131</ele>
        <time>2016-06-10T13:48:13Z</time>
      </trkpt>
      <trkpt lat="48.93401" lon="1.868">
        <ele>113.092</ele>
        <time>2016-06-10T13:48:28Z</time>
      </trkpt>
      <trkpt lat="48.93392" lon="1.86804">
        <ele>113.092</ele>
        <time>2016-06-10T13:48:37Z</time>
      </trkpt>
      <trkpt lat="48.93384" lon="1.8681">
        <ele>115.015</ele>
        <time>2016-06-10T13:48:45Z</time>
      </trkpt>
      <trkpt lat="48.93382" lon="1.86811">
        <ele>115.015</ele>
        <time>2016-06-10T13:48:47Z</time>
      </trkpt>
      <trkpt lat="48.93372" lon="1.8682">
        <ele>113.573</ele>
        <time>2016-06-10T13:48:56Z</time>
      </trkpt>
      <trkpt lat="48.93368" lon="1.86825">
        <ele>113.092</ele>
        <time>2016-06-10T13:49:00Z</time>
      </trkpt>
      <trkpt lat="48.93363" lon="1.86832">
        <ele>110.689</ele>
        <time>2016-06-10T13:49:07Z</time>
      </trkpt>
      <trkpt lat="48.93358" lon="1.86838">
        <ele>109.247</ele>
        <time>2016-06-10T13:49:12Z</time>
      </trkpt>
      <trkpt lat="48.93354" lon="1.86831">
        <ele>107.805</ele>
        <time>2016-06-10T13:49:17Z</time>
      </trkpt>
      <trkpt lat="48.93355" lon="1.86827">
        <ele>106.844</ele>
        <time>2016-06-10T13:49:20Z</time>
      </trkpt>
      <trkpt lat="48.93358" lon="1.86817">
        <ele>107.805</ele>
        <time>2016-06-10T13:49:26Z</time>
      </trkpt>
      <trkpt lat="48.93361" lon="1.86808">
        <ele>106.363</ele>
        <time>2016-06-10T13:49:31Z</time>
      </trkpt>
      <trkpt lat="48.93367" lon="1.86797">
        <ele>104.44</ele>
        <time>2016-06-10T13:49:40Z</time>
      </trkpt>
      <trkpt lat="48.93369" lon="1.86787">
        <ele>103.479</ele>
        <time>2016-06-10T13:49:46Z</time>
      </trkpt>
      <trkpt lat="48.93371" lon="1.86778">
        <ele>102.518</ele>
        <time>2016-06-10T13:49:53Z</time>
      </trkpt>
      <trkpt lat="48.93365" lon="1.8677">
        <ele>102.037</ele>
        <time>2016-06-10T13:50:00Z</time>
      </trkpt>
      <trkpt lat="48.93363" lon="1.86768">
        <ele>101.076</ele>
        <time>2016-06-10T13:50:02Z</time>
      </trkpt>
      <trkpt lat="48.93361" lon="1.8676">
        <ele>99.1531</ele>
        <time>2016-06-10T13:50:06Z</time>
      </trkpt>
      <trkpt lat="48.93363" lon="1.86746">
        <ele>97.2305</ele>
        <time>2016-06-10T13:50:14Z</time>
      </trkpt>
      <trkpt lat="48.93369" lon="1.86735">
        <ele>94.8271</ele>
        <time>2016-06-10T13:50:21Z</time>
      </trkpt>
      <trkpt lat="48.93373" lon="1.86724">
        <ele>95.7885</ele>
        <time>2016-06-10T13:50:28Z</time>
      </trkpt>
      <trkpt lat="48.93378" lon="1.86713">
        <ele>95.7885</ele>
        <time>2016-06-10T13:50:35Z</time>
      </trkpt>
      <trkpt lat="48.93385" lon="1.86703">
        <ele>93.8658</ele>
        <time>2016-06-10T13:50:41Z</time>
      </trkpt>
      <trkpt lat="48.93389" lon="1.86693">
        <ele>92.424</ele>
        <time>2016-06-10T13:50:46Z</time>
      </trkpt>
      <trkpt lat="48.93397" lon="1.86679">
        <ele>88.5787</ele>
        <time>2016-06-10T13:50:55Z</time>
      </trkpt>
      <trkpt lat="48.93403" lon="1.86667">
        <ele>87.6172</ele>
        <time>2016-06-10T13:51:03Z</time>
      </trkpt>
      <trkpt lat="48.93409" lon="1.86659">
        <ele>86.656</ele>
        <time>2016-06-10T13:51:08Z</time>
      </trkpt>
      <trkpt lat="48.93412" lon="1.86655">
        <ele>86.1753</ele>
        <time>2016-06-10T13:51:13Z</time>
      </trkpt>
      <trkpt lat="48.9342" lon="1.86639">
        <ele>85.6946</ele>
        <time>2016-06-10T13:51:23Z</time>
      </trkpt>
      <trkpt lat="48.93425" lon="1.86627">
        <ele>86.656</ele>
        <time>2016-06-10T13:51:31Z</time>
      </trkpt>
      <trkpt lat="48.93428" lon="1.86618">
        <ele>88.5787</ele>
        <time>2016-06-10T13:51:39Z</time>
      </trkpt>
      <trkpt lat="48.93429" lon="1.86617">
        <ele>86.656</ele>
        <time>2016-06-10T13:51:49Z</time>
      </trkpt>
      <trkpt lat="48.93427" lon="1.86617">
        <ele>86.656</ele>
        <time>2016-06-10T13:51:57Z</time>
      </trkpt>
      <trkpt lat="48.93429" lon="1.86614">
        <ele>89.5399</ele>
        <time>2016-06-10T13:52:16Z</time>
      </trkpt>
      <trkpt lat="48.93429" lon="1.86614">
        <ele>90.0206</ele>
        <time>2016-06-10T13:52:28Z</time>
      </trkpt>
      <trkpt lat="48.93426" lon="1.86607">
        <ele>87.1366</ele>
        <time>2016-06-10T13:53:05Z</time>
      </trkpt>
      <trkpt lat="48.93429" lon="1.86607">
        <ele>88.5787</ele>
        <time>2016-06-10T13:53:12Z</time>
      </trkpt>
      <trkpt lat="48.9343" lon="1.86608">
        <ele>90.9819</ele>
        <time>2016-06-10T13:53:20Z</time>
      </trkpt>
      <trkpt lat="48.9343" lon="1.86605">
        <ele>92.424</ele>
        <time>2016-06-10T13:53:35Z</time>
      </trkpt>
      <trkpt lat="48.93435" lon="1.86587">
        <ele>92.9045</ele>
        <time>2016-06-10T13:53:44Z</time>
      </trkpt>
      <trkpt lat="48.93438" lon="1.86569">
        <ele>93.3851</ele>
        <time>2016-06-10T13:53:52Z</time>
      </trkpt>
      <trkpt lat="48.93444" lon="1.86541">
        <ele>95.3077</ele>
        <time>2016-06-10T13:54:04Z</time>
      </trkpt>
      <trkpt lat="48.93449" lon="1.86524">
        <ele>97.2305</ele>
        <time>2016-06-10T13:54:11Z</time>
      </trkpt>
      <trkpt lat="48.93452" lon="1.86502">
        <ele>98.1919</ele>
        <time>2016-06-10T13:54:21Z</time>
      </trkpt>
      <trkpt lat="48.93455" lon="1.86475">
        <ele>98.1919</ele>
        <time>2016-06-10T13:54:33Z</time>
      </trkpt>
      <trkpt lat="48.93458" lon="1.86458">
        <ele>97.7112</ele>
        <time>2016-06-10T13:54:40Z</time>
      </trkpt>
      <trkpt lat="48.93458" lon="1.86436">
        <ele>97.7112</ele>
        <time>2016-06-10T13:54:48Z</time>
      </trkpt>
      <trkpt lat="48.93459" lon="1.86407">
        <ele>95.3077</ele>
        <time>2016-06-10T13:54:59Z</time>
      </trkpt>
      <trkpt lat="48.93458" lon="1.86382">
        <ele>93.8658</ele>
        <time>2016-06-10T13:55:09Z</time>
      </trkpt>
      <trkpt lat="48.93462" lon="1.86357">
        <ele>93.3851</ele>
        <time>2016-06-10T13:55:19Z</time>
      </trkpt>
      <trkpt lat="48.93465" lon="1.86334">
        <ele>92.9045</ele>
        <time>2016-06-10T13:55:29Z</time>
      </trkpt>
      <trkpt lat="48.93469" lon="1.86307">
        <ele>91.9432</ele>
        <time>2016-06-10T13:55:40Z</time>
      </trkpt>
      <trkpt lat="48.93471" lon="1.86298">
        <ele>90.5013</ele>
        <time>2016-06-10T13:55:46Z</time>
      </trkpt>
      <trkpt lat="48.93471" lon="1.86298">
        <ele>89.5399</ele>
        <time>2016-06-10T13:55:51Z</time>
      </trkpt>
      <trkpt lat="48.93472" lon="1.86279">
        <ele>89.5399</ele>
        <time>2016-06-10T13:56:00Z</time>
      </trkpt>
      <trkpt lat="48.93473" lon="1.86252">
        <ele>89.5399</ele>
        <time>2016-06-10T13:56:12Z</time>
      </trkpt>
      <trkpt lat="48.93474" lon="1.86231">
        <ele>88.098</ele>
        <time>2016-06-10T13:56:21Z</time>
      </trkpt>
      <trkpt lat="48.93474" lon="1.86209">
        <ele>86.1753</ele>
        <time>2016-06-10T13:56:31Z</time>
      </trkpt>
      <trkpt lat="48.93473" lon="1.86186">
        <ele>85.6946</ele>
        <time>2016-06-10T13:56:41Z</time>
      </trkpt>
      <trkpt lat="48.93474" lon="1.86155">
        <ele>86.1753</ele>
        <time>2016-06-10T13:56:55Z</time>
      </trkpt>
      <trkpt lat="48.93475" lon="1.86142">
        <ele>86.1753</ele>
        <time>2016-06-10T13:57:01Z</time>
      </trkpt>
      <trkpt lat="48.93474" lon="1.86135">
        <ele>85.6946</ele>
        <time>2016-06-10T13:57:05Z</time>
      </trkpt>
      <trkpt lat="48.93466" lon="1.86126">
        <ele>82.3301</ele>
        <time>2016-06-10T13:57:13Z</time>
      </trkpt>
      <trkpt lat="48.93458" lon="1.86119">
        <ele>79.9266</ele>
        <time>2016-06-10T13:57:21Z</time>
      </trkpt>
      <trkpt lat="48.93443" lon="1.86111">
        <ele>78.9655</ele>
        <time>2016-06-10T13:57:31Z</time>
      </trkpt>
      <trkpt lat="48.93435" lon="1.8611">
        <ele>81.3688</ele>
        <time>2016-06-10T13:57:38Z</time>
      </trkpt>
      <trkpt lat="48.93432" lon="1.86105">
        <ele>82.8108</ele>
        <time>2016-06-10T13:57:42Z</time>
      </trkpt>
      <trkpt lat="48.93432" lon="1.86103">
        <ele>83.772</ele>
        <time>2016-06-10T13:57:46Z</time>
      </trkpt>
      <trkpt lat="48.93433" lon="1.86093">
        <ele>83.772</ele>
        <time>2016-06-10T13:57:51Z</time>
      </trkpt>
      <trkpt lat="48.93433" lon="1.86093">
        <ele>83.772</ele>
        <time>2016-06-10T13:57:51Z</time>
      </trkpt>
      <trkpt lat="48.93434" lon="1.8607">
        <ele>83.2914</ele>
        <time>2016-06-10T13:58:02Z</time>
      </trkpt>
      <trkpt lat="48.93434" lon="1.86053">
        <ele>81.8494</ele>
        <time>2016-06-10T13:58:10Z</time>
      </trkpt>
      <trkpt lat="48.9343" lon="1.86036">
        <ele>81.3688</ele>
        <time>2016-06-10T13:58:19Z</time>
      </trkpt>
      <trkpt lat="48.93428" lon="1.86022">
        <ele>81.3688</ele>
        <time>2016-06-10T13:58:26Z</time>
      </trkpt>
      <trkpt lat="48.93425" lon="1.86004">
        <ele>80.4075</ele>
        <time>2016-06-10T13:58:35Z</time>
      </trkpt>
      <trkpt lat="48.93423" lon="1.85985">
        <ele>79.9266</ele>
        <time>2016-06-10T13:58:41Z</time>
      </trkpt>
      <trkpt lat="48.93415" lon="1.85954">
        <ele>78.4847</ele>
        <time>2016-06-10T13:58:47Z</time>
      </trkpt>
      <trkpt lat="48.93404" lon="1.85919">
        <ele>78.4847</ele>
        <time>2016-06-10T13:58:54Z</time>
      </trkpt>
      <trkpt lat="48.93391" lon="1.8588">
        <ele>78.4847</ele>
        <time>2016-06-10T13:59:01Z</time>
      </trkpt>
      <trkpt lat="48.93375" lon="1.8583">
        <ele>78.004</ele>
        <time>2016-06-10T13:59:09Z</time>
      </trkpt>
      <trkpt lat="48.93363" lon="1.8579">
        <ele>78.004</ele>
        <time>2016-06-10T13:59:15Z</time>
      </trkpt>
      <trkpt lat="48.93347" lon="1.85741">
        <ele>78.004</ele>
        <time>2016-06-10T13:59:23Z</time>
      </trkpt>
      <trkpt lat="48.93331" lon="1.85692">
        <ele>76.0814</ele>
        <time>2016-06-10T13:59:30Z</time>
      </trkpt>
      <trkpt lat="48.93319" lon="1.85657">
        <ele>76.5621</ele>
        <time>2016-06-10T13:59:36Z</time>
      </trkpt>
      <trkpt lat="48.93312" lon="1.85634">
        <ele>77.0428</ele>
        <time>2016-06-10T13:59:40Z</time>
      </trkpt>
      <trkpt lat="48.93302" lon="1.856">
        <ele>77.0428</ele>
        <time>2016-06-10T13:59:46Z</time>
      </trkpt>
      <trkpt lat="48.93291" lon="1.85565">
        <ele>77.0428</ele>
        <time>2016-06-10T13:59:52Z</time>
      </trkpt>
      <trkpt lat="48.93288" lon="1.8554">
        <ele>76.0814</ele>
        <time>2016-06-10T13:59:56Z</time>
      </trkpt>
      <trkpt lat="48.93282" lon="1.85476">
        <ele>76.5621</ele>
        <time>2016-06-10T14:00:05Z</time>
      </trkpt>
      <trkpt lat="48.9328" lon="1.85434">
        <ele>78.004</ele>
        <time>2016-06-10T14:00:11Z</time>
      </trkpt>
      <trkpt lat="48.93279" lon="1.8542">
        <ele>78.9655</ele>
        <time>2016-06-10T14:00:13Z</time>
      </trkpt>
      <trkpt lat="48.93276" lon="1.85399">
        <ele>80.4075</ele>
        <time>2016-06-10T14:00:17Z</time>
      </trkpt>
      <trkpt lat="48.93271" lon="1.85368">
        <ele>80.4075</ele>
        <time>2016-06-10T14:00:28Z</time>
      </trkpt>
      <trkpt lat="48.9327" lon="1.85344">
        <ele>78.9655</ele>
        <time>2016-06-10T14:00:39Z</time>
      </trkpt>
      <trkpt lat="48.93269" lon="1.85324">
        <ele>77.5234</ele>
        <time>2016-06-10T14:00:48Z</time>
      </trkpt>
      <trkpt lat="48.9327" lon="1.85309">
        <ele>77.0428</ele>
        <time>2016-06-10T14:00:55Z</time>
      </trkpt>
      <trkpt lat="48.93269" lon="1.85291">
        <ele>75.6008</ele>
        <time>2016-06-10T14:01:03Z</time>
      </trkpt>
      <trkpt lat="48.93267" lon="1.85271">
        <ele>75.1202</ele>
        <time>2016-06-10T14:01:11Z</time>
      </trkpt>
      <trkpt lat="48.93265" lon="1.85254">
        <ele>75.6008</ele>
        <time>2016-06-10T14:01:18Z</time>
      </trkpt>
      <trkpt lat="48.93263" lon="1.85245">
        <ele>75.1202</ele>
        <time>2016-06-10T14:01:23Z</time>
      </trkpt>
      <trkpt lat="48.9326" lon="1.85215">
        <ele>74.6395</ele>
        <time>2016-06-10T14:01:37Z</time>
      </trkpt>
      <trkpt lat="48.93256" lon="1.85186">
        <ele>74.1588</ele>
        <time>2016-06-10T14:01:50Z</time>
      </trkpt>
      <trkpt lat="48.93255" lon="1.8517">
        <ele>73.6782</ele>
        <time>2016-06-10T14:01:57Z</time>
      </trkpt>
      <trkpt lat="48.93253" lon="1.85146">
        <ele>73.1976</ele>
        <time>2016-06-10T14:02:08Z</time>
      </trkpt>
      <trkpt lat="48.93249" lon="1.85121">
        <ele>72.7169</ele>
        <time>2016-06-10T14:02:20Z</time>
      </trkpt>
      <trkpt lat="48.93242" lon="1.85102">
        <ele>72.2362</ele>
        <time>2016-06-10T14:02:30Z</time>
      </trkpt>
      <trkpt lat="48.93235" lon="1.85091">
        <ele>71.7555</ele>
        <time>2016-06-10T14:02:38Z</time>
      </trkpt>
      <trkpt lat="48.93222" lon="1.85086">
        <ele>69.8329</ele>
        <time>2016-06-10T14:02:48Z</time>
      </trkpt>
      <trkpt lat="48.93209" lon="1.85082">
        <ele>68.8716</ele>
        <time>2016-06-10T14:02:57Z</time>
      </trkpt>
      <trkpt lat="48.93197" lon="1.85077">
        <ele>68.3909</ele>
        <time>2016-06-10T14:03:06Z</time>
      </trkpt>
      <trkpt lat="48.9318" lon="1.85075">
        <ele>66.949</ele>
        <time>2016-06-10T14:03:18Z</time>
      </trkpt>
      <trkpt lat="48.9317" lon="1.85074">
        <ele>66.949</ele>
        <time>2016-06-10T14:03:27Z</time>
      </trkpt>
      <trkpt lat="48.93167" lon="1.85074">
        <ele>70.3135</ele>
        <time>2016-06-10T14:03:43Z</time>
      </trkpt>
      <trkpt lat="48.93162" lon="1.85071">
        <ele>72.7169</ele>
        <time>2016-06-10T14:03:59Z</time>
      </trkpt>
      <trkpt lat="48.93157" lon="1.85057">
        <ele>71.7555</ele>
        <time>2016-06-10T14:04:07Z</time>
      </trkpt>
      <trkpt lat="48.93154" lon="1.85031">
        <ele>70.7942</ele>
        <time>2016-06-10T14:04:19Z</time>
      </trkpt>
      <trkpt lat="48.93152" lon="1.85015">
        <ele>70.3135</ele>
        <time>2016-06-10T14:04:26Z</time>
      </trkpt>
      <trkpt lat="48.9315" lon="1.85002">
        <ele>69.3523</ele>
        <time>2016-06-10T14:04:32Z</time>
      </trkpt>
      <trkpt lat="48.93146" lon="1.84986">
        <ele>68.8716</ele>
        <time>2016-06-10T14:04:40Z</time>
      </trkpt>
      <trkpt lat="48.93144" lon="1.84972">
        <ele>69.3523</ele>
        <time>2016-06-10T14:04:47Z</time>
      </trkpt>
      <trkpt lat="48.9314" lon="1.84951">
        <ele>68.8716</ele>
        <time>2016-06-10T14:04:57Z</time>
      </trkpt>
      <trkpt lat="48.93134" lon="1.84937">
        <ele>68.3909</ele>
        <time>2016-06-10T14:05:05Z</time>
      </trkpt>
      <trkpt lat="48.93132" lon="1.8492">
        <ele>66.949</ele>
        <time>2016-06-10T14:05:13Z</time>
      </trkpt>
      <trkpt lat="48.93126" lon="1.84908">
        <ele>66.4683</ele>
        <time>2016-06-10T14:05:20Z</time>
      </trkpt>
      <trkpt lat="48.93123" lon="1.84905">
        <ele>66.949</ele>
        <time>2016-06-10T14:05:26Z</time>
      </trkpt>
      <trkpt lat="48.93122" lon="1.84904">
        <ele>66.4683</ele>
        <time>2016-06-10T14:05:29Z</time>
      </trkpt>
      <trkpt lat="48.9312" lon="1.84905">
        <ele>66.4683</ele>
        <time>2016-06-10T14:05:31Z</time>
      </trkpt>
      <trkpt lat="48.9312" lon="1.84905">
        <ele>66.4683</ele>
        <time>2016-06-10T14:05:31Z</time>
      </trkpt>
      <trkpt lat="48.93115" lon="1.84906">
        <ele>66.4683</ele>
        <time>2016-06-10T14:05:37Z</time>
      </trkpt>
      <trkpt lat="48.93115" lon="1.84904">
        <ele>66.949</ele>
        <time>2016-06-10T14:05:40Z</time>
      </trkpt>
      <trkpt lat="48.93118" lon="1.84894">
        <ele>66.4683</ele>
        <time>2016-06-10T14:05:47Z</time>
      </trkpt>
      <trkpt lat="48.93116" lon="1.84883">
        <ele>65.9877</ele>
        <time>2016-06-10T14:05:53Z</time>
      </trkpt>
      <trkpt lat="48.93108" lon="1.84869">
        <ele>66.4683</ele>
        <time>2016-06-10T14:06:02Z</time>
      </trkpt>
      <trkpt lat="48.93096" lon="1.84856">
        <ele>65.5071</ele>
        <time>2016-06-10T14:06:13Z</time>
      </trkpt>
      <trkpt lat="48.93087" lon="1.84843">
        <ele>64.0651</ele>
        <time>2016-06-10T14:06:23Z</time>
      </trkpt>
      <trkpt lat="48.93075" lon="1.84832">
        <ele>63.1036</ele>
        <time>2016-06-10T14:06:33Z</time>
      </trkpt>
      <trkpt lat="48.93063" lon="1.84819">
        <ele>61.181</ele>
        <time>2016-06-10T14:06:44Z</time>
      </trkpt>
      <trkpt lat="48.9306" lon="1.84817">
        <ele>60.2197</ele>
        <time>2016-06-10T14:06:51Z</time>
      </trkpt>
      <trkpt lat="48.93054" lon="1.8481">
        <ele>58.7777</ele>
        <time>2016-06-10T14:06:58Z</time>
      </trkpt>
      <trkpt lat="48.93052" lon="1.84809">
        <ele>60.7003</ele>
        <time>2016-06-10T14:07:04Z</time>
      </trkpt>
      <trkpt lat="48.93046" lon="1.84802">
        <ele>60.2197</ele>
        <time>2016-06-10T14:07:10Z</time>
      </trkpt>
      <trkpt lat="48.93035" lon="1.84794">
        <ele>58.2971</ele>
        <time>2016-06-10T14:07:19Z</time>
      </trkpt>
      <trkpt lat="48.93022" lon="1.84784">
        <ele>54.9324</ele>
        <time>2016-06-10T14:07:29Z</time>
      </trkpt>
      <trkpt lat="48.93018" lon="1.84778">
        <ele>54.4518</ele>
        <time>2016-06-10T14:07:33Z</time>
      </trkpt>
      <trkpt lat="48.93006" lon="1.84771">
        <ele>51.5679</ele>
        <time>2016-06-10T14:07:42Z</time>
      </trkpt>
      <trkpt lat="48.93005" lon="1.84771">
        <ele>51.0872</ele>
        <time>2016-06-10T14:07:43Z</time>
      </trkpt>
      <trkpt lat="48.92995" lon="1.84764">
        <ele>48.684</ele>
        <time>2016-06-10T14:07:51Z</time>
      </trkpt>
      <trkpt lat="48.92992" lon="1.84763">
        <ele>48.2034</ele>
        <time>2016-06-10T14:07:54Z</time>
      </trkpt>
      <trkpt lat="48.92985" lon="1.84761">
        <ele>45.7999</ele>
        <time>2016-06-10T14:08:01Z</time>
      </trkpt>
      <trkpt lat="48.92975" lon="1.84753">
        <ele>42.916</ele>
        <time>2016-06-10T14:08:10Z</time>
      </trkpt>
      <trkpt lat="48.92973" lon="1.84752">
        <ele>42.4354</ele>
        <time>2016-06-10T14:08:15Z</time>
      </trkpt>
      <trkpt lat="48.92967" lon="1.84745">
        <ele>51.5679</ele>
        <time>2016-06-10T14:08:36Z</time>
      </trkpt>
      <trkpt lat="48.92964" lon="1.84738">
        <ele>53.0098</ele>
        <time>2016-06-10T14:08:42Z</time>
      </trkpt>
      <trkpt lat="48.92963" lon="1.84733">
        <ele>54.4518</ele>
        <time>2016-06-10T14:08:47Z</time>
      </trkpt>
      <trkpt lat="48.92959" lon="1.84725">
        <ele>55.4131</ele>
        <time>2016-06-10T14:08:53Z</time>
      </trkpt>
      <trkpt lat="48.92954" lon="1.84711">
        <ele>55.4131</ele>
        <time>2016-06-10T14:09:01Z</time>
      </trkpt>
      <trkpt lat="48.92952" lon="1.84702">
        <ele>53.0098</ele>
        <time>2016-06-10T14:09:09Z</time>
      </trkpt>
      <trkpt lat="48.92952" lon="1.847">
        <ele>51.5679</ele>
        <time>2016-06-10T14:09:16Z</time>
      </trkpt>
      <trkpt lat="48.92948" lon="1.84691">
        <ele>52.0486</ele>
        <time>2016-06-10T14:09:20Z</time>
      </trkpt>
      <trkpt lat="48.92942" lon="1.84672">
        <ele>51.5679</ele>
        <time>2016-06-10T14:09:29Z</time>
      </trkpt>
      <trkpt lat="48.92939" lon="1.84665">
        <ele>50.126</ele>
        <time>2016-06-10T14:09:36Z</time>
      </trkpt>
      <trkpt lat="48.92938" lon="1.84661">
        <ele>48.684</ele>
        <time>2016-06-10T14:09:43Z</time>
      </trkpt>
      <trkpt lat="48.92938" lon="1.84659">
        <ele>48.2034</ele>
        <time>2016-06-10T14:09:46Z</time>
      </trkpt>
      <trkpt lat="48.92931" lon="1.84642">
        <ele>49.6453</ele>
        <time>2016-06-10T14:09:59Z</time>
      </trkpt>
      <trkpt lat="48.9293" lon="1.84643">
        <ele>52.5292</ele>
        <time>2016-06-10T14:10:12Z</time>
      </trkpt>
      <trkpt lat="48.92926" lon="1.84639">
        <ele>52.0486</ele>
        <time>2016-06-10T14:10:28Z</time>
      </trkpt>
      <trkpt lat="48.92925" lon="1.84635">
        <ele>53.4905</ele>
        <time>2016-06-10T14:10:31Z</time>
      </trkpt>
      <trkpt lat="48.92925" lon="1.84627">
        <ele>53.9712</ele>
        <time>2016-06-10T14:10:36Z</time>
      </trkpt>
      <trkpt lat="48.92924" lon="1.84626">
        <ele>53.0098</ele>
        <time>2016-06-10T14:10:41Z</time>
      </trkpt>
      <trkpt lat="48.92922" lon="1.84622">
        <ele>52.5292</ele>
        <time>2016-06-10T14:10:47Z</time>
      </trkpt>
      <trkpt lat="48.92922" lon="1.84624">
        <ele>55.4131</ele>
        <time>2016-06-10T14:11:10Z</time>
      </trkpt>
      <trkpt lat="48.92922" lon="1.8462">
        <ele>53.4905</ele>
        <time>2016-06-10T14:11:18Z</time>
      </trkpt>
      <trkpt lat="48.92923" lon="1.84622">
        <ele>54.9324</ele>
        <time>2016-06-10T14:11:23Z</time>
      </trkpt>
      <trkpt lat="48.92923" lon="1.84621">
        <ele>56.3745</ele>
        <time>2016-06-10T14:11:30Z</time>
      </trkpt>
      <trkpt lat="48.92921" lon="1.84619">
        <ele>57.3358</ele>
        <time>2016-06-10T14:11:34Z</time>
      </trkpt>
      <trkpt lat="48.9292" lon="1.84611">
        <ele>55.8938</ele>
        <time>2016-06-10T14:11:38Z</time>
      </trkpt>
      <trkpt lat="48.92916" lon="1.84596">
        <ele>51.5679</ele>
        <time>2016-06-10T14:11:47Z</time>
      </trkpt>
      <trkpt lat="48.92912" lon="1.84581">
        <ele>53.4905</ele>
        <time>2016-06-10T14:11:56Z</time>
      </trkpt>
      <trkpt lat="48.92905" lon="1.84564">
        <ele>56.8551</ele>
        <time>2016-06-10T14:12:06Z</time>
      </trkpt>
      <trkpt lat="48.92899" lon="1.84552">
        <ele>61.181</ele>
        <time>2016-06-10T14:12:14Z</time>
      </trkpt>
      <trkpt lat="48.92897" lon="1.84539">
        <ele>59.7391</ele>
        <time>2016-06-10T14:12:21Z</time>
      </trkpt>
      <trkpt lat="48.92895" lon="1.84525">
        <ele>56.3745</ele>
        <time>2016-06-10T14:12:28Z</time>
      </trkpt>
      <trkpt lat="48.92897" lon="1.84507">
        <ele>49.1646</ele>
        <time>2016-06-10T14:12:36Z</time>
      </trkpt>
      <trkpt lat="48.92902" lon="1.84491">
        <ele>43.8773</ele>
        <time>2016-06-10T14:12:45Z</time>
      </trkpt>
      <trkpt lat="48.92907" lon="1.84482">
        <ele>41.474</ele>
        <time>2016-06-10T14:12:51Z</time>
      </trkpt>
      <trkpt lat="48.92914" lon="1.84484">
        <ele>41.9547</ele>
        <time>2016-06-10T14:12:57Z</time>
      </trkpt>
      <trkpt lat="48.92919" lon="1.84483">
        <ele>41.474</ele>
        <time>2016-06-10T14:13:02Z</time>
      </trkpt>
      <trkpt lat="48.92921" lon="1.84481">
        <ele>42.916</ele>
        <time>2016-06-10T14:13:05Z</time>
      </trkpt>
      <trkpt lat="48.92925" lon="1.84482">
        <ele>43.8773</ele>
        <time>2016-06-10T14:13:09Z</time>
      </trkpt>
      <trkpt lat="48.92935" lon="1.84479">
        <ele>44.8386</ele>
        <time>2016-06-10T14:13:19Z</time>
      </trkpt>
      <trkpt lat="48.92944" lon="1.84479">
        <ele>43.3966</ele>
        <time>2016-06-10T14:13:26Z</time>
      </trkpt>
      <trkpt lat="48.92947" lon="1.84477">
        <ele>43.8773</ele>
        <time>2016-06-10T14:13:31Z</time>
      </trkpt>
      <trkpt lat="48.92947" lon="1.84478">
        <ele>46.7612</ele>
        <time>2016-06-10T14:13:52Z</time>
      </trkpt>
      <trkpt lat="48.92944" lon="1.84479">
        <ele>45.7999</ele>
        <time>2016-06-10T14:14:17Z</time>
      </trkpt>
      <trkpt lat="48.92944" lon="1.84481">
        <ele>43.8773</ele>
        <time>2016-06-10T14:14:28Z</time>
      </trkpt>
      <trkpt lat="48.92942" lon="1.84482">
        <ele>47.2418</ele>
        <time>2016-06-10T14:14:52Z</time>
      </trkpt>
      <trkpt lat="48.92933" lon="1.84485">
        <ele>51.5679</ele>
        <time>2016-06-10T14:14:59Z</time>
      </trkpt>
      <trkpt lat="48.92921" lon="1.84485">
        <ele>47.7225</ele>
        <time>2016-06-10T14:15:09Z</time>
      </trkpt>
      <trkpt lat="48.92911" lon="1.84486">
        <ele>46.7612</ele>
        <time>2016-06-10T14:15:17Z</time>
      </trkpt>
      <trkpt lat="48.92907" lon="1.84472">
        <ele>43.8773</ele>
        <time>2016-06-10T14:15:24Z</time>
      </trkpt>
      <trkpt lat="48.92907" lon="1.8445">
        <ele>44.358</ele>
        <time>2016-06-10T14:15:35Z</time>
      </trkpt>
      <trkpt lat="48.92905" lon="1.84436">
        <ele>43.8773</ele>
        <time>2016-06-10T14:15:42Z</time>
      </trkpt>
      <trkpt lat="48.92907" lon="1.84422">
        <ele>41.474</ele>
        <time>2016-06-10T14:15:50Z</time>
      </trkpt>
      <trkpt lat="48.92904" lon="1.84406">
        <ele>41.9547</ele>
        <time>2016-06-10T14:15:59Z</time>
      </trkpt>
      <trkpt lat="48.929" lon="1.84386">
        <ele>40.5128</ele>
        <time>2016-06-10T14:16:11Z</time>
      </trkpt>
      <trkpt lat="48.92897" lon="1.8437">
        <ele>40.5128</ele>
        <time>2016-06-10T14:16:21Z</time>
      </trkpt>
      <trkpt lat="48.92899" lon="1.84372">
        <ele>39.5513</ele>
        <time>2016-06-10T14:16:26Z</time>
      </trkpt>
      <trkpt lat="48.92901" lon="1.84375">
        <ele>39.5513</ele>
        <time>2016-06-10T14:16:33Z</time>
      </trkpt>
      <trkpt lat="48.92898" lon="1.84376">
        <ele>38.5901</ele>
        <time>2016-06-10T14:16:43Z</time>
      </trkpt>
      <trkpt lat="48.92898" lon="1.84373">
        <ele>38.1094</ele>
        <time>2016-06-10T14:16:50Z</time>
      </trkpt>
      <trkpt lat="48.92895" lon="1.84366">
        <ele>36.6675</ele>
        <time>2016-06-10T14:17:05Z</time>
      </trkpt>
      <trkpt lat="48.9289" lon="1.8435">
        <ele>36.6675</ele>
        <time>2016-06-10T14:17:15Z</time>
      </trkpt>
      <trkpt lat="48.92888" lon="1.84333">
        <ele>38.5901</ele>
        <time>2016-06-10T14:17:24Z</time>
      </trkpt>
      <trkpt lat="48.92887" lon="1.84327">
        <ele>38.1094</ele>
        <time>2016-06-10T14:17:27Z</time>
      </trkpt>
      <trkpt lat="48.92889" lon="1.84319">
        <ele>37.6287</ele>
        <time>2016-06-10T14:17:31Z</time>
      </trkpt>
      <trkpt lat="48.92895" lon="1.84307">
        <ele>35.7061</ele>
        <time>2016-06-10T14:17:39Z</time>
      </trkpt>
      <trkpt lat="48.92902" lon="1.843">
        <ele>33.7834</ele>
        <time>2016-06-10T14:17:45Z</time>
      </trkpt>
      <trkpt lat="48.92908" lon="1.8429">
        <ele>32.3416</ele>
        <time>2016-06-10T14:17:52Z</time>
      </trkpt>
      <trkpt lat="48.92916" lon="1.84276">
        <ele>35.2255</ele>
        <time>2016-06-10T14:18:00Z</time>
      </trkpt>
      <trkpt lat="48.92922" lon="1.84258">
        <ele>36.6675</ele>
        <time>2016-06-10T14:18:09Z</time>
      </trkpt>
      <trkpt lat="48.92925" lon="1.84238">
        <ele>37.1481</ele>
        <time>2016-06-10T14:18:20Z</time>
      </trkpt>
      <trkpt lat="48.92928" lon="1.84211">
        <ele>34.7449</ele>
        <time>2016-06-10T14:18:33Z</time>
      </trkpt>
      <trkpt lat="48.92933" lon="1.84193">
        <ele>34.2642</ele>
        <time>2016-06-10T14:18:44Z</time>
      </trkpt>
      <trkpt lat="48.92936" lon="1.84182">
        <ele>34.7449</ele>
        <time>2016-06-10T14:18:50Z</time>
      </trkpt>
      <trkpt lat="48.9294" lon="1.84172">
        <ele>34.7449</ele>
        <time>2016-06-10T14:18:56Z</time>
      </trkpt>
      <trkpt lat="48.92947" lon="1.8416">
        <ele>37.1481</ele>
        <time>2016-06-10T14:19:04Z</time>
      </trkpt>
      <trkpt lat="48.92947" lon="1.84146">
        <ele>41.474</ele>
        <time>2016-06-10T14:19:11Z</time>
      </trkpt>
      <trkpt lat="48.92941" lon="1.84127">
        <ele>42.916</ele>
        <time>2016-06-10T14:19:21Z</time>
      </trkpt>
      <trkpt lat="48.92935" lon="1.84112">
        <ele>42.4354</ele>
        <time>2016-06-10T14:19:29Z</time>
      </trkpt>
      <trkpt lat="48.92928" lon="1.84094">
        <ele>42.916</ele>
        <time>2016-06-10T14:19:39Z</time>
      </trkpt>
      <trkpt lat="48.92921" lon="1.84073">
        <ele>40.9934</ele>
        <time>2016-06-10T14:19:50Z</time>
      </trkpt>
      <trkpt lat="48.92921" lon="1.84051">
        <ele>39.5513</ele>
        <time>2016-06-10T14:20:00Z</time>
      </trkpt>
      <trkpt lat="48.92926" lon="1.84034">
        <ele>38.1094</ele>
        <time>2016-06-10T14:20:09Z</time>
      </trkpt>
      <trkpt lat="48.92933" lon="1.84021">
        <ele>37.6287</ele>
        <time>2016-06-10T14:20:17Z</time>
      </trkpt>
      <trkpt lat="48.92942" lon="1.84001">
        <ele>39.5513</ele>
        <time>2016-06-10T14:20:27Z</time>
      </trkpt>
      <trkpt lat="48.92951" lon="1.83982">
        <ele>40.9934</ele>
        <time>2016-06-10T14:20:37Z</time>
      </trkpt>
      <trkpt lat="48.92958" lon="1.83964">
        <ele>40.9934</ele>
        <time>2016-06-10T14:20:46Z</time>
      </trkpt>
      <trkpt lat="48.92963" lon="1.83956">
        <ele>42.4354</ele>
        <time>2016-06-10T14:20:51Z</time>
      </trkpt>
      <trkpt lat="48.92963" lon="1.83956">
        <ele>42.4354</ele>
        <time>2016-06-10T14:20:51Z</time>
      </trkpt>
      <trkpt lat="48.92967" lon="1.83949">
        <ele>42.4354</ele>
        <time>2016-06-10T14:20:55Z</time>
      </trkpt>
      <trkpt lat="48.92975" lon="1.83936">
        <ele>42.4354</ele>
        <time>2016-06-10T14:21:03Z</time>
      </trkpt>
      <trkpt lat="48.92981" lon="1.83923">
        <ele>42.916</ele>
        <time>2016-06-10T14:21:10Z</time>
      </trkpt>
      <trkpt lat="48.92987" lon="1.83911">
        <ele>43.8773</ele>
        <time>2016-06-10T14:21:17Z</time>
      </trkpt>
      <trkpt lat="48.92994" lon="1.839">
        <ele>44.8386</ele>
        <time>2016-06-10T14:21:24Z</time>
      </trkpt>
      <trkpt lat="48.93" lon="1.83888">
        <ele>45.3192</ele>
        <time>2016-06-10T14:21:31Z</time>
      </trkpt>
      <trkpt lat="48.93007" lon="1.83874">
        <ele>46.2806</ele>
        <time>2016-06-10T14:21:39Z</time>
      </trkpt>
      <trkpt lat="48.9301" lon="1.83868">
        <ele>45.7999</ele>
        <time>2016-06-10T14:21:44Z</time>
      </trkpt>
      <trkpt lat="48.93009" lon="1.83867">
        <ele>45.7999</ele>
        <time>2016-06-10T14:21:47Z</time>
      </trkpt>
      <trkpt lat="48.93005" lon="1.8387">
        <ele>45.7999</ele>
        <time>2016-06-10T14:21:51Z</time>
      </trkpt>
      <trkpt lat="48.93003" lon="1.83874">
        <ele>45.7999</ele>
        <time>2016-06-10T14:21:54Z</time>
      </trkpt>
      <trkpt lat="48.92996" lon="1.83868">
        <ele>47.2418</ele>
        <time>2016-06-10T14:22:00Z</time>
      </trkpt>
      <trkpt lat="48.92993" lon="1.83863">
        <ele>48.2034</ele>
        <time>2016-06-10T14:22:03Z</time>
      </trkpt>
      <trkpt lat="48.92984" lon="1.83853">
        <ele>51.0872</ele>
        <time>2016-06-10T14:22:11Z</time>
      </trkpt>
      <trkpt lat="48.92978" lon="1.83839">
        <ele>52.5292</ele>
        <time>2016-06-10T14:22:19Z</time>
      </trkpt>
      <trkpt lat="48.92977" lon="1.83825">
        <ele>48.684</ele>
        <time>2016-06-10T14:22:27Z</time>
      </trkpt>
      <trkpt lat="48.92977" lon="1.8382">
        <ele>48.2034</ele>
        <time>2016-06-10T14:22:33Z</time>
      </trkpt>
      <trkpt lat="48.92977" lon="1.83819">
        <ele>48.684</ele>
        <time>2016-06-10T14:22:39Z</time>
      </trkpt>
      <trkpt lat="48.92978" lon="1.83817">
        <ele>53.9712</ele>
        <time>2016-06-10T14:22:49Z</time>
      </trkpt>
      <trkpt lat="48.92978" lon="1.83817">
        <ele>53.9712</ele>
        <time>2016-06-10T14:22:59Z</time>
      </trkpt>
      <trkpt lat="48.92977" lon="1.83812">
        <ele>53.4905</ele>
        <time>2016-06-10T14:23:03Z</time>
      </trkpt>
      <trkpt lat="48.92976" lon="1.8381">
        <ele>53.0098</ele>
        <time>2016-06-10T14:23:07Z</time>
      </trkpt>
      <trkpt lat="48.9297" lon="1.83798">
        <ele>51.0872</ele>
        <time>2016-06-10T14:23:15Z</time>
      </trkpt>
      <trkpt lat="48.92967" lon="1.83787">
        <ele>51.5679</ele>
        <time>2016-06-10T14:23:22Z</time>
      </trkpt>
      <trkpt lat="48.92963" lon="1.83781">
        <ele>51.0872</ele>
        <time>2016-06-10T14:23:26Z</time>
      </trkpt>
      <trkpt lat="48.92958" lon="1.83763">
        <ele>53.0098</ele>
        <time>2016-06-10T14:23:34Z</time>
      </trkpt>
      <trkpt lat="48.92953" lon="1.83749">
        <ele>54.4518</ele>
        <time>2016-06-10T14:23:41Z</time>
      </trkpt>
      <trkpt lat="48.92947" lon="1.83732">
        <ele>58.7777</ele>
        <time>2016-06-10T14:23:49Z</time>
      </trkpt>
      <trkpt lat="48.9294" lon="1.83715">
        <ele>63.1036</ele>
        <time>2016-06-10T14:23:58Z</time>
      </trkpt>
      <trkpt lat="48.92935" lon="1.83701">
        <ele>60.7003</ele>
        <time>2016-06-10T14:24:05Z</time>
      </trkpt>
      <trkpt lat="48.92926" lon="1.83684">
        <ele>62.6229</ele>
        <time>2016-06-10T14:24:15Z</time>
      </trkpt>
      <trkpt lat="48.92915" lon="1.83672">
        <ele>61.6617</ele>
        <time>2016-06-10T14:24:24Z</time>
      </trkpt>
      <trkpt lat="48.92904" lon="1.83664">
        <ele>60.7003</ele>
        <time>2016-06-10T14:24:33Z</time>
      </trkpt>
      <trkpt lat="48.929" lon="1.8366">
        <ele>60.7003</ele>
        <time>2016-06-10T14:24:36Z</time>
      </trkpt>
      <trkpt lat="48.92889" lon="1.8365">
        <ele>61.6617</ele>
        <time>2016-06-10T14:24:45Z</time>
      </trkpt>
      <trkpt lat="48.9288" lon="1.83642">
        <ele>63.5844</ele>
        <time>2016-06-10T14:24:52Z</time>
      </trkpt>
      <trkpt lat="48.92868" lon="1.83632">
        <ele>68.8716</ele>
        <time>2016-06-10T14:25:01Z</time>
      </trkpt>
      <trkpt lat="48.92863" lon="1.83624">
        <ele>69.8329</ele>
        <time>2016-06-10T14:25:06Z</time>
      </trkpt>
      <trkpt lat="48.92862" lon="1.83623">
        <ele>69.8329</ele>
        <time>2016-06-10T14:25:07Z</time>
      </trkpt>
      <trkpt lat="48.9286" lon="1.83615">
        <ele>69.3523</ele>
        <time>2016-06-10T14:25:11Z</time>
      </trkpt>
      <trkpt lat="48.92852" lon="1.83597">
        <ele>74.1588</ele>
        <time>2016-06-10T14:25:22Z</time>
      </trkpt>
      <trkpt lat="48.92847" lon="1.83575">
        <ele>73.1976</ele>
        <time>2016-06-10T14:25:32Z</time>
      </trkpt>
      <trkpt lat="48.92845" lon="1.83559">
        <ele>76.5621</ele>
        <time>2016-06-10T14:25:40Z</time>
      </trkpt>
      <trkpt lat="48.9284" lon="1.83545">
        <ele>81.3688</ele>
        <time>2016-06-10T14:25:47Z</time>
      </trkpt>
      <trkpt lat="48.92839" lon="1.83536">
        <ele>84.2527</ele>
        <time>2016-06-10T14:25:53Z</time>
      </trkpt>
      <trkpt lat="48.92838" lon="1.8353">
        <ele>85.214</ele>
        <time>2016-06-10T14:25:59Z</time>
      </trkpt>
      <trkpt lat="48.92832" lon="1.83512">
        <ele>85.6946</ele>
        <time>2016-06-10T14:26:07Z</time>
      </trkpt>
      <trkpt lat="48.92826" lon="1.83498">
        <ele>85.6946</ele>
        <time>2016-06-10T14:26:14Z</time>
      </trkpt>
      <trkpt lat="48.92819" lon="1.83485">
        <ele>88.5787</ele>
        <time>2016-06-10T14:26:21Z</time>
      </trkpt>
      <trkpt lat="48.92816" lon="1.83478">
        <ele>89.5399</ele>
        <time>2016-06-10T14:26:25Z</time>
      </trkpt>
      <trkpt lat="48.92812" lon="1.83469">
        <ele>88.098</ele>
        <time>2016-06-10T14:26:29Z</time>
      </trkpt>
      <trkpt lat="48.92808" lon="1.83454">
        <ele>79.9266</ele>
        <time>2016-06-10T14:26:36Z</time>
      </trkpt>
      <trkpt lat="48.92805" lon="1.83444">
        <ele>78.9655</ele>
        <time>2016-06-10T14:26:40Z</time>
      </trkpt>
      <trkpt lat="48.928" lon="1.8343">
        <ele>84.2527</ele>
        <time>2016-06-10T14:26:47Z</time>
      </trkpt>
      <trkpt lat="48.928" lon="1.83428">
        <ele>84.2527</ele>
        <time>2016-06-10T14:26:48Z</time>
      </trkpt>
      <trkpt lat="48.92795" lon="1.83413">
        <ele>81.8494</ele>
        <time>2016-06-10T14:26:56Z</time>
      </trkpt>
      <trkpt lat="48.9279" lon="1.83399">
        <ele>79.446</ele>
        <time>2016-06-10T14:27:03Z</time>
      </trkpt>
      <trkpt lat="48.92787" lon="1.83392">
        <ele>82.3301</ele>
        <time>2016-06-10T14:27:06Z</time>
      </trkpt>
      <trkpt lat="48.92781" lon="1.83378">
        <ele>90.0206</ele>
        <time>2016-06-10T14:27:13Z</time>
      </trkpt>
      <trkpt lat="48.92776" lon="1.83367">
        <ele>91.9432</ele>
        <time>2016-06-10T14:27:20Z</time>
      </trkpt>
      <trkpt lat="48.92772" lon="1.83354">
        <ele>96.2693</ele>
        <time>2016-06-10T14:27:27Z</time>
      </trkpt>
      <trkpt lat="48.92765" lon="1.83339">
        <ele>95.3077</ele>
        <time>2016-06-10T14:27:35Z</time>
      </trkpt>
      <trkpt lat="48.92759" lon="1.83329">
        <ele>95.7885</ele>
        <time>2016-06-10T14:27:42Z</time>
      </trkpt>
      <trkpt lat="48.92757" lon="1.8332">
        <ele>94.8271</ele>
        <time>2016-06-10T14:27:51Z</time>
      </trkpt>
      <trkpt lat="48.92751" lon="1.83309">
        <ele>90.5013</ele>
        <time>2016-06-10T14:27:57Z</time>
      </trkpt>
      <trkpt lat="48.92745" lon="1.83293">
        <ele>89.5399</ele>
        <time>2016-06-10T14:28:05Z</time>
      </trkpt>
      <trkpt lat="48.92737" lon="1.83279">
        <ele>88.098</ele>
        <time>2016-06-10T14:28:13Z</time>
      </trkpt>
      <trkpt lat="48.92733" lon="1.83266">
        <ele>86.656</ele>
        <time>2016-06-10T14:28:20Z</time>
      </trkpt>
      <trkpt lat="48.92727" lon="1.83248">
        <ele>87.1366</ele>
        <time>2016-06-10T14:28:29Z</time>
      </trkpt>
      <trkpt lat="48.92724" lon="1.83228">
        <ele>94.3466</ele>
        <time>2016-06-10T14:28:38Z</time>
      </trkpt>
      <trkpt lat="48.92722" lon="1.83214">
        <ele>99.1531</ele>
        <time>2016-06-10T14:28:45Z</time>
      </trkpt>
      <trkpt lat="48.92719" lon="1.83196">
        <ele>101.556</ele>
        <time>2016-06-10T14:28:54Z</time>
      </trkpt>
      <trkpt lat="48.92718" lon="1.83186">
        <ele>102.037</ele>
        <time>2016-06-10T14:29:00Z</time>
      </trkpt>
      <trkpt lat="48.92718" lon="1.83185">
        <ele>102.518</ele>
        <time>2016-06-10T14:29:01Z</time>
      </trkpt>
      <trkpt lat="48.92715" lon="1.83172">
        <ele>103.96</ele>
        <time>2016-06-10T14:29:08Z</time>
      </trkpt>
      <trkpt lat="48.92713" lon="1.83161">
        <ele>108.766</ele>
        <time>2016-06-10T14:29:15Z</time>
      </trkpt>
      <trkpt lat="48.92715" lon="1.83156">
        <ele>114.054</ele>
        <time>2016-06-10T14:29:22Z</time>
      </trkpt>
      <trkpt lat="48.92711" lon="1.83139">
        <ele>112.612</ele>
        <time>2016-06-10T14:29:30Z</time>
      </trkpt>
      <trkpt lat="48.92708" lon="1.83125">
        <ele>111.65</ele>
        <time>2016-06-10T14:29:35Z</time>
      </trkpt>
      <trkpt lat="48.92705" lon="1.83116">
        <ele>113.092</ele>
        <time>2016-06-10T14:29:41Z</time>
      </trkpt>
      <trkpt lat="48.92702" lon="1.831">
        <ele>108.766</ele>
        <time>2016-06-10T14:29:49Z</time>
      </trkpt>
      <trkpt lat="48.92699" lon="1.83084">
        <ele>110.689</ele>
        <time>2016-06-10T14:29:58Z</time>
      </trkpt>
      <trkpt lat="48.92694" lon="1.83068">
        <ele>107.324</ele>
        <time>2016-06-10T14:30:06Z</time>
      </trkpt>
      <trkpt lat="48.92691" lon="1.83054">
        <ele>101.076</ele>
        <time>2016-06-10T14:30:14Z</time>
      </trkpt>
      <trkpt lat="48.9269" lon="1.83039">
        <ele>101.076</ele>
        <time>2016-06-10T14:30:22Z</time>
      </trkpt>
      <trkpt lat="48.92691" lon="1.83026">
        <ele>104.921</ele>
        <time>2016-06-10T14:30:28Z</time>
      </trkpt>
      <trkpt lat="48.9269" lon="1.83009">
        <ele>104.44</ele>
        <time>2016-06-10T14:30:35Z</time>
      </trkpt>
      <trkpt lat="48.9269" lon="1.82991">
        <ele>106.363</ele>
        <time>2016-06-10T14:30:42Z</time>
      </trkpt>
      <trkpt lat="48.92691" lon="1.8298">
        <ele>108.286</ele>
        <time>2016-06-10T14:30:48Z</time>
      </trkpt>
      <trkpt lat="48.9269" lon="1.82979">
        <ele>105.882</ele>
        <time>2016-06-10T14:30:59Z</time>
      </trkpt>
      <trkpt lat="48.9269" lon="1.8296">
        <ele>110.208</ele>
        <time>2016-06-10T14:31:08Z</time>
      </trkpt>
      <trkpt lat="48.92687" lon="1.82936">
        <ele>113.573</ele>
        <time>2016-06-10T14:31:19Z</time>
      </trkpt>
      <trkpt lat="48.92681" lon="1.82917">
        <ele>114.054</ele>
        <time>2016-06-10T14:31:29Z</time>
      </trkpt>
      <trkpt lat="48.9268" lon="1.82913">
        <ele>115.976</ele>
        <time>2016-06-10T14:31:35Z</time>
      </trkpt>
      <trkpt lat="48.92676" lon="1.82904">
        <ele>115.015</ele>
        <time>2016-06-10T14:31:40Z</time>
      </trkpt>
      <trkpt lat="48.92676" lon="1.82897">
        <ele>115.976</ele>
        <time>2016-06-10T14:31:44Z</time>
      </trkpt>
      <trkpt lat="48.92677" lon="1.82895">
        <ele>116.457</ele>
        <time>2016-06-10T14:31:52Z</time>
      </trkpt>
      <trkpt lat="48.92678" lon="1.82894">
        <ele>115.976</ele>
        <time>2016-06-10T14:32:00Z</time>
      </trkpt>
      <trkpt lat="48.92677" lon="1.82896">
        <ele>113.573</ele>
        <time>2016-06-10T14:32:30Z</time>
      </trkpt>
      <trkpt lat="48.92679" lon="1.82895">
        <ele>113.092</ele>
        <time>2016-06-10T14:33:17Z</time>
      </trkpt>
      <trkpt lat="48.92687" lon="1.82888">
        <ele>113.573</ele>
        <time>2016-06-10T14:33:25Z</time>
      </trkpt>
      <trkpt lat="48.92695" lon="1.82882">
        <ele>112.612</ele>
        <time>2016-06-10T14:33:33Z</time>
      </trkpt>
      <trkpt lat="48.92703" lon="1.82875">
        <ele>112.612</ele>
        <time>2016-06-10T14:33:41Z</time>
      </trkpt>
      <trkpt lat="48.92703" lon="1.82874">
        <ele>112.612</ele>
        <time>2016-06-10T14:33:42Z</time>
      </trkpt>
      <trkpt lat="48.9271" lon="1.82861">
        <ele>112.131</ele>
        <time>2016-06-10T14:33:52Z</time>
      </trkpt>
      <trkpt lat="48.92714" lon="1.82857">
        <ele>110.689</ele>
        <time>2016-06-10T14:34:00Z</time>
      </trkpt>
      <trkpt lat="48.92719" lon="1.82851">
        <ele>111.17</ele>
        <time>2016-06-10T14:34:24Z</time>
      </trkpt>
      <trkpt lat="48.92722" lon="1.82848">
        <ele>110.689</ele>
        <time>2016-06-10T14:34:30Z</time>
      </trkpt>
      <trkpt lat="48.92722" lon="1.82848">
        <ele>110.689</ele>
        <time>2016-06-10T14:34:30Z</time>
      </trkpt>
      <trkpt lat="48.92728" lon="1.82846">
        <ele>111.17</ele>
        <time>2016-06-10T14:34:36Z</time>
      </trkpt>
      <trkpt lat="48.92736" lon="1.82837">
        <ele>110.689</ele>
        <time>2016-06-10T14:34:45Z</time>
      </trkpt>
      <trkpt lat="48.92742" lon="1.82831">
        <ele>110.689</ele>
        <time>2016-06-10T14:34:53Z</time>
      </trkpt>
      <trkpt lat="48.92747" lon="1.82829">
        <ele>110.208</ele>
        <time>2016-06-10T14:34:59Z</time>
      </trkpt>
      <trkpt lat="48.92754" lon="1.82822">
        <ele>110.208</ele>
        <time>2016-06-10T14:35:06Z</time>
      </trkpt>
      <trkpt lat="48.92759" lon="1.82818">
        <ele>110.208</ele>
        <time>2016-06-10T14:35:10Z</time>
      </trkpt>
      <trkpt lat="48.92764" lon="1.82812">
        <ele>110.208</ele>
        <time>2016-06-10T14:35:15Z</time>
      </trkpt>
      <trkpt lat="48.92777" lon="1.82802">
        <ele>109.247</ele>
        <time>2016-06-10T14:35:27Z</time>
      </trkpt>
      <trkpt lat="48.92786" lon="1.82795">
        <ele>108.766</ele>
        <time>2016-06-10T14:35:35Z</time>
      </trkpt>
      <trkpt lat="48.92794" lon="1.82791">
        <ele>108.766</ele>
        <time>2016-06-10T14:35:42Z</time>
      </trkpt>
      <trkpt lat="48.92807" lon="1.82782">
        <ele>108.286</ele>
        <time>2016-06-10T14:35:52Z</time>
      </trkpt>
      <trkpt lat="48.92817" lon="1.82773">
        <ele>107.805</ele>
        <time>2016-06-10T14:36:01Z</time>
      </trkpt>
      <trkpt lat="48.92829" lon="1.82764">
        <ele>106.844</ele>
        <time>2016-06-10T14:36:11Z</time>
      </trkpt>
      <trkpt lat="48.92832" lon="1.82758">
        <ele>107.805</ele>
        <time>2016-06-10T14:36:15Z</time>
      </trkpt>
      <trkpt lat="48.9284" lon="1.82751">
        <ele>107.324</ele>
        <time>2016-06-10T14:36:22Z</time>
      </trkpt>
      <trkpt lat="48.92851" lon="1.82743">
        <ele>105.402</ele>
        <time>2016-06-10T14:36:32Z</time>
      </trkpt>
      <trkpt lat="48.92862" lon="1.82735">
        <ele>102.998</ele>
        <time>2016-06-10T14:36:42Z</time>
      </trkpt>
      <trkpt lat="48.92863" lon="1.82734">
        <ele>102.998</ele>
        <time>2016-06-10T14:36:43Z</time>
      </trkpt>
      <trkpt lat="48.92871" lon="1.82734">
        <ele>102.998</ele>
        <time>2016-06-10T14:36:49Z</time>
      </trkpt>
      <trkpt lat="48.92878" lon="1.82732">
        <ele>102.998</ele>
        <time>2016-06-10T14:36:54Z</time>
      </trkpt>
      <trkpt lat="48.92888" lon="1.8272">
        <ele>103.479</ele>
        <time>2016-06-10T14:37:03Z</time>
      </trkpt>
      <trkpt lat="48.92899" lon="1.82716">
        <ele>104.44</ele>
        <time>2016-06-10T14:37:12Z</time>
      </trkpt>
      <trkpt lat="48.92908" lon="1.82714">
        <ele>105.402</ele>
        <time>2016-06-10T14:37:19Z</time>
      </trkpt>
      <trkpt lat="48.92912" lon="1.82708">
        <ele>107.805</ele>
        <time>2016-06-10T14:37:26Z</time>
      </trkpt>
      <trkpt lat="48.92916" lon="1.82704">
        <ele>108.766</ele>
        <time>2016-06-10T14:37:36Z</time>
      </trkpt>
      <trkpt lat="48.92921" lon="1.82691">
        <ele>110.208</ele>
        <time>2016-06-10T14:37:44Z</time>
      </trkpt>
      <trkpt lat="48.92926" lon="1.8268">
        <ele>110.208</ele>
        <time>2016-06-10T14:37:50Z</time>
      </trkpt>
      <trkpt lat="48.92939" lon="1.82659">
        <ele>110.208</ele>
        <time>2016-06-10T14:38:03Z</time>
      </trkpt>
      <trkpt lat="48.92949" lon="1.82645">
        <ele>111.17</ele>
        <time>2016-06-10T14:38:13Z</time>
      </trkpt>
      <trkpt lat="48.92957" lon="1.82634">
        <ele>111.65</ele>
        <time>2016-06-10T14:38:22Z</time>
      </trkpt>
      <trkpt lat="48.92966" lon="1.82625">
        <ele>112.131</ele>
        <time>2016-06-10T14:38:30Z</time>
      </trkpt>
      <trkpt lat="48.92976" lon="1.82618">
        <ele>112.612</ele>
        <time>2016-06-10T14:38:39Z</time>
      </trkpt>
      <trkpt lat="48.92986" lon="1.82616">
        <ele>112.612</ele>
        <time>2016-06-10T14:38:47Z</time>
      </trkpt>
      <trkpt lat="48.92995" lon="1.82608">
        <ele>114.534</ele>
        <time>2016-06-10T14:38:55Z</time>
      </trkpt>
      <trkpt lat="48.93008" lon="1.82596">
        <ele>118.379</ele>
        <time>2016-06-10T14:39:05Z</time>
      </trkpt>
      <trkpt lat="48.93019" lon="1.82587">
        <ele>121.264</ele>
        <time>2016-06-10T14:39:13Z</time>
      </trkpt>
      <trkpt lat="48.93032" lon="1.82572">
        <ele>121.264</ele>
        <time>2016-06-10T14:39:25Z</time>
      </trkpt>
      <trkpt lat="48.93044" lon="1.8256">
        <ele>120.302</ele>
        <time>2016-06-10T14:39:35Z</time>
      </trkpt>
      <trkpt lat="48.93052" lon="1.82551">
        <ele>120.302</ele>
        <time>2016-06-10T14:39:42Z</time>
      </trkpt>
      <trkpt lat="48.93055" lon="1.82548">
        <ele>120.302</ele>
        <time>2016-06-10T14:39:45Z</time>
      </trkpt>
      <trkpt lat="48.93064" lon="1.82539">
        <ele>120.783</ele>
        <time>2016-06-10T14:39:53Z</time>
      </trkpt>
      <trkpt lat="48.93066" lon="1.82535">
        <ele>121.264</ele>
        <time>2016-06-10T14:39:59Z</time>
      </trkpt>
      <trkpt lat="48.93069" lon="1.82531">
        <ele>119.821</ele>
        <time>2016-06-10T14:40:10Z</time>
      </trkpt>
      <trkpt lat="48.93079" lon="1.8252">
        <ele>119.341</ele>
        <time>2016-06-10T14:40:20Z</time>
      </trkpt>
      <trkpt lat="48.9309" lon="1.82504">
        <ele>119.821</ele>
        <time>2016-06-10T14:40:30Z</time>
      </trkpt>
      <trkpt lat="48.931" lon="1.82488">
        <ele>120.302</ele>
        <time>2016-06-10T14:40:40Z</time>
      </trkpt>
      <trkpt lat="48.9311" lon="1.82473">
        <ele>120.302</ele>
        <time>2016-06-10T14:40:50Z</time>
      </trkpt>
      <trkpt lat="48.93122" lon="1.8246">
        <ele>120.302</ele>
        <time>2016-06-10T14:41:01Z</time>
      </trkpt>
      <trkpt lat="48.93133" lon="1.82443">
        <ele>119.341</ele>
        <time>2016-06-10T14:41:13Z</time>
      </trkpt>
      <trkpt lat="48.93143" lon="1.82428">
        <ele>119.341</ele>
        <time>2016-06-10T14:41:23Z</time>
      </trkpt>
      <trkpt lat="48.9315" lon="1.82417">
        <ele>118.86</ele>
        <time>2016-06-10T14:41:31Z</time>
      </trkpt>
      <trkpt lat="48.9316" lon="1.82404">
        <ele>118.379</ele>
        <time>2016-06-10T14:41:41Z</time>
      </trkpt>
      <trkpt lat="48.93162" lon="1.82399">
        <ele>118.379</ele>
        <time>2016-06-10T14:41:47Z</time>
      </trkpt>
      <trkpt lat="48.93165" lon="1.82389">
        <ele>118.86</ele>
        <time>2016-06-10T14:41:53Z</time>
      </trkpt>
      <trkpt lat="48.93169" lon="1.82385">
        <ele>119.341</ele>
        <time>2016-06-10T14:41:57Z</time>
      </trkpt>
      <trkpt lat="48.93177" lon="1.82376">
        <ele>119.821</ele>
        <time>2016-06-10T14:42:04Z</time>
      </trkpt>
      <trkpt lat="48.93189" lon="1.82359">
        <ele>118.86</ele>
        <time>2016-06-10T14:42:15Z</time>
      </trkpt>
      <trkpt lat="48.93199" lon="1.82347">
        <ele>116.938</ele>
        <time>2016-06-10T14:42:24Z</time>
      </trkpt>
      <trkpt lat="48.9321" lon="1.82332">
        <ele>115.976</ele>
        <time>2016-06-10T14:42:35Z</time>
      </trkpt>
      <trkpt lat="48.93222" lon="1.82313">
        <ele>117.899</ele>
        <time>2016-06-10T14:42:46Z</time>
      </trkpt>
      <trkpt lat="48.9323" lon="1.82303">
        <ele>118.86</ele>
        <time>2016-06-10T14:42:52Z</time>
      </trkpt>
      <trkpt lat="48.93238" lon="1.82298">
        <ele>117.899</ele>
        <time>2016-06-10T14:42:57Z</time>
      </trkpt>
      <trkpt lat="48.93251" lon="1.82282">
        <ele>117.418</ele>
        <time>2016-06-10T14:43:06Z</time>
      </trkpt>
      <trkpt lat="48.93261" lon="1.8227">
        <ele>116.457</ele>
        <time>2016-06-10T14:43:13Z</time>
      </trkpt>
      <trkpt lat="48.9327" lon="1.82255">
        <ele>117.899</ele>
        <time>2016-06-10T14:43:21Z</time>
      </trkpt>
      <trkpt lat="48.93279" lon="1.82242">
        <ele>120.302</ele>
        <time>2016-06-10T14:43:27Z</time>
      </trkpt>
      <trkpt lat="48.93288" lon="1.82229">
        <ele>120.302</ele>
        <time>2016-06-10T14:43:34Z</time>
      </trkpt>
      <trkpt lat="48.93296" lon="1.82217">
        <ele>119.341</ele>
        <time>2016-06-10T14:43:42Z</time>
      </trkpt>
      <trkpt lat="48.93306" lon="1.82203">
        <ele>118.86</ele>
        <time>2016-06-10T14:43:51Z</time>
      </trkpt>
      <trkpt lat="48.93319" lon="1.82186">
        <ele>118.379</ele>
        <time>2016-06-10T14:44:03Z</time>
      </trkpt>
      <trkpt lat="48.93331" lon="1.8217">
        <ele>117.899</ele>
        <time>2016-06-10T14:44:14Z</time>
      </trkpt>
      <trkpt lat="48.93343" lon="1.82152">
        <ele>117.899</ele>
        <time>2016-06-10T14:44:25Z</time>
      </trkpt>
      <trkpt lat="48.93354" lon="1.82132">
        <ele>118.86</ele>
        <time>2016-06-10T14:44:36Z</time>
      </trkpt>
      <trkpt lat="48.93362" lon="1.82118">
        <ele>119.341</ele>
        <time>2016-06-10T14:44:44Z</time>
      </trkpt>
      <trkpt lat="48.93372" lon="1.82104">
        <ele>120.302</ele>
        <time>2016-06-10T14:44:53Z</time>
      </trkpt>
      <trkpt lat="48.93375" lon="1.82092">
        <ele>121.744</ele>
        <time>2016-06-10T14:44:59Z</time>
      </trkpt>
      <trkpt lat="48.93375" lon="1.8209">
        <ele>122.705</ele>
        <time>2016-06-10T14:45:06Z</time>
      </trkpt>
      <trkpt lat="48.93376" lon="1.82087">
        <ele>123.186</ele>
        <time>2016-06-10T14:45:14Z</time>
      </trkpt>
      <trkpt lat="48.93383" lon="1.82073">
        <ele>123.186</ele>
        <time>2016-06-10T14:45:23Z</time>
      </trkpt>
      <trkpt lat="48.93393" lon="1.82058">
        <ele>122.705</ele>
        <time>2016-06-10T14:45:33Z</time>
      </trkpt>
      <trkpt lat="48.93404" lon="1.8204">
        <ele>122.705</ele>
        <time>2016-06-10T14:45:45Z</time>
      </trkpt>
      <trkpt lat="48.93413" lon="1.82032">
        <ele>122.705</ele>
        <time>2016-06-10T14:45:53Z</time>
      </trkpt>
      <trkpt lat="48.93415" lon="1.82028">
        <ele>123.186</ele>
        <time>2016-06-10T14:45:55Z</time>
      </trkpt>
      <trkpt lat="48.93415" lon="1.82028">
        <ele>123.186</ele>
        <time>2016-06-10T14:45:55Z</time>
      </trkpt>
      <trkpt lat="48.93423" lon="1.82014">
        <ele>123.667</ele>
        <time>2016-06-10T14:46:03Z</time>
      </trkpt>
      <trkpt lat="48.9343" lon="1.81999">
        <ele>124.147</ele>
        <time>2016-06-10T14:46:12Z</time>
      </trkpt>
      <trkpt lat="48.93438" lon="1.81984">
        <ele>124.628</ele>
        <time>2016-06-10T14:46:20Z</time>
      </trkpt>
      <trkpt lat="48.93449" lon="1.8197">
        <ele>124.147</ele>
        <time>2016-06-10T14:46:30Z</time>
      </trkpt>
      <trkpt lat="48.93458" lon="1.81962">
        <ele>124.628</ele>
        <time>2016-06-10T14:46:37Z</time>
      </trkpt>
      <trkpt lat="48.93467" lon="1.8195">
        <ele>122.225</ele>
        <time>2016-06-10T14:46:46Z</time>
      </trkpt>
      <trkpt lat="48.93472" lon="1.81941">
        <ele>122.225</ele>
        <time>2016-06-10T14:46:51Z</time>
      </trkpt>
      <trkpt lat="48.93479" lon="1.81927">
        <ele>122.225</ele>
        <time>2016-06-10T14:46:59Z</time>
      </trkpt>
      <trkpt lat="48.93485" lon="1.81921">
        <ele>122.225</ele>
        <time>2016-06-10T14:47:05Z</time>
      </trkpt>
      <trkpt lat="48.93487" lon="1.81918">
        <ele>122.705</ele>
        <time>2016-06-10T14:47:17Z</time>
      </trkpt>
      <trkpt lat="48.93496" lon="1.81912">
        <ele>122.705</ele>
        <time>2016-06-10T14:47:24Z</time>
      </trkpt>
      <trkpt lat="48.93506" lon="1.81899">
        <ele>123.186</ele>
        <time>2016-06-10T14:47:34Z</time>
      </trkpt>
      <trkpt lat="48.93508" lon="1.81893">
        <ele>124.147</ele>
        <time>2016-06-10T14:47:38Z</time>
      </trkpt>
      <trkpt lat="48.93512" lon="1.81886">
        <ele>124.147</ele>
        <time>2016-06-10T14:47:43Z</time>
      </trkpt>
      <trkpt lat="48.93524" lon="1.81872">
        <ele>123.186</ele>
        <time>2016-06-10T14:47:55Z</time>
      </trkpt>
      <trkpt lat="48.93534" lon="1.81861">
        <ele>123.186</ele>
        <time>2016-06-10T14:48:04Z</time>
      </trkpt>
      <trkpt lat="48.93542" lon="1.81851">
        <ele>125.589</ele>
        <time>2016-06-10T14:48:11Z</time>
      </trkpt>
      <trkpt lat="48.93543" lon="1.81852">
        <ele>126.07</ele>
        <time>2016-06-10T14:48:18Z</time>
      </trkpt>
      <trkpt lat="48.93548" lon="1.81848">
        <ele>127.512</ele>
        <time>2016-06-10T14:48:36Z</time>
      </trkpt>
      <trkpt lat="48.93556" lon="1.81841">
        <ele>126.551</ele>
        <time>2016-06-10T14:48:43Z</time>
      </trkpt>
      <trkpt lat="48.93564" lon="1.81835">
        <ele>126.07</ele>
        <time>2016-06-10T14:48:50Z</time>
      </trkpt>
      <trkpt lat="48.93566" lon="1.81835">
        <ele>126.07</ele>
        <time>2016-06-10T14:48:57Z</time>
      </trkpt>
      <trkpt lat="48.93572" lon="1.81835">
        <ele>126.551</ele>
        <time>2016-06-10T14:49:46Z</time>
      </trkpt>
      <trkpt lat="48.93582" lon="1.81837">
        <ele>125.589</ele>
        <time>2016-06-10T14:49:54Z</time>
      </trkpt>
      <trkpt lat="48.9359" lon="1.81838">
        <ele>123.186</ele>
        <time>2016-06-10T14:50:02Z</time>
      </trkpt>
      <trkpt lat="48.93596" lon="1.81837">
        <ele>125.589</ele>
        <time>2016-06-10T14:50:13Z</time>
      </trkpt>
      <trkpt lat="48.93608" lon="1.8183">
        <ele>128.954</ele>
        <time>2016-06-10T14:50:21Z</time>
      </trkpt>
      <trkpt lat="48.93618" lon="1.81821">
        <ele>131.838</ele>
        <time>2016-06-10T14:50:29Z</time>
      </trkpt>
      <trkpt lat="48.9362" lon="1.8182">
        <ele>132.319</ele>
        <time>2016-06-10T14:50:31Z</time>
      </trkpt>
      <trkpt lat="48.93631" lon="1.81811">
        <ele>131.838</ele>
        <time>2016-06-10T14:50:40Z</time>
      </trkpt>
      <trkpt lat="48.93636" lon="1.81807">
        <ele>131.838</ele>
        <time>2016-06-10T14:50:45Z</time>
      </trkpt>
      <trkpt lat="48.93645" lon="1.81802">
        <ele>127.031</ele>
        <time>2016-06-10T14:50:52Z</time>
      </trkpt>
      <trkpt lat="48.93651" lon="1.81795">
        <ele>126.551</ele>
        <time>2016-06-10T14:50:58Z</time>
      </trkpt>
      <trkpt lat="48.93659" lon="1.81787">
        <ele>128.473</ele>
        <time>2016-06-10T14:51:04Z</time>
      </trkpt>
      <trkpt lat="48.9366" lon="1.81786">
        <ele>127.993</ele>
        <time>2016-06-10T14:51:05Z</time>
      </trkpt>
      <trkpt lat="48.93669" lon="1.81775">
        <ele>127.512</ele>
        <time>2016-06-10T14:51:13Z</time>
      </trkpt>
      <trkpt lat="48.93673" lon="1.8177">
        <ele>131.838</ele>
        <time>2016-06-10T14:51:20Z</time>
      </trkpt>
      <trkpt lat="48.93678" lon="1.81765">
        <ele>137.606</ele>
        <time>2016-06-10T14:51:31Z</time>
      </trkpt>
      <trkpt lat="48.93679" lon="1.81763">
        <ele>137.606</ele>
        <time>2016-06-10T14:51:32Z</time>
      </trkpt>
      <trkpt lat="48.93686" lon="1.81759">
        <ele>135.203</ele>
        <time>2016-06-10T14:51:37Z</time>
      </trkpt>
      <trkpt lat="48.93695" lon="1.81752">
        <ele>139.048</ele>
        <time>2016-06-10T14:51:44Z</time>
      </trkpt>
      <trkpt lat="48.93703" lon="1.81739">
        <ele>139.048</ele>
        <time>2016-06-10T14:51:51Z</time>
      </trkpt>
      <trkpt lat="48.93707" lon="1.81736">
        <ele>141.451</ele>
        <time>2016-06-10T14:51:55Z</time>
      </trkpt>
      <trkpt lat="48.93711" lon="1.81732">
        <ele>139.048</ele>
        <time>2016-06-10T14:51:58Z</time>
      </trkpt>
      <trkpt lat="48.93717" lon="1.81721">
        <ele>133.76</ele>
        <time>2016-06-10T14:52:05Z</time>
      </trkpt>
      <trkpt lat="48.93721" lon="1.81719">
        <ele>134.241</ele>
        <time>2016-06-10T14:52:08Z</time>
      </trkpt>
      <trkpt lat="48.93731" lon="1.81709">
        <ele>134.241</ele>
        <time>2016-06-10T14:52:17Z</time>
      </trkpt>
      <trkpt lat="48.93735" lon="1.81707">
        <ele>133.28</ele>
        <time>2016-06-10T14:52:21Z</time>
      </trkpt>
      <trkpt lat="48.93742" lon="1.81695">
        <ele>127.512</ele>
        <time>2016-06-10T14:52:30Z</time>
      </trkpt>
      <trkpt lat="48.93751" lon="1.81685">
        <ele>126.551</ele>
        <time>2016-06-10T14:52:37Z</time>
      </trkpt>
      <trkpt lat="48.93759" lon="1.81679">
        <ele>124.147</ele>
        <time>2016-06-10T14:52:45Z</time>
      </trkpt>
      <trkpt lat="48.9377" lon="1.81672">
        <ele>124.147</ele>
        <time>2016-06-10T14:52:53Z</time>
      </trkpt>
      <trkpt lat="48.93773" lon="1.81672">
        <ele>126.07</ele>
        <time>2016-06-10T14:52:57Z</time>
      </trkpt>
      <trkpt lat="48.93777" lon="1.81667">
        <ele>126.551</ele>
        <time>2016-06-10T14:53:01Z</time>
      </trkpt>
      <trkpt lat="48.93788" lon="1.8166">
        <ele>127.512</ele>
        <time>2016-06-10T14:53:09Z</time>
      </trkpt>
      <trkpt lat="48.93798" lon="1.81661">
        <ele>127.512</ele>
        <time>2016-06-10T14:53:16Z</time>
      </trkpt>
      <trkpt lat="48.93808" lon="1.81665">
        <ele>127.031</ele>
        <time>2016-06-10T14:53:23Z</time>
      </trkpt>
      <trkpt lat="48.93811" lon="1.81668">
        <ele>126.551</ele>
        <time>2016-06-10T14:53:29Z</time>
      </trkpt>
      <trkpt lat="48.93813" lon="1.81669">
        <ele>126.551</ele>
        <time>2016-06-10T14:53:35Z</time>
      </trkpt>
      <trkpt lat="48.93819" lon="1.8167">
        <ele>126.07</ele>
        <time>2016-06-10T14:53:40Z</time>
      </trkpt>
      <trkpt lat="48.93829" lon="1.81673">
        <ele>126.07</ele>
        <time>2016-06-10T14:53:48Z</time>
      </trkpt>
      <trkpt lat="48.93839" lon="1.81665">
        <ele>125.589</ele>
        <time>2016-06-10T14:53:56Z</time>
      </trkpt>
      <trkpt lat="48.93846" lon="1.81656">
        <ele>125.109</ele>
        <time>2016-06-10T14:54:03Z</time>
      </trkpt>
      <trkpt lat="48.93852" lon="1.81644">
        <ele>123.186</ele>
        <time>2016-06-10T14:54:10Z</time>
      </trkpt>
      <trkpt lat="48.93861" lon="1.81631">
        <ele>122.225</ele>
        <time>2016-06-10T14:54:18Z</time>
      </trkpt>
      <trkpt lat="48.93866" lon="1.8162">
        <ele>122.225</ele>
        <time>2016-06-10T14:54:24Z</time>
      </trkpt>
      <trkpt lat="48.93871" lon="1.81615">
        <ele>122.705</ele>
        <time>2016-06-10T14:54:28Z</time>
      </trkpt>
      <trkpt lat="48.9388" lon="1.81599">
        <ele>122.705</ele>
        <time>2016-06-10T14:54:37Z</time>
      </trkpt>
      <trkpt lat="48.93889" lon="1.8158">
        <ele>123.186</ele>
        <time>2016-06-10T14:54:47Z</time>
      </trkpt>
      <trkpt lat="48.93898" lon="1.81559">
        <ele>124.147</ele>
        <time>2016-06-10T14:54:58Z</time>
      </trkpt>
      <trkpt lat="48.93904" lon="1.81547">
        <ele>124.147</ele>
        <time>2016-06-10T14:55:05Z</time>
      </trkpt>
      <trkpt lat="48.93909" lon="1.81534">
        <ele>124.147</ele>
        <time>2016-06-10T14:55:12Z</time>
      </trkpt>
      <trkpt lat="48.93918" lon="1.81517">
        <ele>124.628</ele>
        <time>2016-06-10T14:55:22Z</time>
      </trkpt>
      <trkpt lat="48.93921" lon="1.81511">
        <ele>125.109</ele>
        <time>2016-06-10T14:55:34Z</time>
      </trkpt>
      <trkpt lat="48.9393" lon="1.81496">
        <ele>124.147</ele>
        <time>2016-06-10T14:55:44Z</time>
      </trkpt>
      <trkpt lat="48.93939" lon="1.81482">
        <ele>123.667</ele>
        <time>2016-06-10T14:55:54Z</time>
      </trkpt>
      <trkpt lat="48.93946" lon="1.8147">
        <ele>122.705</ele>
        <time>2016-06-10T14:56:02Z</time>
      </trkpt>
      <trkpt lat="48.93953" lon="1.81464">
        <ele>122.225</ele>
        <time>2016-06-10T14:56:08Z</time>
      </trkpt>
      <trkpt lat="48.93962" lon="1.81443">
        <ele>123.186</ele>
        <time>2016-06-10T14:56:18Z</time>
      </trkpt>
      <trkpt lat="48.93973" lon="1.81424">
        <ele>122.225</ele>
        <time>2016-06-10T14:56:29Z</time>
      </trkpt>
      <trkpt lat="48.93983" lon="1.81404">
        <ele>121.744</ele>
        <time>2016-06-10T14:56:40Z</time>
      </trkpt>
      <trkpt lat="48.93991" lon="1.8138">
        <ele>120.783</ele>
        <time>2016-06-10T14:56:51Z</time>
      </trkpt>
      <trkpt lat="48.93997" lon="1.81348">
        <ele>120.302</ele>
        <time>2016-06-10T14:57:03Z</time>
      </trkpt>
      <trkpt lat="48.93998" lon="1.81328">
        <ele>120.783</ele>
        <time>2016-06-10T14:57:11Z</time>
      </trkpt>
      <trkpt lat="48.94002" lon="1.81308">
        <ele>120.302</ele>
        <time>2016-06-10T14:57:20Z</time>
      </trkpt>
      <trkpt lat="48.94008" lon="1.8129">
        <ele>119.341</ele>
        <time>2016-06-10T14:57:29Z</time>
      </trkpt>
      <trkpt lat="48.94014" lon="1.81271">
        <ele>118.379</ele>
        <time>2016-06-10T14:57:38Z</time>
      </trkpt>
      <trkpt lat="48.94026" lon="1.81253">
        <ele>117.418</ele>
        <time>2016-06-10T14:57:49Z</time>
      </trkpt>
      <trkpt lat="48.94036" lon="1.81239">
        <ele>115.976</ele>
        <time>2016-06-10T14:57:58Z</time>
      </trkpt>
      <trkpt lat="48.94047" lon="1.81223">
        <ele>114.534</ele>
        <time>2016-06-10T14:58:08Z</time>
      </trkpt>
      <trkpt lat="48.94061" lon="1.81204">
        <ele>113.092</ele>
        <time>2016-06-10T14:58:19Z</time>
      </trkpt>
      <trkpt lat="48.94066" lon="1.81198">
        <ele>112.612</ele>
        <time>2016-06-10T14:58:23Z</time>
      </trkpt>
      <trkpt lat="48.94066" lon="1.81198">
        <ele>112.612</ele>
        <time>2016-06-10T14:58:23Z</time>
      </trkpt>
      <trkpt lat="48.94075" lon="1.81184">
        <ele>112.612</ele>
        <time>2016-06-10T14:58:30Z</time>
      </trkpt>
      <trkpt lat="48.94087" lon="1.81169">
        <ele>111.65</ele>
        <time>2016-06-10T14:58:39Z</time>
      </trkpt>
      <trkpt lat="48.94098" lon="1.81157">
        <ele>111.17</ele>
        <time>2016-06-10T14:58:47Z</time>
      </trkpt>
      <trkpt lat="48.94111" lon="1.81145">
        <ele>110.208</ele>
        <time>2016-06-10T14:58:56Z</time>
      </trkpt>
      <trkpt lat="48.94121" lon="1.81133">
        <ele>109.247</ele>
        <time>2016-06-10T14:59:04Z</time>
      </trkpt>
      <trkpt lat="48.94131" lon="1.81118">
        <ele>109.247</ele>
        <time>2016-06-10T14:59:13Z</time>
      </trkpt>
      <trkpt lat="48.94138" lon="1.81103">
        <ele>110.208</ele>
        <time>2016-06-10T14:59:21Z</time>
      </trkpt>
      <trkpt lat="48.94151" lon="1.81084">
        <ele>109.247</ele>
        <time>2016-06-10T14:59:31Z</time>
      </trkpt>
      <trkpt lat="48.9416" lon="1.81069">
        <ele>107.805</ele>
        <time>2016-06-10T14:59:39Z</time>
      </trkpt>
      <trkpt lat="48.94167" lon="1.81056">
        <ele>107.324</ele>
        <time>2016-06-10T14:59:45Z</time>
      </trkpt>
      <trkpt lat="48.94172" lon="1.81037">
        <ele>107.324</ele>
        <time>2016-06-10T14:59:53Z</time>
      </trkpt>
      <trkpt lat="48.94177" lon="1.81016">
        <ele>106.844</ele>
        <time>2016-06-10T15:00:02Z</time>
      </trkpt>
      <trkpt lat="48.94183" lon="1.80998">
        <ele>105.402</ele>
        <time>2016-06-10T15:00:11Z</time>
      </trkpt>
      <trkpt lat="48.9419" lon="1.80982">
        <ele>104.44</ele>
        <time>2016-06-10T15:00:20Z</time>
      </trkpt>
      <trkpt lat="48.94197" lon="1.80966">
        <ele>103.479</ele>
        <time>2016-06-10T15:00:29Z</time>
      </trkpt>
      <trkpt lat="48.94205" lon="1.80944">
        <ele>105.402</ele>
        <time>2016-06-10T15:00:39Z</time>
      </trkpt>
      <trkpt lat="48.94214" lon="1.80928">
        <ele>103.96</ele>
        <time>2016-06-10T15:00:49Z</time>
      </trkpt>
      <trkpt lat="48.94222" lon="1.80912">
        <ele>103.96</ele>
        <time>2016-06-10T15:00:59Z</time>
      </trkpt>
      <trkpt lat="48.94222" lon="1.80907">
        <ele>106.363</ele>
        <time>2016-06-10T15:01:05Z</time>
      </trkpt>
      <trkpt lat="48.94224" lon="1.80899">
        <ele>109.247</ele>
        <time>2016-06-10T15:01:13Z</time>
      </trkpt>
      <trkpt lat="48.94231" lon="1.80884">
        <ele>108.766</ele>
        <time>2016-06-10T15:01:21Z</time>
      </trkpt>
      <trkpt lat="48.94235" lon="1.80872">
        <ele>109.247</ele>
        <time>2016-06-10T15:01:27Z</time>
      </trkpt>
      <trkpt lat="48.94241" lon="1.80854">
        <ele>108.286</ele>
        <time>2016-06-10T15:01:36Z</time>
      </trkpt>
      <trkpt lat="48.94247" lon="1.80835">
        <ele>107.805</ele>
        <time>2016-06-10T15:01:45Z</time>
      </trkpt>
      <trkpt lat="48.94254" lon="1.80815">
        <ele>109.247</ele>
        <time>2016-06-10T15:01:55Z</time>
      </trkpt>
      <trkpt lat="48.94262" lon="1.80796">
        <ele>110.208</ele>
        <time>2016-06-10T15:02:05Z</time>
      </trkpt>
      <trkpt lat="48.94269" lon="1.80781">
        <ele>110.689</ele>
        <time>2016-06-10T15:02:14Z</time>
      </trkpt>
      <trkpt lat="48.94277" lon="1.80763">
        <ele>111.65</ele>
        <time>2016-06-10T15:02:24Z</time>
      </trkpt>
      <trkpt lat="48.94287" lon="1.80751">
        <ele>113.092</ele>
        <time>2016-06-10T15:02:33Z</time>
      </trkpt>
      <trkpt lat="48.94297" lon="1.80754">
        <ele>113.573</ele>
        <time>2016-06-10T15:02:40Z</time>
      </trkpt>
      <trkpt lat="48.94314" lon="1.80771">
        <ele>114.054</ele>
        <time>2016-06-10T15:02:53Z</time>
      </trkpt>
      <trkpt lat="48.94328" lon="1.80785">
        <ele>114.534</ele>
        <time>2016-06-10T15:03:03Z</time>
      </trkpt>
      <trkpt lat="48.94337" lon="1.80794">
        <ele>115.015</ele>
        <time>2016-06-10T15:03:12Z</time>
      </trkpt>
      <trkpt lat="48.94349" lon="1.80804">
        <ele>115.496</ele>
        <time>2016-06-10T15:03:21Z</time>
      </trkpt>
      <trkpt lat="48.94365" lon="1.80813">
        <ele>115.496</ele>
        <time>2016-06-10T15:03:32Z</time>
      </trkpt>
      <trkpt lat="48.94378" lon="1.8082">
        <ele>115.976</ele>
        <time>2016-06-10T15:03:42Z</time>
      </trkpt>
      <trkpt lat="48.94387" lon="1.8081">
        <ele>116.457</ele>
        <time>2016-06-10T15:03:49Z</time>
      </trkpt>
      <trkpt lat="48.94394" lon="1.80795">
        <ele>117.418</ele>
        <time>2016-06-10T15:03:57Z</time>
      </trkpt>
      <trkpt lat="48.94401" lon="1.80779">
        <ele>119.341</ele>
        <time>2016-06-10T15:04:06Z</time>
      </trkpt>
      <trkpt lat="48.94406" lon="1.80759">
        <ele>120.783</ele>
        <time>2016-06-10T15:04:16Z</time>
      </trkpt>
      <trkpt lat="48.9441" lon="1.80747">
        <ele>121.264</ele>
        <time>2016-06-10T15:04:23Z</time>
      </trkpt>
      <trkpt lat="48.94416" lon="1.80732">
        <ele>123.186</ele>
        <time>2016-06-10T15:04:31Z</time>
      </trkpt>
      <trkpt lat="48.9442" lon="1.80719">
        <ele>125.109</ele>
        <time>2016-06-10T15:04:38Z</time>
      </trkpt>
      <trkpt lat="48.94428" lon="1.807">
        <ele>125.589</ele>
        <time>2016-06-10T15:04:44Z</time>
      </trkpt>
      <trkpt lat="48.94447" lon="1.80656">
        <ele>124.628</ele>
        <time>2016-06-10T15:04:54Z</time>
      </trkpt>
      <trkpt lat="48.94462" lon="1.80625">
        <ele>123.186</ele>
        <time>2016-06-10T15:05:01Z</time>
      </trkpt>
      <trkpt lat="48.94476" lon="1.80599">
        <ele>124.147</ele>
        <time>2016-06-10T15:05:07Z</time>
      </trkpt>
      <trkpt lat="48.94489" lon="1.80583">
        <ele>125.109</ele>
        <time>2016-06-10T15:05:12Z</time>
      </trkpt>
      <trkpt lat="48.94509" lon="1.80553">
        <ele>126.07</ele>
        <time>2016-06-10T15:05:20Z</time>
      </trkpt>
      <trkpt lat="48.94534" lon="1.80515">
        <ele>127.031</ele>
        <time>2016-06-10T15:05:29Z</time>
      </trkpt>
      <trkpt lat="48.9455" lon="1.80489">
        <ele>127.512</ele>
        <time>2016-06-10T15:05:35Z</time>
      </trkpt>
      <trkpt lat="48.9457" lon="1.80455">
        <ele>128.954</ele>
        <time>2016-06-10T15:05:43Z</time>
      </trkpt>
      <trkpt lat="48.94578" lon="1.80426">
        <ele>131.357</ele>
        <time>2016-06-10T15:05:49Z</time>
      </trkpt>
      <trkpt lat="48.94588" lon="1.80396">
        <ele>132.319</ele>
        <time>2016-06-10T15:05:56Z</time>
      </trkpt>
      <trkpt lat="48.94599" lon="1.80356">
        <ele>131.838</ele>
        <time>2016-06-10T15:06:04Z</time>
      </trkpt>
      <trkpt lat="48.94605" lon="1.8033">
        <ele>132.799</ele>
        <time>2016-06-10T15:06:09Z</time>
      </trkpt>
      <trkpt lat="48.94613" lon="1.80298">
        <ele>133.28</ele>
        <time>2016-06-10T15:06:15Z</time>
      </trkpt>
      <trkpt lat="48.94613" lon="1.80298">
        <ele>133.28</ele>
        <time>2016-06-10T15:06:15Z</time>
      </trkpt>
      <trkpt lat="48.94615" lon="1.80287">
        <ele>133.76</ele>
        <time>2016-06-10T15:06:17Z</time>
      </trkpt>
      <trkpt lat="48.94622" lon="1.8026">
        <ele>134.722</ele>
        <time>2016-06-10T15:06:22Z</time>
      </trkpt>
      <trkpt lat="48.94628" lon="1.80239">
        <ele>135.683</ele>
        <time>2016-06-10T15:06:27Z</time>
      </trkpt>
      <trkpt lat="48.94637" lon="1.80196">
        <ele>136.645</ele>
        <time>2016-06-10T15:06:35Z</time>
      </trkpt>
      <trkpt lat="48.94645" lon="1.80163">
        <ele>136.645</ele>
        <time>2016-06-10T15:06:42Z</time>
      </trkpt>
      <trkpt lat="48.94652" lon="1.80133">
        <ele>137.606</ele>
        <time>2016-06-10T15:06:48Z</time>
      </trkpt>
      <trkpt lat="48.94655" lon="1.80107">
        <ele>138.567</ele>
        <time>2016-06-10T15:06:53Z</time>
      </trkpt>
      <trkpt lat="48.94659" lon="1.80079">
        <ele>139.048</ele>
        <time>2016-06-10T15:06:59Z</time>
      </trkpt>
      <trkpt lat="48.94665" lon="1.80058">
        <ele>140.009</ele>
        <time>2016-06-10T15:07:05Z</time>
      </trkpt>
      <trkpt lat="48.94668" lon="1.8004">
        <ele>140.49</ele>
        <time>2016-06-10T15:07:13Z</time>
      </trkpt>
      <trkpt lat="48.94667" lon="1.80034">
        <ele>140.009</ele>
        <time>2016-06-10T15:07:19Z</time>
      </trkpt>
      <trkpt lat="48.94671" lon="1.80021">
        <ele>137.606</ele>
        <time>2016-06-10T15:07:25Z</time>
      </trkpt>
      <trkpt lat="48.94675" lon="1.80005">
        <ele>135.683</ele>
        <time>2016-06-10T15:07:32Z</time>
      </trkpt>
      <trkpt lat="48.94676" lon="1.80003">
        <ele>135.203</ele>
        <time>2016-06-10T15:07:33Z</time>
      </trkpt>
      <trkpt lat="48.94682" lon="1.7999">
        <ele>134.722</ele>
        <time>2016-06-10T15:07:41Z</time>
      </trkpt>
      <trkpt lat="48.94685" lon="1.79971">
        <ele>134.722</ele>
        <time>2016-06-10T15:07:50Z</time>
      </trkpt>
      <trkpt lat="48.94688" lon="1.79955">
        <ele>134.241</ele>
        <time>2016-06-10T15:07:58Z</time>
      </trkpt>
      <trkpt lat="48.94685" lon="1.79939">
        <ele>133.76</ele>
        <time>2016-06-10T15:08:05Z</time>
      </trkpt>
      <trkpt lat="48.94687" lon="1.79928">
        <ele>132.799</ele>
        <time>2016-06-10T15:08:10Z</time>
      </trkpt>
      <trkpt lat="48.94689" lon="1.79919">
        <ele>131.838</ele>
        <time>2016-06-10T15:08:16Z</time>
      </trkpt>
      <trkpt lat="48.94689" lon="1.79917">
        <ele>132.319</ele>
        <time>2016-06-10T15:08:17Z</time>
      </trkpt>
      <trkpt lat="48.94688" lon="1.79909">
        <ele>133.76</ele>
        <time>2016-06-10T15:08:25Z</time>
      </trkpt>
      <trkpt lat="48.94689" lon="1.799">
        <ele>132.319</ele>
        <time>2016-06-10T15:08:29Z</time>
      </trkpt>
      <trkpt lat="48.94692" lon="1.7989">
        <ele>130.396</ele>
        <time>2016-06-10T15:08:34Z</time>
      </trkpt>
      <trkpt lat="48.94698" lon="1.79874">
        <ele>127.993</ele>
        <time>2016-06-10T15:08:42Z</time>
      </trkpt>
      <trkpt lat="48.94698" lon="1.79872">
        <ele>127.512</ele>
        <time>2016-06-10T15:08:43Z</time>
      </trkpt>
      <trkpt lat="48.94701" lon="1.79865">
        <ele>127.512</ele>
        <time>2016-06-10T15:08:47Z</time>
      </trkpt>
      <trkpt lat="48.9471" lon="1.79854">
        <ele>130.877</ele>
        <time>2016-06-10T15:08:55Z</time>
      </trkpt>
      <trkpt lat="48.94724" lon="1.79849">
        <ele>132.799</ele>
        <time>2016-06-10T15:09:04Z</time>
      </trkpt>
      <trkpt lat="48.94739" lon="1.79845">
        <ele>131.357</ele>
        <time>2016-06-10T15:09:13Z</time>
      </trkpt>
      <trkpt lat="48.94749" lon="1.79839">
        <ele>131.838</ele>
        <time>2016-06-10T15:09:21Z</time>
      </trkpt>
      <trkpt lat="48.9475" lon="1.79838">
        <ele>131.838</ele>
        <time>2016-06-10T15:09:25Z</time>
      </trkpt>
      <trkpt lat="48.94755" lon="1.79825">
        <ele>130.396</ele>
        <time>2016-06-10T15:09:33Z</time>
      </trkpt>
      <trkpt lat="48.94754" lon="1.79808">
        <ele>129.435</ele>
        <time>2016-06-10T15:09:41Z</time>
      </trkpt>
      <trkpt lat="48.94755" lon="1.79791">
        <ele>128.954</ele>
        <time>2016-06-10T15:09:48Z</time>
      </trkpt>
      <trkpt lat="48.94753" lon="1.79772">
        <ele>129.915</ele>
        <time>2016-06-10T15:09:56Z</time>
      </trkpt>
      <trkpt lat="48.94752" lon="1.79758">
        <ele>129.915</ele>
        <time>2016-06-10T15:10:03Z</time>
      </trkpt>
      <trkpt lat="48.94751" lon="1.79749">
        <ele>129.915</ele>
        <time>2016-06-10T15:10:09Z</time>
      </trkpt>
      <trkpt lat="48.94749" lon="1.79724">
        <ele>128.954</ele>
        <time>2016-06-10T15:10:20Z</time>
      </trkpt>
      <trkpt lat="48.94747" lon="1.79711">
        <ele>127.993</ele>
        <time>2016-06-10T15:10:26Z</time>
      </trkpt>
      <trkpt lat="48.94746" lon="1.797">
        <ele>127.512</ele>
        <time>2016-06-10T15:10:34Z</time>
      </trkpt>
      <trkpt lat="48.94745" lon="1.79691">
        <ele>127.512</ele>
        <time>2016-06-10T15:10:41Z</time>
      </trkpt>
      <trkpt lat="48.94744" lon="1.79671">
        <ele>127.031</ele>
        <time>2016-06-10T15:10:51Z</time>
      </trkpt>
      <trkpt lat="48.94742" lon="1.79647">
        <ele>127.031</ele>
        <time>2016-06-10T15:11:03Z</time>
      </trkpt>
      <trkpt lat="48.94741" lon="1.79627">
        <ele>127.993</ele>
        <time>2016-06-10T15:11:13Z</time>
      </trkpt>
      <trkpt lat="48.94739" lon="1.7961">
        <ele>127.512</ele>
        <time>2016-06-10T15:11:22Z</time>
      </trkpt>
      <trkpt lat="48.94736" lon="1.79588">
        <ele>127.993</ele>
        <time>2016-06-10T15:11:33Z</time>
      </trkpt>
      <trkpt lat="48.94733" lon="1.79569">
        <ele>127.031</ele>
        <time>2016-06-10T15:11:43Z</time>
      </trkpt>
      <trkpt lat="48.94731" lon="1.79552">
        <ele>128.473</ele>
        <time>2016-06-10T15:11:51Z</time>
      </trkpt>
      <trkpt lat="48.94729" lon="1.79531">
        <ele>127.512</ele>
        <time>2016-06-10T15:12:01Z</time>
      </trkpt>
      <trkpt lat="48.94727" lon="1.79513">
        <ele>127.031</ele>
        <time>2016-06-10T15:12:09Z</time>
      </trkpt>
      <trkpt lat="48.94725" lon="1.79486">
        <ele>127.031</ele>
        <time>2016-06-10T15:12:21Z</time>
      </trkpt>
      <trkpt lat="48.94724" lon="1.79462">
        <ele>125.109</ele>
        <time>2016-06-10T15:12:32Z</time>
      </trkpt>
      <trkpt lat="48.94722" lon="1.79443">
        <ele>123.186</ele>
        <time>2016-06-10T15:12:41Z</time>
      </trkpt>
      <trkpt lat="48.94721" lon="1.79427">
        <ele>122.225</ele>
        <time>2016-06-10T15:12:49Z</time>
      </trkpt>
      <trkpt lat="48.94721" lon="1.79421">
        <ele>121.744</ele>
        <time>2016-06-10T15:12:56Z</time>
      </trkpt>
      <trkpt lat="48.94723" lon="1.79402">
        <ele>122.225</ele>
        <time>2016-06-10T15:13:03Z</time>
      </trkpt>
      <trkpt lat="48.94719" lon="1.79387">
        <ele>121.264</ele>
        <time>2016-06-10T15:13:10Z</time>
      </trkpt>
      <trkpt lat="48.94716" lon="1.79366">
        <ele>119.821</ele>
        <time>2016-06-10T15:13:20Z</time>
      </trkpt>
      <trkpt lat="48.94713" lon="1.79338">
        <ele>120.783</ele>
        <time>2016-06-10T15:13:32Z</time>
      </trkpt>
      <trkpt lat="48.94711" lon="1.79319">
        <ele>123.186</ele>
        <time>2016-06-10T15:13:40Z</time>
      </trkpt>
      <trkpt lat="48.94715" lon="1.79304">
        <ele>122.705</ele>
        <time>2016-06-10T15:13:48Z</time>
      </trkpt>
      <trkpt lat="48.94713" lon="1.79284">
        <ele>123.186</ele>
        <time>2016-06-10T15:13:57Z</time>
      </trkpt>
      <trkpt lat="48.94711" lon="1.79269">
        <ele>122.225</ele>
        <time>2016-06-10T15:14:04Z</time>
      </trkpt>
      <trkpt lat="48.94713" lon="1.79251">
        <ele>121.264</ele>
        <time>2016-06-10T15:14:12Z</time>
      </trkpt>
      <trkpt lat="48.94716" lon="1.79236">
        <ele>120.783</ele>
        <time>2016-06-10T15:14:19Z</time>
      </trkpt>
      <trkpt lat="48.94718" lon="1.79221">
        <ele>120.302</ele>
        <time>2016-06-10T15:14:26Z</time>
      </trkpt>
      <trkpt lat="48.94718" lon="1.79217">
        <ele>120.302</ele>
        <time>2016-06-10T15:14:28Z</time>
      </trkpt>
      <trkpt lat="48.94721" lon="1.79203">
        <ele>119.821</ele>
        <time>2016-06-10T15:14:35Z</time>
      </trkpt>
      <trkpt lat="48.94719" lon="1.79181">
        <ele>120.783</ele>
        <time>2016-06-10T15:14:44Z</time>
      </trkpt>
      <trkpt lat="48.94719" lon="1.79157">
        <ele>122.705</ele>
        <time>2016-06-10T15:14:54Z</time>
      </trkpt>
      <trkpt lat="48.94719" lon="1.79137">
        <ele>123.667</ele>
        <time>2016-06-10T15:15:03Z</time>
      </trkpt>
      <trkpt lat="48.9472" lon="1.79113">
        <ele>124.147</ele>
        <time>2016-06-10T15:15:14Z</time>
      </trkpt>
      <trkpt lat="48.94718" lon="1.79092">
        <ele>122.705</ele>
        <time>2016-06-10T15:15:24Z</time>
      </trkpt>
      <trkpt lat="48.94718" lon="1.79067">
        <ele>125.109</ele>
        <time>2016-06-10T15:15:34Z</time>
      </trkpt>
      <trkpt lat="48.94716" lon="1.79048">
        <ele>125.589</ele>
        <time>2016-06-10T15:15:43Z</time>
      </trkpt>
      <trkpt lat="48.94715" lon="1.79026">
        <ele>125.589</ele>
        <time>2016-06-10T15:15:52Z</time>
      </trkpt>
      <trkpt lat="48.94717" lon="1.79006">
        <ele>124.628</ele>
        <time>2016-06-10T15:16:02Z</time>
      </trkpt>
      <trkpt lat="48.94719" lon="1.78981">
        <ele>127.031</ele>
        <time>2016-06-10T15:16:13Z</time>
      </trkpt>
      <trkpt lat="48.94718" lon="1.78978">
        <ele>127.031</ele>
        <time>2016-06-10T15:16:18Z</time>
      </trkpt>
      <trkpt lat="48.94717" lon="1.78973">
        <ele>127.512</ele>
        <time>2016-06-10T15:16:24Z</time>
      </trkpt>
      <trkpt lat="48.94716" lon="1.7897">
        <ele>127.512</ele>
        <time>2016-06-10T15:16:26Z</time>
      </trkpt>
      <trkpt lat="48.94718" lon="1.78949">
        <ele>128.954</ele>
        <time>2016-06-10T15:16:36Z</time>
      </trkpt>
      <trkpt lat="48.94719" lon="1.78932">
        <ele>128.473</ele>
        <time>2016-06-10T15:16:44Z</time>
      </trkpt>
      <trkpt lat="48.94719" lon="1.78912">
        <ele>128.473</ele>
        <time>2016-06-10T15:16:53Z</time>
      </trkpt>
      <trkpt lat="48.94721" lon="1.789">
        <ele>128.954</ele>
        <time>2016-06-10T15:16:59Z</time>
      </trkpt>
      <trkpt lat="48.94722" lon="1.78878">
        <ele>129.915</ele>
        <time>2016-06-10T15:17:08Z</time>
      </trkpt>
      <trkpt lat="48.94723" lon="1.78854">
        <ele>130.396</ele>
        <time>2016-06-10T15:17:18Z</time>
      </trkpt>
      <trkpt lat="48.94724" lon="1.78833">
        <ele>129.915</ele>
        <time>2016-06-10T15:17:28Z</time>
      </trkpt>
      <trkpt lat="48.94724" lon="1.78828">
        <ele>129.915</ele>
        <time>2016-06-10T15:17:34Z</time>
      </trkpt>
      <trkpt lat="48.94723" lon="1.78821">
        <ele>129.435</ele>
        <time>2016-06-10T15:17:44Z</time>
      </trkpt>
      <trkpt lat="48.94721" lon="1.78807">
        <ele>129.435</ele>
        <time>2016-06-10T15:17:51Z</time>
      </trkpt>
      <trkpt lat="48.94719" lon="1.788">
        <ele>130.396</ele>
        <time>2016-06-10T15:17:57Z</time>
      </trkpt>
      <trkpt lat="48.94719" lon="1.78791">
        <ele>130.396</ele>
        <time>2016-06-10T15:18:05Z</time>
      </trkpt>
      <trkpt lat="48.94718" lon="1.78772">
        <ele>131.357</ele>
        <time>2016-06-10T15:18:11Z</time>
      </trkpt>
      <trkpt lat="48.94717" lon="1.78724">
        <ele>132.319</ele>
        <time>2016-06-10T15:18:19Z</time>
      </trkpt>
      <trkpt lat="48.94716" lon="1.787">
        <ele>133.28</ele>
        <time>2016-06-10T15:18:25Z</time>
      </trkpt>
      <trkpt lat="48.94716" lon="1.78698">
        <ele>133.76</ele>
        <time>2016-06-10T15:18:29Z</time>
      </trkpt>
      <trkpt lat="48.94714" lon="1.78682">
        <ele>134.241</ele>
        <time>2016-06-10T15:18:33Z</time>
      </trkpt>
      <trkpt lat="48.94711" lon="1.78652">
        <ele>134.722</ele>
        <time>2016-06-10T15:18:38Z</time>
      </trkpt>
      <trkpt lat="48.94707" lon="1.78619">
        <ele>135.203</ele>
        <time>2016-06-10T15:18:45Z</time>
      </trkpt>
      <trkpt lat="48.94701" lon="1.78583">
        <ele>136.164</ele>
        <time>2016-06-10T15:18:52Z</time>
      </trkpt>
      <trkpt lat="48.94695" lon="1.78546">
        <ele>136.164</ele>
        <time>2016-06-10T15:18:57Z</time>
      </trkpt>
      <trkpt lat="48.94686" lon="1.78505">
        <ele>136.645</ele>
        <time>2016-06-10T15:19:03Z</time>
      </trkpt>
      <trkpt lat="48.94678" lon="1.78472">
        <ele>136.164</ele>
        <time>2016-06-10T15:19:09Z</time>
      </trkpt>
      <trkpt lat="48.94676" lon="1.78463">
        <ele>136.164</ele>
        <time>2016-06-10T15:19:14Z</time>
      </trkpt>
      <trkpt lat="48.94671" lon="1.78444">
        <ele>136.164</ele>
        <time>2016-06-10T15:19:23Z</time>
      </trkpt>
      <trkpt lat="48.94667" lon="1.78429">
        <ele>136.645</ele>
        <time>2016-06-10T15:19:29Z</time>
      </trkpt>
      <trkpt lat="48.94659" lon="1.78405">
        <ele>137.125</ele>
        <time>2016-06-10T15:19:38Z</time>
      </trkpt>
      <trkpt lat="48.9465" lon="1.78378">
        <ele>137.125</ele>
        <time>2016-06-10T15:19:47Z</time>
      </trkpt>
      <trkpt lat="48.94644" lon="1.7836">
        <ele>138.087</ele>
        <time>2016-06-10T15:19:53Z</time>
      </trkpt>
      <trkpt lat="48.94639" lon="1.7834">
        <ele>138.567</ele>
        <time>2016-06-10T15:20:02Z</time>
      </trkpt>
      <trkpt lat="48.94634" lon="1.78326">
        <ele>139.528</ele>
        <time>2016-06-10T15:20:09Z</time>
      </trkpt>
      <trkpt lat="48.94631" lon="1.78319">
        <ele>140.49</ele>
        <time>2016-06-10T15:20:16Z</time>
      </trkpt>
      <trkpt lat="48.94627" lon="1.78299">
        <ele>140.97</ele>
        <time>2016-06-10T15:20:24Z</time>
      </trkpt>
      <trkpt lat="48.94613" lon="1.78269">
        <ele>141.932</ele>
        <time>2016-06-10T15:20:31Z</time>
      </trkpt>
      <trkpt lat="48.94602" lon="1.78229">
        <ele>142.412</ele>
        <time>2016-06-10T15:20:38Z</time>
      </trkpt>
      <trkpt lat="48.94596" lon="1.78189">
        <ele>143.374</ele>
        <time>2016-06-10T15:20:45Z</time>
      </trkpt>
      <trkpt lat="48.94597" lon="1.78145">
        <ele>143.854</ele>
        <time>2016-06-10T15:20:52Z</time>
      </trkpt>
      <trkpt lat="48.94601" lon="1.78094">
        <ele>141.932</ele>
        <time>2016-06-10T15:21:01Z</time>
      </trkpt>
      <trkpt lat="48.94605" lon="1.78067">
        <ele>141.451</ele>
        <time>2016-06-10T15:21:06Z</time>
      </trkpt>
      <trkpt lat="48.94609" lon="1.7804">
        <ele>142.412</ele>
        <time>2016-06-10T15:21:12Z</time>
      </trkpt>
      <trkpt lat="48.94614" lon="1.78019">
        <ele>142.412</ele>
        <time>2016-06-10T15:21:17Z</time>
      </trkpt>
      <trkpt lat="48.94619" lon="1.77993">
        <ele>142.893</ele>
        <time>2016-06-10T15:21:23Z</time>
      </trkpt>
      <trkpt lat="48.9462" lon="1.77976">
        <ele>143.374</ele>
        <time>2016-06-10T15:21:29Z</time>
      </trkpt>
      <trkpt lat="48.9462" lon="1.77958">
        <ele>143.854</ele>
        <time>2016-06-10T15:21:36Z</time>
      </trkpt>
      <trkpt lat="48.9462" lon="1.77934">
        <ele>144.335</ele>
        <time>2016-06-10T15:21:42Z</time>
      </trkpt>
      <trkpt lat="48.94622" lon="1.77896">
        <ele>144.335</ele>
        <time>2016-06-10T15:21:48Z</time>
      </trkpt>
      <trkpt lat="48.94623" lon="1.77871">
        <ele>143.854</ele>
        <time>2016-06-10T15:21:52Z</time>
      </trkpt>
      <trkpt lat="48.94625" lon="1.77849">
        <ele>144.335</ele>
        <time>2016-06-10T15:21:57Z</time>
      </trkpt>
      <trkpt lat="48.94626" lon="1.77841">
        <ele>144.335</ele>
        <time>2016-06-10T15:22:02Z</time>
      </trkpt>
      <trkpt lat="48.94626" lon="1.77844">
        <ele>143.374</ele>
        <time>2016-06-10T15:22:25Z</time>
      </trkpt>
      <trkpt lat="48.94626" lon="1.77846">
        <ele>143.374</ele>
        <time>2016-06-10T15:22:28Z</time>
      </trkpt>
      <trkpt lat="48.94618" lon="1.77836">
        <ele>142.893</ele>
        <time>2016-06-10T15:22:34Z</time>
      </trkpt>
      <trkpt lat="48.94614" lon="1.77814">
        <ele>142.893</ele>
        <time>2016-06-10T15:22:43Z</time>
      </trkpt>
      <trkpt lat="48.94609" lon="1.77792">
        <ele>142.893</ele>
        <time>2016-06-10T15:22:53Z</time>
      </trkpt>
      <trkpt lat="48.946" lon="1.77772">
        <ele>141.451</ele>
        <time>2016-06-10T15:23:03Z</time>
      </trkpt>
      <trkpt lat="48.9459" lon="1.77758">
        <ele>140.49</ele>
        <time>2016-06-10T15:23:13Z</time>
      </trkpt>
      <trkpt lat="48.94587" lon="1.77754">
        <ele>140.49</ele>
        <time>2016-06-10T15:23:17Z</time>
      </trkpt>
      <trkpt lat="48.94585" lon="1.77749">
        <ele>140.97</ele>
        <time>2016-06-10T15:23:23Z</time>
      </trkpt>
      <trkpt lat="48.94585" lon="1.77747">
        <ele>140.97</ele>
        <time>2016-06-10T15:23:25Z</time>
      </trkpt>
      <trkpt lat="48.94582" lon="1.7774">
        <ele>140.97</ele>
        <time>2016-06-10T15:23:29Z</time>
      </trkpt>
      <trkpt lat="48.94581" lon="1.77739">
        <ele>140.009</ele>
        <time>2016-06-10T15:23:30Z</time>
      </trkpt>
      <trkpt lat="48.94581" lon="1.77739">
        <ele>140.009</ele>
        <time>2016-06-10T15:23:30Z</time>
      </trkpt>
      <trkpt lat="48.94576" lon="1.77733">
        <ele>140.009</ele>
        <time>2016-06-10T15:23:36Z</time>
      </trkpt>
      <trkpt lat="48.94572" lon="1.77725">
        <ele>139.048</ele>
        <time>2016-06-10T15:23:42Z</time>
      </trkpt>
      <trkpt lat="48.9456" lon="1.77719">
        <ele>140.97</ele>
        <time>2016-06-10T15:23:51Z</time>
      </trkpt>
      <trkpt lat="48.94552" lon="1.77712">
        <ele>140.49</ele>
        <time>2016-06-10T15:23:57Z</time>
      </trkpt>
      <trkpt lat="48.94541" lon="1.77704">
        <ele>141.451</ele>
        <time>2016-06-10T15:24:04Z</time>
      </trkpt>
      <trkpt lat="48.9453" lon="1.77695">
        <ele>143.374</ele>
        <time>2016-06-10T15:24:10Z</time>
      </trkpt>
      <trkpt lat="48.94518" lon="1.77691">
        <ele>144.335</ele>
        <time>2016-06-10T15:24:17Z</time>
      </trkpt>
      <trkpt lat="48.94512" lon="1.77684">
        <ele>145.296</ele>
        <time>2016-06-10T15:24:22Z</time>
      </trkpt>
      <trkpt lat="48.94511" lon="1.77676">
        <ele>145.296</ele>
        <time>2016-06-10T15:24:26Z</time>
      </trkpt>
      <trkpt lat="48.9451" lon="1.77673">
        <ele>144.335</ele>
        <time>2016-06-10T15:24:28Z</time>
      </trkpt>
      <trkpt lat="48.94505" lon="1.77663">
        <ele>142.412</ele>
        <time>2016-06-10T15:24:34Z</time>
      </trkpt>
      <trkpt lat="48.94504" lon="1.77662">
        <ele>141.932</ele>
        <time>2016-06-10T15:24:35Z</time>
      </trkpt>
      <trkpt lat="48.94496" lon="1.7765">
        <ele>140.97</ele>
        <time>2016-06-10T15:24:42Z</time>
      </trkpt>
      <trkpt lat="48.94495" lon="1.77649">
        <ele>140.49</ele>
        <time>2016-06-10T15:24:43Z</time>
      </trkpt>
      <trkpt lat="48.94494" lon="1.77645">
        <ele>140.009</ele>
        <time>2016-06-10T15:24:46Z</time>
      </trkpt>
      <trkpt lat="48.94492" lon="1.77633">
        <ele>141.451</ele>
        <time>2016-06-10T15:24:52Z</time>
      </trkpt>
      <trkpt lat="48.94499" lon="1.77639">
        <ele>146.738</ele>
        <time>2016-06-10T15:25:08Z</time>
      </trkpt>
      <trkpt lat="48.94502" lon="1.77633">
        <ele>143.854</ele>
        <time>2016-06-10T15:25:26Z</time>
      </trkpt>
      <trkpt lat="48.94498" lon="1.77629">
        <ele>141.932</ele>
        <time>2016-06-10T15:25:29Z</time>
      </trkpt>
      <trkpt lat="48.94496" lon="1.77616">
        <ele>140.49</ele>
        <time>2016-06-10T15:25:36Z</time>
      </trkpt>
      <trkpt lat="48.94496" lon="1.77615">
        <ele>140.49</ele>
        <time>2016-06-10T15:25:37Z</time>
      </trkpt>
      <trkpt lat="48.94495" lon="1.77605">
        <ele>140.97</ele>
        <time>2016-06-10T15:25:42Z</time>
      </trkpt>
      <trkpt lat="48.94494" lon="1.77594">
        <ele>141.932</ele>
        <time>2016-06-10T15:25:46Z</time>
      </trkpt>
      <trkpt lat="48.94492" lon="1.77576">
        <ele>141.932</ele>
        <time>2016-06-10T15:25:54Z</time>
      </trkpt>
      <trkpt lat="48.94493" lon="1.77572">
        <ele>140.97</ele>
        <time>2016-06-10T15:25:58Z</time>
      </trkpt>
      <trkpt lat="48.9449" lon="1.77556">
        <ele>141.451</ele>
        <time>2016-06-10T15:26:06Z</time>
      </trkpt>
      <trkpt lat="48.94489" lon="1.77551">
        <ele>141.932</ele>
        <time>2016-06-10T15:26:08Z</time>
      </trkpt>
      <trkpt lat="48.9449" lon="1.77538">
        <ele>143.374</ele>
        <time>2016-06-10T15:26:15Z</time>
      </trkpt>
      <trkpt lat="48.94487" lon="1.77531">
        <ele>144.335</ele>
        <time>2016-06-10T15:26:19Z</time>
      </trkpt>
      <trkpt lat="48.94482" lon="1.77517">
        <ele>143.374</ele>
        <time>2016-06-10T15:26:26Z</time>
      </trkpt>
      <trkpt lat="48.9448" lon="1.77512">
        <ele>143.374</ele>
        <time>2016-06-10T15:26:28Z</time>
      </trkpt>
      <trkpt lat="48.94478" lon="1.77509">
        <ele>143.854</ele>
        <time>2016-06-10T15:26:30Z</time>
      </trkpt>
      <trkpt lat="48.94473" lon="1.77491">
        <ele>144.816</ele>
        <time>2016-06-10T15:26:37Z</time>
      </trkpt>
      <trkpt lat="48.94472" lon="1.77488">
        <ele>145.296</ele>
        <time>2016-06-10T15:26:38Z</time>
      </trkpt>
      <trkpt lat="48.94468" lon="1.77468">
        <ele>143.374</ele>
        <time>2016-06-10T15:26:47Z</time>
      </trkpt>
      <trkpt lat="48.94467" lon="1.77462">
        <ele>143.854</ele>
        <time>2016-06-10T15:26:53Z</time>
      </trkpt>
      <trkpt lat="48.94467" lon="1.77462">
        <ele>144.335</ele>
        <time>2016-06-10T15:26:54Z</time>
      </trkpt>
      <trkpt lat="48.94465" lon="1.77456">
        <ele>143.374</ele>
        <time>2016-06-10T15:26:57Z</time>
      </trkpt>
      <trkpt lat="48.94462" lon="1.77443">
        <ele>141.932</ele>
        <time>2016-06-10T15:27:04Z</time>
      </trkpt>
      <trkpt lat="48.94458" lon="1.77434">
        <ele>140.009</ele>
        <time>2016-06-10T15:27:09Z</time>
      </trkpt>
      <trkpt lat="48.94457" lon="1.77429">
        <ele>140.009</ele>
        <time>2016-06-10T15:27:11Z</time>
      </trkpt>
      <trkpt lat="48.94453" lon="1.77416">
        <ele>139.048</ele>
        <time>2016-06-10T15:27:19Z</time>
      </trkpt>
      <trkpt lat="48.94446" lon="1.77402">
        <ele>139.528</ele>
        <time>2016-06-10T15:27:27Z</time>
      </trkpt>
      <trkpt lat="48.94439" lon="1.7739">
        <ele>140.97</ele>
        <time>2016-06-10T15:27:34Z</time>
      </trkpt>
      <trkpt lat="48.94433" lon="1.77379">
        <ele>141.451</ele>
        <time>2016-06-10T15:27:41Z</time>
      </trkpt>
      <trkpt lat="48.94431" lon="1.77375">
        <ele>141.451</ele>
        <time>2016-06-10T15:27:43Z</time>
      </trkpt>
      <trkpt lat="48.94426" lon="1.77366">
        <ele>140.49</ele>
        <time>2016-06-10T15:27:48Z</time>
      </trkpt>
      <trkpt lat="48.94422" lon="1.77362">
        <ele>139.048</ele>
        <time>2016-06-10T15:27:51Z</time>
      </trkpt>
      <trkpt lat="48.94415" lon="1.77344">
        <ele>135.683</ele>
        <time>2016-06-10T15:27:59Z</time>
      </trkpt>
      <trkpt lat="48.94414" lon="1.77333">
        <ele>130.877</ele>
        <time>2016-06-10T15:28:05Z</time>
      </trkpt>
      <trkpt lat="48.94413" lon="1.77328">
        <ele>130.396</ele>
        <time>2016-06-10T15:28:08Z</time>
      </trkpt>
      <trkpt lat="48.94404" lon="1.77311">
        <ele>132.319</ele>
        <time>2016-06-10T15:28:17Z</time>
      </trkpt>
      <trkpt lat="48.94402" lon="1.77305">
        <ele>130.396</ele>
        <time>2016-06-10T15:28:21Z</time>
      </trkpt>
      <trkpt lat="48.94397" lon="1.77289">
        <ele>130.877</ele>
        <time>2016-06-10T15:28:28Z</time>
      </trkpt>
      <trkpt lat="48.94388" lon="1.77277">
        <ele>132.799</ele>
        <time>2016-06-10T15:28:35Z</time>
      </trkpt>
      <trkpt lat="48.94383" lon="1.77267">
        <ele>133.28</ele>
        <time>2016-06-10T15:28:40Z</time>
      </trkpt>
      <trkpt lat="48.94377" lon="1.77257">
        <ele>134.241</ele>
        <time>2016-06-10T15:28:47Z</time>
      </trkpt>
      <trkpt lat="48.94376" lon="1.77256">
        <ele>134.241</ele>
        <time>2016-06-10T15:28:48Z</time>
      </trkpt>
      <trkpt lat="48.94373" lon="1.77251">
        <ele>136.164</ele>
        <time>2016-06-10T15:28:57Z</time>
      </trkpt>
      <trkpt lat="48.94372" lon="1.77237">
        <ele>133.28</ele>
        <time>2016-06-10T15:29:05Z</time>
      </trkpt>
      <trkpt lat="48.94369" lon="1.77221">
        <ele>128.954</ele>
        <time>2016-06-10T15:29:13Z</time>
      </trkpt>
      <trkpt lat="48.94365" lon="1.77207">
        <ele>127.993</ele>
        <time>2016-06-10T15:29:20Z</time>
      </trkpt>
      <trkpt lat="48.9436" lon="1.7719">
        <ele>128.954</ele>
        <time>2016-06-10T15:29:27Z</time>
      </trkpt>
      <trkpt lat="48.94348" lon="1.77176">
        <ele>134.241</ele>
        <time>2016-06-10T15:29:36Z</time>
      </trkpt>
      <trkpt lat="48.94345" lon="1.77159">
        <ele>135.683</ele>
        <time>2016-06-10T15:29:43Z</time>
      </trkpt>
      <trkpt lat="48.94342" lon="1.77148">
        <ele>136.164</ele>
        <time>2016-06-10T15:29:48Z</time>
      </trkpt>
      <trkpt lat="48.94339" lon="1.77134">
        <ele>135.683</ele>
        <time>2016-06-10T15:29:54Z</time>
      </trkpt>
      <trkpt lat="48.94339" lon="1.77115">
        <ele>133.28</ele>
        <time>2016-06-10T15:30:01Z</time>
      </trkpt>
      <trkpt lat="48.94337" lon="1.771">
        <ele>132.799</ele>
        <time>2016-06-10T15:30:08Z</time>
      </trkpt>
      <trkpt lat="48.94337" lon="1.77093">
        <ele>133.28</ele>
        <time>2016-06-10T15:30:14Z</time>
      </trkpt>
      <trkpt lat="48.94335" lon="1.77083">
        <ele>132.319</ele>
        <time>2016-06-10T15:30:21Z</time>
      </trkpt>
      <trkpt lat="48.94335" lon="1.77078">
        <ele>132.319</ele>
        <time>2016-06-10T15:30:23Z</time>
      </trkpt>
      <trkpt lat="48.94333" lon="1.77063">
        <ele>130.396</ele>
        <time>2016-06-10T15:30:30Z</time>
      </trkpt>
      <trkpt lat="48.94332" lon="1.77055">
        <ele>129.915</ele>
        <time>2016-06-10T15:30:33Z</time>
      </trkpt>
      <trkpt lat="48.94332" lon="1.7705">
        <ele>127.512</ele>
        <time>2016-06-10T15:30:36Z</time>
      </trkpt>
      <trkpt lat="48.94332" lon="1.7704">
        <ele>127.993</ele>
        <time>2016-06-10T15:30:40Z</time>
      </trkpt>
      <trkpt lat="48.94332" lon="1.77033">
        <ele>127.993</ele>
        <time>2016-06-10T15:30:42Z</time>
      </trkpt>
      <trkpt lat="48.94329" lon="1.77024">
        <ele>128.473</ele>
        <time>2016-06-10T15:30:46Z</time>
      </trkpt>
      <trkpt lat="48.94332" lon="1.77007">
        <ele>119.821</ele>
        <time>2016-06-10T15:30:55Z</time>
      </trkpt>
      <trkpt lat="48.94332" lon="1.77005">
        <ele>118.86</ele>
        <time>2016-06-10T15:30:56Z</time>
      </trkpt>
      <trkpt lat="48.94332" lon="1.76995">
        <ele>117.418</ele>
        <time>2016-06-10T15:31:01Z</time>
      </trkpt>
      <trkpt lat="48.94331" lon="1.76979">
        <ele>118.379</ele>
        <time>2016-06-10T15:31:08Z</time>
      </trkpt>
      <trkpt lat="48.94332" lon="1.76966">
        <ele>115.015</ele>
        <time>2016-06-10T15:31:14Z</time>
      </trkpt>
      <trkpt lat="48.94333" lon="1.76962">
        <ele>113.573</ele>
        <time>2016-06-10T15:31:16Z</time>
      </trkpt>
      <trkpt lat="48.94334" lon="1.76955">
        <ele>110.689</ele>
        <time>2016-06-10T15:31:20Z</time>
      </trkpt>
      <trkpt lat="48.94333" lon="1.76949">
        <ele>109.247</ele>
        <time>2016-06-10T15:31:24Z</time>
      </trkpt>
      <trkpt lat="48.94335" lon="1.76946">
        <ele>107.324</ele>
        <time>2016-06-10T15:31:27Z</time>
      </trkpt>
      <trkpt lat="48.94333" lon="1.76937">
        <ele>110.208</ele>
        <time>2016-06-10T15:31:36Z</time>
      </trkpt>
      <trkpt lat="48.94327" lon="1.76929">
        <ele>120.302</ele>
        <time>2016-06-10T15:31:42Z</time>
      </trkpt>
      <trkpt lat="48.94327" lon="1.76928">
        <ele>123.667</ele>
        <time>2016-06-10T15:31:46Z</time>
      </trkpt>
      <trkpt lat="48.94324" lon="1.76927">
        <ele>129.915</ele>
        <time>2016-06-10T15:31:59Z</time>
      </trkpt>
      <trkpt lat="48.94324" lon="1.76918">
        <ele>133.28</ele>
        <time>2016-06-10T15:32:15Z</time>
      </trkpt>
      <trkpt lat="48.94324" lon="1.76917">
        <ele>131.357</ele>
        <time>2016-06-10T15:32:17Z</time>
      </trkpt>
      <trkpt lat="48.94323" lon="1.76914">
        <ele>129.915</ele>
        <time>2016-06-10T15:32:23Z</time>
      </trkpt>
      <trkpt lat="48.94322" lon="1.76906">
        <ele>126.07</ele>
        <time>2016-06-10T15:32:28Z</time>
      </trkpt>
      <trkpt lat="48.9432" lon="1.76898">
        <ele>122.705</ele>
        <time>2016-06-10T15:32:35Z</time>
      </trkpt>
      <trkpt lat="48.9432" lon="1.76894">
        <ele>122.705</ele>
        <time>2016-06-10T15:32:37Z</time>
      </trkpt>
      <trkpt lat="48.9432" lon="1.76891">
        <ele>122.225</ele>
        <time>2016-06-10T15:32:40Z</time>
      </trkpt>
      <trkpt lat="48.9432" lon="1.76887">
        <ele>120.783</ele>
        <time>2016-06-10T15:32:43Z</time>
      </trkpt>
      <trkpt lat="48.94318" lon="1.76876">
        <ele>117.899</ele>
        <time>2016-06-10T15:32:50Z</time>
      </trkpt>
      <trkpt lat="48.94318" lon="1.76863">
        <ele>120.783</ele>
        <time>2016-06-10T15:32:56Z</time>
      </trkpt>
      <trkpt lat="48.94318" lon="1.76859">
        <ele>120.302</ele>
        <time>2016-06-10T15:33:00Z</time>
      </trkpt>
      <trkpt lat="48.94316" lon="1.76855">
        <ele>121.264</ele>
        <time>2016-06-10T15:33:03Z</time>
      </trkpt>
      <trkpt lat="48.94316" lon="1.76853">
        <ele>120.302</ele>
        <time>2016-06-10T15:33:06Z</time>
      </trkpt>
      <trkpt lat="48.94318" lon="1.76848">
        <ele>117.418</ele>
        <time>2016-06-10T15:33:10Z</time>
      </trkpt>
      <trkpt lat="48.94316" lon="1.76838">
        <ele>115.496</ele>
        <time>2016-06-10T15:33:16Z</time>
      </trkpt>
      <trkpt lat="48.94319" lon="1.76829">
        <ele>112.131</ele>
        <time>2016-06-10T15:33:21Z</time>
      </trkpt>
      <trkpt lat="48.9432" lon="1.76824">
        <ele>111.65</ele>
        <time>2016-06-10T15:33:24Z</time>
      </trkpt>
      <trkpt lat="48.9432" lon="1.7682">
        <ele>112.131</ele>
        <time>2016-06-10T15:33:27Z</time>
      </trkpt>
      <trkpt lat="48.94319" lon="1.76807">
        <ele>114.054</ele>
        <time>2016-06-10T15:33:33Z</time>
      </trkpt>
      <trkpt lat="48.94317" lon="1.76803">
        <ele>115.496</ele>
        <time>2016-06-10T15:33:35Z</time>
      </trkpt>
      <trkpt lat="48.94315" lon="1.76791">
        <ele>114.054</ele>
        <time>2016-06-10T15:33:40Z</time>
      </trkpt>
      <trkpt lat="48.94312" lon="1.76779">
        <ele>115.015</ele>
        <time>2016-06-10T15:33:44Z</time>
      </trkpt>
      <trkpt lat="48.94309" lon="1.7677">
        <ele>116.938</ele>
        <time>2016-06-10T15:33:48Z</time>
      </trkpt>
      <trkpt lat="48.94309" lon="1.76757">
        <ele>117.418</ele>
        <time>2016-06-10T15:33:54Z</time>
      </trkpt>
      <trkpt lat="48.94308" lon="1.76754">
        <ele>118.86</ele>
        <time>2016-06-10T15:33:56Z</time>
      </trkpt>
      <trkpt lat="48.9431" lon="1.76742">
        <ele>117.418</ele>
        <time>2016-06-10T15:34:03Z</time>
      </trkpt>
      <trkpt lat="48.94312" lon="1.76737">
        <ele>115.015</ele>
        <time>2016-06-10T15:34:06Z</time>
      </trkpt>
      <trkpt lat="48.94316" lon="1.76732">
        <ele>112.131</ele>
        <time>2016-06-10T15:34:14Z</time>
      </trkpt>
      <trkpt lat="48.94319" lon="1.76727">
        <ele>114.054</ele>
        <time>2016-06-10T15:34:18Z</time>
      </trkpt>
      <trkpt lat="48.94314" lon="1.76721">
        <ele>115.015</ele>
        <time>2016-06-10T15:34:25Z</time>
      </trkpt>
      <trkpt lat="48.94311" lon="1.76706">
        <ele>115.496</ele>
        <time>2016-06-10T15:34:34Z</time>
      </trkpt>
      <trkpt lat="48.94311" lon="1.76701">
        <ele>113.573</ele>
        <time>2016-06-10T15:34:37Z</time>
      </trkpt>
      <trkpt lat="48.94313" lon="1.76697">
        <ele>112.612</ele>
        <time>2016-06-10T15:34:40Z</time>
      </trkpt>
      <trkpt lat="48.94313" lon="1.76689">
        <ele>114.054</ele>
        <time>2016-06-10T15:34:45Z</time>
      </trkpt>
      <trkpt lat="48.94311" lon="1.76674">
        <ele>112.612</ele>
        <time>2016-06-10T15:34:52Z</time>
      </trkpt>
      <trkpt lat="48.94307" lon="1.76668">
        <ele>111.65</ele>
        <time>2016-06-10T15:34:55Z</time>
      </trkpt>
      <trkpt lat="48.943" lon="1.7665">
        <ele>111.17</ele>
        <time>2016-06-10T15:35:04Z</time>
      </trkpt>
      <trkpt lat="48.94301" lon="1.76647">
        <ele>109.728</ele>
        <time>2016-06-10T15:35:06Z</time>
      </trkpt>
      <trkpt lat="48.94297" lon="1.76635">
        <ele>106.363</ele>
        <time>2016-06-10T15:35:12Z</time>
      </trkpt>
      <trkpt lat="48.94299" lon="1.76628">
        <ele>106.844</ele>
        <time>2016-06-10T15:35:17Z</time>
      </trkpt>
      <trkpt lat="48.94296" lon="1.7662">
        <ele>105.882</ele>
        <time>2016-06-10T15:35:22Z</time>
      </trkpt>
      <trkpt lat="48.94295" lon="1.76616">
        <ele>105.882</ele>
        <time>2016-06-10T15:35:25Z</time>
      </trkpt>
      <trkpt lat="48.94292" lon="1.76614">
        <ele>106.363</ele>
        <time>2016-06-10T15:35:29Z</time>
      </trkpt>
      <trkpt lat="48.94288" lon="1.76602">
        <ele>103.96</ele>
        <time>2016-06-10T15:35:36Z</time>
      </trkpt>
      <trkpt lat="48.94286" lon="1.76598">
        <ele>101.556</ele>
        <time>2016-06-10T15:35:40Z</time>
      </trkpt>
      <trkpt lat="48.94283" lon="1.76589">
        <ele>101.556</ele>
        <time>2016-06-10T15:35:45Z</time>
      </trkpt>
      <trkpt lat="48.94282" lon="1.76587">
        <ele>101.076</ele>
        <time>2016-06-10T15:35:47Z</time>
      </trkpt>
      <trkpt lat="48.94278" lon="1.76577">
        <ele>101.556</ele>
        <time>2016-06-10T15:35:54Z</time>
      </trkpt>
      <trkpt lat="48.94274" lon="1.76563">
        <ele>102.037</ele>
        <time>2016-06-10T15:36:00Z</time>
      </trkpt>
      <trkpt lat="48.94274" lon="1.7656">
        <ele>99.1531</ele>
        <time>2016-06-10T15:36:02Z</time>
      </trkpt>
      <trkpt lat="48.94272" lon="1.76554">
        <ele>99.1531</ele>
        <time>2016-06-10T15:36:05Z</time>
      </trkpt>
      <trkpt lat="48.94269" lon="1.76547">
        <ele>94.3466</ele>
        <time>2016-06-10T15:36:09Z</time>
      </trkpt>
      <trkpt lat="48.94266" lon="1.76541">
        <ele>92.424</ele>
        <time>2016-06-10T15:36:13Z</time>
      </trkpt>
      <trkpt lat="48.94265" lon="1.7654">
        <ele>91.9432</ele>
        <time>2016-06-10T15:36:14Z</time>
      </trkpt>
      <trkpt lat="48.94263" lon="1.76533">
        <ele>90.9819</ele>
        <time>2016-06-10T15:36:19Z</time>
      </trkpt>
      <trkpt lat="48.94262" lon="1.76527">
        <ele>92.424</ele>
        <time>2016-06-10T15:36:21Z</time>
      </trkpt>
      <trkpt lat="48.94261" lon="1.76519">
        <ele>93.3851</ele>
        <time>2016-06-10T15:36:30Z</time>
      </trkpt>
      <trkpt lat="48.94258" lon="1.76512">
        <ele>100.115</ele>
        <time>2016-06-10T15:36:42Z</time>
      </trkpt>
      <trkpt lat="48.94257" lon="1.76511">
        <ele>101.076</ele>
        <time>2016-06-10T15:36:44Z</time>
      </trkpt>
      <trkpt lat="48.94258" lon="1.76507">
        <ele>102.518</ele>
        <time>2016-06-10T15:36:52Z</time>
      </trkpt>
      <trkpt lat="48.94258" lon="1.76508">
        <ele>101.076</ele>
        <time>2016-06-10T15:36:57Z</time>
      </trkpt>
      <trkpt lat="48.94258" lon="1.76506">
        <ele>97.7112</ele>
        <time>2016-06-10T15:37:04Z</time>
      </trkpt>
      <trkpt lat="48.94259" lon="1.76505">
        <ele>98.1919</ele>
        <time>2016-06-10T15:37:11Z</time>
      </trkpt>
      <trkpt lat="48.94261" lon="1.76504">
        <ele>98.6725</ele>
        <time>2016-06-10T15:37:13Z</time>
      </trkpt>
      <trkpt lat="48.94262" lon="1.76497">
        <ele>101.076</ele>
        <time>2016-06-10T15:37:17Z</time>
      </trkpt>
      <trkpt lat="48.94262" lon="1.76487">
        <ele>99.6338</ele>
        <time>2016-06-10T15:37:21Z</time>
      </trkpt>
      <trkpt lat="48.94262" lon="1.76478">
        <ele>95.7885</ele>
        <time>2016-06-10T15:37:26Z</time>
      </trkpt>
      <trkpt lat="48.94264" lon="1.76471">
        <ele>91.9432</ele>
        <time>2016-06-10T15:37:30Z</time>
      </trkpt>
      <trkpt lat="48.94264" lon="1.76467">
        <ele>89.0593</ele>
        <time>2016-06-10T15:37:33Z</time>
      </trkpt>
      <trkpt lat="48.94265" lon="1.76457">
        <ele>84.7334</ele>
        <time>2016-06-10T15:37:39Z</time>
      </trkpt>
      <trkpt lat="48.94264" lon="1.76444">
        <ele>83.2914</ele>
        <time>2016-06-10T15:37:45Z</time>
      </trkpt>
      <trkpt lat="48.94263" lon="1.76431">
        <ele>85.6946</ele>
        <time>2016-06-10T15:37:50Z</time>
      </trkpt>
      <trkpt lat="48.94262" lon="1.76425">
        <ele>85.6946</ele>
        <time>2016-06-10T15:37:53Z</time>
      </trkpt>
      <trkpt lat="48.94263" lon="1.76414">
        <ele>83.2914</ele>
        <time>2016-06-10T15:37:59Z</time>
      </trkpt>
      <trkpt lat="48.94258" lon="1.76401">
        <ele>94.8271</ele>
        <time>2016-06-10T15:39:51Z</time>
      </trkpt>
      <trkpt lat="48.94259" lon="1.76398">
        <ele>93.8658</ele>
        <time>2016-06-10T15:39:54Z</time>
      </trkpt>
      <trkpt lat="48.94266" lon="1.76391">
        <ele>90.5013</ele>
        <time>2016-06-10T15:40:01Z</time>
      </trkpt>
      <trkpt lat="48.94268" lon="1.76388">
        <ele>89.5399</ele>
        <time>2016-06-10T15:40:04Z</time>
      </trkpt>
      <trkpt lat="48.94274" lon="1.76381">
        <ele>86.656</ele>
        <time>2016-06-10T15:40:09Z</time>
      </trkpt>
      <trkpt lat="48.94275" lon="1.76372">
        <ele>85.214</ele>
        <time>2016-06-10T15:40:16Z</time>
      </trkpt>
      <trkpt lat="48.94275" lon="1.76368">
        <ele>85.214</ele>
        <time>2016-06-10T15:40:19Z</time>
      </trkpt>
      <trkpt lat="48.94276" lon="1.76361">
        <ele>82.3301</ele>
        <time>2016-06-10T15:40:24Z</time>
      </trkpt>
      <trkpt lat="48.94276" lon="1.76351">
        <ele>89.0593</ele>
        <time>2016-06-10T15:40:37Z</time>
      </trkpt>
      <trkpt lat="48.94276" lon="1.76349">
        <ele>88.5787</ele>
        <time>2016-06-10T15:40:43Z</time>
      </trkpt>
      <trkpt lat="48.94278" lon="1.76347">
        <ele>87.1366</ele>
        <time>2016-06-10T15:40:46Z</time>
      </trkpt>
      <trkpt lat="48.94278" lon="1.76343">
        <ele>87.1366</ele>
        <time>2016-06-10T15:40:52Z</time>
      </trkpt>
      <trkpt lat="48.94282" lon="1.76338">
        <ele>85.6946</ele>
        <time>2016-06-10T15:40:59Z</time>
      </trkpt>
      <trkpt lat="48.94284" lon="1.76333">
        <ele>83.772</ele>
        <time>2016-06-10T15:41:02Z</time>
      </trkpt>
      <trkpt lat="48.94285" lon="1.76329">
        <ele>82.3301</ele>
        <time>2016-06-10T15:41:05Z</time>
      </trkpt>
      <trkpt lat="48.94289" lon="1.76318">
        <ele>79.9266</ele>
        <time>2016-06-10T15:41:13Z</time>
      </trkpt>
      <trkpt lat="48.9429" lon="1.76315">
        <ele>78.9655</ele>
        <time>2016-06-10T15:41:15Z</time>
      </trkpt>
      <trkpt lat="48.94291" lon="1.76306">
        <ele>76.5621</ele>
        <time>2016-06-10T15:41:20Z</time>
      </trkpt>
      <trkpt lat="48.9429" lon="1.76302">
        <ele>77.0428</ele>
        <time>2016-06-10T15:41:23Z</time>
      </trkpt>
      <trkpt lat="48.9429" lon="1.76296">
        <ele>76.0814</ele>
        <time>2016-06-10T15:41:27Z</time>
      </trkpt>
      <trkpt lat="48.94289" lon="1.76283">
        <ele>77.0428</ele>
        <time>2016-06-10T15:41:39Z</time>
      </trkpt>
      <trkpt lat="48.94287" lon="1.76278">
        <ele>80.4075</ele>
        <time>2016-06-10T15:41:46Z</time>
      </trkpt>
      <trkpt lat="48.94282" lon="1.76275">
        <ele>88.098</ele>
        <time>2016-06-10T15:41:58Z</time>
      </trkpt>
      <trkpt lat="48.94281" lon="1.76272">
        <ele>88.098</ele>
        <time>2016-06-10T15:42:10Z</time>
      </trkpt>
      <trkpt lat="48.94282" lon="1.76268">
        <ele>87.6172</ele>
        <time>2016-06-10T15:42:15Z</time>
      </trkpt>
      <trkpt lat="48.94284" lon="1.76261">
        <ele>85.214</ele>
        <time>2016-06-10T15:42:22Z</time>
      </trkpt>
      <trkpt lat="48.94285" lon="1.76261">
        <ele>85.214</ele>
        <time>2016-06-10T15:42:23Z</time>
      </trkpt>
      <trkpt lat="48.94285" lon="1.76253">
        <ele>90.5013</ele>
        <time>2016-06-10T15:42:32Z</time>
      </trkpt>
      <trkpt lat="48.94289" lon="1.7625">
        <ele>90.5013</ele>
        <time>2016-06-10T15:42:50Z</time>
      </trkpt>
      <trkpt lat="48.94286" lon="1.76246">
        <ele>99.1531</ele>
        <time>2016-06-10T15:43:08Z</time>
      </trkpt>
      <trkpt lat="48.94287" lon="1.76242">
        <ele>88.5787</ele>
        <time>2016-06-10T15:44:28Z</time>
      </trkpt>
      <trkpt lat="48.94286" lon="1.76239">
        <ele>86.1753</ele>
        <time>2016-06-10T15:44:36Z</time>
      </trkpt>
      <trkpt lat="48.94284" lon="1.76234">
        <ele>86.1753</ele>
        <time>2016-06-10T15:44:41Z</time>
      </trkpt>
      <trkpt lat="48.94284" lon="1.76232">
        <ele>86.1753</ele>
        <time>2016-06-10T15:44:43Z</time>
      </trkpt>
      <trkpt lat="48.94283" lon="1.76225">
        <ele>83.772</ele>
        <time>2016-06-10T15:44:49Z</time>
      </trkpt>
      <trkpt lat="48.94284" lon="1.76218">
        <ele>79.9266</ele>
        <time>2016-06-10T15:44:55Z</time>
      </trkpt>
      <trkpt lat="48.94284" lon="1.76212">
        <ele>80.4075</ele>
        <time>2016-06-10T15:44:58Z</time>
      </trkpt>
      <trkpt lat="48.94288" lon="1.76204">
        <ele>81.3688</ele>
        <time>2016-06-10T15:45:04Z</time>
      </trkpt>
      <trkpt lat="48.94294" lon="1.762">
        <ele>79.9266</ele>
        <time>2016-06-10T15:45:08Z</time>
      </trkpt>
      <trkpt lat="48.94295" lon="1.76199">
        <ele>78.9655</ele>
        <time>2016-06-10T15:45:09Z</time>
      </trkpt>
      <trkpt lat="48.94296" lon="1.76197">
        <ele>78.004</ele>
        <time>2016-06-10T15:45:11Z</time>
      </trkpt>
      <trkpt lat="48.94297" lon="1.76187">
        <ele>76.0814</ele>
        <time>2016-06-10T15:45:18Z</time>
      </trkpt>
      <trkpt lat="48.943" lon="1.76179">
        <ele>73.6782</ele>
        <time>2016-06-10T15:45:23Z</time>
      </trkpt>
      <trkpt lat="48.94303" lon="1.76168">
        <ele>72.2362</ele>
        <time>2016-06-10T15:45:29Z</time>
      </trkpt>
      <trkpt lat="48.94303" lon="1.76165">
        <ele>71.2749</ele>
        <time>2016-06-10T15:45:31Z</time>
      </trkpt>
      <trkpt lat="48.94304" lon="1.76158">
        <ele>71.2749</ele>
        <time>2016-06-10T15:45:35Z</time>
      </trkpt>
      <trkpt lat="48.94303" lon="1.76149">
        <ele>68.3909</ele>
        <time>2016-06-10T15:45:46Z</time>
      </trkpt>
      <trkpt lat="48.94302" lon="1.7614">
        <ele>78.004</ele>
        <time>2016-06-10T15:46:00Z</time>
      </trkpt>
      <trkpt lat="48.94304" lon="1.76127">
        <ele>79.446</ele>
        <time>2016-06-10T15:46:06Z</time>
      </trkpt>
      <trkpt lat="48.94305" lon="1.76117">
        <ele>78.4847</ele>
        <time>2016-06-10T15:46:11Z</time>
      </trkpt>
      <trkpt lat="48.94309" lon="1.76108">
        <ele>76.0814</ele>
        <time>2016-06-10T15:46:17Z</time>
      </trkpt>
      <trkpt lat="48.94315" lon="1.76098">
        <ele>73.1976</ele>
        <time>2016-06-10T15:46:25Z</time>
      </trkpt>
      <trkpt lat="48.94318" lon="1.76094">
        <ele>73.1976</ele>
        <time>2016-06-10T15:46:28Z</time>
      </trkpt>
      <trkpt lat="48.94328" lon="1.76083">
        <ele>72.7169</ele>
        <time>2016-06-10T15:46:36Z</time>
      </trkpt>
      <trkpt lat="48.94334" lon="1.76075">
        <ele>72.2362</ele>
        <time>2016-06-10T15:46:43Z</time>
      </trkpt>
      <trkpt lat="48.94335" lon="1.7607">
        <ele>73.1976</ele>
        <time>2016-06-10T15:46:47Z</time>
      </trkpt>
      <trkpt lat="48.94338" lon="1.76058">
        <ele>72.7169</ele>
        <time>2016-06-10T15:46:54Z</time>
      </trkpt>
      <trkpt lat="48.94338" lon="1.76056">
        <ele>73.6782</ele>
        <time>2016-06-10T15:46:55Z</time>
      </trkpt>
      <trkpt lat="48.94339" lon="1.76044">
        <ele>73.6782</ele>
        <time>2016-06-10T15:47:03Z</time>
      </trkpt>
      <trkpt lat="48.94339" lon="1.76039">
        <ele>73.1976</ele>
        <time>2016-06-10T15:47:06Z</time>
      </trkpt>
      <trkpt lat="48.9434" lon="1.76037">
        <ele>73.1976</ele>
        <time>2016-06-10T15:47:08Z</time>
      </trkpt>
      <trkpt lat="48.94339" lon="1.76032">
        <ele>73.1976</ele>
        <time>2016-06-10T15:47:12Z</time>
      </trkpt>
      <trkpt lat="48.94341" lon="1.76022">
        <ele>70.7942</ele>
        <time>2016-06-10T15:47:19Z</time>
      </trkpt>
      <trkpt lat="48.94343" lon="1.76017">
        <ele>69.8329</ele>
        <time>2016-06-10T15:47:24Z</time>
      </trkpt>
      <trkpt lat="48.94343" lon="1.76015">
        <ele>69.3523</ele>
        <time>2016-06-10T15:47:26Z</time>
      </trkpt>
      <trkpt lat="48.94347" lon="1.76004">
        <ele>64.5457</ele>
        <time>2016-06-10T15:47:33Z</time>
      </trkpt>
      <trkpt lat="48.94348" lon="1.76">
        <ele>63.1036</ele>
        <time>2016-06-10T15:47:36Z</time>
      </trkpt>
      <trkpt lat="48.94346" lon="1.75995">
        <ele>66.4683</ele>
        <time>2016-06-10T15:47:41Z</time>
      </trkpt>
      <trkpt lat="48.94344" lon="1.75988">
        <ele>69.8329</ele>
        <time>2016-06-10T15:47:48Z</time>
      </trkpt>
      <trkpt lat="48.94345" lon="1.75986">
        <ele>69.3523</ele>
        <time>2016-06-10T15:47:56Z</time>
      </trkpt>
      <trkpt lat="48.94345" lon="1.75987">
        <ele>68.8716</ele>
        <time>2016-06-10T15:48:01Z</time>
      </trkpt>
      <trkpt lat="48.94347" lon="1.75983">
        <ele>69.3523</ele>
        <time>2016-06-10T15:48:06Z</time>
      </trkpt>
      <trkpt lat="48.94346" lon="1.75977">
        <ele>69.8329</ele>
        <time>2016-06-10T15:48:11Z</time>
      </trkpt>
      <trkpt lat="48.94345" lon="1.7597">
        <ele>73.1976</ele>
        <time>2016-06-10T15:48:24Z</time>
      </trkpt>
      <trkpt lat="48.94344" lon="1.7596">
        <ele>72.7169</ele>
        <time>2016-06-10T15:48:30Z</time>
      </trkpt>
      <trkpt lat="48.94345" lon="1.75956">
        <ele>72.7169</ele>
        <time>2016-06-10T15:48:32Z</time>
      </trkpt>
      <trkpt lat="48.94345" lon="1.75951">
        <ele>73.1976</ele>
        <time>2016-06-10T15:48:35Z</time>
      </trkpt>
      <trkpt lat="48.94345" lon="1.75947">
        <ele>72.2362</ele>
        <time>2016-06-10T15:48:43Z</time>
      </trkpt>
      <trkpt lat="48.94346" lon="1.75939">
        <ele>70.3135</ele>
        <time>2016-06-10T15:48:49Z</time>
      </trkpt>
      <trkpt lat="48.94348" lon="1.75933">
        <ele>69.3523</ele>
        <time>2016-06-10T15:48:54Z</time>
      </trkpt>
      <trkpt lat="48.94352" lon="1.75926">
        <ele>66.949</ele>
        <time>2016-06-10T15:49:01Z</time>
      </trkpt>
      <trkpt lat="48.94354" lon="1.75922">
        <ele>65.0264</ele>
        <time>2016-06-10T15:49:03Z</time>
      </trkpt>
      <trkpt lat="48.94353" lon="1.75908">
        <ele>64.0651</ele>
        <time>2016-06-10T15:49:10Z</time>
      </trkpt>
      <trkpt lat="48.94354" lon="1.75897">
        <ele>60.7003</ele>
        <time>2016-06-10T15:49:16Z</time>
      </trkpt>
      <trkpt lat="48.9435" lon="1.75886">
        <ele>64.0651</ele>
        <time>2016-06-10T15:49:20Z</time>
      </trkpt>
      <trkpt lat="48.94347" lon="1.75878">
        <ele>65.5071</ele>
        <time>2016-06-10T15:49:24Z</time>
      </trkpt>
      <trkpt lat="48.94344" lon="1.75867">
        <ele>65.9877</ele>
        <time>2016-06-10T15:49:29Z</time>
      </trkpt>
      <trkpt lat="48.9434" lon="1.75859">
        <ele>67.9103</ele>
        <time>2016-06-10T15:49:35Z</time>
      </trkpt>
      <trkpt lat="48.94338" lon="1.7585">
        <ele>68.3909</ele>
        <time>2016-06-10T15:49:40Z</time>
      </trkpt>
      <trkpt lat="48.94335" lon="1.75836">
        <ele>67.9103</ele>
        <time>2016-06-10T15:49:48Z</time>
      </trkpt>
      <trkpt lat="48.94332" lon="1.75821">
        <ele>66.949</ele>
        <time>2016-06-10T15:49:56Z</time>
      </trkpt>
      <trkpt lat="48.9433" lon="1.75812">
        <ele>66.4683</ele>
        <time>2016-06-10T15:50:02Z</time>
      </trkpt>
      <trkpt lat="48.94327" lon="1.75801">
        <ele>66.4683</ele>
        <time>2016-06-10T15:50:08Z</time>
      </trkpt>
      <trkpt lat="48.94325" lon="1.75788">
        <ele>65.9877</ele>
        <time>2016-06-10T15:50:15Z</time>
      </trkpt>
      <trkpt lat="48.94323" lon="1.75778">
        <ele>65.9877</ele>
        <time>2016-06-10T15:50:22Z</time>
      </trkpt>
      <trkpt lat="48.9432" lon="1.75765">
        <ele>65.5071</ele>
        <time>2016-06-10T15:50:30Z</time>
      </trkpt>
      <trkpt lat="48.94319" lon="1.75762">
        <ele>65.0264</ele>
        <time>2016-06-10T15:50:39Z</time>
      </trkpt>
      <trkpt lat="48.94319" lon="1.75759">
        <ele>64.5457</ele>
        <time>2016-06-10T15:50:42Z</time>
      </trkpt>
      <trkpt lat="48.94317" lon="1.75749">
        <ele>64.0651</ele>
        <time>2016-06-10T15:50:48Z</time>
      </trkpt>
      <trkpt lat="48.94314" lon="1.75732">
        <ele>63.5844</ele>
        <time>2016-06-10T15:50:58Z</time>
      </trkpt>
      <trkpt lat="48.9431" lon="1.75713">
        <ele>62.6229</ele>
        <time>2016-06-10T15:51:09Z</time>
      </trkpt>
      <trkpt lat="48.94308" lon="1.75697">
        <ele>62.1423</ele>
        <time>2016-06-10T15:51:18Z</time>
      </trkpt>
      <trkpt lat="48.94309" lon="1.75684">
        <ele>60.7003</ele>
        <time>2016-06-10T15:51:26Z</time>
      </trkpt>
      <trkpt lat="48.94312" lon="1.75673">
        <ele>60.7003</ele>
        <time>2016-06-10T15:51:33Z</time>
      </trkpt>
      <trkpt lat="48.94316" lon="1.75663">
        <ele>60.2197</ele>
        <time>2016-06-10T15:51:40Z</time>
      </trkpt>
      <trkpt lat="48.94318" lon="1.75652">
        <ele>57.3358</ele>
        <time>2016-06-10T15:51:47Z</time>
      </trkpt>
      <trkpt lat="48.94315" lon="1.75645">
        <ele>55.4131</ele>
        <time>2016-06-10T15:51:53Z</time>
      </trkpt>
      <trkpt lat="48.94312" lon="1.75641">
        <ele>54.9324</ele>
        <time>2016-06-10T15:51:56Z</time>
      </trkpt>
      <trkpt lat="48.94309" lon="1.75636">
        <ele>53.9712</ele>
        <time>2016-06-10T15:52:00Z</time>
      </trkpt>
      <trkpt lat="48.94305" lon="1.75624">
        <ele>51.0872</ele>
        <time>2016-06-10T15:52:06Z</time>
      </trkpt>
      <trkpt lat="48.94306" lon="1.75618">
        <ele>50.6066</ele>
        <time>2016-06-10T15:52:09Z</time>
      </trkpt>
      <trkpt lat="48.94307" lon="1.75609">
        <ele>51.5679</ele>
        <time>2016-06-10T15:52:17Z</time>
      </trkpt>
      <trkpt lat="48.94308" lon="1.75601">
        <ele>52.5292</ele>
        <time>2016-06-10T15:52:22Z</time>
      </trkpt>
      <trkpt lat="48.94305" lon="1.75601">
        <ele>53.9712</ele>
        <time>2016-06-10T15:52:39Z</time>
      </trkpt>
      <trkpt lat="48.94302" lon="1.75594">
        <ele>53.9712</ele>
        <time>2016-06-10T15:52:44Z</time>
      </trkpt>
      <trkpt lat="48.94298" lon="1.75584">
        <ele>53.9712</ele>
        <time>2016-06-10T15:52:50Z</time>
      </trkpt>
      <trkpt lat="48.94297" lon="1.75578">
        <ele>53.0098</ele>
        <time>2016-06-10T15:52:56Z</time>
      </trkpt>
      <trkpt lat="48.94293" lon="1.75574">
        <ele>53.4905</ele>
        <time>2016-06-10T15:53:02Z</time>
      </trkpt>
      <trkpt lat="48.94289" lon="1.75565">
        <ele>53.4905</ele>
        <time>2016-06-10T15:53:07Z</time>
      </trkpt>
      <trkpt lat="48.94288" lon="1.75564">
        <ele>53.4905</ele>
        <time>2016-06-10T15:53:08Z</time>
      </trkpt>
      <trkpt lat="48.94285" lon="1.75557">
        <ele>53.4905</ele>
        <time>2016-06-10T15:53:13Z</time>
      </trkpt>
      <trkpt lat="48.94284" lon="1.75555">
        <ele>53.4905</ele>
        <time>2016-06-10T15:53:14Z</time>
      </trkpt>
      <trkpt lat="48.94278" lon="1.75542">
        <ele>54.4518</ele>
        <time>2016-06-10T15:53:22Z</time>
      </trkpt>
      <trkpt lat="48.94274" lon="1.75532">
        <ele>54.9324</ele>
        <time>2016-06-10T15:53:28Z</time>
      </trkpt>
      <trkpt lat="48.9427" lon="1.75519">
        <ele>56.3745</ele>
        <time>2016-06-10T15:53:36Z</time>
      </trkpt>
      <trkpt lat="48.94266" lon="1.75506">
        <ele>57.8165</ele>
        <time>2016-06-10T15:53:44Z</time>
      </trkpt>
      <trkpt lat="48.94262" lon="1.75493">
        <ele>58.7777</ele>
        <time>2016-06-10T15:53:52Z</time>
      </trkpt>
      <trkpt lat="48.9426" lon="1.75485">
        <ele>59.7391</ele>
        <time>2016-06-10T15:53:57Z</time>
      </trkpt>
      <trkpt lat="48.94257" lon="1.75479">
        <ele>60.7003</ele>
        <time>2016-06-10T15:54:02Z</time>
      </trkpt>
      <trkpt lat="48.94256" lon="1.75473">
        <ele>60.2197</ele>
        <time>2016-06-10T15:54:09Z</time>
      </trkpt>
      <trkpt lat="48.94256" lon="1.75469">
        <ele>59.7391</ele>
        <time>2016-06-10T15:54:14Z</time>
      </trkpt>
      <trkpt lat="48.94253" lon="1.75463">
        <ele>60.2197</ele>
        <time>2016-06-10T15:54:19Z</time>
      </trkpt>
      <trkpt lat="48.94252" lon="1.7546">
        <ele>60.2197</ele>
        <time>2016-06-10T15:54:26Z</time>
      </trkpt>
      <trkpt lat="48.94251" lon="1.75461">
        <ele>59.2584</ele>
        <time>2016-06-10T15:55:30Z</time>
      </trkpt>
      <trkpt lat="48.94249" lon="1.75463">
        <ele>60.7003</ele>
        <time>2016-06-10T15:56:03Z</time>
      </trkpt>
      <trkpt lat="48.94246" lon="1.75471">
        <ele>60.2197</ele>
        <time>2016-06-10T15:56:10Z</time>
      </trkpt>
      <trkpt lat="48.94241" lon="1.75484">
        <ele>59.7391</ele>
        <time>2016-06-10T15:56:20Z</time>
      </trkpt>
      <trkpt lat="48.94239" lon="1.75489">
        <ele>60.7003</ele>
        <time>2016-06-10T15:56:24Z</time>
      </trkpt>
      <trkpt lat="48.94238" lon="1.75492">
        <ele>61.181</ele>
        <time>2016-06-10T15:56:28Z</time>
      </trkpt>
      <trkpt lat="48.94232" lon="1.75508">
        <ele>61.181</ele>
        <time>2016-06-10T15:56:38Z</time>
      </trkpt>
      <trkpt lat="48.94224" lon="1.75522">
        <ele>61.6617</ele>
        <time>2016-06-10T15:56:48Z</time>
      </trkpt>
      <trkpt lat="48.94223" lon="1.75522">
        <ele>61.6617</ele>
        <time>2016-06-10T15:56:49Z</time>
      </trkpt>
      <trkpt lat="48.94221" lon="1.75526">
        <ele>62.1423</ele>
        <time>2016-06-10T15:56:53Z</time>
      </trkpt>
      <trkpt lat="48.94219" lon="1.75529">
        <ele>61.6617</ele>
        <time>2016-06-10T15:56:59Z</time>
      </trkpt>
      <trkpt lat="48.94216" lon="1.75529">
        <ele>59.2584</ele>
        <time>2016-06-10T15:57:16Z</time>
      </trkpt>
      <trkpt lat="48.94214" lon="1.75529">
        <ele>59.2584</ele>
        <time>2016-06-10T15:57:17Z</time>
      </trkpt>
      <trkpt lat="48.94207" lon="1.75525">
        <ele>61.6617</ele>
        <time>2016-06-10T15:57:22Z</time>
      </trkpt>
      <trkpt lat="48.94195" lon="1.75514">
        <ele>65.0264</ele>
        <time>2016-06-10T15:57:32Z</time>
      </trkpt>
      <trkpt lat="48.94188" lon="1.75508">
        <ele>66.4683</ele>
        <time>2016-06-10T15:57:38Z</time>
      </trkpt>
      <trkpt lat="48.94185" lon="1.75504">
        <ele>66.949</ele>
        <time>2016-06-10T15:57:41Z</time>
      </trkpt>
      <trkpt lat="48.94182" lon="1.75501">
        <ele>67.9103</ele>
        <time>2016-06-10T15:57:43Z</time>
      </trkpt>
      <trkpt lat="48.94177" lon="1.75491">
        <ele>69.3523</ele>
        <time>2016-06-10T15:57:49Z</time>
      </trkpt>
      <trkpt lat="48.94176" lon="1.75488">
        <ele>69.8329</ele>
        <time>2016-06-10T15:57:51Z</time>
      </trkpt>
      <trkpt lat="48.94173" lon="1.75478">
        <ele>71.2749</ele>
        <time>2016-06-10T15:57:57Z</time>
      </trkpt>
      <trkpt lat="48.94169" lon="1.75468">
        <ele>72.7169</ele>
        <time>2016-06-10T15:58:02Z</time>
      </trkpt>
      <trkpt lat="48.94167" lon="1.75462">
        <ele>73.1976</ele>
        <time>2016-06-10T15:58:05Z</time>
      </trkpt>
      <trkpt lat="48.94165" lon="1.75454">
        <ele>74.6395</ele>
        <time>2016-06-10T15:58:11Z</time>
      </trkpt>
      <trkpt lat="48.94161" lon="1.75443">
        <ele>76.0814</ele>
        <time>2016-06-10T15:58:17Z</time>
      </trkpt>
      <trkpt lat="48.94159" lon="1.75432">
        <ele>77.0428</ele>
        <time>2016-06-10T15:58:23Z</time>
      </trkpt>
      <trkpt lat="48.94158" lon="1.75428">
        <ele>77.0428</ele>
        <time>2016-06-10T15:58:31Z</time>
      </trkpt>
      <trkpt lat="48.94155" lon="1.7542">
        <ele>76.5621</ele>
        <time>2016-06-10T15:58:37Z</time>
      </trkpt>
      <trkpt lat="48.94157" lon="1.75418">
        <ele>74.6395</ele>
        <time>2016-06-10T15:58:49Z</time>
      </trkpt>
      <trkpt lat="48.94158" lon="1.75418">
        <ele>73.1976</ele>
        <time>2016-06-10T15:58:57Z</time>
      </trkpt>
      <trkpt lat="48.94159" lon="1.75419">
        <ele>74.6395</ele>
        <time>2016-06-10T15:59:02Z</time>
      </trkpt>
      <trkpt lat="48.9416" lon="1.75419">
        <ele>74.6395</ele>
        <time>2016-06-10T15:59:08Z</time>
      </trkpt>
      <trkpt lat="48.94158" lon="1.75416">
        <ele>75.6008</ele>
        <time>2016-06-10T15:59:23Z</time>
      </trkpt>
      <trkpt lat="48.94153" lon="1.75402">
        <ele>74.1588</ele>
        <time>2016-06-10T15:59:29Z</time>
      </trkpt>
      <trkpt lat="48.94145" lon="1.75384">
        <ele>72.7169</ele>
        <time>2016-06-10T15:59:38Z</time>
      </trkpt>
      <trkpt lat="48.94137" lon="1.75362">
        <ele>75.1202</ele>
        <time>2016-06-10T15:59:48Z</time>
      </trkpt>
      <trkpt lat="48.94133" lon="1.75352">
        <ele>76.0814</ele>
        <time>2016-06-10T15:59:53Z</time>
      </trkpt>
      <trkpt lat="48.94131" lon="1.75342">
        <ele>77.0428</ele>
        <time>2016-06-10T15:59:58Z</time>
      </trkpt>
      <trkpt lat="48.94123" lon="1.75324">
        <ele>79.9266</ele>
        <time>2016-06-10T16:00:07Z</time>
      </trkpt>
      <trkpt lat="48.94116" lon="1.75311">
        <ele>81.8494</ele>
        <time>2016-06-10T16:00:14Z</time>
      </trkpt>
      <trkpt lat="48.9411" lon="1.75298">
        <ele>81.3688</ele>
        <time>2016-06-10T16:00:21Z</time>
      </trkpt>
      <trkpt lat="48.94105" lon="1.75288">
        <ele>82.8108</ele>
        <time>2016-06-10T16:00:28Z</time>
      </trkpt>
      <trkpt lat="48.94095" lon="1.75275">
        <ele>83.772</ele>
        <time>2016-06-10T16:00:36Z</time>
      </trkpt>
      <trkpt lat="48.94088" lon="1.75257">
        <ele>82.8108</ele>
        <time>2016-06-10T16:00:44Z</time>
      </trkpt>
      <trkpt lat="48.94082" lon="1.75242">
        <ele>81.8494</ele>
        <time>2016-06-10T16:00:51Z</time>
      </trkpt>
      <trkpt lat="48.94075" lon="1.75222">
        <ele>80.8882</ele>
        <time>2016-06-10T16:01:01Z</time>
      </trkpt>
      <trkpt lat="48.94069" lon="1.75197">
        <ele>83.772</ele>
        <time>2016-06-10T16:01:12Z</time>
      </trkpt>
      <trkpt lat="48.94074" lon="1.7518">
        <ele>81.8494</ele>
        <time>2016-06-10T16:01:20Z</time>
      </trkpt>
      <trkpt lat="48.94079" lon="1.75169">
        <ele>81.8494</ele>
        <time>2016-06-10T16:01:27Z</time>
      </trkpt>
      <trkpt lat="48.94078" lon="1.75167">
        <ele>84.2527</ele>
        <time>2016-06-10T16:01:34Z</time>
      </trkpt>
      <trkpt lat="48.94077" lon="1.75163">
        <ele>84.7334</ele>
        <time>2016-06-10T16:01:45Z</time>
      </trkpt>
      <trkpt lat="48.94078" lon="1.75159">
        <ele>89.0593</ele>
        <time>2016-06-10T16:03:32Z</time>
      </trkpt>
      <trkpt lat="48.94082" lon="1.75155">
        <ele>91.9432</ele>
        <time>2016-06-10T16:04:50Z</time>
      </trkpt>
      <trkpt lat="48.94082" lon="1.75152">
        <ele>92.424</ele>
        <time>2016-06-10T16:04:52Z</time>
      </trkpt>
      <trkpt lat="48.94078" lon="1.7514">
        <ele>94.3466</ele>
        <time>2016-06-10T16:04:59Z</time>
      </trkpt>
      <trkpt lat="48.94073" lon="1.75126">
        <ele>95.3077</ele>
        <time>2016-06-10T16:05:07Z</time>
      </trkpt>
      <trkpt lat="48.94072" lon="1.75124">
        <ele>96.2693</ele>
        <time>2016-06-10T16:05:13Z</time>
      </trkpt>
      <trkpt lat="48.94073" lon="1.75122">
        <ele>96.2693</ele>
        <time>2016-06-10T16:05:25Z</time>
      </trkpt>
      <trkpt lat="48.94075" lon="1.7512">
        <ele>96.2693</ele>
        <time>2016-06-10T16:05:27Z</time>
      </trkpt>
      <trkpt lat="48.94075" lon="1.75121">
        <ele>97.7112</ele>
        <time>2016-06-10T16:05:38Z</time>
      </trkpt>
      <trkpt lat="48.94074" lon="1.7512">
        <ele>98.1919</ele>
        <time>2016-06-10T16:05:51Z</time>
      </trkpt>
      <trkpt lat="48.94074" lon="1.7512">
        <ele>98.6725</ele>
        <time>2016-06-10T16:05:54Z</time>
      </trkpt>
      <trkpt lat="48.94074" lon="1.75122">
        <ele>98.6725</ele>
        <time>2016-06-10T16:05:56Z</time>
      </trkpt>
      <trkpt lat="48.94072" lon="1.75127">
        <ele>97.2305</ele>
        <time>2016-06-10T16:06:02Z</time>
      </trkpt>
      <trkpt lat="48.94073" lon="1.75127">
        <ele>94.8271</ele>
        <time>2016-06-10T16:06:08Z</time>
      </trkpt>
      <trkpt lat="48.94073" lon="1.75128">
        <ele>94.3466</ele>
        <time>2016-06-10T16:06:09Z</time>
      </trkpt>
      <trkpt lat="48.94074" lon="1.75131">
        <ele>92.9045</ele>
        <time>2016-06-10T16:06:15Z</time>
      </trkpt>
      <trkpt lat="48.94074" lon="1.75132">
        <ele>90.9819</ele>
        <time>2016-06-10T16:06:24Z</time>
      </trkpt>
      <trkpt lat="48.94072" lon="1.75127">
        <ele>92.424</ele>
        <time>2016-06-10T16:06:44Z</time>
      </trkpt>
      <trkpt lat="48.94072" lon="1.75118">
        <ele>93.8658</ele>
        <time>2016-06-10T16:06:49Z</time>
      </trkpt>
      <trkpt lat="48.94069" lon="1.75104">
        <ele>95.3077</ele>
        <time>2016-06-10T16:06:57Z</time>
      </trkpt>
      <trkpt lat="48.94066" lon="1.75094">
        <ele>97.7112</ele>
        <time>2016-06-10T16:07:03Z</time>
      </trkpt>
      <trkpt lat="48.94063" lon="1.75085">
        <ele>100.595</ele>
        <time>2016-06-10T16:07:07Z</time>
      </trkpt>
      <trkpt lat="48.94061" lon="1.75079">
        <ele>101.556</ele>
        <time>2016-06-10T16:07:10Z</time>
      </trkpt>
      <trkpt lat="48.94061" lon="1.75075">
        <ele>102.037</ele>
        <time>2016-06-10T16:07:12Z</time>
      </trkpt>
      <trkpt lat="48.94059" lon="1.7507">
        <ele>102.518</ele>
        <time>2016-06-10T16:07:15Z</time>
      </trkpt>
      <trkpt lat="48.94057" lon="1.75055">
        <ele>98.1919</ele>
        <time>2016-06-10T16:07:23Z</time>
      </trkpt>
      <trkpt lat="48.94057" lon="1.75042">
        <ele>97.7112</ele>
        <time>2016-06-10T16:07:30Z</time>
      </trkpt>
      <trkpt lat="48.94054" lon="1.75032">
        <ele>96.7499</ele>
        <time>2016-06-10T16:07:36Z</time>
      </trkpt>
      <trkpt lat="48.94054" lon="1.75026">
        <ele>98.6725</ele>
        <time>2016-06-10T16:07:39Z</time>
      </trkpt>
      <trkpt lat="48.94054" lon="1.75017">
        <ele>100.595</ele>
        <time>2016-06-10T16:07:45Z</time>
      </trkpt>
      <trkpt lat="48.94048" lon="1.75">
        <ele>107.324</ele>
        <time>2016-06-10T16:07:52Z</time>
      </trkpt>
      <trkpt lat="48.94047" lon="1.74995">
        <ele>109.247</ele>
        <time>2016-06-10T16:07:54Z</time>
      </trkpt>
      <trkpt lat="48.94044" lon="1.74984">
        <ele>110.208</ele>
        <time>2016-06-10T16:07:59Z</time>
      </trkpt>
      <trkpt lat="48.94046" lon="1.7497">
        <ele>112.131</ele>
        <time>2016-06-10T16:08:06Z</time>
      </trkpt>
      <trkpt lat="48.94046" lon="1.74963">
        <ele>113.092</ele>
        <time>2016-06-10T16:08:14Z</time>
      </trkpt>
      <trkpt lat="48.94046" lon="1.7496">
        <ele>113.573</ele>
        <time>2016-06-10T16:08:19Z</time>
      </trkpt>
      <trkpt lat="48.94049" lon="1.74956">
        <ele>114.534</ele>
        <time>2016-06-10T16:08:30Z</time>
      </trkpt>
      <trkpt lat="48.9405" lon="1.74949">
        <ele>115.015</ele>
        <time>2016-06-10T16:08:34Z</time>
      </trkpt>
      <trkpt lat="48.94055" lon="1.7493">
        <ele>115.496</ele>
        <time>2016-06-10T16:08:44Z</time>
      </trkpt>
      <trkpt lat="48.94061" lon="1.7491">
        <ele>116.938</ele>
        <time>2016-06-10T16:08:54Z</time>
      </trkpt>
      <trkpt lat="48.94068" lon="1.74885">
        <ele>121.264</ele>
        <time>2016-06-10T16:09:06Z</time>
      </trkpt>
      <trkpt lat="48.94072" lon="1.74869">
        <ele>123.667</ele>
        <time>2016-06-10T16:09:14Z</time>
      </trkpt>
      <trkpt lat="48.94068" lon="1.74847">
        <ele>127.512</ele>
        <time>2016-06-10T16:09:24Z</time>
      </trkpt>
      <trkpt lat="48.94069" lon="1.74829">
        <ele>127.031</ele>
        <time>2016-06-10T16:09:33Z</time>
      </trkpt>
      <trkpt lat="48.94071" lon="1.74809">
        <ele>127.512</ele>
        <time>2016-06-10T16:09:43Z</time>
      </trkpt>
      <trkpt lat="48.94072" lon="1.74802">
        <ele>126.07</ele>
        <time>2016-06-10T16:09:53Z</time>
      </trkpt>
      <trkpt lat="48.94074" lon="1.74784">
        <ele>126.551</ele>
        <time>2016-06-10T16:10:03Z</time>
      </trkpt>
      <trkpt lat="48.94075" lon="1.74778">
        <ele>126.551</ele>
        <time>2016-06-10T16:10:09Z</time>
      </trkpt>
      <trkpt lat="48.94077" lon="1.7477">
        <ele>126.551</ele>
        <time>2016-06-10T16:10:16Z</time>
      </trkpt>
      <trkpt lat="48.94079" lon="1.74762">
        <ele>126.551</ele>
        <time>2016-06-10T16:10:23Z</time>
      </trkpt>
      <trkpt lat="48.94081" lon="1.74741">
        <ele>126.551</ele>
        <time>2016-06-10T16:10:34Z</time>
      </trkpt>
      <trkpt lat="48.94083" lon="1.74715">
        <ele>127.031</ele>
        <time>2016-06-10T16:10:47Z</time>
      </trkpt>
      <trkpt lat="48.94085" lon="1.74699">
        <ele>127.512</ele>
        <time>2016-06-10T16:10:55Z</time>
      </trkpt>
      <trkpt lat="48.94085" lon="1.74686">
        <ele>128.473</ele>
        <time>2016-06-10T16:11:02Z</time>
      </trkpt>
      <trkpt lat="48.94083" lon="1.74684">
        <ele>129.435</ele>
        <time>2016-06-10T16:11:11Z</time>
      </trkpt>
      <trkpt lat="48.94082" lon="1.74683">
        <ele>129.435</ele>
        <time>2016-06-10T16:12:57Z</time>
      </trkpt>
      <trkpt lat="48.94082" lon="1.74684">
        <ele>128.954</ele>
        <time>2016-06-10T16:13:12Z</time>
      </trkpt>
      <trkpt lat="48.94083" lon="1.74676">
        <ele>130.396</ele>
        <time>2016-06-10T16:14:07Z</time>
      </trkpt>
      <trkpt lat="48.94083" lon="1.74674">
        <ele>130.396</ele>
        <time>2016-06-10T16:14:08Z</time>
      </trkpt>
      <trkpt lat="48.94084" lon="1.74668">
        <ele>130.877</ele>
        <time>2016-06-10T16:14:12Z</time>
      </trkpt>
      <trkpt lat="48.94083" lon="1.74663">
        <ele>130.877</ele>
        <time>2016-06-10T16:14:18Z</time>
      </trkpt>
      <trkpt lat="48.94083" lon="1.74663">
        <ele>130.877</ele>
        <time>2016-06-10T16:14:19Z</time>
      </trkpt>
      <trkpt lat="48.94086" lon="1.74654">
        <ele>130.877</ele>
        <time>2016-06-10T16:14:23Z</time>
      </trkpt>
      <trkpt lat="48.94085" lon="1.74621">
        <ele>131.357</ele>
        <time>2016-06-10T16:14:36Z</time>
      </trkpt>
      <trkpt lat="48.94083" lon="1.74589">
        <ele>131.838</ele>
        <time>2016-06-10T16:14:48Z</time>
      </trkpt>
      <trkpt lat="48.94079" lon="1.7456">
        <ele>132.799</ele>
        <time>2016-06-10T16:14:59Z</time>
      </trkpt>
      <trkpt lat="48.94076" lon="1.74532">
        <ele>133.76</ele>
        <time>2016-06-10T16:15:07Z</time>
      </trkpt>
      <trkpt lat="48.94075" lon="1.74486">
        <ele>134.241</ele>
        <time>2016-06-10T16:15:15Z</time>
      </trkpt>
      <trkpt lat="48.94074" lon="1.74451">
        <ele>134.241</ele>
        <time>2016-06-10T16:15:22Z</time>
      </trkpt>
      <trkpt lat="48.9407" lon="1.74417">
        <ele>133.76</ele>
        <time>2016-06-10T16:15:28Z</time>
      </trkpt>
      <trkpt lat="48.94063" lon="1.74375">
        <ele>134.241</ele>
        <time>2016-06-10T16:15:35Z</time>
      </trkpt>
      <trkpt lat="48.94055" lon="1.74323">
        <ele>134.722</ele>
        <time>2016-06-10T16:15:43Z</time>
      </trkpt>
      <trkpt lat="48.94047" lon="1.74274">
        <ele>135.203</ele>
        <time>2016-06-10T16:15:51Z</time>
      </trkpt>
      <trkpt lat="48.94041" lon="1.74232">
        <ele>135.683</ele>
        <time>2016-06-10T16:15:57Z</time>
      </trkpt>
      <trkpt lat="48.9404" lon="1.74225">
        <ele>135.683</ele>
        <time>2016-06-10T16:15:58Z</time>
      </trkpt>
      <trkpt lat="48.94028" lon="1.74169">
        <ele>135.203</ele>
        <time>2016-06-10T16:16:07Z</time>
      </trkpt>
      <trkpt lat="48.94017" lon="1.74136">
        <ele>135.203</ele>
        <time>2016-06-10T16:16:15Z</time>
      </trkpt>
      <trkpt lat="48.94009" lon="1.74111">
        <ele>136.164</ele>
        <time>2016-06-10T16:16:22Z</time>
      </trkpt>
      <trkpt lat="48.94003" lon="1.74093">
        <ele>137.125</ele>
        <time>2016-06-10T16:16:30Z</time>
      </trkpt>
      <trkpt lat="48.93996" lon="1.74079">
        <ele>139.528</ele>
        <time>2016-06-10T16:16:36Z</time>
      </trkpt>
      <trkpt lat="48.93993" lon="1.74066">
        <ele>140.97</ele>
        <time>2016-06-10T16:16:43Z</time>
      </trkpt>
      <trkpt lat="48.93991" lon="1.74053">
        <ele>140.49</ele>
        <time>2016-06-10T16:16:49Z</time>
      </trkpt>
      <trkpt lat="48.93987" lon="1.74039">
        <ele>139.048</ele>
        <time>2016-06-10T16:16:58Z</time>
      </trkpt>
      <trkpt lat="48.93983" lon="1.74032">
        <ele>139.048</ele>
        <time>2016-06-10T16:17:09Z</time>
      </trkpt>
      <trkpt lat="48.93981" lon="1.74019">
        <ele>139.048</ele>
        <time>2016-06-10T16:17:16Z</time>
      </trkpt>
      <trkpt lat="48.93975" lon="1.74005">
        <ele>140.009</ele>
        <time>2016-06-10T16:17:23Z</time>
      </trkpt>
      <trkpt lat="48.93967" lon="1.73988">
        <ele>140.49</ele>
        <time>2016-06-10T16:17:34Z</time>
      </trkpt>
      <trkpt lat="48.9396" lon="1.73979">
        <ele>140.49</ele>
        <time>2016-06-10T16:17:41Z</time>
      </trkpt>
      <trkpt lat="48.93957" lon="1.73967">
        <ele>140.97</ele>
        <time>2016-06-10T16:17:48Z</time>
      </trkpt>
      <trkpt lat="48.93947" lon="1.73943">
        <ele>140.49</ele>
        <time>2016-06-10T16:18:01Z</time>
      </trkpt>
      <trkpt lat="48.9394" lon="1.73926">
        <ele>139.528</ele>
        <time>2016-06-10T16:18:07Z</time>
      </trkpt>
      <trkpt lat="48.93925" lon="1.73883">
        <ele>138.087</ele>
        <time>2016-06-10T16:18:16Z</time>
      </trkpt>
      <trkpt lat="48.93912" lon="1.73838">
        <ele>136.164</ele>
        <time>2016-06-10T16:18:25Z</time>
      </trkpt>
      <trkpt lat="48.93903" lon="1.73808">
        <ele>135.203</ele>
        <time>2016-06-10T16:18:33Z</time>
      </trkpt>
      <trkpt lat="48.93894" lon="1.73781">
        <ele>135.203</ele>
        <time>2016-06-10T16:18:43Z</time>
      </trkpt>
      <trkpt lat="48.93885" lon="1.73756">
        <ele>135.683</ele>
        <time>2016-06-10T16:18:50Z</time>
      </trkpt>
      <trkpt lat="48.93875" lon="1.73726">
        <ele>136.164</ele>
        <time>2016-06-10T16:18:57Z</time>
      </trkpt>
      <trkpt lat="48.93867" lon="1.73701">
        <ele>136.164</ele>
        <time>2016-06-10T16:19:04Z</time>
      </trkpt>
      <trkpt lat="48.93861" lon="1.73683">
        <ele>135.683</ele>
        <time>2016-06-10T16:19:13Z</time>
      </trkpt>
      <trkpt lat="48.93854" lon="1.73658">
        <ele>135.203</ele>
        <time>2016-06-10T16:19:25Z</time>
      </trkpt>
      <trkpt lat="48.93846" lon="1.73638">
        <ele>134.722</ele>
        <time>2016-06-10T16:19:36Z</time>
      </trkpt>
      <trkpt lat="48.93842" lon="1.73622">
        <ele>134.241</ele>
        <time>2016-06-10T16:19:44Z</time>
      </trkpt>
      <trkpt lat="48.93837" lon="1.73607">
        <ele>134.241</ele>
        <time>2016-06-10T16:19:52Z</time>
      </trkpt>
      <trkpt lat="48.93831" lon="1.73601">
        <ele>133.76</ele>
        <time>2016-06-10T16:19:57Z</time>
      </trkpt>
      <trkpt lat="48.93823" lon="1.73581">
        <ele>133.76</ele>
        <time>2016-06-10T16:20:08Z</time>
      </trkpt>
      <trkpt lat="48.93819" lon="1.73566">
        <ele>133.76</ele>
        <time>2016-06-10T16:20:15Z</time>
      </trkpt>
      <trkpt lat="48.93811" lon="1.73547">
        <ele>133.28</ele>
        <time>2016-06-10T16:20:25Z</time>
      </trkpt>
      <trkpt lat="48.93803" lon="1.73525">
        <ele>131.838</ele>
        <time>2016-06-10T16:20:36Z</time>
      </trkpt>
      <trkpt lat="48.93796" lon="1.73508">
        <ele>131.838</ele>
        <time>2016-06-10T16:20:45Z</time>
      </trkpt>
      <trkpt lat="48.93789" lon="1.7349">
        <ele>131.357</ele>
        <time>2016-06-10T16:20:54Z</time>
      </trkpt>
      <trkpt lat="48.93784" lon="1.73478">
        <ele>131.357</ele>
        <time>2016-06-10T16:21:02Z</time>
      </trkpt>
      <trkpt lat="48.93781" lon="1.73471">
        <ele>131.357</ele>
        <time>2016-06-10T16:21:21Z</time>
      </trkpt>
      <trkpt lat="48.93774" lon="1.73451">
        <ele>130.877</ele>
        <time>2016-06-10T16:21:31Z</time>
      </trkpt>
      <trkpt lat="48.93767" lon="1.73434">
        <ele>130.396</ele>
        <time>2016-06-10T16:21:39Z</time>
      </trkpt>
      <trkpt lat="48.93767" lon="1.73433">
        <ele>129.915</ele>
        <time>2016-06-10T16:21:43Z</time>
      </trkpt>
      <trkpt lat="48.93765" lon="1.73426">
        <ele>129.435</ele>
        <time>2016-06-10T16:21:47Z</time>
      </trkpt>
      <trkpt lat="48.93761" lon="1.73419">
        <ele>129.435</ele>
        <time>2016-06-10T16:21:53Z</time>
      </trkpt>
      <trkpt lat="48.93761" lon="1.73418">
        <ele>129.435</ele>
        <time>2016-06-10T16:21:55Z</time>
      </trkpt>
      <trkpt lat="48.93759" lon="1.73416">
        <ele>129.435</ele>
        <time>2016-06-10T16:21:57Z</time>
      </trkpt>
      <trkpt lat="48.93751" lon="1.73398">
        <ele>127.512</ele>
        <time>2016-06-10T16:22:08Z</time>
      </trkpt>
      <trkpt lat="48.93747" lon="1.73387">
        <ele>126.551</ele>
        <time>2016-06-10T16:22:15Z</time>
      </trkpt>
      <trkpt lat="48.9374" lon="1.73368">
        <ele>125.589</ele>
        <time>2016-06-10T16:22:25Z</time>
      </trkpt>
      <trkpt lat="48.93738" lon="1.73364">
        <ele>125.589</ele>
        <time>2016-06-10T16:22:30Z</time>
      </trkpt>
      <trkpt lat="48.93736" lon="1.73357">
        <ele>126.07</ele>
        <time>2016-06-10T16:23:25Z</time>
      </trkpt>
      <trkpt lat="48.93735" lon="1.73352">
        <ele>126.07</ele>
        <time>2016-06-10T16:23:28Z</time>
      </trkpt>
      <trkpt lat="48.93734" lon="1.73334">
        <ele>125.589</ele>
        <time>2016-06-10T16:23:39Z</time>
      </trkpt>
      <trkpt lat="48.93731" lon="1.73316">
        <ele>126.07</ele>
        <time>2016-06-10T16:23:49Z</time>
      </trkpt>
      <trkpt lat="48.93729" lon="1.73302">
        <ele>127.031</ele>
        <time>2016-06-10T16:23:56Z</time>
      </trkpt>
      <trkpt lat="48.93727" lon="1.73294">
        <ele>127.031</ele>
        <time>2016-06-10T16:24:02Z</time>
      </trkpt>
      <trkpt lat="48.93727" lon="1.73287">
        <ele>127.031</ele>
        <time>2016-06-10T16:24:22Z</time>
      </trkpt>
      <trkpt lat="48.93727" lon="1.73285">
        <ele>127.031</ele>
        <time>2016-06-10T16:24:23Z</time>
      </trkpt>
      <trkpt lat="48.93725" lon="1.73268">
        <ele>127.993</ele>
        <time>2016-06-10T16:24:30Z</time>
      </trkpt>
      <trkpt lat="48.93719" lon="1.73235">
        <ele>129.915</ele>
        <time>2016-06-10T16:24:37Z</time>
      </trkpt>
      <trkpt lat="48.9371" lon="1.73189">
        <ele>132.319</ele>
        <time>2016-06-10T16:24:47Z</time>
      </trkpt>
      <trkpt lat="48.937" lon="1.73153">
        <ele>134.241</ele>
        <time>2016-06-10T16:24:55Z</time>
      </trkpt>
      <trkpt lat="48.93688" lon="1.73153">
        <ele>135.203</ele>
        <time>2016-06-10T16:24:59Z</time>
      </trkpt>
      <trkpt lat="48.93673" lon="1.7316">
        <ele>135.203</ele>
        <time>2016-06-10T16:25:06Z</time>
      </trkpt>
      <trkpt lat="48.93661" lon="1.73168">
        <ele>135.203</ele>
        <time>2016-06-10T16:25:14Z</time>
      </trkpt>
      <trkpt lat="48.93648" lon="1.73177">
        <ele>134.722</ele>
        <time>2016-06-10T16:25:22Z</time>
      </trkpt>
      <trkpt lat="48.9364" lon="1.73186">
        <ele>134.722</ele>
        <time>2016-06-10T16:25:29Z</time>
      </trkpt>
      <trkpt lat="48.93635" lon="1.7319">
        <ele>134.722</ele>
        <time>2016-06-10T16:25:32Z</time>
      </trkpt>
      <trkpt lat="48.93627" lon="1.73197">
        <ele>134.722</ele>
        <time>2016-06-10T16:25:37Z</time>
      </trkpt>
      <trkpt lat="48.93617" lon="1.73208">
        <ele>135.203</ele>
        <time>2016-06-10T16:25:44Z</time>
      </trkpt>
      <trkpt lat="48.93604" lon="1.7322">
        <ele>135.203</ele>
        <time>2016-06-10T16:25:50Z</time>
      </trkpt>
      <trkpt lat="48.93593" lon="1.73231">
        <ele>134.722</ele>
        <time>2016-06-10T16:25:55Z</time>
      </trkpt>
      <trkpt lat="48.93571" lon="1.73251">
        <ele>134.722</ele>
        <time>2016-06-10T16:26:03Z</time>
      </trkpt>
      <trkpt lat="48.93558" lon="1.73266">
        <ele>135.203</ele>
        <time>2016-06-10T16:26:09Z</time>
      </trkpt>
      <trkpt lat="48.93543" lon="1.7328">
        <ele>135.203</ele>
        <time>2016-06-10T16:26:17Z</time>
      </trkpt>
      <trkpt lat="48.93527" lon="1.73295">
        <ele>134.722</ele>
        <time>2016-06-10T16:26:23Z</time>
      </trkpt>
      <trkpt lat="48.93518" lon="1.73301">
        <ele>134.722</ele>
        <time>2016-06-10T16:26:29Z</time>
      </trkpt>
      <trkpt lat="48.93517" lon="1.73302">
        <ele>135.203</ele>
        <time>2016-06-10T16:26:33Z</time>
      </trkpt>
      <trkpt lat="48.93518" lon="1.73305">
        <ele>137.606</ele>
        <time>2016-06-10T16:27:07Z</time>
      </trkpt>
      <trkpt lat="48.93513" lon="1.7331">
        <ele>137.606</ele>
        <time>2016-06-10T16:27:13Z</time>
      </trkpt>
      <trkpt lat="48.93514" lon="1.73311">
        <ele>137.606</ele>
        <time>2016-06-10T16:27:20Z</time>
      </trkpt>
      <trkpt lat="48.93513" lon="1.73311">
        <ele>137.606</ele>
        <time>2016-06-10T16:27:27Z</time>
      </trkpt>
      <trkpt lat="48.93506" lon="1.73316">
        <ele>137.606</ele>
        <time>2016-06-10T16:27:33Z</time>
      </trkpt>
      <trkpt lat="48.93505" lon="1.73317">
        <ele>137.125</ele>
        <time>2016-06-10T16:27:38Z</time>
      </trkpt>
      <trkpt lat="48.93506" lon="1.73316">
        <ele>137.125</ele>
        <time>2016-06-10T16:27:39Z</time>
      </trkpt>
      <trkpt lat="48.93514" lon="1.73308">
        <ele>137.125</ele>
        <time>2016-06-10T16:27:46Z</time>
      </trkpt>
      <trkpt lat="48.93516" lon="1.73306">
        <ele>136.645</ele>
        <time>2016-06-10T16:27:51Z</time>
      </trkpt>
      <trkpt lat="48.93517" lon="1.73301">
        <ele>136.645</ele>
        <time>2016-06-10T16:27:58Z</time>
      </trkpt>
      <trkpt lat="48.93516" lon="1.73298">
        <ele>136.645</ele>
        <time>2016-06-10T16:28:16Z</time>
      </trkpt>
      <trkpt lat="48.93512" lon="1.73285">
        <ele>136.645</ele>
        <time>2016-06-10T16:28:24Z</time>
      </trkpt>
      <trkpt lat="48.93508" lon="1.73269">
        <ele>137.125</ele>
        <time>2016-06-10T16:28:32Z</time>
      </trkpt>
      <trkpt lat="48.93506" lon="1.73258">
        <ele>137.606</ele>
        <time>2016-06-10T16:28:38Z</time>
      </trkpt>
      <trkpt lat="48.93509" lon="1.73249">
        <ele>138.087</ele>
        <time>2016-06-10T16:28:43Z</time>
      </trkpt>
      <trkpt lat="48.93507" lon="1.73236">
        <ele>138.567</ele>
        <time>2016-06-10T16:28:50Z</time>
      </trkpt>
      <trkpt lat="48.93503" lon="1.73222">
        <ele>140.009</ele>
        <time>2016-06-10T16:28:57Z</time>
      </trkpt>
      <trkpt lat="48.93498" lon="1.73204">
        <ele>140.49</ele>
        <time>2016-06-10T16:29:06Z</time>
      </trkpt>
      <trkpt lat="48.93491" lon="1.73181">
        <ele>141.932</ele>
        <time>2016-06-10T16:29:17Z</time>
      </trkpt>
      <trkpt lat="48.93486" lon="1.73163">
        <ele>142.412</ele>
        <time>2016-06-10T16:29:26Z</time>
      </trkpt>
      <trkpt lat="48.9348" lon="1.73143">
        <ele>143.374</ele>
        <time>2016-06-10T16:29:36Z</time>
      </trkpt>
      <trkpt lat="48.93474" lon="1.73124">
        <ele>144.335</ele>
        <time>2016-06-10T16:29:46Z</time>
      </trkpt>
      <trkpt lat="48.93468" lon="1.73103">
        <ele>144.816</ele>
        <time>2016-06-10T16:29:57Z</time>
      </trkpt>
      <trkpt lat="48.93461" lon="1.73079">
        <ele>145.296</ele>
        <time>2016-06-10T16:30:07Z</time>
      </trkpt>
      <trkpt lat="48.93455" lon="1.7306">
        <ele>145.777</ele>
        <time>2016-06-10T16:30:15Z</time>
      </trkpt>
      <trkpt lat="48.93448" lon="1.73036">
        <ele>146.738</ele>
        <time>2016-06-10T16:30:27Z</time>
      </trkpt>
      <trkpt lat="48.93444" lon="1.7302">
        <ele>148.18</ele>
        <time>2016-06-10T16:30:35Z</time>
      </trkpt>
      <trkpt lat="48.93438" lon="1.72997">
        <ele>148.661</ele>
        <time>2016-06-10T16:30:45Z</time>
      </trkpt>
      <trkpt lat="48.9343" lon="1.72971">
        <ele>150.103</ele>
        <time>2016-06-10T16:30:57Z</time>
      </trkpt>
      <trkpt lat="48.93423" lon="1.72945">
        <ele>151.064</ele>
        <time>2016-06-10T16:31:08Z</time>
      </trkpt>
      <trkpt lat="48.93416" lon="1.72924">
        <ele>151.545</ele>
        <time>2016-06-10T16:31:18Z</time>
      </trkpt>
      <trkpt lat="48.93409" lon="1.72898">
        <ele>152.506</ele>
        <time>2016-06-10T16:31:31Z</time>
      </trkpt>
      <trkpt lat="48.93402" lon="1.72876">
        <ele>152.987</ele>
        <time>2016-06-10T16:31:41Z</time>
      </trkpt>
      <trkpt lat="48.93395" lon="1.72853">
        <ele>152.987</ele>
        <time>2016-06-10T16:31:50Z</time>
      </trkpt>
      <trkpt lat="48.93389" lon="1.72832">
        <ele>153.468</ele>
        <time>2016-06-10T16:32:00Z</time>
      </trkpt>
      <trkpt lat="48.9338" lon="1.72801">
        <ele>154.429</ele>
        <time>2016-06-10T16:32:13Z</time>
      </trkpt>
      <trkpt lat="48.93373" lon="1.72778">
        <ele>154.91</ele>
        <time>2016-06-10T16:32:24Z</time>
      </trkpt>
      <trkpt lat="48.93371" lon="1.72773">
        <ele>154.91</ele>
        <time>2016-06-10T16:32:29Z</time>
      </trkpt>
      <trkpt lat="48.93364" lon="1.72745">
        <ele>154.429</ele>
        <time>2016-06-10T16:32:42Z</time>
      </trkpt>
      <trkpt lat="48.93357" lon="1.72721">
        <ele>154.91</ele>
        <time>2016-06-10T16:32:53Z</time>
      </trkpt>
      <trkpt lat="48.93354" lon="1.72709">
        <ele>154.91</ele>
        <time>2016-06-10T16:33:01Z</time>
      </trkpt>
      <trkpt lat="48.93352" lon="1.727">
        <ele>154.91</ele>
        <time>2016-06-10T16:33:09Z</time>
      </trkpt>
      <trkpt lat="48.93345" lon="1.72679">
        <ele>155.871</ele>
        <time>2016-06-10T16:33:17Z</time>
      </trkpt>
      <trkpt lat="48.93339" lon="1.72658">
        <ele>155.871</ele>
        <time>2016-06-10T16:33:27Z</time>
      </trkpt>
      <trkpt lat="48.93335" lon="1.72648">
        <ele>155.871</ele>
        <time>2016-06-10T16:33:32Z</time>
      </trkpt>
      <trkpt lat="48.93333" lon="1.7263">
        <ele>155.39</ele>
        <time>2016-06-10T16:33:40Z</time>
      </trkpt>
      <trkpt lat="48.93332" lon="1.72627">
        <ele>155.39</ele>
        <time>2016-06-10T16:33:41Z</time>
      </trkpt>
      <trkpt lat="48.93327" lon="1.7261">
        <ele>155.39</ele>
        <time>2016-06-10T16:33:46Z</time>
      </trkpt>
      <trkpt lat="48.93313" lon="1.72559">
        <ele>155.871</ele>
        <time>2016-06-10T16:33:56Z</time>
      </trkpt>
      <trkpt lat="48.93301" lon="1.72519">
        <ele>155.871</ele>
        <time>2016-06-10T16:34:04Z</time>
      </trkpt>
      <trkpt lat="48.93294" lon="1.72492">
        <ele>155.39</ele>
        <time>2016-06-10T16:34:10Z</time>
      </trkpt>
      <trkpt lat="48.93286" lon="1.72462">
        <ele>155.39</ele>
        <time>2016-06-10T16:34:16Z</time>
      </trkpt>
      <trkpt lat="48.93281" lon="1.72447">
        <ele>155.39</ele>
        <time>2016-06-10T16:34:21Z</time>
      </trkpt>
      <trkpt lat="48.9328" lon="1.72443">
        <ele>155.871</ele>
        <time>2016-06-10T16:34:27Z</time>
      </trkpt>
      <trkpt lat="48.93281" lon="1.72441">
        <ele>155.871</ele>
        <time>2016-06-10T16:34:38Z</time>
      </trkpt>
      <trkpt lat="48.93289" lon="1.72437">
        <ele>155.39</ele>
        <time>2016-06-10T16:34:46Z</time>
      </trkpt>
      <trkpt lat="48.93295" lon="1.72435">
        <ele>154.91</ele>
        <time>2016-06-10T16:34:51Z</time>
      </trkpt>
      <trkpt lat="48.93296" lon="1.72435">
        <ele>154.91</ele>
        <time>2016-06-10T16:34:56Z</time>
      </trkpt>
      <trkpt lat="48.93295" lon="1.72434">
        <ele>154.429</ele>
        <time>2016-06-10T16:35:11Z</time>
      </trkpt>
      <trkpt lat="48.93295" lon="1.72435">
        <ele>154.429</ele>
        <time>2016-06-10T16:35:21Z</time>
      </trkpt>
      <trkpt lat="48.93294" lon="1.72435">
        <ele>153.948</ele>
        <time>2016-06-10T16:35:22Z</time>
      </trkpt>
      <trkpt lat="48.93281" lon="1.72439">
        <ele>153.948</ele>
        <time>2016-06-10T16:35:30Z</time>
      </trkpt>
      <trkpt lat="48.93271" lon="1.72442">
        <ele>154.429</ele>
        <time>2016-06-10T16:35:37Z</time>
      </trkpt>
      <trkpt lat="48.93264" lon="1.72434">
        <ele>154.429</ele>
        <time>2016-06-10T16:35:42Z</time>
      </trkpt>
      <trkpt lat="48.9326" lon="1.72433">
        <ele>154.429</ele>
        <time>2016-06-10T16:35:44Z</time>
      </trkpt>
      <trkpt lat="48.93247" lon="1.72438">
        <ele>154.91</ele>
        <time>2016-06-10T16:35:51Z</time>
      </trkpt>
      <trkpt lat="48.93232" lon="1.72445">
        <ele>155.39</ele>
        <time>2016-06-10T16:36:00Z</time>
      </trkpt>
      <trkpt lat="48.93223" lon="1.7244">
        <ele>155.39</ele>
        <time>2016-06-10T16:36:08Z</time>
      </trkpt>
      <trkpt lat="48.9322" lon="1.7244">
        <ele>155.39</ele>
        <time>2016-06-10T16:36:13Z</time>
      </trkpt>
      <trkpt lat="48.93216" lon="1.72438">
        <ele>155.39</ele>
        <time>2016-06-10T16:36:20Z</time>
      </trkpt>
      <trkpt lat="48.93216" lon="1.72439">
        <ele>155.39</ele>
        <time>2016-06-10T16:36:22Z</time>
      </trkpt>
      <trkpt lat="48.93217" lon="1.72441">
        <ele>155.39</ele>
        <time>2016-06-10T16:36:23Z</time>
      </trkpt>
      <trkpt lat="48.93218" lon="1.72453">
        <ele>155.39</ele>
        <time>2016-06-10T16:36:29Z</time>
      </trkpt>
      <trkpt lat="48.93216" lon="1.72455">
        <ele>155.39</ele>
        <time>2016-06-10T16:36:31Z</time>
      </trkpt>
      <trkpt lat="48.93212" lon="1.72458">
        <ele>155.871</ele>
        <time>2016-06-10T16:36:37Z</time>
      </trkpt>
      <trkpt lat="48.93205" lon="1.72462">
        <ele>155.871</ele>
        <time>2016-06-10T16:36:43Z</time>
      </trkpt>
      <trkpt lat="48.93189" lon="1.72473">
        <ele>154.91</ele>
        <time>2016-06-10T16:36:54Z</time>
      </trkpt>
      <trkpt lat="48.93185" lon="1.72476">
        <ele>154.91</ele>
        <time>2016-06-10T16:36:57Z</time>
      </trkpt>
      <trkpt lat="48.93174" lon="1.72485">
        <ele>155.39</ele>
        <time>2016-06-10T16:37:05Z</time>
      </trkpt>
      <trkpt lat="48.93161" lon="1.72495">
        <ele>154.429</ele>
        <time>2016-06-10T16:37:15Z</time>
      </trkpt>
      <trkpt lat="48.93144" lon="1.72508">
        <ele>153.948</ele>
        <time>2016-06-10T16:37:27Z</time>
      </trkpt>
      <trkpt lat="48.93132" lon="1.72517">
        <ele>153.948</ele>
        <time>2016-06-10T16:37:36Z</time>
      </trkpt>
      <trkpt lat="48.9311" lon="1.72534">
        <ele>153.948</ele>
        <time>2016-06-10T16:37:51Z</time>
      </trkpt>
      <trkpt lat="48.93094" lon="1.72548">
        <ele>153.948</ele>
        <time>2016-06-10T16:38:01Z</time>
      </trkpt>
      <trkpt lat="48.93077" lon="1.72561">
        <ele>153.468</ele>
        <time>2016-06-10T16:38:13Z</time>
      </trkpt>
      <trkpt lat="48.93067" lon="1.72568">
        <ele>153.468</ele>
        <time>2016-06-10T16:38:20Z</time>
      </trkpt>
      <trkpt lat="48.93056" lon="1.72576">
        <ele>152.987</ele>
        <time>2016-06-10T16:38:27Z</time>
      </trkpt>
      <trkpt lat="48.93047" lon="1.72585">
        <ele>152.987</ele>
        <time>2016-06-10T16:38:33Z</time>
      </trkpt>
      <trkpt lat="48.93038" lon="1.72593">
        <ele>152.987</ele>
        <time>2016-06-10T16:38:39Z</time>
      </trkpt>
      <trkpt lat="48.93022" lon="1.72607">
        <ele>152.506</ele>
        <time>2016-06-10T16:38:49Z</time>
      </trkpt>
      <trkpt lat="48.93005" lon="1.72621">
        <ele>152.506</ele>
        <time>2016-06-10T16:39:00Z</time>
      </trkpt>
      <trkpt lat="48.92991" lon="1.72633">
        <ele>152.506</ele>
        <time>2016-06-10T16:39:10Z</time>
      </trkpt>
      <trkpt lat="48.92976" lon="1.72646">
        <ele>152.506</ele>
        <time>2016-06-10T16:39:20Z</time>
      </trkpt>
      <trkpt lat="48.92959" lon="1.72661">
        <ele>152.506</ele>
        <time>2016-06-10T16:39:31Z</time>
      </trkpt>
      <trkpt lat="48.92946" lon="1.72672">
        <ele>152.987</ele>
        <time>2016-06-10T16:39:39Z</time>
      </trkpt>
      <trkpt lat="48.92925" lon="1.72691">
        <ele>153.948</ele>
        <time>2016-06-10T16:39:53Z</time>
      </trkpt>
      <trkpt lat="48.92904" lon="1.72709">
        <ele>154.429</ele>
        <time>2016-06-10T16:40:06Z</time>
      </trkpt>
      <trkpt lat="48.9289" lon="1.72721">
        <ele>154.429</ele>
        <time>2016-06-10T16:40:14Z</time>
      </trkpt>
      <trkpt lat="48.92881" lon="1.72727">
        <ele>154.429</ele>
        <time>2016-06-10T16:40:19Z</time>
      </trkpt>
      <trkpt lat="48.92872" lon="1.72714">
        <ele>153.948</ele>
        <time>2016-06-10T16:40:27Z</time>
      </trkpt>
      <trkpt lat="48.92865" lon="1.727">
        <ele>154.429</ele>
        <time>2016-06-10T16:40:35Z</time>
      </trkpt>
      <trkpt lat="48.92858" lon="1.72681">
        <ele>154.91</ele>
        <time>2016-06-10T16:40:45Z</time>
      </trkpt>
      <trkpt lat="48.92851" lon="1.72661">
        <ele>154.91</ele>
        <time>2016-06-10T16:40:55Z</time>
      </trkpt>
      <trkpt lat="48.92845" lon="1.72646">
        <ele>155.39</ele>
        <time>2016-06-10T16:41:03Z</time>
      </trkpt>
      <trkpt lat="48.92837" lon="1.72625">
        <ele>155.39</ele>
        <time>2016-06-10T16:41:13Z</time>
      </trkpt>
      <trkpt lat="48.92831" lon="1.72609">
        <ele>154.91</ele>
        <time>2016-06-10T16:41:21Z</time>
      </trkpt>
      <trkpt lat="48.92826" lon="1.72599">
        <ele>155.39</ele>
        <time>2016-06-10T16:41:26Z</time>
      </trkpt>
      <trkpt lat="48.92816" lon="1.72574">
        <ele>154.91</ele>
        <time>2016-06-10T16:41:39Z</time>
      </trkpt>
      <trkpt lat="48.92808" lon="1.72559">
        <ele>155.39</ele>
        <time>2016-06-10T16:41:48Z</time>
      </trkpt>
      <trkpt lat="48.92802" lon="1.72545">
        <ele>154.91</ele>
        <time>2016-06-10T16:41:55Z</time>
      </trkpt>
      <trkpt lat="48.92798" lon="1.72531">
        <ele>154.91</ele>
        <time>2016-06-10T16:42:02Z</time>
      </trkpt>
      <trkpt lat="48.92792" lon="1.72519">
        <ele>155.39</ele>
        <time>2016-06-10T16:42:09Z</time>
      </trkpt>
      <trkpt lat="48.92786" lon="1.72504">
        <ele>155.39</ele>
        <time>2016-06-10T16:42:17Z</time>
      </trkpt>
      <trkpt lat="48.92778" lon="1.72483">
        <ele>155.39</ele>
        <time>2016-06-10T16:42:27Z</time>
      </trkpt>
      <trkpt lat="48.92772" lon="1.72466">
        <ele>155.39</ele>
        <time>2016-06-10T16:42:36Z</time>
      </trkpt>
      <trkpt lat="48.92763" lon="1.72445">
        <ele>154.91</ele>
        <time>2016-06-10T16:42:48Z</time>
      </trkpt>
      <trkpt lat="48.92758" lon="1.72432">
        <ele>155.39</ele>
        <time>2016-06-10T16:42:55Z</time>
      </trkpt>
      <trkpt lat="48.9275" lon="1.72411">
        <ele>154.91</ele>
        <time>2016-06-10T16:43:04Z</time>
      </trkpt>
      <trkpt lat="48.92743" lon="1.72394">
        <ele>154.91</ele>
        <time>2016-06-10T16:43:12Z</time>
      </trkpt>
      <trkpt lat="48.92735" lon="1.72374">
        <ele>154.429</ele>
        <time>2016-06-10T16:43:22Z</time>
      </trkpt>
      <trkpt lat="48.92728" lon="1.72352">
        <ele>153.948</ele>
        <time>2016-06-10T16:43:32Z</time>
      </trkpt>
      <trkpt lat="48.92722" lon="1.72339">
        <ele>153.468</ele>
        <time>2016-06-10T16:43:40Z</time>
      </trkpt>
      <trkpt lat="48.92714" lon="1.72319">
        <ele>153.468</ele>
        <time>2016-06-10T16:43:51Z</time>
      </trkpt>
      <trkpt lat="48.92706" lon="1.72302">
        <ele>154.429</ele>
        <time>2016-06-10T16:44:00Z</time>
      </trkpt>
      <trkpt lat="48.927" lon="1.72291">
        <ele>154.91</ele>
        <time>2016-06-10T16:44:07Z</time>
      </trkpt>
      <trkpt lat="48.92692" lon="1.72283">
        <ele>154.429</ele>
        <time>2016-06-10T16:44:14Z</time>
      </trkpt>
      <trkpt lat="48.92676" lon="1.72282">
        <ele>153.948</ele>
        <time>2016-06-10T16:44:23Z</time>
      </trkpt>
      <trkpt lat="48.92655" lon="1.72279">
        <ele>153.468</ele>
        <time>2016-06-10T16:44:29Z</time>
      </trkpt>
      <trkpt lat="48.92624" lon="1.72276">
        <ele>152.987</ele>
        <time>2016-06-10T16:44:36Z</time>
      </trkpt>
      <trkpt lat="48.926" lon="1.72275">
        <ele>153.468</ele>
        <time>2016-06-10T16:44:42Z</time>
      </trkpt>
      <trkpt lat="48.92596" lon="1.72275">
        <ele>153.468</ele>
        <time>2016-06-10T16:44:43Z</time>
      </trkpt>
      <trkpt lat="48.92573" lon="1.72273">
        <ele>152.987</ele>
        <time>2016-06-10T16:44:51Z</time>
      </trkpt>
      <trkpt lat="48.92557" lon="1.7227">
        <ele>153.948</ele>
        <time>2016-06-10T16:44:58Z</time>
      </trkpt>
      <trkpt lat="48.9254" lon="1.7227">
        <ele>153.948</ele>
        <time>2016-06-10T16:45:06Z</time>
      </trkpt>
      <trkpt lat="48.92534" lon="1.7227">
        <ele>153.948</ele>
        <time>2016-06-10T16:45:10Z</time>
      </trkpt>
      <trkpt lat="48.92534" lon="1.7227">
        <ele>153.948</ele>
        <time>2016-06-10T16:45:10Z</time>
      </trkpt>
      <trkpt lat="48.92531" lon="1.7227">
        <ele>153.468</ele>
        <time>2016-06-10T16:45:12Z</time>
      </trkpt>
      <trkpt lat="48.9252" lon="1.7227">
        <ele>153.948</ele>
        <time>2016-06-10T16:45:19Z</time>
      </trkpt>
      <trkpt lat="48.92507" lon="1.72269">
        <ele>152.987</ele>
        <time>2016-06-10T16:45:28Z</time>
      </trkpt>
      <trkpt lat="48.92493" lon="1.7227">
        <ele>152.506</ele>
        <time>2016-06-10T16:45:36Z</time>
      </trkpt>
      <trkpt lat="48.92484" lon="1.72269">
        <ele>152.506</ele>
        <time>2016-06-10T16:45:42Z</time>
      </trkpt>
      <trkpt lat="48.92473" lon="1.72268">
        <ele>152.026</ele>
        <time>2016-06-10T16:45:49Z</time>
      </trkpt>
      <trkpt lat="48.9246" lon="1.72266">
        <ele>150.584</ele>
        <time>2016-06-10T16:45:57Z</time>
      </trkpt>
      <trkpt lat="48.92449" lon="1.72265">
        <ele>150.103</ele>
        <time>2016-06-10T16:46:05Z</time>
      </trkpt>
      <trkpt lat="48.92439" lon="1.72265">
        <ele>149.622</ele>
        <time>2016-06-10T16:46:11Z</time>
      </trkpt>
      <trkpt lat="48.92424" lon="1.72265">
        <ele>150.103</ele>
        <time>2016-06-10T16:46:19Z</time>
      </trkpt>
      <trkpt lat="48.92408" lon="1.72264">
        <ele>150.584</ele>
        <time>2016-06-10T16:46:27Z</time>
      </trkpt>
      <trkpt lat="48.92394" lon="1.72264">
        <ele>151.064</ele>
        <time>2016-06-10T16:46:37Z</time>
      </trkpt>
      <trkpt lat="48.92375" lon="1.72264">
        <ele>151.064</ele>
        <time>2016-06-10T16:46:49Z</time>
      </trkpt>
      <trkpt lat="48.92359" lon="1.72263">
        <ele>151.064</ele>
        <time>2016-06-10T16:46:55Z</time>
      </trkpt>
      <trkpt lat="48.9233" lon="1.72259">
        <ele>151.545</ele>
        <time>2016-06-10T16:47:04Z</time>
      </trkpt>
      <trkpt lat="48.92297" lon="1.72255">
        <ele>150.584</ele>
        <time>2016-06-10T16:47:13Z</time>
      </trkpt>
      <trkpt lat="48.92265" lon="1.72251">
        <ele>150.103</ele>
        <time>2016-06-10T16:47:22Z</time>
      </trkpt>
      <trkpt lat="48.92241" lon="1.72249">
        <ele>149.142</ele>
        <time>2016-06-10T16:47:28Z</time>
      </trkpt>
      <trkpt lat="48.9222" lon="1.72246">
        <ele>149.142</ele>
        <time>2016-06-10T16:47:33Z</time>
      </trkpt>
      <trkpt lat="48.92189" lon="1.72244">
        <ele>149.142</ele>
        <time>2016-06-10T16:47:40Z</time>
      </trkpt>
      <trkpt lat="48.92181" lon="1.72244">
        <ele>148.661</ele>
        <time>2016-06-10T16:47:42Z</time>
      </trkpt>
      <trkpt lat="48.9216" lon="1.72242">
        <ele>149.622</ele>
        <time>2016-06-10T16:47:47Z</time>
      </trkpt>
      <trkpt lat="48.92138" lon="1.72241">
        <ele>149.622</ele>
        <time>2016-06-10T16:47:52Z</time>
      </trkpt>
      <trkpt lat="48.92099" lon="1.7224">
        <ele>150.584</ele>
        <time>2016-06-10T16:47:59Z</time>
      </trkpt>
      <trkpt lat="48.92065" lon="1.72241">
        <ele>151.064</ele>
        <time>2016-06-10T16:48:05Z</time>
      </trkpt>
      <trkpt lat="48.9206" lon="1.72241">
        <ele>151.064</ele>
        <time>2016-06-10T16:48:06Z</time>
      </trkpt>
      <trkpt lat="48.92052" lon="1.72239">
        <ele>151.064</ele>
        <time>2016-06-10T16:48:08Z</time>
      </trkpt>
      <trkpt lat="48.92033" lon="1.72238">
        <ele>149.622</ele>
        <time>2016-06-10T16:48:15Z</time>
      </trkpt>
      <trkpt lat="48.92019" lon="1.72236">
        <ele>149.142</ele>
        <time>2016-06-10T16:48:22Z</time>
      </trkpt>
      <trkpt lat="48.92017" lon="1.72235">
        <ele>149.142</ele>
        <time>2016-06-10T16:48:26Z</time>
      </trkpt>
      <trkpt lat="48.92016" lon="1.72235">
        <ele>149.622</ele>
        <time>2016-06-10T16:48:28Z</time>
      </trkpt>
      <trkpt lat="48.92006" lon="1.72236">
        <ele>149.142</ele>
        <time>2016-06-10T16:48:36Z</time>
      </trkpt>
      <trkpt lat="48.91994" lon="1.72236">
        <ele>149.142</ele>
        <time>2016-06-10T16:48:44Z</time>
      </trkpt>
      <trkpt lat="48.91984" lon="1.72235">
        <ele>149.142</ele>
        <time>2016-06-10T16:48:51Z</time>
      </trkpt>
      <trkpt lat="48.91966" lon="1.72234">
        <ele>149.622</ele>
        <time>2016-06-10T16:49:02Z</time>
      </trkpt>
      <trkpt lat="48.9195" lon="1.72233">
        <ele>149.622</ele>
        <time>2016-06-10T16:49:12Z</time>
      </trkpt>
      <trkpt lat="48.91932" lon="1.72231">
        <ele>149.622</ele>
        <time>2016-06-10T16:49:22Z</time>
      </trkpt>
      <trkpt lat="48.91914" lon="1.72228">
        <ele>150.103</ele>
        <time>2016-06-10T16:49:31Z</time>
      </trkpt>
      <trkpt lat="48.919" lon="1.72228">
        <ele>150.103</ele>
        <time>2016-06-10T16:49:38Z</time>
      </trkpt>
      <trkpt lat="48.91885" lon="1.7223">
        <ele>150.103</ele>
        <time>2016-06-10T16:49:46Z</time>
      </trkpt>
      <trkpt lat="48.9187" lon="1.72226">
        <ele>150.103</ele>
        <time>2016-06-10T16:49:54Z</time>
      </trkpt>
      <trkpt lat="48.9186" lon="1.72225">
        <ele>150.103</ele>
        <time>2016-06-10T16:50:00Z</time>
      </trkpt>
      <trkpt lat="48.91848" lon="1.72223">
        <ele>149.622</ele>
        <time>2016-06-10T16:50:09Z</time>
      </trkpt>
      <trkpt lat="48.91836" lon="1.72222">
        <ele>150.103</ele>
        <time>2016-06-10T16:50:16Z</time>
      </trkpt>
      <trkpt lat="48.91815" lon="1.7222">
        <ele>150.103</ele>
        <time>2016-06-10T16:50:29Z</time>
      </trkpt>
      <trkpt lat="48.91802" lon="1.72219">
        <ele>149.622</ele>
        <time>2016-06-10T16:50:37Z</time>
      </trkpt>
      <trkpt lat="48.91785" lon="1.72217">
        <ele>149.142</ele>
        <time>2016-06-10T16:50:47Z</time>
      </trkpt>
      <trkpt lat="48.91765" lon="1.72213">
        <ele>148.18</ele>
        <time>2016-06-10T16:51:00Z</time>
      </trkpt>
      <trkpt lat="48.91748" lon="1.7221">
        <ele>147.7</ele>
        <time>2016-06-10T16:51:11Z</time>
      </trkpt>
      <trkpt lat="48.91732" lon="1.72209">
        <ele>147.7</ele>
        <time>2016-06-10T16:51:22Z</time>
      </trkpt>
      <trkpt lat="48.91721" lon="1.72213">
        <ele>147.7</ele>
        <time>2016-06-10T16:51:29Z</time>
      </trkpt>
      <trkpt lat="48.91709" lon="1.72211">
        <ele>148.18</ele>
        <time>2016-06-10T16:51:37Z</time>
      </trkpt>
      <trkpt lat="48.91692" lon="1.72208">
        <ele>148.18</ele>
        <time>2016-06-10T16:51:47Z</time>
      </trkpt>
      <trkpt lat="48.91674" lon="1.72204">
        <ele>148.18</ele>
        <time>2016-06-10T16:51:58Z</time>
      </trkpt>
      <trkpt lat="48.91658" lon="1.722">
        <ele>148.18</ele>
        <time>2016-06-10T16:52:08Z</time>
      </trkpt>
      <trkpt lat="48.91645" lon="1.72198">
        <ele>148.661</ele>
        <time>2016-06-10T16:52:17Z</time>
      </trkpt>
      <trkpt lat="48.9164" lon="1.72195">
        <ele>148.661</ele>
        <time>2016-06-10T16:52:20Z</time>
      </trkpt>
      <trkpt lat="48.91632" lon="1.7219">
        <ele>149.142</ele>
        <time>2016-06-10T16:52:26Z</time>
      </trkpt>
      <trkpt lat="48.91618" lon="1.72185">
        <ele>149.622</ele>
        <time>2016-06-10T16:52:35Z</time>
      </trkpt>
      <trkpt lat="48.91602" lon="1.72179">
        <ele>149.622</ele>
        <time>2016-06-10T16:52:45Z</time>
      </trkpt>
      <trkpt lat="48.91588" lon="1.72173">
        <ele>149.622</ele>
        <time>2016-06-10T16:52:53Z</time>
      </trkpt>
      <trkpt lat="48.91577" lon="1.72169">
        <ele>149.622</ele>
        <time>2016-06-10T16:53:01Z</time>
      </trkpt>
      <trkpt lat="48.91562" lon="1.7216">
        <ele>151.064</ele>
        <time>2016-06-10T16:53:12Z</time>
      </trkpt>
      <trkpt lat="48.91551" lon="1.72148">
        <ele>152.026</ele>
        <time>2016-06-10T16:53:21Z</time>
      </trkpt>
      <trkpt lat="48.9154" lon="1.7214">
        <ele>152.987</ele>
        <time>2016-06-10T16:53:29Z</time>
      </trkpt>
      <trkpt lat="48.91528" lon="1.72129">
        <ele>152.987</ele>
        <time>2016-06-10T16:53:38Z</time>
      </trkpt>
      <trkpt lat="48.91513" lon="1.72121">
        <ele>152.506</ele>
        <time>2016-06-10T16:53:47Z</time>
      </trkpt>
      <trkpt lat="48.91504" lon="1.7212">
        <ele>152.026</ele>
        <time>2016-06-10T16:53:54Z</time>
      </trkpt>
      <trkpt lat="48.91487" lon="1.72115">
        <ele>151.545</ele>
        <time>2016-06-10T16:54:05Z</time>
      </trkpt>
      <trkpt lat="48.91471" lon="1.72112">
        <ele>151.545</ele>
        <time>2016-06-10T16:54:16Z</time>
      </trkpt>
      <trkpt lat="48.91458" lon="1.7211">
        <ele>151.545</ele>
        <time>2016-06-10T16:54:25Z</time>
      </trkpt>
      <trkpt lat="48.91439" lon="1.72106">
        <ele>151.545</ele>
        <time>2016-06-10T16:54:37Z</time>
      </trkpt>
      <trkpt lat="48.91423" lon="1.72102">
        <ele>151.545</ele>
        <time>2016-06-10T16:54:47Z</time>
      </trkpt>
      <trkpt lat="48.91412" lon="1.72101">
        <ele>151.545</ele>
        <time>2016-06-10T16:54:54Z</time>
      </trkpt>
      <trkpt lat="48.914" lon="1.72098">
        <ele>151.545</ele>
        <time>2016-06-10T16:55:01Z</time>
      </trkpt>
      <trkpt lat="48.91387" lon="1.72095">
        <ele>151.545</ele>
        <time>2016-06-10T16:55:09Z</time>
      </trkpt>
      <trkpt lat="48.91378" lon="1.72093">
        <ele>152.026</ele>
        <time>2016-06-10T16:55:15Z</time>
      </trkpt>
      <trkpt lat="48.91363" lon="1.72091">
        <ele>151.545</ele>
        <time>2016-06-10T16:55:24Z</time>
      </trkpt>
      <trkpt lat="48.91344" lon="1.72088">
        <ele>151.545</ele>
        <time>2016-06-10T16:55:35Z</time>
      </trkpt>
      <trkpt lat="48.91326" lon="1.72085">
        <ele>152.026</ele>
        <time>2016-06-10T16:55:44Z</time>
      </trkpt>
      <trkpt lat="48.91315" lon="1.72081">
        <ele>150.584</ele>
        <time>2016-06-10T16:55:50Z</time>
      </trkpt>
      <trkpt lat="48.91305" lon="1.72081">
        <ele>150.584</ele>
        <time>2016-06-10T16:55:56Z</time>
      </trkpt>
      <trkpt lat="48.9129" lon="1.72077">
        <ele>151.545</ele>
        <time>2016-06-10T16:56:05Z</time>
      </trkpt>
      <trkpt lat="48.91282" lon="1.72074">
        <ele>151.545</ele>
        <time>2016-06-10T16:56:10Z</time>
      </trkpt>
      <trkpt lat="48.91277" lon="1.72073">
        <ele>151.545</ele>
        <time>2016-06-10T16:56:13Z</time>
      </trkpt>
      <trkpt lat="48.91275" lon="1.72073">
        <ele>151.545</ele>
        <time>2016-06-10T16:56:17Z</time>
      </trkpt>
      <trkpt lat="48.91261" lon="1.72066">
        <ele>151.064</ele>
        <time>2016-06-10T16:56:28Z</time>
      </trkpt>
      <trkpt lat="48.91255" lon="1.72063">
        <ele>150.103</ele>
        <time>2016-06-10T16:56:33Z</time>
      </trkpt>
      <trkpt lat="48.91245" lon="1.72056">
        <ele>150.103</ele>
        <time>2016-06-10T16:56:41Z</time>
      </trkpt>
      <trkpt lat="48.91236" lon="1.7205">
        <ele>149.622</ele>
        <time>2016-06-10T16:56:48Z</time>
      </trkpt>
      <trkpt lat="48.91225" lon="1.72044">
        <ele>149.622</ele>
        <time>2016-06-10T16:56:56Z</time>
      </trkpt>
      <trkpt lat="48.91217" lon="1.7204">
        <ele>148.661</ele>
        <time>2016-06-10T16:57:02Z</time>
      </trkpt>
      <trkpt lat="48.91214" lon="1.72037">
        <ele>148.18</ele>
        <time>2016-06-10T16:57:04Z</time>
      </trkpt>
      <trkpt lat="48.91211" lon="1.72033">
        <ele>147.7</ele>
        <time>2016-06-10T16:57:08Z</time>
      </trkpt>
      <trkpt lat="48.9121" lon="1.72032">
        <ele>147.219</ele>
        <time>2016-06-10T16:57:10Z</time>
      </trkpt>
      <trkpt lat="48.91203" lon="1.72033">
        <ele>147.219</ele>
        <time>2016-06-10T16:57:17Z</time>
      </trkpt>
      <trkpt lat="48.91202" lon="1.72033">
        <ele>147.219</ele>
        <time>2016-06-10T16:57:18Z</time>
      </trkpt>
      <trkpt lat="48.91191" lon="1.72038">
        <ele>147.219</ele>
        <time>2016-06-10T16:57:27Z</time>
      </trkpt>
      <trkpt lat="48.91191" lon="1.72045">
        <ele>146.258</ele>
        <time>2016-06-10T16:57:34Z</time>
      </trkpt>
      <trkpt lat="48.91191" lon="1.72046">
        <ele>146.258</ele>
        <time>2016-06-10T16:57:40Z</time>
      </trkpt>
      <trkpt lat="48.91178" lon="1.72055">
        <ele>147.219</ele>
        <time>2016-06-10T16:57:51Z</time>
      </trkpt>
      <trkpt lat="48.91163" lon="1.7207">
        <ele>148.18</ele>
        <time>2016-06-10T16:58:03Z</time>
      </trkpt>
      <trkpt lat="48.91149" lon="1.72083">
        <ele>148.661</ele>
        <time>2016-06-10T16:58:14Z</time>
      </trkpt>
      <trkpt lat="48.91132" lon="1.72099">
        <ele>149.142</ele>
        <time>2016-06-10T16:58:27Z</time>
      </trkpt>
      <trkpt lat="48.91118" lon="1.72111">
        <ele>149.622</ele>
        <time>2016-06-10T16:58:37Z</time>
      </trkpt>
      <trkpt lat="48.91104" lon="1.7212">
        <ele>149.622</ele>
        <time>2016-06-10T16:58:47Z</time>
      </trkpt>
      <trkpt lat="48.91096" lon="1.72114">
        <ele>150.103</ele>
        <time>2016-06-10T16:58:54Z</time>
      </trkpt>
      <trkpt lat="48.91084" lon="1.72103">
        <ele>150.584</ele>
        <time>2016-06-10T16:59:03Z</time>
      </trkpt>
      <trkpt lat="48.91072" lon="1.72091">
        <ele>151.064</ele>
        <time>2016-06-10T16:59:13Z</time>
      </trkpt>
      <trkpt lat="48.91067" lon="1.72087">
        <ele>150.584</ele>
        <time>2016-06-10T16:59:18Z</time>
      </trkpt>
      <trkpt lat="48.91057" lon="1.72077">
        <ele>150.103</ele>
        <time>2016-06-10T16:59:26Z</time>
      </trkpt>
      <trkpt lat="48.91047" lon="1.72066">
        <ele>149.622</ele>
        <time>2016-06-10T16:59:34Z</time>
      </trkpt>
      <trkpt lat="48.91031" lon="1.72053">
        <ele>151.064</ele>
        <time>2016-06-10T16:59:45Z</time>
      </trkpt>
      <trkpt lat="48.91014" lon="1.72037">
        <ele>152.026</ele>
        <time>2016-06-10T16:59:58Z</time>
      </trkpt>
      <trkpt lat="48.90999" lon="1.72023">
        <ele>152.026</ele>
        <time>2016-06-10T17:00:09Z</time>
      </trkpt>
      <trkpt lat="48.90984" lon="1.72008">
        <ele>152.026</ele>
        <time>2016-06-10T17:00:20Z</time>
      </trkpt>
      <trkpt lat="48.90972" lon="1.71998">
        <ele>152.987</ele>
        <time>2016-06-10T17:00:28Z</time>
      </trkpt>
      <trkpt lat="48.90959" lon="1.71992">
        <ele>153.468</ele>
        <time>2016-06-10T17:00:36Z</time>
      </trkpt>
      <trkpt lat="48.90943" lon="1.71986">
        <ele>151.545</ele>
        <time>2016-06-10T17:00:46Z</time>
      </trkpt>
      <trkpt lat="48.90926" lon="1.7198">
        <ele>149.142</ele>
        <time>2016-06-10T17:00:57Z</time>
      </trkpt>
      <trkpt lat="48.90908" lon="1.71975">
        <ele>147.7</ele>
        <time>2016-06-10T17:01:08Z</time>
      </trkpt>
      <trkpt lat="48.90899" lon="1.71972">
        <ele>146.258</ele>
        <time>2016-06-10T17:01:13Z</time>
      </trkpt>
      <trkpt lat="48.90886" lon="1.71971">
        <ele>145.296</ele>
        <time>2016-06-10T17:01:20Z</time>
      </trkpt>
      <trkpt lat="48.9087" lon="1.71968">
        <ele>145.777</ele>
        <time>2016-06-10T17:01:28Z</time>
      </trkpt>
      <trkpt lat="48.90855" lon="1.71966">
        <ele>146.258</ele>
        <time>2016-06-10T17:01:36Z</time>
      </trkpt>
      <trkpt lat="48.90838" lon="1.71965">
        <ele>146.738</ele>
        <time>2016-06-10T17:01:45Z</time>
      </trkpt>
      <trkpt lat="48.90825" lon="1.7196">
        <ele>146.258</ele>
        <time>2016-06-10T17:01:53Z</time>
      </trkpt>
      <trkpt lat="48.90809" lon="1.71957">
        <ele>143.854</ele>
        <time>2016-06-10T17:02:03Z</time>
      </trkpt>
      <trkpt lat="48.90806" lon="1.71956">
        <ele>143.854</ele>
        <time>2016-06-10T17:02:05Z</time>
      </trkpt>
      <trkpt lat="48.90806" lon="1.71956">
        <ele>143.854</ele>
        <time>2016-06-10T17:02:05Z</time>
      </trkpt>
      <trkpt lat="48.90803" lon="1.71956">
        <ele>143.374</ele>
        <time>2016-06-10T17:02:10Z</time>
      </trkpt>
      <trkpt lat="48.90797" lon="1.71953">
        <ele>142.893</ele>
        <time>2016-06-10T17:02:22Z</time>
      </trkpt>
      <trkpt lat="48.90783" lon="1.71945">
        <ele>142.412</ele>
        <time>2016-06-10T17:02:32Z</time>
      </trkpt>
      <trkpt lat="48.90774" lon="1.71939">
        <ele>142.412</ele>
        <time>2016-06-10T17:02:39Z</time>
      </trkpt>
      <trkpt lat="48.90762" lon="1.71931">
        <ele>141.932</ele>
        <time>2016-06-10T17:02:49Z</time>
      </trkpt>
      <trkpt lat="48.90748" lon="1.71923">
        <ele>140.49</ele>
        <time>2016-06-10T17:03:00Z</time>
      </trkpt>
      <trkpt lat="48.90733" lon="1.71914">
        <ele>139.528</ele>
        <time>2016-06-10T17:03:11Z</time>
      </trkpt>
      <trkpt lat="48.90721" lon="1.71906">
        <ele>137.125</ele>
        <time>2016-06-10T17:03:20Z</time>
      </trkpt>
      <trkpt lat="48.9071" lon="1.719">
        <ele>136.645</ele>
        <time>2016-06-10T17:03:28Z</time>
      </trkpt>
      <trkpt lat="48.90707" lon="1.71899">
        <ele>136.645</ele>
        <time>2016-06-10T17:03:30Z</time>
      </trkpt>
      <trkpt lat="48.90703" lon="1.71894">
        <ele>136.164</ele>
        <time>2016-06-10T17:03:34Z</time>
      </trkpt>
      <trkpt lat="48.90699" lon="1.71884">
        <ele>137.125</ele>
        <time>2016-06-10T17:03:41Z</time>
      </trkpt>
      <trkpt lat="48.9069" lon="1.71872">
        <ele>137.125</ele>
        <time>2016-06-10T17:03:48Z</time>
      </trkpt>
      <trkpt lat="48.90679" lon="1.71852">
        <ele>137.125</ele>
        <time>2016-06-10T17:03:57Z</time>
      </trkpt>
      <trkpt lat="48.90667" lon="1.71827">
        <ele>136.645</ele>
        <time>2016-06-10T17:04:10Z</time>
      </trkpt>
      <trkpt lat="48.90665" lon="1.71822">
        <ele>135.683</ele>
        <time>2016-06-10T17:04:15Z</time>
      </trkpt>
      <trkpt lat="48.90666" lon="1.71821">
        <ele>134.722</ele>
        <time>2016-06-10T17:04:23Z</time>
      </trkpt>
      <trkpt lat="48.90663" lon="1.71815">
        <ele>134.722</ele>
        <time>2016-06-10T17:04:31Z</time>
      </trkpt>
      <trkpt lat="48.90657" lon="1.71806">
        <ele>135.203</ele>
        <time>2016-06-10T17:04:36Z</time>
      </trkpt>
      <trkpt lat="48.90649" lon="1.71791">
        <ele>136.164</ele>
        <time>2016-06-10T17:04:45Z</time>
      </trkpt>
      <trkpt lat="48.90642" lon="1.71777">
        <ele>136.164</ele>
        <time>2016-06-10T17:04:53Z</time>
      </trkpt>
      <trkpt lat="48.90631" lon="1.71757">
        <ele>137.125</ele>
        <time>2016-06-10T17:05:05Z</time>
      </trkpt>
      <trkpt lat="48.90619" lon="1.71734">
        <ele>137.606</ele>
        <time>2016-06-10T17:05:18Z</time>
      </trkpt>
      <trkpt lat="48.90607" lon="1.71708">
        <ele>138.087</ele>
        <time>2016-06-10T17:05:32Z</time>
      </trkpt>
      <trkpt lat="48.90595" lon="1.71686">
        <ele>138.567</ele>
        <time>2016-06-10T17:05:44Z</time>
      </trkpt>
      <trkpt lat="48.90586" lon="1.71667">
        <ele>138.087</ele>
        <time>2016-06-10T17:05:55Z</time>
      </trkpt>
      <trkpt lat="48.90577" lon="1.71648">
        <ele>138.087</ele>
        <time>2016-06-10T17:06:05Z</time>
      </trkpt>
      <trkpt lat="48.90567" lon="1.71629">
        <ele>138.567</ele>
        <time>2016-06-10T17:06:16Z</time>
      </trkpt>
      <trkpt lat="48.90561" lon="1.71617">
        <ele>138.567</ele>
        <time>2016-06-10T17:06:23Z</time>
      </trkpt>
      <trkpt lat="48.90553" lon="1.71601">
        <ele>138.567</ele>
        <time>2016-06-10T17:06:31Z</time>
      </trkpt>
      <trkpt lat="48.90542" lon="1.71578">
        <ele>139.048</ele>
        <time>2016-06-10T17:06:41Z</time>
      </trkpt>
      <trkpt lat="48.90535" lon="1.71565">
        <ele>138.567</ele>
        <time>2016-06-10T17:06:49Z</time>
      </trkpt>
      <trkpt lat="48.90527" lon="1.71553">
        <ele>139.528</ele>
        <time>2016-06-10T17:06:57Z</time>
      </trkpt>
      <trkpt lat="48.90521" lon="1.71543">
        <ele>140.49</ele>
        <time>2016-06-10T17:07:04Z</time>
      </trkpt>
      <trkpt lat="48.90513" lon="1.71521">
        <ele>140.49</ele>
        <time>2016-06-10T17:07:15Z</time>
      </trkpt>
      <trkpt lat="48.90504" lon="1.71501">
        <ele>140.49</ele>
        <time>2016-06-10T17:07:25Z</time>
      </trkpt>
      <trkpt lat="48.90501" lon="1.71497">
        <ele>140.97</ele>
        <time>2016-06-10T17:07:28Z</time>
      </trkpt>
      <trkpt lat="48.90487" lon="1.7149">
        <ele>141.932</ele>
        <time>2016-06-10T17:07:36Z</time>
      </trkpt>
      <trkpt lat="48.90472" lon="1.71476">
        <ele>143.374</ele>
        <time>2016-06-10T17:07:47Z</time>
      </trkpt>
      <trkpt lat="48.90459" lon="1.71466">
        <ele>145.296</ele>
        <time>2016-06-10T17:07:53Z</time>
      </trkpt>
      <trkpt lat="48.90435" lon="1.71445">
        <ele>145.777</ele>
        <time>2016-06-10T17:08:00Z</time>
      </trkpt>
      <trkpt lat="48.90407" lon="1.71422">
        <ele>146.738</ele>
        <time>2016-06-10T17:08:06Z</time>
      </trkpt>
      <trkpt lat="48.90378" lon="1.71396">
        <ele>145.777</ele>
        <time>2016-06-10T17:08:13Z</time>
      </trkpt>
      <trkpt lat="48.90357" lon="1.71378">
        <ele>144.816</ele>
        <time>2016-06-10T17:08:20Z</time>
      </trkpt>
      <trkpt lat="48.90347" lon="1.71369">
        <ele>144.816</ele>
        <time>2016-06-10T17:08:26Z</time>
      </trkpt>
      <trkpt lat="48.90332" lon="1.71358">
        <ele>144.816</ele>
        <time>2016-06-10T17:08:32Z</time>
      </trkpt>
      <trkpt lat="48.90307" lon="1.71335">
        <ele>146.258</ele>
        <time>2016-06-10T17:08:40Z</time>
      </trkpt>
      <trkpt lat="48.90281" lon="1.71311">
        <ele>147.7</ele>
        <time>2016-06-10T17:08:46Z</time>
      </trkpt>
      <trkpt lat="48.90246" lon="1.7128">
        <ele>149.142</ele>
        <time>2016-06-10T17:08:52Z</time>
      </trkpt>
      <trkpt lat="48.90198" lon="1.71235">
        <ele>150.103</ele>
        <time>2016-06-10T17:09:00Z</time>
      </trkpt>
      <trkpt lat="48.90147" lon="1.71184">
        <ele>151.064</ele>
        <time>2016-06-10T17:09:09Z</time>
      </trkpt>
      <trkpt lat="48.9011" lon="1.71147">
        <ele>152.506</ele>
        <time>2016-06-10T17:09:16Z</time>
      </trkpt>
      <trkpt lat="48.9011" lon="1.71147">
        <ele>152.506</ele>
        <time>2016-06-10T17:09:16Z</time>
      </trkpt>
      <trkpt lat="48.90105" lon="1.71142">
        <ele>152.987</ele>
        <time>2016-06-10T17:09:17Z</time>
      </trkpt>
      <trkpt lat="48.90085" lon="1.71121">
        <ele>153.948</ele>
        <time>2016-06-10T17:09:22Z</time>
      </trkpt>
      <trkpt lat="48.90078" lon="1.71112">
        <ele>154.91</ele>
        <time>2016-06-10T17:09:26Z</time>
      </trkpt>
      <trkpt lat="48.90078" lon="1.71111">
        <ele>154.429</ele>
        <time>2016-06-10T17:09:35Z</time>
      </trkpt>
      <trkpt lat="48.90079" lon="1.7111">
        <ele>153.948</ele>
        <time>2016-06-10T17:09:38Z</time>
      </trkpt>
      <trkpt lat="48.90084" lon="1.711">
        <ele>152.987</ele>
        <time>2016-06-10T17:09:44Z</time>
      </trkpt>
      <trkpt lat="48.90089" lon="1.71086">
        <ele>151.545</ele>
        <time>2016-06-10T17:09:52Z</time>
      </trkpt>
      <trkpt lat="48.90095" lon="1.71072">
        <ele>151.064</ele>
        <time>2016-06-10T17:10:00Z</time>
      </trkpt>
      <trkpt lat="48.90099" lon="1.71058">
        <ele>151.064</ele>
        <time>2016-06-10T17:10:07Z</time>
      </trkpt>
      <trkpt lat="48.901" lon="1.71055">
        <ele>150.103</ele>
        <time>2016-06-10T17:10:14Z</time>
      </trkpt>
      <trkpt lat="48.90104" lon="1.71042">
        <ele>150.103</ele>
        <time>2016-06-10T17:10:20Z</time>
      </trkpt>
      <trkpt lat="48.9011" lon="1.7102">
        <ele>149.622</ele>
        <time>2016-06-10T17:10:30Z</time>
      </trkpt>
      <trkpt lat="48.90115" lon="1.71002">
        <ele>149.622</ele>
        <time>2016-06-10T17:10:39Z</time>
      </trkpt>
      <trkpt lat="48.90118" lon="1.7099">
        <ele>149.622</ele>
        <time>2016-06-10T17:10:45Z</time>
      </trkpt>
      <trkpt lat="48.90122" lon="1.70974">
        <ele>149.622</ele>
        <time>2016-06-10T17:10:53Z</time>
      </trkpt>
      <trkpt lat="48.90127" lon="1.70956">
        <ele>149.622</ele>
        <time>2016-06-10T17:11:02Z</time>
      </trkpt>
      <trkpt lat="48.9013" lon="1.70939">
        <ele>149.622</ele>
        <time>2016-06-10T17:11:10Z</time>
      </trkpt>
      <trkpt lat="48.90135" lon="1.70917">
        <ele>149.622</ele>
        <time>2016-06-10T17:11:20Z</time>
      </trkpt>
      <trkpt lat="48.90139" lon="1.70887">
        <ele>150.584</ele>
        <time>2016-06-10T17:11:32Z</time>
      </trkpt>
      <trkpt lat="48.90142" lon="1.70864">
        <ele>151.545</ele>
        <time>2016-06-10T17:11:41Z</time>
      </trkpt>
      <trkpt lat="48.90143" lon="1.70848">
        <ele>151.545</ele>
        <time>2016-06-10T17:11:48Z</time>
      </trkpt>
      <trkpt lat="48.90144" lon="1.70838">
        <ele>152.026</ele>
        <time>2016-06-10T17:11:53Z</time>
      </trkpt>
      <trkpt lat="48.90145" lon="1.70825">
        <ele>152.506</ele>
        <time>2016-06-10T17:12:00Z</time>
      </trkpt>
      <trkpt lat="48.90147" lon="1.70812">
        <ele>152.987</ele>
        <time>2016-06-10T17:12:06Z</time>
      </trkpt>
      <trkpt lat="48.90148" lon="1.70796">
        <ele>151.545</ele>
        <time>2016-06-10T17:12:13Z</time>
      </trkpt>
      <trkpt lat="48.90149" lon="1.70778">
        <ele>151.545</ele>
        <time>2016-06-10T17:12:21Z</time>
      </trkpt>
      <trkpt lat="48.90151" lon="1.70758">
        <ele>151.064</ele>
        <time>2016-06-10T17:12:30Z</time>
      </trkpt>
      <trkpt lat="48.90153" lon="1.70741">
        <ele>151.064</ele>
        <time>2016-06-10T17:12:37Z</time>
      </trkpt>
      <trkpt lat="48.90154" lon="1.70721">
        <ele>151.545</ele>
        <time>2016-06-10T17:12:45Z</time>
      </trkpt>
      <trkpt lat="48.90157" lon="1.70699">
        <ele>151.545</ele>
        <time>2016-06-10T17:12:50Z</time>
      </trkpt>
      <trkpt lat="48.90163" lon="1.70671">
        <ele>152.026</ele>
        <time>2016-06-10T17:12:56Z</time>
      </trkpt>
      <trkpt lat="48.90169" lon="1.7064">
        <ele>152.987</ele>
        <time>2016-06-10T17:13:03Z</time>
      </trkpt>
      <trkpt lat="48.9017" lon="1.70635">
        <ele>153.468</ele>
        <time>2016-06-10T17:13:04Z</time>
      </trkpt>
      <trkpt lat="48.90164" lon="1.70621">
        <ele>154.91</ele>
        <time>2016-06-10T17:13:08Z</time>
      </trkpt>
      <trkpt lat="48.90145" lon="1.70605">
        <ele>157.313</ele>
        <time>2016-06-10T17:13:15Z</time>
      </trkpt>
      <trkpt lat="48.90126" lon="1.70589">
        <ele>160.197</ele>
        <time>2016-06-10T17:13:23Z</time>
      </trkpt>
      <trkpt lat="48.90112" lon="1.70576">
        <ele>162.6</ele>
        <time>2016-06-10T17:13:29Z</time>
      </trkpt>
      <trkpt lat="48.90093" lon="1.70562">
        <ele>165.003</ele>
        <time>2016-06-10T17:13:36Z</time>
      </trkpt>
      <trkpt lat="48.90073" lon="1.70547">
        <ele>168.368</ele>
        <time>2016-06-10T17:13:43Z</time>
      </trkpt>
      <trkpt lat="48.90051" lon="1.70531">
        <ele>170.291</ele>
        <time>2016-06-10T17:13:50Z</time>
      </trkpt>
      <trkpt lat="48.90025" lon="1.70514">
        <ele>171.733</ele>
        <time>2016-06-10T17:13:58Z</time>
      </trkpt>
      <trkpt lat="48.90005" lon="1.70494">
        <ele>172.694</ele>
        <time>2016-06-10T17:14:05Z</time>
      </trkpt>
      <trkpt lat="48.89998" lon="1.70483">
        <ele>174.136</ele>
        <time>2016-06-10T17:14:09Z</time>
      </trkpt>
      <trkpt lat="48.89991" lon="1.70476">
        <ele>176.059</ele>
        <time>2016-06-10T17:14:14Z</time>
      </trkpt>
      <trkpt lat="48.89983" lon="1.70471">
        <ele>176.539</ele>
        <time>2016-06-10T17:14:20Z</time>
      </trkpt>
      <trkpt lat="48.89976" lon="1.70467">
        <ele>174.617</ele>
        <time>2016-06-10T17:14:24Z</time>
      </trkpt>
      <trkpt lat="48.89966" lon="1.70457">
        <ele>174.136</ele>
        <time>2016-06-10T17:14:31Z</time>
      </trkpt>
      <trkpt lat="48.89957" lon="1.7045">
        <ele>175.097</ele>
        <time>2016-06-10T17:14:37Z</time>
      </trkpt>
      <trkpt lat="48.89946" lon="1.70441">
        <ele>175.097</ele>
        <time>2016-06-10T17:14:45Z</time>
      </trkpt>
      <trkpt lat="48.89935" lon="1.70436">
        <ele>168.849</ele>
        <time>2016-06-10T17:14:52Z</time>
      </trkpt>
      <trkpt lat="48.89924" lon="1.7043">
        <ele>169.81</ele>
        <time>2016-06-10T17:14:59Z</time>
      </trkpt>
      <trkpt lat="48.89916" lon="1.70422">
        <ele>168.368</ele>
        <time>2016-06-10T17:15:05Z</time>
      </trkpt>
      <trkpt lat="48.89909" lon="1.70414">
        <ele>167.407</ele>
        <time>2016-06-10T17:15:11Z</time>
      </trkpt>
      <trkpt lat="48.899" lon="1.70408">
        <ele>168.368</ele>
        <time>2016-06-10T17:15:17Z</time>
      </trkpt>
      <trkpt lat="48.89887" lon="1.70405">
        <ele>181.346</ele>
        <time>2016-06-10T17:15:48Z</time>
      </trkpt>
      <trkpt lat="48.89884" lon="1.70402">
        <ele>182.788</ele>
        <time>2016-06-10T17:15:53Z</time>
      </trkpt>
      <trkpt lat="48.8988" lon="1.70401">
        <ele>181.826</ele>
        <time>2016-06-10T17:15:56Z</time>
      </trkpt>
      <trkpt lat="48.89872" lon="1.70393">
        <ele>181.346</ele>
        <time>2016-06-10T17:16:03Z</time>
      </trkpt>
      <trkpt lat="48.89863" lon="1.70387">
        <ele>181.346</ele>
        <time>2016-06-10T17:16:09Z</time>
      </trkpt>
      <trkpt lat="48.89854" lon="1.70379">
        <ele>180.865</ele>
        <time>2016-06-10T17:16:16Z</time>
      </trkpt>
      <trkpt lat="48.89846" lon="1.7037">
        <ele>183.268</ele>
        <time>2016-06-10T17:16:23Z</time>
      </trkpt>
      <trkpt lat="48.89841" lon="1.70368">
        <ele>186.633</ele>
        <time>2016-06-10T17:16:29Z</time>
      </trkpt>
      <trkpt lat="48.89838" lon="1.70361">
        <ele>189.036</ele>
        <time>2016-06-10T17:16:38Z</time>
      </trkpt>
      <trkpt lat="48.89837" lon="1.70355">
        <ele>187.114</ele>
        <time>2016-06-10T17:16:42Z</time>
      </trkpt>
      <trkpt lat="48.89834" lon="1.70346">
        <ele>185.672</ele>
        <time>2016-06-10T17:16:52Z</time>
      </trkpt>
      <trkpt lat="48.89829" lon="1.70336">
        <ele>184.711</ele>
        <time>2016-06-10T17:17:13Z</time>
      </trkpt>
      <trkpt lat="48.89828" lon="1.70332">
        <ele>184.711</ele>
        <time>2016-06-10T17:17:16Z</time>
      </trkpt>
      <trkpt lat="48.89823" lon="1.70326">
        <ele>186.152</ele>
        <time>2016-06-10T17:17:24Z</time>
      </trkpt>
      <trkpt lat="48.89819" lon="1.70319">
        <ele>186.633</ele>
        <time>2016-06-10T17:17:30Z</time>
      </trkpt>
      <trkpt lat="48.89818" lon="1.70317">
        <ele>186.633</ele>
        <time>2016-06-10T17:17:31Z</time>
      </trkpt>
      <trkpt lat="48.89815" lon="1.7031">
        <ele>181.346</ele>
        <time>2016-06-10T17:17:36Z</time>
      </trkpt>
      <trkpt lat="48.89808" lon="1.70301">
        <ele>183.268</ele>
        <time>2016-06-10T17:17:42Z</time>
      </trkpt>
      <trkpt lat="48.89808" lon="1.703">
        <ele>183.749</ele>
        <time>2016-06-10T17:17:43Z</time>
      </trkpt>
      <trkpt lat="48.89802" lon="1.70291">
        <ele>185.672</ele>
        <time>2016-06-10T17:17:50Z</time>
      </trkpt>
      <trkpt lat="48.898" lon="1.70286">
        <ele>183.268</ele>
        <time>2016-06-10T17:17:53Z</time>
      </trkpt>
      <trkpt lat="48.89794" lon="1.70276">
        <ele>178.462</ele>
        <time>2016-06-10T17:18:00Z</time>
      </trkpt>
      <trkpt lat="48.89792" lon="1.70267">
        <ele>171.733</ele>
        <time>2016-06-10T17:18:04Z</time>
      </trkpt>
      <trkpt lat="48.89788" lon="1.70258">
        <ele>168.368</ele>
        <time>2016-06-10T17:18:09Z</time>
      </trkpt>
      <trkpt lat="48.89784" lon="1.70251">
        <ele>171.733</ele>
        <time>2016-06-10T17:18:13Z</time>
      </trkpt>
      <trkpt lat="48.8978" lon="1.70241">
        <ele>166.445</ele>
        <time>2016-06-10T17:18:19Z</time>
      </trkpt>
      <trkpt lat="48.89774" lon="1.70233">
        <ele>169.329</ele>
        <time>2016-06-10T17:18:26Z</time>
      </trkpt>
      <trkpt lat="48.89774" lon="1.70233">
        <ele>169.81</ele>
        <time>2016-06-10T17:18:27Z</time>
      </trkpt>
      <trkpt lat="48.89772" lon="1.7023">
        <ele>169.81</ele>
        <time>2016-06-10T17:18:34Z</time>
      </trkpt>
      <trkpt lat="48.8977" lon="1.70227">
        <ele>170.291</ele>
        <time>2016-06-10T17:18:41Z</time>
      </trkpt>
      <trkpt lat="48.89765" lon="1.70221">
        <ele>169.81</ele>
        <time>2016-06-10T17:18:54Z</time>
      </trkpt>
      <trkpt lat="48.8976" lon="1.70216">
        <ele>168.368</ele>
        <time>2016-06-10T17:18:58Z</time>
      </trkpt>
      <trkpt lat="48.89756" lon="1.70205">
        <ele>165.484</ele>
        <time>2016-06-10T17:19:05Z</time>
      </trkpt>
      <trkpt lat="48.89755" lon="1.70203">
        <ele>165.965</ele>
        <time>2016-06-10T17:19:06Z</time>
      </trkpt>
      <trkpt lat="48.89754" lon="1.702">
        <ele>164.523</ele>
        <time>2016-06-10T17:19:08Z</time>
      </trkpt>
      <trkpt lat="48.89747" lon="1.70191">
        <ele>165.003</ele>
        <time>2016-06-10T17:19:15Z</time>
      </trkpt>
      <trkpt lat="48.89745" lon="1.70186">
        <ele>165.965</ele>
        <time>2016-06-10T17:19:18Z</time>
      </trkpt>
      <trkpt lat="48.89745" lon="1.70186">
        <ele>165.965</ele>
        <time>2016-06-10T17:19:18Z</time>
      </trkpt>
      <trkpt lat="48.89743" lon="1.70184">
        <ele>166.445</ele>
        <time>2016-06-10T17:19:20Z</time>
      </trkpt>
      <trkpt lat="48.89741" lon="1.70182">
        <ele>165.965</ele>
        <time>2016-06-10T17:19:22Z</time>
      </trkpt>
      <trkpt lat="48.89736" lon="1.70178">
        <ele>166.926</ele>
        <time>2016-06-10T17:19:26Z</time>
      </trkpt>
      <trkpt lat="48.89732" lon="1.70166">
        <ele>167.887</ele>
        <time>2016-06-10T17:19:32Z</time>
      </trkpt>
      <trkpt lat="48.89732" lon="1.70165">
        <ele>166.926</ele>
        <time>2016-06-10T17:19:33Z</time>
      </trkpt>
      <trkpt lat="48.89731" lon="1.70165">
        <ele>169.81</ele>
        <time>2016-06-10T17:19:36Z</time>
      </trkpt>
      <trkpt lat="48.89728" lon="1.70159">
        <ele>166.926</ele>
        <time>2016-06-10T17:19:42Z</time>
      </trkpt>
      <trkpt lat="48.89729" lon="1.70154">
        <ele>168.849</ele>
        <time>2016-06-10T17:19:57Z</time>
      </trkpt>
      <trkpt lat="48.8973" lon="1.70152">
        <ele>170.771</ele>
        <time>2016-06-10T17:20:02Z</time>
      </trkpt>
      <trkpt lat="48.89731" lon="1.70147">
        <ele>167.887</ele>
        <time>2016-06-10T17:20:20Z</time>
      </trkpt>
      <trkpt lat="48.89733" lon="1.70136">
        <ele>166.926</ele>
        <time>2016-06-10T17:20:27Z</time>
      </trkpt>
      <trkpt lat="48.89733" lon="1.70132">
        <ele>165.965</ele>
        <time>2016-06-10T17:20:29Z</time>
      </trkpt>
      <trkpt lat="48.89737" lon="1.70131">
        <ele>164.042</ele>
        <time>2016-06-10T17:20:41Z</time>
      </trkpt>
      <trkpt lat="48.89736" lon="1.70131">
        <ele>162.12</ele>
        <time>2016-06-10T17:20:43Z</time>
      </trkpt>
      <trkpt lat="48.89735" lon="1.70121">
        <ele>162.6</ele>
        <time>2016-06-10T17:20:51Z</time>
      </trkpt>
      <trkpt lat="48.89732" lon="1.70112">
        <ele>163.081</ele>
        <time>2016-06-10T17:20:57Z</time>
      </trkpt>
      <trkpt lat="48.89729" lon="1.70103">
        <ele>164.523</ele>
        <time>2016-06-10T17:21:02Z</time>
      </trkpt>
      <trkpt lat="48.89726" lon="1.70088">
        <ele>165.965</ele>
        <time>2016-06-10T17:21:09Z</time>
      </trkpt>
      <trkpt lat="48.89726" lon="1.70083">
        <ele>165.484</ele>
        <time>2016-06-10T17:21:12Z</time>
      </trkpt>
      <trkpt lat="48.89724" lon="1.70077">
        <ele>164.042</ele>
        <time>2016-06-10T17:21:18Z</time>
      </trkpt>
      <trkpt lat="48.89721" lon="1.70065">
        <ele>161.639</ele>
        <time>2016-06-10T17:21:25Z</time>
      </trkpt>
      <trkpt lat="48.89719" lon="1.70052">
        <ele>165.965</ele>
        <time>2016-06-10T17:21:32Z</time>
      </trkpt>
      <trkpt lat="48.89719" lon="1.7005">
        <ele>165.003</ele>
        <time>2016-06-10T17:21:33Z</time>
      </trkpt>
      <trkpt lat="48.89719" lon="1.70043">
        <ele>162.12</ele>
        <time>2016-06-10T17:21:37Z</time>
      </trkpt>
      <trkpt lat="48.89717" lon="1.70034">
        <ele>158.274</ele>
        <time>2016-06-10T17:21:41Z</time>
      </trkpt>
      <trkpt lat="48.89714" lon="1.70019">
        <ele>157.794</ele>
        <time>2016-06-10T17:21:49Z</time>
      </trkpt>
      <trkpt lat="48.89712" lon="1.70004">
        <ele>159.235</ele>
        <time>2016-06-10T17:21:55Z</time>
      </trkpt>
      <trkpt lat="48.8971" lon="1.69996">
        <ele>166.926</ele>
        <time>2016-06-10T17:22:00Z</time>
      </trkpt>
      <trkpt lat="48.8971" lon="1.69991">
        <ele>168.368</ele>
        <time>2016-06-10T17:22:02Z</time>
      </trkpt>
      <trkpt lat="48.8971" lon="1.69989">
        <ele>172.213</ele>
        <time>2016-06-10T17:22:04Z</time>
      </trkpt>
      <trkpt lat="48.89703" lon="1.69977">
        <ele>173.175</ele>
        <time>2016-06-10T17:22:12Z</time>
      </trkpt>
      <trkpt lat="48.897" lon="1.69962">
        <ele>166.445</ele>
        <time>2016-06-10T17:22:20Z</time>
      </trkpt>
      <trkpt lat="48.89697" lon="1.69945">
        <ele>157.794</ele>
        <time>2016-06-10T17:22:27Z</time>
      </trkpt>
      <trkpt lat="48.89694" lon="1.69934">
        <ele>160.677</ele>
        <time>2016-06-10T17:22:34Z</time>
      </trkpt>
      <trkpt lat="48.8969" lon="1.69919">
        <ele>164.523</ele>
        <time>2016-06-10T17:22:43Z</time>
      </trkpt>
      <trkpt lat="48.89689" lon="1.69917">
        <ele>164.523</ele>
        <time>2016-06-10T17:22:45Z</time>
      </trkpt>
      <trkpt lat="48.89689" lon="1.69904">
        <ele>159.716</ele>
        <time>2016-06-10T17:22:52Z</time>
      </trkpt>
      <trkpt lat="48.89685" lon="1.69895">
        <ele>159.235</ele>
        <time>2016-06-10T17:22:58Z</time>
      </trkpt>
      <trkpt lat="48.89685" lon="1.69893">
        <ele>158.274</ele>
        <time>2016-06-10T17:22:59Z</time>
      </trkpt>
      <trkpt lat="48.89682" lon="1.69885">
        <ele>157.794</ele>
        <time>2016-06-10T17:23:04Z</time>
      </trkpt>
      <trkpt lat="48.89677" lon="1.69874">
        <ele>159.235</ele>
        <time>2016-06-10T17:23:09Z</time>
      </trkpt>
      <trkpt lat="48.89676" lon="1.69863">
        <ele>159.235</ele>
        <time>2016-06-10T17:23:14Z</time>
      </trkpt>
      <trkpt lat="48.89674" lon="1.69858">
        <ele>161.639</ele>
        <time>2016-06-10T17:23:18Z</time>
      </trkpt>
      <trkpt lat="48.89673" lon="1.69851">
        <ele>165.003</ele>
        <time>2016-06-10T17:23:22Z</time>
      </trkpt>
      <trkpt lat="48.8967" lon="1.69834">
        <ele>150.584</ele>
        <time>2016-06-10T17:23:30Z</time>
      </trkpt>
      <trkpt lat="48.8967" lon="1.69833">
        <ele>151.545</ele>
        <time>2016-06-10T17:23:31Z</time>
      </trkpt>
      <trkpt lat="48.8967" lon="1.69828">
        <ele>152.026</ele>
        <time>2016-06-10T17:23:34Z</time>
      </trkpt>
      <trkpt lat="48.89668" lon="1.69818">
        <ele>149.622</ele>
        <time>2016-06-10T17:23:38Z</time>
      </trkpt>
      <trkpt lat="48.89665" lon="1.69806">
        <ele>150.584</ele>
        <time>2016-06-10T17:23:45Z</time>
      </trkpt>
      <trkpt lat="48.89665" lon="1.69804">
        <ele>151.064</ele>
        <time>2016-06-10T17:23:46Z</time>
      </trkpt>
      <trkpt lat="48.89663" lon="1.69798">
        <ele>150.103</ele>
        <time>2016-06-10T17:23:49Z</time>
      </trkpt>
      <trkpt lat="48.89661" lon="1.69787">
        <ele>147.7</ele>
        <time>2016-06-10T17:23:54Z</time>
      </trkpt>
      <trkpt lat="48.89659" lon="1.69776">
        <ele>149.142</ele>
        <time>2016-06-10T17:23:59Z</time>
      </trkpt>
      <trkpt lat="48.89655" lon="1.69766">
        <ele>151.545</ele>
        <time>2016-06-10T17:24:06Z</time>
      </trkpt>
      <trkpt lat="48.89652" lon="1.69752">
        <ele>150.103</ele>
        <time>2016-06-10T17:24:12Z</time>
      </trkpt>
      <trkpt lat="48.89652" lon="1.6975">
        <ele>150.103</ele>
        <time>2016-06-10T17:24:13Z</time>
      </trkpt>
      <trkpt lat="48.89649" lon="1.69738">
        <ele>149.622</ele>
        <time>2016-06-10T17:24:19Z</time>
      </trkpt>
      <trkpt lat="48.89648" lon="1.69733">
        <ele>149.622</ele>
        <time>2016-06-10T17:24:21Z</time>
      </trkpt>
      <trkpt lat="48.89646" lon="1.69725">
        <ele>149.142</ele>
        <time>2016-06-10T17:24:27Z</time>
      </trkpt>
      <trkpt lat="48.89641" lon="1.69712">
        <ele>147.219</ele>
        <time>2016-06-10T17:24:34Z</time>
      </trkpt>
      <trkpt lat="48.89639" lon="1.69707">
        <ele>148.661</ele>
        <time>2016-06-10T17:24:38Z</time>
      </trkpt>
      <trkpt lat="48.89636" lon="1.697">
        <ele>147.219</ele>
        <time>2016-06-10T17:24:41Z</time>
      </trkpt>
      <trkpt lat="48.89633" lon="1.6969">
        <ele>148.661</ele>
        <time>2016-06-10T17:24:47Z</time>
      </trkpt>
      <trkpt lat="48.89632" lon="1.69688">
        <ele>149.142</ele>
        <time>2016-06-10T17:24:48Z</time>
      </trkpt>
      <trkpt lat="48.89629" lon="1.69679">
        <ele>147.7</ele>
        <time>2016-06-10T17:24:53Z</time>
      </trkpt>
      <trkpt lat="48.89625" lon="1.69669">
        <ele>148.661</ele>
        <time>2016-06-10T17:24:59Z</time>
      </trkpt>
      <trkpt lat="48.89625" lon="1.69668">
        <ele>148.661</ele>
        <time>2016-06-10T17:25:00Z</time>
      </trkpt>
      <trkpt lat="48.89622" lon="1.69663">
        <ele>150.103</ele>
        <time>2016-06-10T17:25:04Z</time>
      </trkpt>
      <trkpt lat="48.89619" lon="1.69659">
        <ele>148.661</ele>
        <time>2016-06-10T17:25:06Z</time>
      </trkpt>
      <trkpt lat="48.89616" lon="1.69652">
        <ele>147.7</ele>
        <time>2016-06-10T17:25:11Z</time>
      </trkpt>
      <trkpt lat="48.89609" lon="1.69642">
        <ele>147.219</ele>
        <time>2016-06-10T17:25:17Z</time>
      </trkpt>
      <trkpt lat="48.89604" lon="1.69633">
        <ele>147.7</ele>
        <time>2016-06-10T17:25:22Z</time>
      </trkpt>
      <trkpt lat="48.896" lon="1.69623">
        <ele>149.142</ele>
        <time>2016-06-10T17:25:27Z</time>
      </trkpt>
      <trkpt lat="48.89594" lon="1.69612">
        <ele>147.7</ele>
        <time>2016-06-10T17:25:34Z</time>
      </trkpt>
      <trkpt lat="48.89593" lon="1.69611">
        <ele>147.7</ele>
        <time>2016-06-10T17:25:35Z</time>
      </trkpt>
      <trkpt lat="48.89589" lon="1.69604">
        <ele>143.854</ele>
        <time>2016-06-10T17:25:40Z</time>
      </trkpt>
      <trkpt lat="48.89586" lon="1.696">
        <ele>142.412</ele>
        <time>2016-06-10T17:25:43Z</time>
      </trkpt>
      <trkpt lat="48.8958" lon="1.69594">
        <ele>142.412</ele>
        <time>2016-06-10T17:25:49Z</time>
      </trkpt>
      <trkpt lat="48.89578" lon="1.69592">
        <ele>142.412</ele>
        <time>2016-06-10T17:25:51Z</time>
      </trkpt>
      <trkpt lat="48.89573" lon="1.69583">
        <ele>143.854</ele>
        <time>2016-06-10T17:25:57Z</time>
      </trkpt>
      <trkpt lat="48.8957" lon="1.69575">
        <ele>145.296</ele>
        <time>2016-06-10T17:26:02Z</time>
      </trkpt>
      <trkpt lat="48.89566" lon="1.6957">
        <ele>147.219</ele>
        <time>2016-06-10T17:26:06Z</time>
      </trkpt>
      <trkpt lat="48.89558" lon="1.69563">
        <ele>144.816</ele>
        <time>2016-06-10T17:26:13Z</time>
      </trkpt>
      <trkpt lat="48.89552" lon="1.69555">
        <ele>141.451</ele>
        <time>2016-06-10T17:26:19Z</time>
      </trkpt>
      <trkpt lat="48.89547" lon="1.69546">
        <ele>142.412</ele>
        <time>2016-06-10T17:26:25Z</time>
      </trkpt>
      <trkpt lat="48.8954" lon="1.69538">
        <ele>142.893</ele>
        <time>2016-06-10T17:26:30Z</time>
      </trkpt>
      <trkpt lat="48.89533" lon="1.69532">
        <ele>140.009</ele>
        <time>2016-06-10T17:26:36Z</time>
      </trkpt>
      <trkpt lat="48.89526" lon="1.69522">
        <ele>140.97</ele>
        <time>2016-06-10T17:26:42Z</time>
      </trkpt>
      <trkpt lat="48.89522" lon="1.69515">
        <ele>143.374</ele>
        <time>2016-06-10T17:26:46Z</time>
      </trkpt>
      <trkpt lat="48.89517" lon="1.6951">
        <ele>142.412</ele>
        <time>2016-06-10T17:26:51Z</time>
      </trkpt>
      <trkpt lat="48.8951" lon="1.69501">
        <ele>142.412</ele>
        <time>2016-06-10T17:26:57Z</time>
      </trkpt>
      <trkpt lat="48.89509" lon="1.695">
        <ele>142.412</ele>
        <time>2016-06-10T17:26:58Z</time>
      </trkpt>
      <trkpt lat="48.89504" lon="1.69492">
        <ele>142.412</ele>
        <time>2016-06-10T17:27:04Z</time>
      </trkpt>
      <trkpt lat="48.89496" lon="1.69482">
        <ele>143.854</ele>
        <time>2016-06-10T17:27:11Z</time>
      </trkpt>
      <trkpt lat="48.89493" lon="1.69479">
        <ele>143.374</ele>
        <time>2016-06-10T17:27:13Z</time>
      </trkpt>
      <trkpt lat="48.89486" lon="1.6947">
        <ele>141.451</ele>
        <time>2016-06-10T17:27:19Z</time>
      </trkpt>
      <trkpt lat="48.89483" lon="1.69465">
        <ele>140.97</ele>
        <time>2016-06-10T17:27:24Z</time>
      </trkpt>
      <trkpt lat="48.89478" lon="1.69455">
        <ele>138.567</ele>
        <time>2016-06-10T17:27:28Z</time>
      </trkpt>
      <trkpt lat="48.89475" lon="1.69449">
        <ele>136.645</ele>
        <time>2016-06-10T17:27:31Z</time>
      </trkpt>
      <trkpt lat="48.89464" lon="1.69436">
        <ele>134.241</ele>
        <time>2016-06-10T17:27:41Z</time>
      </trkpt>
      <trkpt lat="48.89457" lon="1.69427">
        <ele>133.76</ele>
        <time>2016-06-10T17:27:48Z</time>
      </trkpt>
      <trkpt lat="48.8945" lon="1.69416">
        <ele>133.76</ele>
        <time>2016-06-10T17:27:56Z</time>
      </trkpt>
      <trkpt lat="48.8944" lon="1.694">
        <ele>133.76</ele>
        <time>2016-06-10T17:28:06Z</time>
      </trkpt>
      <trkpt lat="48.8943" lon="1.69389">
        <ele>134.722</ele>
        <time>2016-06-10T17:28:15Z</time>
      </trkpt>
      <trkpt lat="48.89426" lon="1.69379">
        <ele>134.241</ele>
        <time>2016-06-10T17:28:21Z</time>
      </trkpt>
      <trkpt lat="48.89424" lon="1.69368">
        <ele>133.76</ele>
        <time>2016-06-10T17:28:28Z</time>
      </trkpt>
      <trkpt lat="48.89423" lon="1.69364">
        <ele>133.28</ele>
        <time>2016-06-10T17:28:32Z</time>
      </trkpt>
      <trkpt lat="48.89421" lon="1.69351">
        <ele>132.799</ele>
        <time>2016-06-10T17:28:40Z</time>
      </trkpt>
      <trkpt lat="48.89419" lon="1.69336">
        <ele>132.319</ele>
        <time>2016-06-10T17:28:47Z</time>
      </trkpt>
      <trkpt lat="48.89416" lon="1.69317">
        <ele>130.877</ele>
        <time>2016-06-10T17:28:57Z</time>
      </trkpt>
      <trkpt lat="48.89413" lon="1.69298">
        <ele>130.877</ele>
        <time>2016-06-10T17:29:06Z</time>
      </trkpt>
      <trkpt lat="48.89411" lon="1.69282">
        <ele>130.396</ele>
        <time>2016-06-10T17:29:14Z</time>
      </trkpt>
      <trkpt lat="48.89408" lon="1.69261">
        <ele>129.915</ele>
        <time>2016-06-10T17:29:25Z</time>
      </trkpt>
      <trkpt lat="48.89407" lon="1.69247">
        <ele>129.435</ele>
        <time>2016-06-10T17:29:32Z</time>
      </trkpt>
      <trkpt lat="48.89404" lon="1.69227">
        <ele>128.954</ele>
        <time>2016-06-10T17:29:42Z</time>
      </trkpt>
      <trkpt lat="48.89401" lon="1.69208">
        <ele>129.435</ele>
        <time>2016-06-10T17:29:51Z</time>
      </trkpt>
      <trkpt lat="48.89398" lon="1.6919">
        <ele>129.915</ele>
        <time>2016-06-10T17:30:00Z</time>
      </trkpt>
      <trkpt lat="48.89396" lon="1.69172">
        <ele>130.396</ele>
        <time>2016-06-10T17:30:09Z</time>
      </trkpt>
      <trkpt lat="48.89394" lon="1.69154">
        <ele>129.915</ele>
        <time>2016-06-10T17:30:18Z</time>
      </trkpt>
      <trkpt lat="48.89392" lon="1.69143">
        <ele>130.396</ele>
        <time>2016-06-10T17:30:24Z</time>
      </trkpt>
      <trkpt lat="48.89391" lon="1.69128">
        <ele>130.877</ele>
        <time>2016-06-10T17:30:32Z</time>
      </trkpt>
      <trkpt lat="48.89389" lon="1.69113">
        <ele>130.396</ele>
        <time>2016-06-10T17:30:40Z</time>
      </trkpt>
      <trkpt lat="48.89387" lon="1.69095">
        <ele>128.473</ele>
        <time>2016-06-10T17:30:49Z</time>
      </trkpt>
      <trkpt lat="48.89386" lon="1.69079">
        <ele>127.031</ele>
        <time>2016-06-10T17:30:57Z</time>
      </trkpt>
      <trkpt lat="48.89385" lon="1.69069">
        <ele>126.07</ele>
        <time>2016-06-10T17:31:04Z</time>
      </trkpt>
      <trkpt lat="48.89387" lon="1.69063">
        <ele>119.821</ele>
        <time>2016-06-10T17:32:39Z</time>
      </trkpt>
      <trkpt lat="48.89386" lon="1.69049">
        <ele>118.86</ele>
        <time>2016-06-10T17:32:47Z</time>
      </trkpt>
      <trkpt lat="48.89383" lon="1.69027">
        <ele>117.899</ele>
        <time>2016-06-10T17:32:58Z</time>
      </trkpt>
      <trkpt lat="48.89383" lon="1.69025">
        <ele>117.899</ele>
        <time>2016-06-10T17:32:59Z</time>
      </trkpt>
      <trkpt lat="48.89382" lon="1.69018">
        <ele>116.938</ele>
        <time>2016-06-10T17:33:03Z</time>
      </trkpt>
      <trkpt lat="48.89382" lon="1.69012">
        <ele>116.938</ele>
        <time>2016-06-10T17:33:06Z</time>
      </trkpt>
      <trkpt lat="48.89382" lon="1.69012">
        <ele>116.938</ele>
        <time>2016-06-10T17:33:06Z</time>
      </trkpt>
      <trkpt lat="48.89381" lon="1.68999">
        <ele>116.457</ele>
        <time>2016-06-10T17:33:12Z</time>
      </trkpt>
      <trkpt lat="48.89379" lon="1.68978">
        <ele>115.976</ele>
        <time>2016-06-10T17:33:23Z</time>
      </trkpt>
      <trkpt lat="48.89376" lon="1.68959">
        <ele>116.938</ele>
        <time>2016-06-10T17:33:33Z</time>
      </trkpt>
      <trkpt lat="48.89375" lon="1.68943">
        <ele>117.418</ele>
        <time>2016-06-10T17:33:42Z</time>
      </trkpt>
      <trkpt lat="48.89372" lon="1.68922">
        <ele>117.418</ele>
        <time>2016-06-10T17:33:52Z</time>
      </trkpt>
      <trkpt lat="48.89369" lon="1.68898">
        <ele>117.418</ele>
        <time>2016-06-10T17:34:05Z</time>
      </trkpt>
      <trkpt lat="48.89368" lon="1.68888">
        <ele>117.418</ele>
        <time>2016-06-10T17:34:12Z</time>
      </trkpt>
      <trkpt lat="48.89368" lon="1.68885">
        <ele>116.938</ele>
        <time>2016-06-10T17:34:17Z</time>
      </trkpt>
      <trkpt lat="48.89368" lon="1.68876">
        <ele>116.938</ele>
        <time>2016-06-10T17:34:23Z</time>
      </trkpt>
      <trkpt lat="48.89367" lon="1.68858">
        <ele>115.976</ele>
        <time>2016-06-10T17:34:32Z</time>
      </trkpt>
      <trkpt lat="48.89365" lon="1.68841">
        <ele>115.976</ele>
        <time>2016-06-10T17:34:41Z</time>
      </trkpt>
      <trkpt lat="48.89362" lon="1.68823">
        <ele>115.015</ele>
        <time>2016-06-10T17:34:50Z</time>
      </trkpt>
      <trkpt lat="48.89361" lon="1.68807">
        <ele>115.015</ele>
        <time>2016-06-10T17:34:58Z</time>
      </trkpt>
      <trkpt lat="48.89359" lon="1.68793">
        <ele>115.496</ele>
        <time>2016-06-10T17:35:06Z</time>
      </trkpt>
      <trkpt lat="48.89358" lon="1.68773">
        <ele>115.496</ele>
        <time>2016-06-10T17:35:16Z</time>
      </trkpt>
      <trkpt lat="48.89355" lon="1.68753">
        <ele>115.496</ele>
        <time>2016-06-10T17:35:26Z</time>
      </trkpt>
      <trkpt lat="48.89353" lon="1.68736">
        <ele>115.496</ele>
        <time>2016-06-10T17:35:34Z</time>
      </trkpt>
      <trkpt lat="48.89351" lon="1.68715">
        <ele>115.015</ele>
        <time>2016-06-10T17:35:44Z</time>
      </trkpt>
      <trkpt lat="48.89351" lon="1.6871">
        <ele>115.015</ele>
        <time>2016-06-10T17:35:50Z</time>
      </trkpt>
      <trkpt lat="48.89351" lon="1.68706">
        <ele>115.496</ele>
        <time>2016-06-10T17:36:09Z</time>
      </trkpt>
      <trkpt lat="48.8935" lon="1.68696">
        <ele>115.015</ele>
        <time>2016-06-10T17:36:17Z</time>
      </trkpt>
      <trkpt lat="48.8935" lon="1.68694">
        <ele>113.573</ele>
        <time>2016-06-10T17:36:24Z</time>
      </trkpt>
      <trkpt lat="48.89349" lon="1.68686">
        <ele>113.092</ele>
        <time>2016-06-10T17:36:34Z</time>
      </trkpt>
      <trkpt lat="48.89348" lon="1.68677">
        <ele>113.573</ele>
        <time>2016-06-10T17:36:40Z</time>
      </trkpt>
      <trkpt lat="48.89347" lon="1.68669">
        <ele>113.573</ele>
        <time>2016-06-10T17:36:45Z</time>
      </trkpt>
      <trkpt lat="48.89345" lon="1.68658">
        <ele>113.573</ele>
        <time>2016-06-10T17:36:53Z</time>
      </trkpt>
      <trkpt lat="48.89344" lon="1.6865">
        <ele>112.612</ele>
        <time>2016-06-10T17:36:59Z</time>
      </trkpt>
      <trkpt lat="48.89341" lon="1.68631">
        <ele>112.612</ele>
        <time>2016-06-10T17:37:10Z</time>
      </trkpt>
      <trkpt lat="48.8934" lon="1.6862">
        <ele>111.65</ele>
        <time>2016-06-10T17:37:17Z</time>
      </trkpt>
      <trkpt lat="48.89339" lon="1.68608">
        <ele>110.689</ele>
        <time>2016-06-10T17:37:25Z</time>
      </trkpt>
      <trkpt lat="48.89336" lon="1.68603">
        <ele>110.689</ele>
        <time>2016-06-10T17:37:30Z</time>
      </trkpt>
      <trkpt lat="48.89328" lon="1.68604">
        <ele>110.208</ele>
        <time>2016-06-10T17:37:37Z</time>
      </trkpt>
      <trkpt lat="48.8932" lon="1.68609">
        <ele>108.766</ele>
        <time>2016-06-10T17:37:44Z</time>
      </trkpt>
      <trkpt lat="48.89317" lon="1.68612">
        <ele>108.766</ele>
        <time>2016-06-10T17:37:47Z</time>
      </trkpt>
      <trkpt lat="48.89315" lon="1.68613">
        <ele>107.805</ele>
        <time>2016-06-10T17:37:52Z</time>
      </trkpt>
      <trkpt lat="48.89314" lon="1.68614">
        <ele>107.805</ele>
        <time>2016-06-10T17:37:54Z</time>
      </trkpt>
      <trkpt lat="48.8931" lon="1.68616">
        <ele>106.844</ele>
        <time>2016-06-10T17:37:58Z</time>
      </trkpt>
      <trkpt lat="48.89298" lon="1.68622">
        <ele>104.921</ele>
        <time>2016-06-10T17:38:10Z</time>
      </trkpt>
      <trkpt lat="48.89294" lon="1.68625">
        <ele>104.44</ele>
        <time>2016-06-10T17:38:20Z</time>
      </trkpt>
      <trkpt lat="48.89282" lon="1.68631">
        <ele>103.479</ele>
        <time>2016-06-10T17:38:31Z</time>
      </trkpt>
      <trkpt lat="48.89272" lon="1.68632">
        <ele>103.96</ele>
        <time>2016-06-10T17:38:39Z</time>
      </trkpt>
      <trkpt lat="48.89265" lon="1.68626">
        <ele>105.402</ele>
        <time>2016-06-10T17:38:47Z</time>
      </trkpt>
      <trkpt lat="48.89261" lon="1.68607">
        <ele>104.921</ele>
        <time>2016-06-10T17:38:59Z</time>
      </trkpt>
      <trkpt lat="48.89258" lon="1.6859">
        <ele>103.96</ele>
        <time>2016-06-10T17:39:09Z</time>
      </trkpt>
      <trkpt lat="48.89255" lon="1.68574">
        <ele>103.96</ele>
        <time>2016-06-10T17:39:18Z</time>
      </trkpt>
      <trkpt lat="48.89252" lon="1.68557">
        <ele>102.998</ele>
        <time>2016-06-10T17:39:27Z</time>
      </trkpt>
      <trkpt lat="48.8925" lon="1.68539">
        <ele>103.479</ele>
        <time>2016-06-10T17:39:36Z</time>
      </trkpt>
      <trkpt lat="48.89246" lon="1.68522">
        <ele>102.518</ele>
        <time>2016-06-10T17:39:45Z</time>
      </trkpt>
      <trkpt lat="48.89241" lon="1.68503">
        <ele>102.037</ele>
        <time>2016-06-10T17:39:56Z</time>
      </trkpt>
      <trkpt lat="48.8924" lon="1.68501">
        <ele>101.556</ele>
        <time>2016-06-10T17:39:57Z</time>
      </trkpt>
      <trkpt lat="48.89229" lon="1.685">
        <ele>99.6338</ele>
        <time>2016-06-10T17:40:06Z</time>
      </trkpt>
      <trkpt lat="48.8922" lon="1.685">
        <ele>98.6725</ele>
        <time>2016-06-10T17:40:13Z</time>
      </trkpt>
      <trkpt lat="48.89205" lon="1.68502">
        <ele>97.2305</ele>
        <time>2016-06-10T17:40:25Z</time>
      </trkpt>
      <trkpt lat="48.8919" lon="1.68505">
        <ele>98.1919</ele>
        <time>2016-06-10T17:40:36Z</time>
      </trkpt>
      <trkpt lat="48.89188" lon="1.68507">
        <ele>98.6725</ele>
        <time>2016-06-10T17:40:38Z</time>
      </trkpt>
      <trkpt lat="48.89175" lon="1.68509">
        <ele>99.6338</ele>
        <time>2016-06-10T17:40:48Z</time>
      </trkpt>
      <trkpt lat="48.89166" lon="1.68512">
        <ele>100.595</ele>
        <time>2016-06-10T17:40:55Z</time>
      </trkpt>
      <trkpt lat="48.89154" lon="1.68514">
        <ele>102.998</ele>
        <time>2016-06-10T17:41:04Z</time>
      </trkpt>
      <trkpt lat="48.89153" lon="1.68515">
        <ele>102.998</ele>
        <time>2016-06-10T17:41:05Z</time>
      </trkpt>
      <trkpt lat="48.89146" lon="1.68516">
        <ele>102.037</ele>
        <time>2016-06-10T17:41:11Z</time>
      </trkpt>
      <trkpt lat="48.89136" lon="1.6852">
        <ele>99.6338</ele>
        <time>2016-06-10T17:41:20Z</time>
      </trkpt>
      <trkpt lat="48.89127" lon="1.68519">
        <ele>95.7885</ele>
        <time>2016-06-10T17:41:28Z</time>
      </trkpt>
      <trkpt lat="48.89115" lon="1.68518">
        <ele>93.8658</ele>
        <time>2016-06-10T17:41:38Z</time>
      </trkpt>
      <trkpt lat="48.89102" lon="1.68521">
        <ele>96.7499</ele>
        <time>2016-06-10T17:41:47Z</time>
      </trkpt>
      <trkpt lat="48.89084" lon="1.68526">
        <ele>99.1531</ele>
        <time>2016-06-10T17:41:59Z</time>
      </trkpt>
      <trkpt lat="48.89072" lon="1.68529">
        <ele>99.6338</ele>
        <time>2016-06-10T17:42:08Z</time>
      </trkpt>
      <trkpt lat="48.89063" lon="1.6853">
        <ele>99.6338</ele>
        <time>2016-06-10T17:42:14Z</time>
      </trkpt>
      <trkpt lat="48.89051" lon="1.68533">
        <ele>98.6725</ele>
        <time>2016-06-10T17:42:23Z</time>
      </trkpt>
      <trkpt lat="48.89039" lon="1.68535">
        <ele>97.7112</ele>
        <time>2016-06-10T17:42:31Z</time>
      </trkpt>
      <trkpt lat="48.89025" lon="1.68539">
        <ele>97.7112</ele>
        <time>2016-06-10T17:42:40Z</time>
      </trkpt>
      <trkpt lat="48.89017" lon="1.6854">
        <ele>98.1919</ele>
        <time>2016-06-10T17:42:46Z</time>
      </trkpt>
      <trkpt lat="48.89014" lon="1.68535">
        <ele>100.595</ele>
        <time>2016-06-10T17:42:52Z</time>
      </trkpt>
      <trkpt lat="48.89014" lon="1.68536">
        <ele>101.076</ele>
        <time>2016-06-10T17:43:00Z</time>
      </trkpt>
      <trkpt lat="48.89013" lon="1.68539">
        <ele>101.556</ele>
        <time>2016-06-10T17:43:10Z</time>
      </trkpt>
      <trkpt lat="48.89011" lon="1.68544">
        <ele>101.556</ele>
        <time>2016-06-10T17:43:14Z</time>
      </trkpt>
      <trkpt lat="48.8901" lon="1.68546">
        <ele>103.96</ele>
        <time>2016-06-10T17:43:23Z</time>
      </trkpt>
      <trkpt lat="48.89007" lon="1.68546">
        <ele>102.518</ele>
        <time>2016-06-10T17:44:50Z</time>
      </trkpt>
      <trkpt lat="48.89004" lon="1.68538">
        <ele>102.998</ele>
        <time>2016-06-10T17:44:56Z</time>
      </trkpt>
      <trkpt lat="48.88998" lon="1.68517">
        <ele>102.518</ele>
        <time>2016-06-10T17:45:07Z</time>
      </trkpt>
      <trkpt lat="48.88992" lon="1.68503">
        <ele>102.037</ele>
        <time>2016-06-10T17:45:15Z</time>
      </trkpt>
      <trkpt lat="48.88982" lon="1.68491">
        <ele>101.556</ele>
        <time>2016-06-10T17:45:24Z</time>
      </trkpt>
      <trkpt lat="48.88971" lon="1.68482">
        <ele>101.556</ele>
        <time>2016-06-10T17:45:33Z</time>
      </trkpt>
      <trkpt lat="48.88961" lon="1.68473">
        <ele>101.556</ele>
        <time>2016-06-10T17:45:42Z</time>
      </trkpt>
      <trkpt lat="48.88953" lon="1.68464">
        <ele>101.076</ele>
        <time>2016-06-10T17:45:50Z</time>
      </trkpt>
      <trkpt lat="48.88944" lon="1.68453">
        <ele>100.595</ele>
        <time>2016-06-10T17:45:59Z</time>
      </trkpt>
      <trkpt lat="48.88937" lon="1.68447">
        <ele>101.076</ele>
        <time>2016-06-10T17:46:06Z</time>
      </trkpt>
      <trkpt lat="48.88934" lon="1.68444">
        <ele>101.076</ele>
        <time>2016-06-10T17:46:12Z</time>
      </trkpt>
      <trkpt lat="48.88931" lon="1.68443">
        <ele>100.595</ele>
        <time>2016-06-10T17:46:17Z</time>
      </trkpt>
      <trkpt lat="48.88927" lon="1.68442">
        <ele>101.076</ele>
        <time>2016-06-10T17:46:25Z</time>
      </trkpt>
      <trkpt lat="48.88927" lon="1.68445">
        <ele>100.595</ele>
        <time>2016-06-10T17:46:44Z</time>
      </trkpt>
      <trkpt lat="48.88928" lon="1.68447">
        <ele>101.556</ele>
        <time>2016-06-10T17:46:51Z</time>
      </trkpt>
      <trkpt lat="48.88928" lon="1.68447">
        <ele>102.6</ele>
        <time>2016-06-10T17:46:53Z</time>
      </trkpt>
    </trkseg>
  </trk>
</gpx>